<?xml version="1.0" encoding="UTF-8"?>
<gpx creator="Garmin Connect" version="1.1"
  xsi:schemaLocation="http://www.topografix.com/GPX/1/1 http://www.topografix.com/GPX/11.xsd"
  xmlns:ns3="http://www.garmin.com/xmlschemas/TrackPointExtension/v1"
  xmlns="http://www.topografix.com/GPX/1/1"
  xmlns:xsi="http://www.w3.org/2001/XMLSchema-instance" xmlns:ns2="http://www.garmin.com/xmlschemas/GpxExtensions/v3">
  <metadata>
    <name>STUPAVA MARATÓN - MTB 42 km - zmena trate</name>
    <link href="connect.garmin.com">
      <text>Garmin Connect</text>
    </link>
    <time>2023-06-13T10:30:13.000Z</time>
  </metadata>
  <trk>
    <name>STUPAVA MARATÓN - MTB 42 km - zmena trate</name>
    <trkseg>
      <trkpt lat="48.27844999730587" lon="17.04851989634335">
        <ele>195.11</ele>
        <time>2023-06-13T10:30:13.000Z</time>
      </trkpt>
      <trkpt lat="48.27847992070019" lon="17.048719972372055">
        <ele>195.3</ele>
        <time>2023-06-13T10:30:13.003Z</time>
      </trkpt>
      <trkpt lat="48.27850992791355" lon="17.048809994012117">
        <ele>195.49</ele>
        <time>2023-06-13T10:30:13.007Z</time>
      </trkpt>
      <trkpt lat="48.27868997119367" lon="17.048939997330308">
        <ele>195.7</ele>
        <time>2023-06-13T10:30:13.015Z</time>
      </trkpt>
      <trkpt lat="48.278719978407025" lon="17.048949971795082">
        <ele>195.91</ele>
        <time>2023-06-13T10:30:13.024Z</time>
      </trkpt>
      <trkpt lat="48.278759960085154" lon="17.049059942364693">
        <ele>196.12</ele>
        <time>2023-06-13T10:30:13.034Z</time>
      </trkpt>
      <trkpt lat="48.27883992344141" lon="17.049349956214428">
        <ele>196.42</ele>
        <time>2023-06-13T10:30:13.049Z</time>
      </trkpt>
      <trkpt lat="48.278909996151924" lon="17.04960996285081">
        <ele>196.7</ele>
        <time>2023-06-13T10:30:13.067Z</time>
      </trkpt>
      <trkpt lat="48.278999933972955" lon="17.049899976700544">
        <ele>197.06</ele>
        <time>2023-06-13T10:30:13.090Z</time>
      </trkpt>
      <trkpt lat="48.27905994839966" lon="17.05014992505312">
        <ele>197.29</ele>
        <time>2023-06-13T10:30:13.116Z</time>
      </trkpt>
      <trkpt lat="48.27907998114824" lon="17.050369950011373">
        <ele>197.59</ele>
        <time>2023-06-13T10:30:13.145Z</time>
      </trkpt>
      <trkpt lat="48.27918995171785" lon="17.050609923899174">
        <ele>197.78</ele>
        <time>2023-06-13T10:30:13.178Z</time>
      </trkpt>
      <trkpt lat="48.27919992618263" lon="17.050669938325882">
        <ele>197.97</ele>
        <time>2023-06-13T10:30:13.212Z</time>
      </trkpt>
      <trkpt lat="48.27923999167979" lon="17.050949977710843">
        <ele>198.11</ele>
        <time>2023-06-13T10:30:13.250Z</time>
      </trkpt>
      <trkpt lat="48.27924996614456" lon="17.051019966602325">
        <ele>198.27</ele>
        <time>2023-06-13T10:30:13.289Z</time>
      </trkpt>
      <trkpt lat="48.27930998057127" lon="17.051359936594963">
        <ele>198.37</ele>
        <time>2023-06-13T10:30:13.332Z</time>
      </trkpt>
      <trkpt lat="48.279319955036044" lon="17.051509972661734">
        <ele>198.53</ele>
        <time>2023-06-13T10:30:13.377Z</time>
      </trkpt>
      <trkpt lat="48.27935993671417" lon="17.051879949867725">
        <ele>198.71</ele>
        <time>2023-06-13T10:30:13.427Z</time>
      </trkpt>
      <trkpt lat="48.27937996946275" lon="17.05209997482598">
        <ele>198.98</ele>
        <time>2023-06-13T10:30:13.480Z</time>
      </trkpt>
      <trkpt lat="48.27938994392753" lon="17.05229996703565">
        <ele>199.42</ele>
        <time>2023-06-13T10:30:13.536Z</time>
      </trkpt>
      <trkpt lat="48.279429925605655" lon="17.05252996645868">
        <ele>199.86</ele>
        <time>2023-06-13T10:30:13.595Z</time>
      </trkpt>
      <trkpt lat="48.279449958354235" lon="17.052759965881705">
        <ele>200.27</ele>
        <time>2023-06-13T10:30:13.657Z</time>
      </trkpt>
      <trkpt lat="48.27948994003236" lon="17.05310999415815">
        <ele>200.81</ele>
        <time>2023-06-13T10:30:13.724Z</time>
      </trkpt>
      <trkpt lat="48.27948994003236" lon="17.053189957514405">
        <ele>201.25</ele>
        <time>2023-06-13T10:30:13.792Z</time>
      </trkpt>
      <trkpt lat="48.27950997278094" lon="17.05332993529737">
        <ele>201.7</ele>
        <time>2023-06-13T10:30:13.862Z</time>
      </trkpt>
      <trkpt lat="48.279559928923845" lon="17.053639981895685">
        <ele>202.11</ele>
        <time>2023-06-13T10:30:13.936Z</time>
      </trkpt>
      <trkpt lat="48.27960996888578" lon="17.053849948570132">
        <ele>202.5</ele>
        <time>2023-06-13T10:30:14.013Z</time>
      </trkpt>
      <trkpt lat="48.27965992502868" lon="17.054239958524704">
        <ele>202.85</ele>
        <time>2023-06-13T10:30:14.096Z</time>
      </trkpt>
      <trkpt lat="48.27967995777726" lon="17.054309947416186">
        <ele>203.12</ele>
        <time>2023-06-13T10:30:14.180Z</time>
      </trkpt>
      <trkpt lat="48.27969999052584" lon="17.05437993630767">
        <ele>203.33</ele>
        <time>2023-06-13T10:30:14.265Z</time>
      </trkpt>
      <trkpt lat="48.279729997739196" lon="17.0546199940145">
        <ele>203.43</ele>
        <time>2023-06-13T10:30:14.353Z</time>
      </trkpt>
      <trkpt lat="48.27978992834687" lon="17.05500992015004">
        <ele>203.62</ele>
        <time>2023-06-13T10:30:14.446Z</time>
      </trkpt>
      <trkpt lat="48.279839968308806" lon="17.055319966748357">
        <ele>203.71</ele>
        <time>2023-06-13T10:30:14.543Z</time>
      </trkpt>
      <trkpt lat="48.279879949986935" lon="17.055639987811446">
        <ele>203.78</ele>
        <time>2023-06-13T10:30:14.645Z</time>
      </trkpt>
      <trkpt lat="48.27991993166506" lon="17.05588993616402">
        <ele>203.78</ele>
        <time>2023-06-13T10:30:14.750Z</time>
      </trkpt>
      <trkpt lat="48.27995999716222" lon="17.056179950013757">
        <ele>203.7</ele>
        <time>2023-06-13T10:30:14.859Z</time>
      </trkpt>
      <trkpt lat="48.27995999716222" lon="17.05624993890524">
        <ele>203.61</ele>
        <time>2023-06-13T10:30:14.969Z</time>
      </trkpt>
      <trkpt lat="48.27997994609177" lon="17.056459989398718">
        <ele>203.45</ele>
        <time>2023-06-13T10:30:15.082Z</time>
      </trkpt>
      <trkpt lat="48.27990995720029" lon="17.056669956073165">
        <ele>203.25</ele>
        <time>2023-06-13T10:30:15.198Z</time>
      </trkpt>
      <trkpt lat="48.27986997552216" lon="17.056689988821745">
        <ele>203.08</ele>
        <time>2023-06-13T10:30:15.315Z</time>
      </trkpt>
      <trkpt lat="48.27961994335055" lon="17.056799959391356">
        <ele>202.89</ele>
        <time>2023-06-13T10:30:15.437Z</time>
      </trkpt>
      <trkpt lat="48.27941995114088" lon="17.056879922747612">
        <ele>202.75</ele>
        <time>2023-06-13T10:30:15.563Z</time>
      </trkpt>
      <trkpt lat="48.27920998446643" lon="17.05701998434961">
        <ele>202.56</ele>
        <time>2023-06-13T10:30:15.694Z</time>
      </trkpt>
      <trkpt lat="48.279149970039725" lon="17.05706994049251">
        <ele>202.39</ele>
        <time>2023-06-13T10:30:15.826Z</time>
      </trkpt>
      <trkpt lat="48.27895995229483" lon="17.057319972664118">
        <ele>202.19</ele>
        <time>2023-06-13T10:30:15.963Z</time>
      </trkpt>
      <trkpt lat="48.278809916228056" lon="17.05753999762237">
        <ele>202.03</ele>
        <time>2023-06-13T10:30:16.104Z</time>
      </trkpt>
      <trkpt lat="48.27866993844509" lon="17.057759938761592">
        <ele>201.95</ele>
        <time>2023-06-13T10:30:16.250Z</time>
      </trkpt>
      <trkpt lat="48.2785399351269" lon="17.05798993818462">
        <ele>201.87</ele>
        <time>2023-06-13T10:30:16.400Z</time>
      </trkpt>
      <trkpt lat="48.278399957343936" lon="17.058219937607646">
        <ele>201.85</ele>
        <time>2023-06-13T10:30:16.554Z</time>
      </trkpt>
      <trkpt lat="48.27825997956097" lon="17.0584399625659">
        <ele>201.76</ele>
        <time>2023-06-13T10:30:16.712Z</time>
      </trkpt>
      <trkpt lat="48.278119917958975" lon="17.058649929240346">
        <ele>201.79</ele>
        <time>2023-06-13T10:30:16.874Z</time>
      </trkpt>
      <trkpt lat="48.27807993628085" lon="17.05871991813183">
        <ele>201.8</ele>
        <time>2023-06-13T10:30:17.037Z</time>
      </trkpt>
      <trkpt lat="48.2779199257493" lon="17.059009931981564">
        <ele>201.9</ele>
        <time>2023-06-13T10:30:17.205Z</time>
      </trkpt>
      <trkpt lat="48.27782998792827" lon="17.059249989688396">
        <ele>201.99</ele>
        <time>2023-06-13T10:30:17.377Z</time>
      </trkpt>
      <trkpt lat="48.27769998461008" lon="17.059569926932454">
        <ele>201.9</ele>
        <time>2023-06-13T10:30:17.554Z</time>
      </trkpt>
      <trkpt lat="48.27763997018337" lon="17.059739995747805">
        <ele>202.05</ele>
        <time>2023-06-13T10:30:17.733Z</time>
      </trkpt>
      <trkpt lat="48.27760996297002" lon="17.05981995910406">
        <ele>202.18</ele>
        <time>2023-06-13T10:30:17.914Z</time>
      </trkpt>
      <trkpt lat="48.27749999240041" lon="17.060059932991862">
        <ele>202.32</ele>
        <time>2023-06-13T10:30:18.098Z</time>
      </trkpt>
      <trkpt lat="48.27739999629557" lon="17.06028993241489">
        <ele>202.52</ele>
        <time>2023-06-13T10:30:18.286Z</time>
      </trkpt>
      <trkpt lat="48.27732992358506" lon="17.060449942946434">
        <ele>202.75</ele>
        <time>2023-06-13T10:30:18.477Z</time>
      </trkpt>
      <trkpt lat="48.27718994580209" lon="17.060749931260943">
        <ele>202.91</ele>
        <time>2023-06-13T10:30:18.673Z</time>
      </trkpt>
      <trkpt lat="48.277149964123964" lon="17.060819920152426">
        <ele>203.13</ele>
        <time>2023-06-13T10:30:18.870Z</time>
      </trkpt>
      <trkpt lat="48.27702993527055" lon="17.061049919575453">
        <ele>203.4</ele>
        <time>2023-06-13T10:30:19.071Z</time>
      </trkpt>
      <trkpt lat="48.27691996470094" lon="17.061289977282286">
        <ele>203.6</ele>
        <time>2023-06-13T10:30:19.276Z</time>
      </trkpt>
      <trkpt lat="48.27679993584752" lon="17.06153992563486">
        <ele>203.99</ele>
        <time>2023-06-13T10:30:19.485Z</time>
      </trkpt>
      <trkpt lat="48.27668996527791" lon="17.061779983341694">
        <ele>204.36</ele>
        <time>2023-06-13T10:30:19.698Z</time>
      </trkpt>
      <trkpt lat="48.276569936424494" lon="17.062039989978075">
        <ele>204.69</ele>
        <time>2023-06-13T10:30:19.915Z</time>
      </trkpt>
      <trkpt lat="48.27644999139011" lon="17.062279963865876">
        <ele>204.99</ele>
        <time>2023-06-13T10:30:20.136Z</time>
      </trkpt>
      <trkpt lat="48.27632996253669" lon="17.062529996037483">
        <ele>205.21</ele>
        <time>2023-06-13T10:30:20.361Z</time>
      </trkpt>
      <trkpt lat="48.2761999592185" lon="17.062789918854833">
        <ele>205.51</ele>
        <time>2023-06-13T10:30:20.590Z</time>
      </trkpt>
      <trkpt lat="48.27606995590031" lon="17.06303995102644">
        <ele>205.75</ele>
        <time>2023-06-13T10:30:20.823Z</time>
      </trkpt>
      <trkpt lat="48.27590994536877" lon="17.063269950449467">
        <ele>206.09</ele>
        <time>2023-06-13T10:30:21.061Z</time>
      </trkpt>
      <trkpt lat="48.27574993483722" lon="17.06348997540772">
        <ele>206.36</ele>
        <time>2023-06-13T10:30:21.303Z</time>
      </trkpt>
      <trkpt lat="48.27556997537613" lon="17.063669934868813">
        <ele>206.68</ele>
        <time>2023-06-13T10:30:21.550Z</time>
      </trkpt>
      <trkpt lat="48.275389932096004" lon="17.063849978148937">
        <ele>207.04</ele>
        <time>2023-06-13T10:30:21.801Z</time>
      </trkpt>
      <trkpt lat="48.27520997263491" lon="17.06402993761003">
        <ele>207.31</ele>
        <time>2023-06-13T10:30:22.056Z</time>
      </trkpt>
      <trkpt lat="48.27503998763859" lon="17.06419992260635">
        <ele>207.69</ele>
        <time>2023-06-13T10:30:22.315Z</time>
      </trkpt>
      <trkpt lat="48.27485994435847" lon="17.064379965886474">
        <ele>208.0</ele>
        <time>2023-06-13T10:30:22.579Z</time>
      </trkpt>
      <trkpt lat="48.27468995936215" lon="17.064549950882792">
        <ele>208.3</ele>
        <time>2023-06-13T10:30:22.847Z</time>
      </trkpt>
      <trkpt lat="48.27451997436583" lon="17.06471993587911">
        <ele>208.59</ele>
        <time>2023-06-13T10:30:23.119Z</time>
      </trkpt>
      <trkpt lat="48.27434998936951" lon="17.06488992087543">
        <ele>208.84</ele>
        <time>2023-06-13T10:30:23.395Z</time>
      </trkpt>
      <trkpt lat="48.27418997883797" lon="17.065049931406975">
        <ele>209.13</ele>
        <time>2023-06-13T10:30:23.675Z</time>
      </trkpt>
      <trkpt lat="48.27402996830642" lon="17.06520994193852">
        <ele>209.44</ele>
        <time>2023-06-13T10:30:23.959Z</time>
      </trkpt>
      <trkpt lat="48.27387993223965" lon="17.065369952470064">
        <ele>209.71</ele>
        <time>2023-06-13T10:30:24.246Z</time>
      </trkpt>
      <trkpt lat="48.27372997999191" lon="17.065539937466383">
        <ele>209.98</ele>
        <time>2023-06-13T10:30:24.537Z</time>
      </trkpt>
      <trkpt lat="48.27356996946037" lon="17.065689973533154">
        <ele>210.17</ele>
        <time>2023-06-13T10:30:24.832Z</time>
      </trkpt>
      <trkpt lat="48.2734199333936" lon="17.065849984064698">
        <ele>210.41</ele>
        <time>2023-06-13T10:30:25.131Z</time>
      </trkpt>
      <trkpt lat="48.27325992286205" lon="17.065999936312437">
        <ele>210.56</ele>
        <time>2023-06-13T10:30:25.433Z</time>
      </trkpt>
      <trkpt lat="48.27309999614954" lon="17.066149972379208">
        <ele>210.82</ele>
        <time>2023-06-13T10:30:25.739Z</time>
      </trkpt>
      <trkpt lat="48.27294996008277" lon="17.066289950162172">
        <ele>210.99</ele>
        <time>2023-06-13T10:30:26.049Z</time>
      </trkpt>
      <trkpt lat="48.27272993512452" lon="17.06645993515849">
        <ele>211.19</ele>
        <time>2023-06-13T10:30:26.364Z</time>
      </trkpt>
      <trkpt lat="48.27251996845007" lon="17.06664995290339">
        <ele>211.37</ele>
        <time>2023-06-13T10:30:26.683Z</time>
      </trkpt>
      <trkpt lat="48.2723699323833" lon="17.06679998897016">
        <ele>211.44</ele>
        <time>2023-06-13T10:30:27.006Z</time>
      </trkpt>
      <trkpt lat="48.27219994738698" lon="17.066999981179833">
        <ele>211.58</ele>
        <time>2023-06-13T10:30:27.333Z</time>
      </trkpt>
      <trkpt lat="48.27204999513924" lon="17.067199973389506">
        <ele>211.69</ele>
        <time>2023-06-13T10:30:27.664Z</time>
      </trkpt>
      <trkpt lat="48.27191999182105" lon="17.06739996559918">
        <ele>211.79</ele>
        <time>2023-06-13T10:30:27.999Z</time>
      </trkpt>
      <trkpt lat="48.27178998850286" lon="17.067609932273626">
        <ele>211.94</ele>
        <time>2023-06-13T10:30:28.338Z</time>
      </trkpt>
      <trkpt lat="48.271649926900864" lon="17.067799950018525">
        <ele>212.07</ele>
        <time>2023-06-13T10:30:28.681Z</time>
      </trkpt>
      <trkpt lat="48.271499974653125" lon="17.06795996055007">
        <ele>212.21</ele>
        <time>2023-06-13T10:30:29.027Z</time>
      </trkpt>
      <trkpt lat="48.271349938586354" lon="17.06810999661684">
        <ele>212.35</ele>
        <time>2023-06-13T10:30:29.377Z</time>
      </trkpt>
      <trkpt lat="48.27114994637668" lon="17.068309988826513">
        <ele>212.49</ele>
        <time>2023-06-13T10:30:29.732Z</time>
      </trkpt>
      <trkpt lat="48.27099999412894" lon="17.068469999358058">
        <ele>212.6</ele>
        <time>2023-06-13T10:30:30.091Z</time>
      </trkpt>
      <trkpt lat="48.27094995416701" lon="17.06851995550096">
        <ele>212.72</ele>
        <time>2023-06-13T10:30:30.451Z</time>
      </trkpt>
      <trkpt lat="48.27084995806217" lon="17.06862992607057">
        <ele>212.83</ele>
        <time>2023-06-13T10:30:30.813Z</time>
      </trkpt>
      <trkpt lat="48.27070998027921" lon="17.068809969350696">
        <ele>212.92</ele>
        <time>2023-06-13T10:30:31.179Z</time>
      </trkpt>
      <trkpt lat="48.27056991867721" lon="17.068999987095594">
        <ele>213.06</ele>
        <time>2023-06-13T10:30:31.549Z</time>
      </trkpt>
      <trkpt lat="48.270429940894246" lon="17.069179946556687">
        <ele>213.3</ele>
        <time>2023-06-13T10:30:31.922Z</time>
      </trkpt>
      <trkpt lat="48.27028996311128" lon="17.069369964301586">
        <ele>213.49</ele>
        <time>2023-06-13T10:30:32.299Z</time>
      </trkpt>
      <trkpt lat="48.27014998532832" lon="17.069559982046485">
        <ele>213.69</ele>
        <time>2023-06-13T10:30:32.680Z</time>
      </trkpt>
      <trkpt lat="48.27000992372632" lon="17.069749999791384">
        <ele>213.84</ele>
        <time>2023-06-13T10:30:33.065Z</time>
      </trkpt>
      <trkpt lat="48.269869945943356" lon="17.06993993371725">
        <ele>214.0</ele>
        <time>2023-06-13T10:30:33.454Z</time>
      </trkpt>
      <trkpt lat="48.26971999369562" lon="17.07012995146215">
        <ele>214.2</ele>
        <time>2023-06-13T10:30:33.846Z</time>
      </trkpt>
      <trkpt lat="48.26957993209362" lon="17.07031996920705">
        <ele>214.37</ele>
        <time>2023-06-13T10:30:34.242Z</time>
      </trkpt>
      <trkpt lat="48.269439954310656" lon="17.070509986951947">
        <ele>214.55</ele>
        <time>2023-06-13T10:30:34.642Z</time>
      </trkpt>
      <trkpt lat="48.26925999484956" lon="17.070759935304523">
        <ele>214.81</ele>
        <time>2023-06-13T10:30:35.047Z</time>
      </trkpt>
      <trkpt lat="48.26912999153137" lon="17.070959927514195">
        <ele>215.04</ele>
        <time>2023-06-13T10:30:35.456Z</time>
      </trkpt>
      <trkpt lat="48.26895992271602" lon="17.071219934150577">
        <ele>215.35</ele>
        <time>2023-06-13T10:30:35.870Z</time>
      </trkpt>
      <trkpt lat="48.26880997046828" lon="17.071449933573604">
        <ele>215.69</ele>
        <time>2023-06-13T10:30:36.288Z</time>
      </trkpt>
      <trkpt lat="48.26867996715009" lon="17.071649925783277">
        <ele>216.04</ele>
        <time>2023-06-13T10:30:36.710Z</time>
      </trkpt>
      <trkpt lat="48.2685499638319" lon="17.071859976276755">
        <ele>216.41</ele>
        <time>2023-06-13T10:30:37.135Z</time>
      </trkpt>
      <trkpt lat="48.26841996051371" lon="17.07205996848643">
        <ele>216.72</ele>
        <time>2023-06-13T10:30:37.564Z</time>
      </trkpt>
      <trkpt lat="48.268279982730746" lon="17.072269935160875">
        <ele>217.07</ele>
        <time>2023-06-13T10:30:37.997Z</time>
      </trkpt>
      <trkpt lat="48.26813992112875" lon="17.07246992737055">
        <ele>217.44</ele>
        <time>2023-06-13T10:30:38.434Z</time>
      </trkpt>
      <trkpt lat="48.26798996888101" lon="17.072659945115447">
        <ele>217.83</ele>
        <time>2023-06-13T10:30:38.875Z</time>
      </trkpt>
      <trkpt lat="48.26783993281424" lon="17.07283998839557">
        <ele>218.29</ele>
        <time>2023-06-13T10:30:39.320Z</time>
      </trkpt>
      <trkpt lat="48.2676899805665" lon="17.073019947856665">
        <ele>218.75</ele>
        <time>2023-06-13T10:30:39.769Z</time>
      </trkpt>
      <trkpt lat="48.26753994449973" lon="17.073189932852983">
        <ele>219.22</ele>
        <time>2023-06-13T10:30:40.221Z</time>
      </trkpt>
      <trkpt lat="48.26738999225199" lon="17.073349943384528">
        <ele>219.71</ele>
        <time>2023-06-13T10:30:40.677Z</time>
      </trkpt>
      <trkpt lat="48.267249930649996" lon="17.073529986664653">
        <ele>220.18</ele>
        <time>2023-06-13T10:30:41.137Z</time>
      </trkpt>
      <trkpt lat="48.267139960080385" lon="17.073749927803874">
        <ele>220.67</ele>
        <time>2023-06-13T10:30:41.600Z</time>
      </trkpt>
      <trkpt lat="48.26703996397555" lon="17.073989985510707">
        <ele>221.18</ele>
        <time>2023-06-13T10:30:42.067Z</time>
      </trkpt>
      <trkpt lat="48.266969975084066" lon="17.074249992147088">
        <ele>221.68</ele>
        <time>2023-06-13T10:30:42.538Z</time>
      </trkpt>
      <trkpt lat="48.26688992790878" lon="17.074499940499663">
        <ele>222.19</ele>
        <time>2023-06-13T10:30:43.013Z</time>
      </trkpt>
      <trkpt lat="48.26680996455252" lon="17.07474997267127">
        <ele>222.67</ele>
        <time>2023-06-13T10:30:43.491Z</time>
      </trkpt>
      <trkpt lat="48.26667996123433" lon="17.07504996098578">
        <ele>223.2</ele>
        <time>2023-06-13T10:30:43.974Z</time>
      </trkpt>
      <trkpt lat="48.266579965129495" lon="17.075269985944033">
        <ele>223.71</ele>
        <time>2023-06-13T10:30:44.461Z</time>
      </trkpt>
      <trkpt lat="48.266429929062724" lon="17.075559999793768">
        <ele>224.24</ele>
        <time>2023-06-13T10:30:44.953Z</time>
      </trkpt>
      <trkpt lat="48.26631995849311" lon="17.07577994093299">
        <ele>224.75</ele>
        <time>2023-06-13T10:30:45.448Z</time>
      </trkpt>
      <trkpt lat="48.26623999513686" lon="17.075919918715954">
        <ele>225.26</ele>
        <time>2023-06-13T10:30:45.946Z</time>
      </trkpt>
      <trkpt lat="48.26606992632151" lon="17.076259972527623">
        <ele>225.79</ele>
        <time>2023-06-13T10:30:46.449Z</time>
      </trkpt>
      <trkpt lat="48.265959955751896" lon="17.076539928093553">
        <ele>226.34</ele>
        <time>2023-06-13T10:30:46.957Z</time>
      </trkpt>
      <trkpt lat="48.26583992689848" lon="17.076849974691868">
        <ele>226.87</ele>
        <time>2023-06-13T10:30:47.470Z</time>
      </trkpt>
      <trkpt lat="48.265719981864095" lon="17.07715993747115">
        <ele>227.36</ele>
        <time>2023-06-13T10:30:47.987Z</time>
      </trkpt>
      <trkpt lat="48.26563993468881" lon="17.077399995177984">
        <ele>227.83</ele>
        <time>2023-06-13T10:30:48.508Z</time>
      </trkpt>
      <trkpt lat="48.26553993858397" lon="17.077729990705848">
        <ele>228.32</ele>
        <time>2023-06-13T10:30:49.034Z</time>
      </trkpt>
      <trkpt lat="48.26548998244107" lon="17.07788991741836">
        <ele>228.76</ele>
        <time>2023-06-13T10:30:49.562Z</time>
      </trkpt>
      <trkpt lat="48.265419993549585" lon="17.078239945694804">
        <ele>229.13</ele>
        <time>2023-06-13T10:30:50.095Z</time>
      </trkpt>
      <trkpt lat="48.26536995358765" lon="17.078499952331185">
        <ele>229.49</ele>
        <time>2023-06-13T10:30:50.632Z</time>
      </trkpt>
      <trkpt lat="48.2653399463743" lon="17.078669937327504">
        <ele>229.85</ele>
        <time>2023-06-13T10:30:51.171Z</time>
      </trkpt>
      <trkpt lat="48.26531999744475" lon="17.078759958967566">
        <ele>230.17</ele>
        <time>2023-06-13T10:30:51.711Z</time>
      </trkpt>
      <trkpt lat="48.26525998301804" lon="17.07910998724401">
        <ele>230.5</ele>
        <time>2023-06-13T10:30:52.256Z</time>
      </trkpt>
      <trkpt lat="48.26521991752088" lon="17.079269997775555">
        <ele>230.78</ele>
        <time>2023-06-13T10:30:52.803Z</time>
      </trkpt>
      <trkpt lat="48.265079939737916" lon="17.079659923911095">
        <ele>231.06</ele>
        <time>2023-06-13T10:30:53.356Z</time>
      </trkpt>
      <trkpt lat="48.264969969168305" lon="17.07996997050941">
        <ele>231.26</ele>
        <time>2023-06-13T10:30:53.914Z</time>
      </trkpt>
      <trkpt lat="48.2649099547416" lon="17.08020994439721">
        <ele>231.38</ele>
        <time>2023-06-13T10:30:54.475Z</time>
      </trkpt>
      <trkpt lat="48.26480995863676" lon="17.080609928816557">
        <ele>231.56</ele>
        <time>2023-06-13T10:30:55.042Z</time>
      </trkpt>
      <trkpt lat="48.26479998417199" lon="17.08069995045662">
        <ele>231.69</ele>
        <time>2023-06-13T10:30:55.610Z</time>
      </trkpt>
      <trkpt lat="48.26469998806715" lon="17.080989964306355">
        <ele>231.82</ele>
        <time>2023-06-13T10:30:56.183Z</time>
      </trkpt>
      <trkpt lat="48.26467995531857" lon="17.08106992766261">
        <ele>231.87</ele>
        <time>2023-06-13T10:30:56.757Z</time>
      </trkpt>
      <trkpt lat="48.264559926465154" lon="17.08142993040383">
        <ele>231.89</ele>
        <time>2023-06-13T10:30:57.336Z</time>
      </trkpt>
      <trkpt lat="48.26446998864412" lon="17.081719944253564">
        <ele>231.87</ele>
        <time>2023-06-13T10:30:57.919Z</time>
      </trkpt>
      <trkpt lat="48.264389941468835" lon="17.0820099581033">
        <ele>231.81</ele>
        <time>2023-06-13T10:30:58.507Z</time>
      </trkpt>
      <trkpt lat="48.26430997811258" lon="17.082319920882583">
        <ele>231.8</ele>
        <time>2023-06-13T10:30:59.099Z</time>
      </trkpt>
      <trkpt lat="48.26422993093729" lon="17.082629967480898">
        <ele>231.77</ele>
        <time>2023-06-13T10:30:59.696Z</time>
      </trkpt>
      <trkpt lat="48.264199923723936" lon="17.08269995637238">
        <ele>231.63</ele>
        <time>2023-06-13T10:31:00.294Z</time>
      </trkpt>
      <trkpt lat="48.26398995704949" lon="17.08295996300876">
        <ele>231.39</ele>
        <time>2023-06-13T10:31:00.897Z</time>
      </trkpt>
      <trkpt lat="48.263939917087555" lon="17.082989970222116">
        <ele>231.2</ele>
        <time>2023-06-13T10:31:01.501Z</time>
      </trkpt>
      <trkpt lat="48.263769932091236" lon="17.083089966326952">
        <ele>230.98</ele>
        <time>2023-06-13T10:31:02.109Z</time>
      </trkpt>
      <trkpt lat="48.26372995041311" lon="17.083069933578372">
        <ele>230.79</ele>
        <time>2023-06-13T10:31:02.718Z</time>
      </trkpt>
      <trkpt lat="48.263679994270205" lon="17.08295996300876">
        <ele>230.58</ele>
        <time>2023-06-13T10:31:03.328Z</time>
      </trkpt>
      <trkpt lat="48.26368996873498" lon="17.08288997411728">
        <ele>230.38</ele>
        <time>2023-06-13T10:31:03.939Z</time>
      </trkpt>
      <trkpt lat="48.26373992487788" lon="17.082489989697933">
        <ele>230.17</ele>
        <time>2023-06-13T10:31:04.556Z</time>
      </trkpt>
      <trkpt lat="48.263769932091236" lon="17.082219924777746">
        <ele>229.99</ele>
        <time>2023-06-13T10:31:05.177Z</time>
      </trkpt>
      <trkpt lat="48.26381997205317" lon="17.08187995478511">
        <ele>229.87</ele>
        <time>2023-06-13T10:31:05.802Z</time>
      </trkpt>
      <trkpt lat="48.263829946517944" lon="17.08168993704021">
        <ele>229.75</ele>
        <time>2023-06-13T10:31:06.430Z</time>
      </trkpt>
      <trkpt lat="48.263789964839816" lon="17.081359941512346">
        <ele>229.67</ele>
        <time>2023-06-13T10:31:07.062Z</time>
      </trkpt>
      <trkpt lat="48.26372995041311" lon="17.081209989264607">
        <ele>229.63</ele>
        <time>2023-06-13T10:31:07.697Z</time>
      </trkpt>
      <trkpt lat="48.2636699359864" lon="17.081079985946417">
        <ele>229.62</ele>
        <time>2023-06-13T10:31:08.334Z</time>
      </trkpt>
      <trkpt lat="48.263509925454855" lon="17.080739932134748">
        <ele>229.68</ele>
        <time>2023-06-13T10:31:08.976Z</time>
      </trkpt>
      <trkpt lat="48.2634299620986" lon="17.08054999820888">
        <ele>229.77</ele>
        <time>2023-06-13T10:31:09.621Z</time>
      </trkpt>
      <trkpt lat="48.26325997710228" lon="17.080279933288693">
        <ele>229.93</ele>
        <time>2023-06-13T10:31:10.271Z</time>
      </trkpt>
      <trkpt lat="48.263119999319315" lon="17.080069966614246">
        <ele>230.14</ele>
        <time>2023-06-13T10:31:10.925Z</time>
      </trkpt>
      <trkpt lat="48.263079933822155" lon="17.080019926652312">
        <ele>230.41</ele>
        <time>2023-06-13T10:31:11.580Z</time>
      </trkpt>
      <trkpt lat="48.26287994161248" lon="17.07979998551309">
        <ele>230.76</ele>
        <time>2023-06-13T10:31:12.240Z</time>
      </trkpt>
      <trkpt lat="48.26271993108094" lon="17.079609967768192">
        <ele>231.2</ele>
        <time>2023-06-13T10:31:12.904Z</time>
      </trkpt>
      <trkpt lat="48.26255992054939" lon="17.079419950023293">
        <ele>231.72</ele>
        <time>2023-06-13T10:31:13.572Z</time>
      </trkpt>
      <trkpt lat="48.262519938871264" lon="17.079379968345165">
        <ele>232.28</ele>
        <time>2023-06-13T10:31:14.241Z</time>
      </trkpt>
      <trkpt lat="48.2623799610883" lon="17.079319953918457">
        <ele>232.94</ele>
        <time>2023-06-13T10:31:14.913Z</time>
      </trkpt>
      <trkpt lat="48.26229999773204" lon="17.079319953918457">
        <ele>233.64</ele>
        <time>2023-06-13T10:31:15.587Z</time>
      </trkpt>
      <trkpt lat="48.26214996166527" lon="17.079399917274714">
        <ele>234.44</ele>
        <time>2023-06-13T10:31:16.264Z</time>
      </trkpt>
      <trkpt lat="48.26192993670702" lon="17.079609967768192">
        <ele>235.33</ele>
        <time>2023-06-13T10:31:16.946Z</time>
      </trkpt>
      <trkpt lat="48.26185994781554" lon="17.0796699821949">
        <ele>236.23</ele>
        <time>2023-06-13T10:31:17.630Z</time>
      </trkpt>
      <trkpt lat="48.261679988354445" lon="17.07970996387303">
        <ele>237.26</ele>
        <time>2023-06-13T10:31:18.317Z</time>
      </trkpt>
      <trkpt lat="48.26164998114109" lon="17.079699989408255">
        <ele>238.28</ele>
        <time>2023-06-13T10:31:19.005Z</time>
      </trkpt>
      <trkpt lat="48.261469937860966" lon="17.0796699821949">
        <ele>239.4</ele>
        <time>2023-06-13T10:31:19.697Z</time>
      </trkpt>
      <trkpt lat="48.261329960078" lon="17.079679956659675">
        <ele>240.55</ele>
        <time>2023-06-13T10:31:20.392Z</time>
      </trkpt>
      <trkpt lat="48.26115997508168" lon="17.079809959977865">
        <ele>241.79</ele>
        <time>2023-06-13T10:31:21.090Z</time>
      </trkpt>
      <trkpt lat="48.261059978976846" lon="17.07988992333412">
        <ele>243.07</ele>
        <time>2023-06-13T10:31:21.791Z</time>
      </trkpt>
      <trkpt lat="48.26093995012343" lon="17.07996997050941">
        <ele>244.42</ele>
        <time>2023-06-13T10:31:22.494Z</time>
      </trkpt>
      <trkpt lat="48.260759990662336" lon="17.080069966614246">
        <ele>245.84</ele>
        <time>2023-06-13T10:31:23.201Z</time>
      </trkpt>
      <trkpt lat="48.26059998013079" lon="17.080129981040955">
        <ele>247.25</ele>
        <time>2023-06-13T10:31:23.911Z</time>
      </trkpt>
      <trkpt lat="48.26042999513447" lon="17.080219918861985">
        <ele>248.7</ele>
        <time>2023-06-13T10:31:24.625Z</time>
      </trkpt>
      <trkpt lat="48.26025992631912" lon="17.08035998046398">
        <ele>250.2</ele>
        <time>2023-06-13T10:31:25.343Z</time>
      </trkpt>
      <trkpt lat="48.260219944640994" lon="17.080389987677336">
        <ele>251.67</ele>
        <time>2023-06-13T10:31:26.062Z</time>
      </trkpt>
      <trkpt lat="48.26010997407138" lon="17.080519990995526">
        <ele>253.18</ele>
        <time>2023-06-13T10:31:26.784Z</time>
      </trkpt>
      <trkpt lat="48.25995993800461" lon="17.08067991770804">
        <ele>254.71</ele>
        <time>2023-06-13T10:31:27.509Z</time>
      </trkpt>
      <trkpt lat="48.25977997854352" lon="17.080859960988164">
        <ele>256.25</ele>
        <time>2023-06-13T10:31:28.239Z</time>
      </trkpt>
      <trkpt lat="48.259619968011975" lon="17.081049978733063">
        <ele>257.83</ele>
        <time>2023-06-13T10:31:28.973Z</time>
      </trkpt>
      <trkpt lat="48.25944998301566" lon="17.081209989264607">
        <ele>259.36</ele>
        <time>2023-06-13T10:31:29.711Z</time>
      </trkpt>
      <trkpt lat="48.259299946948886" lon="17.081359941512346">
        <ele>260.93</ele>
        <time>2023-06-13T10:31:30.452Z</time>
      </trkpt>
      <trkpt lat="48.25913993641734" lon="17.081569992005825">
        <ele>262.53</ele>
        <time>2023-06-13T10:31:31.198Z</time>
      </trkpt>
      <trkpt lat="48.25895997695625" lon="17.081729918718338">
        <ele>264.15</ele>
        <time>2023-06-13T10:31:31.948Z</time>
      </trkpt>
      <trkpt lat="48.25878999195993" lon="17.08189998753369">
        <ele>265.71</ele>
        <time>2023-06-13T10:31:32.702Z</time>
      </trkpt>
      <trkpt lat="48.258609948679805" lon="17.082059998065233">
        <ele>267.2</ele>
        <time>2023-06-13T10:31:33.460Z</time>
      </trkpt>
      <trkpt lat="48.258439963683486" lon="17.082229983061552">
        <ele>268.71</ele>
        <time>2023-06-13T10:31:34.222Z</time>
      </trkpt>
      <trkpt lat="48.25826997868717" lon="17.082369960844517">
        <ele>270.2</ele>
        <time>2023-06-13T10:31:34.988Z</time>
      </trkpt>
      <trkpt lat="48.2581199426204" lon="17.082519996911287">
        <ele>271.7</ele>
        <time>2023-06-13T10:31:35.758Z</time>
      </trkpt>
      <trkpt lat="48.257919950410724" lon="17.0826799236238">
        <ele>273.29</ele>
        <time>2023-06-13T10:31:36.532Z</time>
      </trkpt>
      <trkpt lat="48.25786999426782" lon="17.082709930837154">
        <ele>274.84</ele>
        <time>2023-06-13T10:31:37.307Z</time>
      </trkpt>
      <trkpt lat="48.25769992545247" lon="17.082879999652505">
        <ele>276.46</ele>
        <time>2023-06-13T10:31:38.086Z</time>
      </trkpt>
      <trkpt lat="48.25760998763144" lon="17.083009919151664">
        <ele>278.08</ele>
        <time>2023-06-13T10:31:38.868Z</time>
      </trkpt>
      <trkpt lat="48.257559947669506" lon="17.083119973540306">
        <ele>279.68</ele>
        <time>2023-06-13T10:31:39.652Z</time>
      </trkpt>
      <trkpt lat="48.25737998820841" lon="17.08325995132327">
        <ele>281.36</ele>
        <time>2023-06-13T10:31:40.440Z</time>
      </trkpt>
      <trkpt lat="48.25733992271125" lon="17.083269925788045">
        <ele>282.99</ele>
        <time>2023-06-13T10:31:41.228Z</time>
      </trkpt>
      <trkpt lat="48.257299941033125" lon="17.08327998407185">
        <ele>284.64</ele>
        <time>2023-06-13T10:31:42.017Z</time>
      </trkpt>
      <trkpt lat="48.25709994882345" lon="17.08327998407185">
        <ele>286.39</ele>
        <time>2023-06-13T10:31:42.810Z</time>
      </trkpt>
      <trkpt lat="48.25690993107855" lon="17.0832999330014">
        <ele>288.15</ele>
        <time>2023-06-13T10:31:43.607Z</time>
      </trkpt>
      <trkpt lat="48.25672997161746" lon="17.08331996574998">
        <ele>289.89</ele>
        <time>2023-06-13T10:31:44.408Z</time>
      </trkpt>
      <trkpt lat="48.25653995387256" lon="17.08333999849856">
        <ele>291.7</ele>
        <time>2023-06-13T10:31:45.213Z</time>
      </trkpt>
      <trkpt lat="48.25638991780579" lon="17.08342993631959">
        <ele>293.55</ele>
        <time>2023-06-13T10:31:46.021Z</time>
      </trkpt>
      <trkpt lat="48.25627994723618" lon="17.083529932424426">
        <ele>295.39</ele>
        <time>2023-06-13T10:31:46.831Z</time>
      </trkpt>
      <trkpt lat="48.256199983879924" lon="17.083569997921586">
        <ele>297.19</ele>
        <time>2023-06-13T10:31:47.643Z</time>
      </trkpt>
      <trkpt lat="48.2560199405998" lon="17.08368994295597">
        <ele>299.06</ele>
        <time>2023-06-13T10:31:48.459Z</time>
      </trkpt>
      <trkpt lat="48.255839981138706" lon="17.08381994627416">
        <ele>300.87</ele>
        <time>2023-06-13T10:31:49.279Z</time>
      </trkpt>
      <trkpt lat="48.25565993785858" lon="17.083939975127578">
        <ele>302.68</ele>
        <time>2023-06-13T10:31:50.103Z</time>
      </trkpt>
      <trkpt lat="48.25549992732704" lon="17.084089927375317">
        <ele>304.58</ele>
        <time>2023-06-13T10:31:50.931Z</time>
      </trkpt>
      <trkpt lat="48.25533991679549" lon="17.084299977868795">
        <ele>306.53</ele>
        <time>2023-06-13T10:31:51.763Z</time>
      </trkpt>
      <trkpt lat="48.25520999729633" lon="17.08443995565176">
        <ele>308.31</ele>
        <time>2023-06-13T10:31:52.598Z</time>
      </trkpt>
      <trkpt lat="48.25507999397814" lon="17.08458999171853">
        <ele>310.01</ele>
        <time>2023-06-13T10:31:53.436Z</time>
      </trkpt>
      <trkpt lat="48.25498997233808" lon="17.084689987823367">
        <ele>311.63</ele>
        <time>2023-06-13T10:31:54.277Z</time>
      </trkpt>
      <trkpt lat="48.254849994555116" lon="17.084849998354912">
        <ele>313.21</ele>
        <time>2023-06-13T10:31:55.121Z</time>
      </trkpt>
      <trkpt lat="48.25476994737983" lon="17.084919987246394">
        <ele>314.72</ele>
        <time>2023-06-13T10:31:55.967Z</time>
      </trkpt>
      <trkpt lat="48.25474999845028" lon="17.08494999445975">
        <ele>316.16</ele>
        <time>2023-06-13T10:31:56.814Z</time>
      </trkpt>
      <trkpt lat="48.25461999513209" lon="17.08512995392084">
        <ele>317.57</ele>
        <time>2023-06-13T10:31:57.664Z</time>
      </trkpt>
      <trkpt lat="48.25449996627867" lon="17.085259957239032">
        <ele>318.9</ele>
        <time>2023-06-13T10:31:58.517Z</time>
      </trkpt>
      <trkpt lat="48.254419919103384" lon="17.08533992059529">
        <ele>320.16</ele>
        <time>2023-06-13T10:31:59.372Z</time>
      </trkpt>
      <trkpt lat="48.254289999604225" lon="17.08544997498393">
        <ele>321.4</ele>
        <time>2023-06-13T10:32:00.230Z</time>
      </trkpt>
      <trkpt lat="48.25418991968036" lon="17.08555994555354">
        <ele>322.63</ele>
        <time>2023-06-13T10:32:01.091Z</time>
      </trkpt>
      <trkpt lat="48.25401993468404" lon="17.085719956085086">
        <ele>323.76</ele>
        <time>2023-06-13T10:32:01.956Z</time>
      </trkpt>
      <trkpt lat="48.25384994968772" lon="17.08587996661663">
        <ele>324.85</ele>
        <time>2023-06-13T10:32:02.825Z</time>
      </trkpt>
      <trkpt lat="48.25376998633146" lon="17.08593998104334">
        <ele>325.83</ele>
        <time>2023-06-13T10:32:03.695Z</time>
      </trkpt>
      <trkpt lat="48.25360997579992" lon="17.08606998436153">
        <ele>326.78</ele>
        <time>2023-06-13T10:32:04.569Z</time>
      </trkpt>
      <trkpt lat="48.2534399908036" lon="17.08617995493114">
        <ele>327.67</ele>
        <time>2023-06-13T10:32:05.447Z</time>
      </trkpt>
      <trkpt lat="48.25332993641496" lon="17.086259918287396">
        <ele>328.52</ele>
        <time>2023-06-13T10:32:06.327Z</time>
      </trkpt>
      <trkpt lat="48.253149976953864" lon="17.086389921605587">
        <ele>329.33</ele>
        <time>2023-06-13T10:32:07.211Z</time>
      </trkpt>
      <trkpt lat="48.253069929778576" lon="17.08643996156752">
        <ele>330.03</ele>
        <time>2023-06-13T10:32:08.097Z</time>
      </trkpt>
      <trkpt lat="48.25292995199561" lon="17.08649997599423">
        <ele>330.65</ele>
        <time>2023-06-13T10:32:08.986Z</time>
      </trkpt>
      <trkpt lat="48.252829955890775" lon="17.086559990420938">
        <ele>331.25</ele>
        <time>2023-06-13T10:32:09.877Z</time>
      </trkpt>
      <trkpt lat="48.252699952572584" lon="17.08662997931242">
        <ele>331.82</ele>
        <time>2023-06-13T10:32:10.771Z</time>
      </trkpt>
      <trkpt lat="48.25255997478962" lon="17.086689993739128">
        <ele>332.37</ele>
        <time>2023-06-13T10:32:11.668Z</time>
      </trkpt>
      <trkpt lat="48.25244992040098" lon="17.086709942668676">
        <ele>332.88</ele>
        <time>2023-06-13T10:32:12.567Z</time>
      </trkpt>
      <trkpt lat="48.25240993872285" lon="17.086699968203902">
        <ele>333.33</ele>
        <time>2023-06-13T10:32:13.467Z</time>
      </trkpt>
      <trkpt lat="48.25230994261801" lon="17.086599972099066">
        <ele>333.7</ele>
        <time>2023-06-13T10:32:14.369Z</time>
      </trkpt>
      <trkpt lat="48.252209946513176" lon="17.086529983207583">
        <ele>334.1</ele>
        <time>2023-06-13T10:32:15.273Z</time>
      </trkpt>
      <trkpt lat="48.25206996873021" lon="17.086469968780875">
        <ele>334.53</ele>
        <time>2023-06-13T10:32:16.180Z</time>
      </trkpt>
      <trkpt lat="48.251949939876795" lon="17.086379947140813">
        <ele>334.94</ele>
        <time>2023-06-13T10:32:17.090Z</time>
      </trkpt>
      <trkpt lat="48.251779954880476" lon="17.086219936609268">
        <ele>335.37</ele>
        <time>2023-06-13T10:32:18.004Z</time>
      </trkpt>
      <trkpt lat="48.251649951562285" lon="17.08604995161295">
        <ele>335.81</ele>
        <time>2023-06-13T10:32:18.921Z</time>
      </trkpt>
      <trkpt lat="48.25148994103074" lon="17.08589999936521">
        <ele>336.32</ele>
        <time>2023-06-13T10:32:19.842Z</time>
      </trkpt>
      <trkpt lat="48.251329930499196" lon="17.08572993054986">
        <ele>336.87</ele>
        <time>2023-06-13T10:32:20.767Z</time>
      </trkpt>
      <trkpt lat="48.2511499710381" lon="17.08555994555354">
        <ele>337.48</ele>
        <time>2023-06-13T10:32:21.696Z</time>
      </trkpt>
      <trkpt lat="48.250979986041784" lon="17.085389960557222">
        <ele>338.08</ele>
        <time>2023-06-13T10:32:22.629Z</time>
      </trkpt>
      <trkpt lat="48.250809917226434" lon="17.085229950025678">
        <ele>338.66</ele>
        <time>2023-06-13T10:32:23.566Z</time>
      </trkpt>
      <trkpt lat="48.250659964978695" lon="17.085099946707487">
        <ele>339.29</ele>
        <time>2023-06-13T10:32:24.507Z</time>
      </trkpt>
      <trkpt lat="48.250549994409084" lon="17.08497991785407">
        <ele>339.97</ele>
        <time>2023-06-13T10:32:25.451Z</time>
      </trkpt>
      <trkpt lat="48.25036995112896" lon="17.084799958392978">
        <ele>340.73</ele>
        <time>2023-06-13T10:32:26.399Z</time>
      </trkpt>
      <trkpt lat="48.25025998055935" lon="17.08471999503672">
        <ele>341.49</ele>
        <time>2023-06-13T10:32:27.349Z</time>
      </trkpt>
      <trkpt lat="48.25008999556303" lon="17.08460994064808">
        <ele>342.32</ele>
        <time>2023-06-13T10:32:28.303Z</time>
      </trkpt>
      <trkpt lat="48.2498499378562" lon="17.08449997007847">
        <ele>343.17</ele>
        <time>2023-06-13T10:32:29.262Z</time>
      </trkpt>
      <trkpt lat="48.249759916216135" lon="17.084409948438406">
        <ele>343.97</ele>
        <time>2023-06-13T10:32:30.223Z</time>
      </trkpt>
      <trkpt lat="48.24963997118175" lon="17.08424993790686">
        <ele>344.79</ele>
        <time>2023-06-13T10:32:31.188Z</time>
      </trkpt>
      <trkpt lat="48.249589931219816" lon="17.084239963442087">
        <ele>345.61</ele>
        <time>2023-06-13T10:32:32.154Z</time>
      </trkpt>
      <trkpt lat="48.24954994954169" lon="17.084229988977313">
        <ele>346.45</ele>
        <time>2023-06-13T10:32:33.120Z</time>
      </trkpt>
      <trkpt lat="48.24939999729395" lon="17.084209956228733">
        <ele>347.35</ele>
        <time>2023-06-13T10:32:34.089Z</time>
      </trkpt>
      <trkpt lat="48.24935993179679" lon="17.084239963442087">
        <ele>348.23</ele>
        <time>2023-06-13T10:32:35.059Z</time>
      </trkpt>
      <trkpt lat="48.24931995011866" lon="17.08426997065544">
        <ele>349.11</ele>
        <time>2023-06-13T10:32:36.030Z</time>
      </trkpt>
      <trkpt lat="48.24924996122718" lon="17.084359992295504">
        <ele>349.99</ele>
        <time>2023-06-13T10:32:37.003Z</time>
      </trkpt>
      <trkpt lat="48.249069917947054" lon="17.084529977291822">
        <ele>350.91</ele>
        <time>2023-06-13T10:32:37.980Z</time>
      </trkpt>
      <trkpt lat="48.2489899545908" lon="17.08456995896995">
        <ele>351.84</ele>
        <time>2023-06-13T10:32:38.959Z</time>
      </trkpt>
      <trkpt lat="48.24886992573738" lon="17.08471999503672">
        <ele>352.82</ele>
        <time>2023-06-13T10:32:39.941Z</time>
      </trkpt>
      <trkpt lat="48.248789962381124" lon="17.08488998003304">
        <ele>353.83</ele>
        <time>2023-06-13T10:32:40.926Z</time>
      </trkpt>
      <trkpt lat="48.24870999902487" lon="17.08512995392084">
        <ele>354.87</ele>
        <time>2023-06-13T10:32:41.914Z</time>
      </trkpt>
      <trkpt lat="48.248619977384806" lon="17.08535995334387">
        <ele>355.89</ele>
        <time>2023-06-13T10:32:42.906Z</time>
      </trkpt>
      <trkpt lat="48.24847999960184" lon="17.085589952766895">
        <ele>356.84</ele>
        <time>2023-06-13T10:32:43.902Z</time>
      </trkpt>
      <trkpt lat="48.24834999628365" lon="17.085799919441342">
        <ele>357.74</ele>
        <time>2023-06-13T10:32:44.902Z</time>
      </trkpt>
      <trkpt lat="48.248229967430234" lon="17.08587996661663">
        <ele>358.63</ele>
        <time>2023-06-13T10:32:45.905Z</time>
      </trkpt>
      <trkpt lat="48.24810993857682" lon="17.085909973829985">
        <ele>359.49</ele>
        <time>2023-06-13T10:32:46.910Z</time>
      </trkpt>
      <trkpt lat="48.24809996411204" lon="17.085909973829985">
        <ele>360.34</ele>
        <time>2023-06-13T10:32:47.915Z</time>
      </trkpt>
      <trkpt lat="48.24800994247198" lon="17.08593998104334">
        <ele>361.15</ele>
        <time>2023-06-13T10:32:48.922Z</time>
      </trkpt>
      <trkpt lat="48.247909946367145" lon="17.08604995161295">
        <ele>361.95</ele>
        <time>2023-06-13T10:32:49.932Z</time>
      </trkpt>
      <trkpt lat="48.247779943048954" lon="17.08628992550075">
        <ele>362.76</ele>
        <time>2023-06-13T10:32:50.946Z</time>
      </trkpt>
      <trkpt lat="48.247739961370826" lon="17.086469968780875">
        <ele>363.55</ele>
        <time>2023-06-13T10:32:51.962Z</time>
      </trkpt>
      <trkpt lat="48.24761993251741" lon="17.086659986525774">
        <ele>364.3</ele>
        <time>2023-06-13T10:32:52.982Z</time>
      </trkpt>
      <trkpt lat="48.24757995083928" lon="17.08671991713345">
        <ele>364.92</ele>
        <time>2023-06-13T10:32:54.003Z</time>
      </trkpt>
      <trkpt lat="48.247439973056316" lon="17.087009930983186">
        <ele>365.47</ele>
        <time>2023-06-13T10:32:55.029Z</time>
      </trkpt>
      <trkpt lat="48.24742999859154" lon="17.08705997094512">
        <ele>365.92</ele>
        <time>2023-06-13T10:32:56.055Z</time>
      </trkpt>
      <trkpt lat="48.24738993309438" lon="17.087159967049956">
        <ele>366.3</ele>
        <time>2023-06-13T10:32:57.083Z</time>
      </trkpt>
      <trkpt lat="48.2473199442029" lon="17.087349984794855">
        <ele>366.62</ele>
        <time>2023-06-13T10:32:58.114Z</time>
      </trkpt>
      <trkpt lat="48.24723998084664" lon="17.087479988113046">
        <ele>366.82</ele>
        <time>2023-06-13T10:32:59.147Z</time>
      </trkpt>
      <trkpt lat="48.24710997752845" lon="17.08759993314743">
        <ele>366.85</ele>
        <time>2023-06-13T10:33:00.183Z</time>
      </trkpt>
      <trkpt lat="48.246899927034974" lon="17.0877499692142">
        <ele>366.83</ele>
        <time>2023-06-13T10:33:01.224Z</time>
      </trkpt>
      <trkpt lat="48.24673991650343" lon="17.087889946997166">
        <ele>366.71</ele>
        <time>2023-06-13T10:33:02.269Z</time>
      </trkpt>
      <trkpt lat="48.24660999700427" lon="17.08804995752871">
        <ele>366.56</ele>
        <time>2023-06-13T10:33:03.317Z</time>
      </trkpt>
      <trkpt lat="48.246489968150854" lon="17.088189935311675">
        <ele>366.3</ele>
        <time>2023-06-13T10:33:04.368Z</time>
      </trkpt>
      <trkpt lat="48.24635996483266" lon="17.088379953056574">
        <ele>365.92</ele>
        <time>2023-06-13T10:33:05.423Z</time>
      </trkpt>
      <trkpt lat="48.24624999426305" lon="17.08847994916141">
        <ele>365.39</ele>
        <time>2023-06-13T10:33:06.480Z</time>
      </trkpt>
      <trkpt lat="48.246019994840026" lon="17.088579945266247">
        <ele>364.64</ele>
        <time>2023-06-13T10:33:07.542Z</time>
      </trkpt>
      <trkpt lat="48.245849926024675" lon="17.08858991973102">
        <ele>363.85</ele>
        <time>2023-06-13T10:33:08.607Z</time>
      </trkpt>
      <trkpt lat="48.24557994492352" lon="17.088639959692955">
        <ele>362.85</ele>
        <time>2023-06-13T10:33:09.678Z</time>
      </trkpt>
      <trkpt lat="48.24550995603204" lon="17.088659992441535">
        <ele>361.86</ele>
        <time>2023-06-13T10:33:10.750Z</time>
      </trkpt>
      <trkpt lat="48.24535991996527" lon="17.088729981333017">
        <ele>360.71</ele>
        <time>2023-06-13T10:33:11.825Z</time>
      </trkpt>
      <trkpt lat="48.2452199421823" lon="17.088869959115982">
        <ele>359.48</ele>
        <time>2023-06-13T10:33:12.904Z</time>
      </trkpt>
      <trkpt lat="48.24508993886411" lon="17.088979929685593">
        <ele>358.16</ele>
        <time>2023-06-13T10:33:13.986Z</time>
      </trkpt>
      <trkpt lat="48.244989942759275" lon="17.089069951325655">
        <ele>356.77</ele>
        <time>2023-06-13T10:33:15.070Z</time>
      </trkpt>
      <trkpt lat="48.24494996108115" lon="17.08911999128759">
        <ele>355.35</ele>
        <time>2023-06-13T10:33:16.155Z</time>
      </trkpt>
      <trkpt lat="48.24486999772489" lon="17.089179921895266">
        <ele>353.85</ele>
        <time>2023-06-13T10:33:17.242Z</time>
      </trkpt>
      <trkpt lat="48.24476991780102" lon="17.089259969070554">
        <ele>352.29</ele>
        <time>2023-06-13T10:33:18.331Z</time>
      </trkpt>
      <trkpt lat="48.24451996944845" lon="17.08935996517539">
        <ele>350.58</ele>
        <time>2023-06-13T10:33:19.425Z</time>
      </trkpt>
      <trkpt lat="48.24438996613026" lon="17.08948996849358">
        <ele>348.91</ele>
        <time>2023-06-13T10:33:20.523Z</time>
      </trkpt>
      <trkpt lat="48.24434998445213" lon="17.089539924636483">
        <ele>347.26</ele>
        <time>2023-06-13T10:33:21.622Z</time>
      </trkpt>
      <trkpt lat="48.244189973920584" lon="17.089719967916608">
        <ele>345.55</ele>
        <time>2023-06-13T10:33:22.725Z</time>
      </trkpt>
      <trkpt lat="48.244129959493876" lon="17.08976992405951">
        <ele>343.89</ele>
        <time>2023-06-13T10:33:23.829Z</time>
      </trkpt>
      <trkpt lat="48.24398998171091" lon="17.08982993848622">
        <ele>342.15</ele>
        <time>2023-06-13T10:33:24.936Z</time>
      </trkpt>
      <trkpt lat="48.24374992400408" lon="17.090079970657825">
        <ele>340.33</ele>
        <time>2023-06-13T10:33:26.049Z</time>
      </trkpt>
      <trkpt lat="48.243699967861176" lon="17.090129926800728">
        <ele>338.71</ele>
        <time>2023-06-13T10:33:27.163Z</time>
      </trkpt>
      <trkpt lat="48.243569964542985" lon="17.090209973976016">
        <ele>337.02</ele>
        <time>2023-06-13T10:33:28.280Z</time>
      </trkpt>
      <trkpt lat="48.24353995732963" lon="17.090229922905564">
        <ele>335.51</ele>
        <time>2023-06-13T10:33:29.397Z</time>
      </trkpt>
      <trkpt lat="48.2434999756515" lon="17.090269988402724">
        <ele>334.04</ele>
        <time>2023-06-13T10:33:30.515Z</time>
      </trkpt>
      <trkpt lat="48.243399979546666" lon="17.090399991720915">
        <ele>332.61</ele>
        <time>2023-06-13T10:33:31.636Z</time>
      </trkpt>
      <trkpt lat="48.243379946798086" lon="17.090439973399043">
        <ele>331.34</ele>
        <time>2023-06-13T10:33:32.758Z</time>
      </trkpt>
      <trkpt lat="48.24334993958473" lon="17.090719928964972">
        <ele>330.12</ele>
        <time>2023-06-13T10:33:33.883Z</time>
      </trkpt>
      <trkpt lat="48.24325991794467" lon="17.090739961713552">
        <ele>328.98</ele>
        <time>2023-06-13T10:33:35.010Z</time>
      </trkpt>
      <trkpt lat="48.24318992905319" lon="17.09072998724878">
        <ele>327.95</ele>
        <time>2023-06-13T10:33:36.139Z</time>
      </trkpt>
      <trkpt lat="48.243119940161705" lon="17.090719928964972">
        <ele>327.04</ele>
        <time>2023-06-13T10:33:37.269Z</time>
      </trkpt>
      <trkpt lat="48.24291994795203" lon="17.090679947286844">
        <ele>326.16</ele>
        <time>2023-06-13T10:33:38.403Z</time>
      </trkpt>
      <trkpt lat="48.242879966273904" lon="17.09066997282207">
        <ele>325.53</ele>
        <time>2023-06-13T10:33:39.538Z</time>
      </trkpt>
      <trkpt lat="48.24282992631197" lon="17.090679947286844">
        <ele>325.04</ele>
        <time>2023-06-13T10:33:40.674Z</time>
      </trkpt>
      <trkpt lat="48.24275993742049" lon="17.09077994339168">
        <ele>324.68</ele>
        <time>2023-06-13T10:33:41.812Z</time>
      </trkpt>
      <trkpt lat="48.24266999959946" lon="17.090829983353615">
        <ele>324.48</ele>
        <time>2023-06-13T10:33:42.952Z</time>
      </trkpt>
      <trkpt lat="48.242559945210814" lon="17.09109996445477">
        <ele>324.47</ele>
        <time>2023-06-13T10:33:44.096Z</time>
      </trkpt>
      <trkpt lat="48.242429941892624" lon="17.091369945555925">
        <ele>324.52</ele>
        <time>2023-06-13T10:33:45.245Z</time>
      </trkpt>
      <trkpt lat="48.242409992963076" lon="17.091429959982634">
        <ele>324.73</ele>
        <time>2023-06-13T10:33:46.394Z</time>
      </trkpt>
      <trkpt lat="48.24231997132301" lon="17.09171997383237">
        <ele>325.11</ele>
        <time>2023-06-13T10:33:47.548Z</time>
      </trkpt>
      <trkpt lat="48.24230999685824" lon="17.091779988259077">
        <ele>325.54</ele>
        <time>2023-06-13T10:33:48.703Z</time>
      </trkpt>
      <trkpt lat="48.24220991693437" lon="17.092099925503135">
        <ele>326.15</ele>
        <time>2023-06-13T10:33:49.862Z</time>
      </trkpt>
      <trkpt lat="48.2421999424696" lon="17.09214996546507">
        <ele>326.81</ele>
        <time>2023-06-13T10:33:51.022Z</time>
      </trkpt>
      <trkpt lat="48.242109920829535" lon="17.092399997636676">
        <ele>327.6</ele>
        <time>2023-06-13T10:33:52.186Z</time>
      </trkpt>
      <trkpt lat="48.2420099247247" lon="17.092629997059703">
        <ele>328.54</ele>
        <time>2023-06-13T10:33:53.353Z</time>
      </trkpt>
      <trkpt lat="48.24189995415509" lon="17.092809956520796">
        <ele>329.5</ele>
        <time>2023-06-13T10:33:54.524Z</time>
      </trkpt>
      <trkpt lat="48.241829965263605" lon="17.09300994873047">
        <ele>330.56</ele>
        <time>2023-06-13T10:33:55.698Z</time>
      </trkpt>
      <trkpt lat="48.24170993641019" lon="17.093219999223948">
        <ele>331.69</ele>
        <time>2023-06-13T10:33:56.875Z</time>
      </trkpt>
      <trkpt lat="48.24155998416245" lon="17.09341999143362">
        <ele>332.89</ele>
        <time>2023-06-13T10:33:58.056Z</time>
      </trkpt>
      <trkpt lat="48.24138999916613" lon="17.093579918146133">
        <ele>334.06</ele>
        <time>2023-06-13T10:33:59.241Z</time>
      </trkpt>
      <trkpt lat="48.24121993035078" lon="17.093689972534776">
        <ele>335.23</ele>
        <time>2023-06-13T10:34:00.430Z</time>
      </trkpt>
      <trkpt lat="48.24103997088969" lon="17.093779994174838">
        <ele>336.45</ele>
        <time>2023-06-13T10:34:01.623Z</time>
      </trkpt>
      <trkpt lat="48.24091994203627" lon="17.09384998306632">
        <ele>337.69</ele>
        <time>2023-06-13T10:34:02.818Z</time>
      </trkpt>
      <trkpt lat="48.240779964253306" lon="17.093899939209223">
        <ele>338.94</ele>
        <time>2023-06-13T10:34:04.016Z</time>
      </trkpt>
      <trkpt lat="48.240649960935116" lon="17.09397998638451">
        <ele>340.21</ele>
        <time>2023-06-13T10:34:05.217Z</time>
      </trkpt>
      <trkpt lat="48.24048995040357" lon="17.09414997138083">
        <ele>341.46</ele>
        <time>2023-06-13T10:34:06.422Z</time>
      </trkpt>
      <trkpt lat="48.24035994708538" lon="17.094309981912374">
        <ele>342.74</ele>
        <time>2023-06-13T10:34:07.630Z</time>
      </trkpt>
      <trkpt lat="48.24024997651577" lon="17.09446999244392">
        <ele>343.98</ele>
        <time>2023-06-13T10:34:08.842Z</time>
      </trkpt>
      <trkpt lat="48.24017998762429" lon="17.094609970226884">
        <ele>345.2</ele>
        <time>2023-06-13T10:34:10.056Z</time>
      </trkpt>
      <trkpt lat="48.240099940449" lon="17.094849944114685">
        <ele>346.4</ele>
        <time>2023-06-13T10:34:11.273Z</time>
      </trkpt>
      <trkpt lat="48.24002995155752" lon="17.095079943537712">
        <ele>347.56</ele>
        <time>2023-06-13T10:34:12.494Z</time>
      </trkpt>
      <trkpt lat="48.239959962666035" lon="17.095229979604483">
        <ele>348.68</ele>
        <time>2023-06-13T10:34:13.717Z</time>
      </trkpt>
      <trkpt lat="48.23988997377455" lon="17.095409939065576">
        <ele>349.83</ele>
        <time>2023-06-13T10:34:14.943Z</time>
      </trkpt>
      <trkpt lat="48.239809926599264" lon="17.095579924061894">
        <ele>350.92</ele>
        <time>2023-06-13T10:34:16.172Z</time>
      </trkpt>
      <trkpt lat="48.23970993049443" lon="17.095769941806793">
        <ele>352.11</ele>
        <time>2023-06-13T10:34:17.404Z</time>
      </trkpt>
      <trkpt lat="48.239619825035334" lon="17.095950236544013">
        <ele>353.18</ele>
        <time>2023-06-13T10:34:18.639Z</time>
      </trkpt>
      <trkpt lat="48.2396199926734" lon="17.095949985086918">
        <ele>353.19</ele>
        <time>2023-06-13T10:34:19.874Z</time>
      </trkpt>
      <trkpt lat="48.23953994549811" lon="17.09607998840511">
        <ele>354.25</ele>
        <time>2023-06-13T10:34:21.111Z</time>
      </trkpt>
      <trkpt lat="48.23945998214185" lon="17.096229940652847">
        <ele>355.24</ele>
        <time>2023-06-13T10:34:22.351Z</time>
      </trkpt>
      <trkpt lat="48.239339953288436" lon="17.096399925649166">
        <ele>356.21</ele>
        <time>2023-06-13T10:34:23.594Z</time>
      </trkpt>
      <trkpt lat="48.2392399571836" lon="17.096539987251163">
        <ele>357.12</ele>
        <time>2023-06-13T10:34:24.840Z</time>
      </trkpt>
      <trkpt lat="48.23911992833018" lon="17.096659932285547">
        <ele>357.95</ele>
        <time>2023-06-13T10:34:26.089Z</time>
      </trkpt>
      <trkpt lat="48.238969976082444" lon="17.09676998667419">
        <ele>358.69</ele>
        <time>2023-06-13T10:34:27.341Z</time>
      </trkpt>
      <trkpt lat="48.238839972764254" lon="17.096869982779026">
        <ele>359.35</ele>
        <time>2023-06-13T10:34:28.596Z</time>
      </trkpt>
      <trkpt lat="48.23871994391084" lon="17.096959920600057">
        <ele>360.04</ele>
        <time>2023-06-13T10:34:29.854Z</time>
      </trkpt>
      <trkpt lat="48.238649955019355" lon="17.09702999331057">
        <ele>360.66</ele>
        <time>2023-06-13T10:34:31.114Z</time>
      </trkpt>
      <trkpt lat="48.23857996612787" lon="17.097099982202053">
        <ele>361.21</ele>
        <time>2023-06-13T10:34:32.375Z</time>
      </trkpt>
      <trkpt lat="48.23854995891452" lon="17.09713996388018">
        <ele>361.76</ele>
        <time>2023-06-13T10:34:33.637Z</time>
      </trkpt>
      <trkpt lat="48.238409981131554" lon="17.097229985520244">
        <ele>362.32</ele>
        <time>2023-06-13T10:34:34.902Z</time>
      </trkpt>
      <trkpt lat="48.238329933956265" lon="17.097299974411726">
        <ele>362.8</ele>
        <time>2023-06-13T10:34:36.169Z</time>
      </trkpt>
      <trkpt lat="48.23814997449517" lon="17.097449926659465">
        <ele>363.26</ele>
        <time>2023-06-13T10:34:37.440Z</time>
      </trkpt>
      <trkpt lat="48.237959956750274" lon="17.09758998826146">
        <ele>363.66</ele>
        <time>2023-06-13T10:34:38.715Z</time>
      </trkpt>
      <trkpt lat="48.23782995343208" lon="17.097729966044426">
        <ele>364.08</ele>
        <time>2023-06-13T10:34:39.994Z</time>
      </trkpt>
      <trkpt lat="48.23768997564912" lon="17.097809929400682">
        <ele>364.47</ele>
        <time>2023-06-13T10:34:41.276Z</time>
      </trkpt>
      <trkpt lat="48.23753993958235" lon="17.09786994382739">
        <ele>364.9</ele>
        <time>2023-06-13T10:34:42.561Z</time>
      </trkpt>
      <trkpt lat="48.237339947372675" lon="17.0979299582541">
        <ele>365.33</ele>
        <time>2023-06-13T10:34:43.850Z</time>
      </trkpt>
      <trkpt lat="48.237169962376356" lon="17.097959965467453">
        <ele>365.75</ele>
        <time>2023-06-13T10:34:45.142Z</time>
      </trkpt>
      <trkpt lat="48.237059991806746" lon="17.098009921610355">
        <ele>366.15</ele>
        <time>2023-06-13T10:34:46.437Z</time>
      </trkpt>
      <trkpt lat="48.23687994852662" lon="17.098119975998998">
        <ele>366.57</ele>
        <time>2023-06-13T10:34:47.735Z</time>
      </trkpt>
      <trkpt lat="48.23676997795701" lon="17.09824997931719">
        <ele>366.95</ele>
        <time>2023-06-13T10:34:49.036Z</time>
      </trkpt>
      <trkpt lat="48.23663997463882" lon="17.098439997062087">
        <ele>367.33</ele>
        <time>2023-06-13T10:34:50.341Z</time>
      </trkpt>
      <trkpt lat="48.23652992025018" lon="17.09861995652318">
        <ele>367.69</ele>
        <time>2023-06-13T10:34:51.649Z</time>
      </trkpt>
      <trkpt lat="48.23643998242915" lon="17.09885993041098">
        <ele>368.02</ele>
        <time>2023-06-13T10:34:52.961Z</time>
      </trkpt>
      <trkpt lat="48.23633998632431" lon="17.099079955369234">
        <ele>368.37</ele>
        <time>2023-06-13T10:34:54.276Z</time>
      </trkpt>
      <trkpt lat="48.236199924722314" lon="17.099299980327487">
        <ele>368.86</ele>
        <time>2023-06-13T10:34:55.595Z</time>
      </trkpt>
      <trkpt lat="48.23618995025754" lon="17.099339962005615">
        <ele>369.34</ele>
        <time>2023-06-13T10:34:56.915Z</time>
      </trkpt>
      <trkpt lat="48.23609992861748" lon="17.099429983645678">
        <ele>369.85</ele>
        <time>2023-06-13T10:34:58.237Z</time>
      </trkpt>
      <trkpt lat="48.23601996526122" lon="17.099509947001934">
        <ele>370.4</ele>
        <time>2023-06-13T10:34:59.561Z</time>
      </trkpt>
      <trkpt lat="48.235879987478256" lon="17.099719997495413">
        <ele>371.07</ele>
        <time>2023-06-13T10:35:00.889Z</time>
      </trkpt>
      <trkpt lat="48.235729951411486" lon="17.099939938634634">
        <ele>371.76</ele>
        <time>2023-06-13T10:35:02.221Z</time>
      </trkpt>
      <trkpt lat="48.235599948093295" lon="17.100129956379533">
        <ele>372.48</ele>
        <time>2023-06-13T10:35:03.557Z</time>
      </trkpt>
      <trkpt lat="48.235449995845556" lon="17.10031997412443">
        <ele>373.26</ele>
        <time>2023-06-13T10:35:04.897Z</time>
      </trkpt>
      <trkpt lat="48.23532996699214" lon="17.100449977442622">
        <ele>374.12</ele>
        <time>2023-06-13T10:35:06.240Z</time>
      </trkpt>
      <trkpt lat="48.23519996367395" lon="17.10059992969036">
        <ele>375.03</ele>
        <time>2023-06-13T10:35:07.586Z</time>
      </trkpt>
      <trkpt lat="48.23507993482053" lon="17.100799921900034">
        <ele>376.03</ele>
        <time>2023-06-13T10:35:08.936Z</time>
      </trkpt>
      <trkpt lat="48.23495998978615" lon="17.100989939644933">
        <ele>377.05</ele>
        <time>2023-06-13T10:35:10.289Z</time>
      </trkpt>
      <trkpt lat="48.234869968146086" lon="17.101119942963123">
        <ele>378.12</ele>
        <time>2023-06-13T10:35:11.645Z</time>
      </trkpt>
      <trkpt lat="48.23470995761454" lon="17.101299986243248">
        <ele>379.19</ele>
        <time>2023-06-13T10:35:13.005Z</time>
      </trkpt>
      <trkpt lat="48.23468992486596" lon="17.101319935172796">
        <ele>380.37</ele>
        <time>2023-06-13T10:35:14.365Z</time>
      </trkpt>
      <trkpt lat="48.234629994258285" lon="17.10123997181654">
        <ele>381.63</ele>
        <time>2023-06-13T10:35:15.727Z</time>
      </trkpt>
      <trkpt lat="48.234589928761125" lon="17.10117995738983">
        <ele>382.98</ele>
        <time>2023-06-13T10:35:17.090Z</time>
      </trkpt>
      <trkpt lat="48.234479958191514" lon="17.10099999792874">
        <ele>384.45</ele>
        <time>2023-06-13T10:35:18.456Z</time>
      </trkpt>
      <trkpt lat="48.2343699876219" lon="17.100759940221906">
        <ele>385.97</ele>
        <time>2023-06-13T10:35:19.826Z</time>
      </trkpt>
      <trkpt lat="48.23426999151707" lon="17.10054997354746">
        <ele>387.57</ele>
        <time>2023-06-13T10:35:21.199Z</time>
      </trkpt>
      <trkpt lat="48.23416999541223" lon="17.100369930267334">
        <ele>389.23</ele>
        <time>2023-06-13T10:35:22.576Z</time>
      </trkpt>
      <trkpt lat="48.23408994823694" lon="17.100239926949143">
        <ele>390.89</ele>
        <time>2023-06-13T10:35:23.955Z</time>
      </trkpt>
      <trkpt lat="48.233989952132106" lon="17.10009994916618">
        <ele>392.65</ele>
        <time>2023-06-13T10:35:25.337Z</time>
      </trkpt>
      <trkpt lat="48.2339399959892" lon="17.099979920312762">
        <ele>394.41</ele>
        <time>2023-06-13T10:35:26.721Z</time>
      </trkpt>
      <trkpt lat="48.233859948813915" lon="17.099839942529798">
        <ele>396.2</ele>
        <time>2023-06-13T10:35:28.107Z</time>
      </trkpt>
      <trkpt lat="48.2337399199605" lon="17.09962997585535">
        <ele>398.01</ele>
        <time>2023-06-13T10:35:29.497Z</time>
      </trkpt>
      <trkpt lat="48.23365995660424" lon="17.09943995811045">
        <ele>399.72</ele>
        <time>2023-06-13T10:35:30.890Z</time>
      </trkpt>
      <trkpt lat="48.233579993247986" lon="17.09925999864936">
        <ele>401.44</ele>
        <time>2023-06-13T10:35:32.286Z</time>
      </trkpt>
      <trkpt lat="48.23352995328605" lon="17.099129995331168">
        <ele>403.14</ele>
        <time>2023-06-13T10:35:33.684Z</time>
      </trkpt>
      <trkpt lat="48.23348997160792" lon="17.098979959264398">
        <ele>404.85</ele>
        <time>2023-06-13T10:35:35.084Z</time>
      </trkpt>
      <trkpt lat="48.2334999460727" lon="17.09874995984137">
        <ele>406.56</ele>
        <time>2023-06-13T10:35:36.487Z</time>
      </trkpt>
      <trkpt lat="48.23348997160792" lon="17.098539993166924">
        <ele>408.24</ele>
        <time>2023-06-13T10:35:37.893Z</time>
      </trkpt>
      <trkpt lat="48.23347999714315" lon="17.09833991713822">
        <ele>409.87</ele>
        <time>2023-06-13T10:35:39.301Z</time>
      </trkpt>
      <trkpt lat="48.233449989929795" lon="17.098099943250418">
        <ele>411.48</ele>
        <time>2023-06-13T10:35:40.713Z</time>
      </trkpt>
      <trkpt lat="48.233409924432635" lon="17.097899951040745">
        <ele>413.04</ele>
        <time>2023-06-13T10:35:42.127Z</time>
      </trkpt>
      <trkpt lat="48.23339994996786" lon="17.097859969362617">
        <ele>414.46</ele>
        <time>2023-06-13T10:35:43.542Z</time>
      </trkpt>
      <trkpt lat="48.23333993554115" lon="17.0977399405092">
        <ele>415.86</ele>
        <time>2023-06-13T10:35:44.959Z</time>
      </trkpt>
      <trkpt lat="48.233149917796254" lon="17.097269967198372">
        <ele>417.29</ele>
        <time>2023-06-13T10:35:46.383Z</time>
      </trkpt>
      <trkpt lat="48.23311999440193" lon="17.09715999662876">
        <ele>418.55</ele>
        <time>2023-06-13T10:35:47.809Z</time>
      </trkpt>
      <trkpt lat="48.23307992890477" lon="17.096999986097217">
        <ele>419.74</ele>
        <time>2023-06-13T10:35:49.237Z</time>
      </trkpt>
      <trkpt lat="48.233019998297095" lon="17.09672992117703">
        <ele>420.88</ele>
        <time>2023-06-13T10:35:50.669Z</time>
      </trkpt>
      <trkpt lat="48.23293995112181" lon="17.096539987251163">
        <ele>421.92</ele>
        <time>2023-06-13T10:35:52.104Z</time>
      </trkpt>
      <trkpt lat="48.23283995501697" lon="17.096349969506264">
        <ele>422.88</ele>
        <time>2023-06-13T10:35:53.542Z</time>
      </trkpt>
      <trkpt lat="48.23279997333884" lon="17.096289955079556">
        <ele>423.74</ele>
        <time>2023-06-13T10:35:54.981Z</time>
      </trkpt>
      <trkpt lat="48.23277994059026" lon="17.096239998936653">
        <ele>424.53</ele>
        <time>2023-06-13T10:35:56.421Z</time>
      </trkpt>
      <trkpt lat="48.23274993337691" lon="17.096099937334657">
        <ele>425.26</ele>
        <time>2023-06-13T10:35:57.863Z</time>
      </trkpt>
      <trkpt lat="48.23270995169878" lon="17.095919977873564">
        <ele>425.92</ele>
        <time>2023-06-13T10:35:59.308Z</time>
      </trkpt>
      <trkpt lat="48.232699977234006" lon="17.095799949020147">
        <ele>426.46</ele>
        <time>2023-06-13T10:36:00.754Z</time>
      </trkpt>
      <trkpt lat="48.23270995169878" lon="17.095519993454218">
        <ele>426.93</ele>
        <time>2023-06-13T10:36:02.204Z</time>
      </trkpt>
      <trkpt lat="48.232699977234006" lon="17.095349924638867">
        <ele>427.29</ele>
        <time>2023-06-13T10:36:03.656Z</time>
      </trkpt>
      <trkpt lat="48.232699977234006" lon="17.095129983499646">
        <ele>427.58</ele>
        <time>2023-06-13T10:36:05.111Z</time>
      </trkpt>
      <trkpt lat="48.232679944485426" lon="17.094979947432876">
        <ele>427.79</ele>
        <time>2023-06-13T10:36:06.568Z</time>
      </trkpt>
      <trkpt lat="48.23266997002065" lon="17.094849944114685">
        <ele>427.93</ele>
        <time>2023-06-13T10:36:08.027Z</time>
      </trkpt>
      <trkpt lat="48.232699977234006" lon="17.094569988548756">
        <ele>428.06</ele>
        <time>2023-06-13T10:36:09.490Z</time>
      </trkpt>
      <trkpt lat="48.232739958912134" lon="17.094439985230565">
        <ele>428.07</ele>
        <time>2023-06-13T10:36:10.955Z</time>
      </trkpt>
      <trkpt lat="48.23281992226839" lon="17.094099931418896">
        <ele>428.05</ele>
        <time>2023-06-13T10:36:12.425Z</time>
      </trkpt>
      <trkpt lat="48.23283995501697" lon="17.094029942527413">
        <ele>427.94</ele>
        <time>2023-06-13T10:36:13.896Z</time>
      </trkpt>
      <trkpt lat="48.23289996944368" lon="17.093759961426258">
        <ele>427.77</ele>
        <time>2023-06-13T10:36:15.370Z</time>
      </trkpt>
      <trkpt lat="48.23294992558658" lon="17.09356994368136">
        <ele>427.53</ele>
        <time>2023-06-13T10:36:16.847Z</time>
      </trkpt>
      <trkpt lat="48.23296995833516" lon="17.093309937044978">
        <ele>427.21</ele>
        <time>2023-06-13T10:36:18.328Z</time>
      </trkpt>
      <trkpt lat="48.23296995833516" lon="17.093259980902076">
        <ele>426.87</ele>
        <time>2023-06-13T10:36:19.809Z</time>
      </trkpt>
      <trkpt lat="48.23295998387039" lon="17.093129977583885">
        <ele>426.47</ele>
        <time>2023-06-13T10:36:21.292Z</time>
      </trkpt>
      <trkpt lat="48.23291991837323" lon="17.09277994930744">
        <ele>425.99</ele>
        <time>2023-06-13T10:36:22.780Z</time>
      </trkpt>
      <trkpt lat="48.2328799366951" lon="17.092499993741512">
        <ele>425.48</ele>
        <time>2023-06-13T10:36:24.272Z</time>
      </trkpt>
      <trkpt lat="48.23285998776555" lon="17.09236999042332">
        <ele>424.99</ele>
        <time>2023-06-13T10:36:25.765Z</time>
      </trkpt>
      <trkpt lat="48.2328299805522" lon="17.09223998710513">
        <ele>424.49</ele>
        <time>2023-06-13T10:36:27.260Z</time>
      </trkpt>
      <trkpt lat="48.232759991660714" lon="17.091879984363914">
        <ele>423.99</ele>
        <time>2023-06-13T10:36:28.760Z</time>
      </trkpt>
      <trkpt lat="48.23266997002065" lon="17.091609919443727">
        <ele>423.46</ele>
        <time>2023-06-13T10:36:30.264Z</time>
      </trkpt>
      <trkpt lat="48.232589922845364" lon="17.09141998551786">
        <ele>422.92</ele>
        <time>2023-06-13T10:36:31.771Z</time>
      </trkpt>
      <trkpt lat="48.23252999223769" lon="17.091309931129217">
        <ele>422.39</ele>
        <time>2023-06-13T10:36:33.280Z</time>
      </trkpt>
      <trkpt lat="48.23250995948911" lon="17.09124991670251">
        <ele>421.86</ele>
        <time>2023-06-13T10:36:34.790Z</time>
      </trkpt>
      <trkpt lat="48.23246997781098" lon="17.09096996113658">
        <ele>421.36</ele>
        <time>2023-06-13T10:36:36.304Z</time>
      </trkpt>
      <trkpt lat="48.2324499450624" lon="17.090679947286844">
        <ele>420.83</ele>
        <time>2023-06-13T10:36:37.822Z</time>
      </trkpt>
      <trkpt lat="48.232419937849045" lon="17.090319944545627">
        <ele>420.29</ele>
        <time>2023-06-13T10:36:39.345Z</time>
      </trkpt>
      <trkpt lat="48.232419937849045" lon="17.090129926800728">
        <ele>419.8</ele>
        <time>2023-06-13T10:36:40.870Z</time>
      </trkpt>
      <trkpt lat="48.23237995617092" lon="17.089759949594736">
        <ele>419.3</ele>
        <time>2023-06-13T10:36:42.400Z</time>
      </trkpt>
      <trkpt lat="48.23234994895756" lon="17.089409921318293">
        <ele>418.81</ele>
        <time>2023-06-13T10:36:43.935Z</time>
      </trkpt>
      <trkpt lat="48.23234994895756" lon="17.089129965752363">
        <ele>418.28</ele>
        <time>2023-06-13T10:36:45.474Z</time>
      </trkpt>
      <trkpt lat="48.23234994895756" lon="17.089019995182753">
        <ele>417.79</ele>
        <time>2023-06-13T10:36:47.014Z</time>
      </trkpt>
      <trkpt lat="48.23240996338427" lon="17.08858991973102">
        <ele>417.24</ele>
        <time>2023-06-13T10:36:48.560Z</time>
      </trkpt>
      <trkpt lat="48.232439970597625" lon="17.08847994916141">
        <ele>416.78</ele>
        <time>2023-06-13T10:36:50.108Z</time>
      </trkpt>
      <trkpt lat="48.23251993395388" lon="17.0881799608469">
        <ele>416.35</ele>
        <time>2023-06-13T10:36:51.660Z</time>
      </trkpt>
      <trkpt lat="48.23255999945104" lon="17.088099997490644">
        <ele>415.94</ele>
        <time>2023-06-13T10:36:53.213Z</time>
      </trkpt>
      <trkpt lat="48.232629988342524" lon="17.08787997253239">
        <ele>415.55</ele>
        <time>2023-06-13T10:36:54.770Z</time>
      </trkpt>
      <trkpt lat="48.23266997002065" lon="17.08776991814375">
        <ele>415.19</ele>
        <time>2023-06-13T10:36:56.328Z</time>
      </trkpt>
      <trkpt lat="48.232739958912134" lon="17.087439922615886">
        <ele>414.79</ele>
        <time>2023-06-13T10:36:57.891Z</time>
      </trkpt>
      <trkpt lat="48.232759991660714" lon="17.087309919297695">
        <ele>414.48</ele>
        <time>2023-06-13T10:36:59.456Z</time>
      </trkpt>
      <trkpt lat="48.23280994780362" lon="17.086959974840283">
        <ele>414.15</ele>
        <time>2023-06-13T10:37:01.025Z</time>
      </trkpt>
      <trkpt lat="48.232869962230325" lon="17.08662997931242">
        <ele>413.88</ele>
        <time>2023-06-13T10:37:02.599Z</time>
      </trkpt>
      <trkpt lat="48.232889994978905" lon="17.08649997599423">
        <ele>413.68</ele>
        <time>2023-06-13T10:37:04.175Z</time>
      </trkpt>
      <trkpt lat="48.232999965548515" lon="17.086079958826303">
        <ele>413.49</ele>
        <time>2023-06-13T10:37:05.757Z</time>
      </trkpt>
      <trkpt lat="48.23302997276187" lon="17.085959929972887">
        <ele>413.33</ele>
        <time>2023-06-13T10:37:07.341Z</time>
      </trkpt>
      <trkpt lat="48.233109936118126" lon="17.085629934445024">
        <ele>413.17</ele>
        <time>2023-06-13T10:37:08.929Z</time>
      </trkpt>
      <trkpt lat="48.233149917796254" lon="17.085529938340187">
        <ele>413.08</ele>
        <time>2023-06-13T10:37:10.519Z</time>
      </trkpt>
      <trkpt lat="48.23323993943632" lon="17.085139928385615">
        <ele>413.01</ele>
        <time>2023-06-13T10:37:12.114Z</time>
      </trkpt>
      <trkpt lat="48.23328997939825" lon="17.08486994728446">
        <ele>412.96</ele>
        <time>2023-06-13T10:37:13.713Z</time>
      </trkpt>
      <trkpt lat="48.233299953863025" lon="17.084779925644398">
        <ele>412.92</ele>
        <time>2023-06-13T10:37:15.313Z</time>
      </trkpt>
      <trkpt lat="48.23332996107638" lon="17.084489995613694">
        <ele>412.92</ele>
        <time>2023-06-13T10:37:16.917Z</time>
      </trkpt>
      <trkpt lat="48.23332996107638" lon="17.084389999508858">
        <ele>412.93</ele>
        <time>2023-06-13T10:37:18.523Z</time>
      </trkpt>
      <trkpt lat="48.23332996107638" lon="17.08419998176396">
        <ele>412.95</ele>
        <time>2023-06-13T10:37:20.131Z</time>
      </trkpt>
      <trkpt lat="48.23333993554115" lon="17.08383997902274">
        <ele>413.02</ele>
        <time>2023-06-13T10:37:21.744Z</time>
      </trkpt>
      <trkpt lat="48.23334999382496" lon="17.083679968491197">
        <ele>413.05</ele>
        <time>2023-06-13T10:37:23.359Z</time>
      </trkpt>
      <trkpt lat="48.23334999382496" lon="17.083329940214753">
        <ele>413.08</ele>
        <time>2023-06-13T10:37:24.979Z</time>
      </trkpt>
      <trkpt lat="48.23335996828973" lon="17.083229944109917">
        <ele>413.13</ele>
        <time>2023-06-13T10:37:26.600Z</time>
      </trkpt>
      <trkpt lat="48.23336994275451" lon="17.083029951900244">
        <ele>413.2</ele>
        <time>2023-06-13T10:37:28.224Z</time>
      </trkpt>
      <trkpt lat="48.23338997550309" lon="17.082749996334314">
        <ele>413.27</ele>
        <time>2023-06-13T10:37:29.852Z</time>
      </trkpt>
      <trkpt lat="48.23336994275451" lon="17.082339953631163">
        <ele>413.4</ele>
        <time>2023-06-13T10:37:31.485Z</time>
      </trkpt>
      <trkpt lat="48.23334999382496" lon="17.082259990274906">
        <ele>413.43</ele>
        <time>2023-06-13T10:37:33.119Z</time>
      </trkpt>
      <trkpt lat="48.233319986611605" lon="17.082059998065233">
        <ele>413.45</ele>
        <time>2023-06-13T10:37:34.756Z</time>
      </trkpt>
      <trkpt lat="48.2332599721849" lon="17.081679962575436">
        <ele>413.43</ele>
        <time>2023-06-13T10:37:36.398Z</time>
      </trkpt>
      <trkpt lat="48.23321999050677" lon="17.081359941512346">
        <ele>413.42</ele>
        <time>2023-06-13T10:37:38.044Z</time>
      </trkpt>
      <trkpt lat="48.23317992500961" lon="17.081029945984483">
        <ele>413.43</ele>
        <time>2023-06-13T10:37:39.695Z</time>
      </trkpt>
      <trkpt lat="48.233169950544834" lon="17.080929949879646">
        <ele>413.44</ele>
        <time>2023-06-13T10:37:41.347Z</time>
      </trkpt>
      <trkpt lat="48.233189983293414" lon="17.080519990995526">
        <ele>413.41</ele>
        <time>2023-06-13T10:37:43.005Z</time>
      </trkpt>
      <trkpt lat="48.23320993222296" lon="17.080409936606884">
        <ele>413.4</ele>
        <time>2023-06-13T10:37:44.664Z</time>
      </trkpt>
      <trkpt lat="48.23321999050677" lon="17.080299966037273">
        <ele>413.4</ele>
        <time>2023-06-13T10:37:46.325Z</time>
      </trkpt>
      <trkpt lat="48.23323993943632" lon="17.079869974404573">
        <ele>413.35</ele>
        <time>2023-06-13T10:37:47.992Z</time>
      </trkpt>
      <trkpt lat="48.233279921114445" lon="17.079609967768192">
        <ele>413.37</ele>
        <time>2023-06-13T10:37:49.662Z</time>
      </trkpt>
      <trkpt lat="48.23322996497154" lon="17.079299921169877">
        <ele>413.45</ele>
        <time>2023-06-13T10:37:51.336Z</time>
      </trkpt>
      <trkpt lat="48.23302997276187" lon="17.078909995034337">
        <ele>413.42</ele>
        <time>2023-06-13T10:37:53.017Z</time>
      </trkpt>
      <trkpt lat="48.232999965548515" lon="17.078819973394275">
        <ele>413.55</ele>
        <time>2023-06-13T10:37:54.699Z</time>
      </trkpt>
      <trkpt lat="48.23291991837323" lon="17.078649988397956">
        <ele>413.7</ele>
        <time>2023-06-13T10:37:56.384Z</time>
      </trkpt>
      <trkpt lat="48.23283995501697" lon="17.07852995954454">
        <ele>413.9</ele>
        <time>2023-06-13T10:37:58.071Z</time>
      </trkpt>
      <trkpt lat="48.232629988342524" lon="17.07833994179964">
        <ele>414.21</ele>
        <time>2023-06-13T10:37:59.763Z</time>
      </trkpt>
      <trkpt lat="48.232609955593944" lon="17.078299960121512">
        <ele>414.53</ele>
        <time>2023-06-13T10:38:01.456Z</time>
      </trkpt>
      <trkpt lat="48.23252999223769" lon="17.078159982338548">
        <ele>414.94</ele>
        <time>2023-06-13T10:38:03.151Z</time>
      </trkpt>
      <trkpt lat="48.232419937849045" lon="17.077939957380295">
        <ele>415.46</ele>
        <time>2023-06-13T10:38:04.850Z</time>
      </trkpt>
      <trkpt lat="48.23238993063569" lon="17.077879942953587">
        <ele>415.89</ele>
        <time>2023-06-13T10:38:06.550Z</time>
      </trkpt>
      <trkpt lat="48.23229999281466" lon="17.077729990705848">
        <ele>416.4</ele>
        <time>2023-06-13T10:38:08.253Z</time>
      </trkpt>
      <trkpt lat="48.23221994563937" lon="17.07762999460101">
        <ele>416.91</ele>
        <time>2023-06-13T10:38:09.958Z</time>
      </trkpt>
      <trkpt lat="48.232199996709824" lon="17.077599987387657">
        <ele>417.39</ele>
        <time>2023-06-13T10:38:11.663Z</time>
      </trkpt>
      <trkpt lat="48.23214995674789" lon="17.07751994021237">
        <ele>417.9</ele>
        <time>2023-06-13T10:38:13.370Z</time>
      </trkpt>
      <trkpt lat="48.23203998617828" lon="17.077339980751276">
        <ele>418.44</ele>
        <time>2023-06-13T10:38:15.080Z</time>
      </trkpt>
      <trkpt lat="48.23189992457628" lon="17.077249959111214">
        <ele>418.97</ele>
        <time>2023-06-13T10:38:16.793Z</time>
      </trkpt>
      <trkpt lat="48.23175994679332" lon="17.077169995754957">
        <ele>419.5</ele>
        <time>2023-06-13T10:38:18.509Z</time>
      </trkpt>
      <trkpt lat="48.231689957901835" lon="17.077119955793023">
        <ele>420.01</ele>
        <time>2023-06-13T10:38:20.227Z</time>
      </trkpt>
      <trkpt lat="48.23154998011887" lon="17.07704996690154">
        <ele>420.53</ele>
        <time>2023-06-13T10:38:21.948Z</time>
      </trkpt>
      <trkpt lat="48.23151997290552" lon="17.077019959688187">
        <ele>421.01</ele>
        <time>2023-06-13T10:38:23.669Z</time>
      </trkpt>
      <trkpt lat="48.23135996237397" lon="17.076889956369996">
        <ele>421.51</ele>
        <time>2023-06-13T10:38:25.394Z</time>
      </trkpt>
      <trkpt lat="48.2312099263072" lon="17.07665995694697">
        <ele>421.98</ele>
        <time>2023-06-13T10:38:27.123Z</time>
      </trkpt>
      <trkpt lat="48.23117991909385" lon="17.076609916985035">
        <ele>422.4</ele>
        <time>2023-06-13T10:38:28.853Z</time>
      </trkpt>
      <trkpt lat="48.231109930202365" lon="17.076499946415424">
        <ele>422.8</ele>
        <time>2023-06-13T10:38:30.585Z</time>
      </trkpt>
      <trkpt lat="48.23102996684611" lon="17.07627992145717">
        <ele>423.16</ele>
        <time>2023-06-13T10:38:32.321Z</time>
      </trkpt>
      <trkpt lat="48.2309699524194" lon="17.076179925352335">
        <ele>423.49</ele>
        <time>2023-06-13T10:38:34.058Z</time>
      </trkpt>
      <trkpt lat="48.2307799346745" lon="17.075989991426468">
        <ele>423.79</ele>
        <time>2023-06-13T10:38:35.800Z</time>
      </trkpt>
      <trkpt lat="48.23073995299637" lon="17.075959984213114">
        <ele>424.08</ele>
        <time>2023-06-13T10:38:37.543Z</time>
      </trkpt>
      <trkpt lat="48.230699971318245" lon="17.07592997699976">
        <ele>424.34</ele>
        <time>2023-06-13T10:38:39.287Z</time>
      </trkpt>
      <trkpt lat="48.23063995689154" lon="17.075839955359697">
        <ele>424.58</ele>
        <time>2023-06-13T10:38:41.033Z</time>
      </trkpt>
      <trkpt lat="48.23057994246483" lon="17.075789999216795">
        <ele>424.79</ele>
        <time>2023-06-13T10:38:42.780Z</time>
      </trkpt>
      <trkpt lat="48.23044993914664" lon="17.07562998868525">
        <ele>424.97</ele>
        <time>2023-06-13T10:38:44.530Z</time>
      </trkpt>
      <trkpt lat="48.23040995746851" lon="17.075579948723316">
        <ele>425.15</ele>
        <time>2023-06-13T10:38:46.281Z</time>
      </trkpt>
      <trkpt lat="48.2303499430418" lon="17.075469978153706">
        <ele>425.3</ele>
        <time>2023-06-13T10:38:48.034Z</time>
      </trkpt>
      <trkpt lat="48.23021993972361" lon="17.075249953195453">
        <ele>425.46</ele>
        <time>2023-06-13T10:38:49.791Z</time>
      </trkpt>
      <trkpt lat="48.23017995804548" lon="17.075209971517324">
        <ele>425.57</ele>
        <time>2023-06-13T10:38:51.549Z</time>
      </trkpt>
      <trkpt lat="48.230109969154" lon="17.075109975412488">
        <ele>425.66</ele>
        <time>2023-06-13T10:38:53.309Z</time>
      </trkpt>
      <trkpt lat="48.23003998026252" lon="17.074999921023846">
        <ele>425.72</ele>
        <time>2023-06-13T10:38:55.071Z</time>
      </trkpt>
      <trkpt lat="48.229989940300584" lon="17.07487997598946">
        <ele>425.74</ele>
        <time>2023-06-13T10:38:56.835Z</time>
      </trkpt>
      <trkpt lat="48.22975994087756" lon="17.07448996603489">
        <ele>425.63</ele>
        <time>2023-06-13T10:38:58.606Z</time>
      </trkpt>
      <trkpt lat="48.22956992313266" lon="17.07414999604225">
        <ele>425.52</ele>
        <time>2023-06-13T10:39:00.383Z</time>
      </trkpt>
      <trkpt lat="48.229389963671565" lon="17.073839949443936">
        <ele>425.42</ele>
        <time>2023-06-13T10:39:02.165Z</time>
      </trkpt>
      <trkpt lat="48.229239927604795" lon="17.073639957234263">
        <ele>425.31</ele>
        <time>2023-06-13T10:39:03.951Z</time>
      </trkpt>
      <trkpt lat="48.22909994982183" lon="17.07347994670272">
        <ele>425.19</ele>
        <time>2023-06-13T10:39:05.741Z</time>
      </trkpt>
      <trkpt lat="48.22899995371699" lon="17.073389925062656">
        <ele>425.01</ele>
        <time>2023-06-13T10:39:07.533Z</time>
      </trkpt>
      <trkpt lat="48.228829968720675" lon="17.073279954493046">
        <ele>424.8</ele>
        <time>2023-06-13T10:39:09.329Z</time>
      </trkpt>
      <trkpt lat="48.22872997261584" lon="17.073229998350143">
        <ele>424.55</ele>
        <time>2023-06-13T10:39:11.127Z</time>
      </trkpt>
      <trkpt lat="48.22851992212236" lon="17.07298994064331">
        <ele>424.3</ele>
        <time>2023-06-13T10:39:12.930Z</time>
      </trkpt>
      <trkpt lat="48.2284399587661" lon="17.072719959542155">
        <ele>423.97</ele>
        <time>2023-06-13T10:39:14.737Z</time>
      </trkpt>
      <trkpt lat="48.22836996987462" lon="17.072569923475385">
        <ele>423.57</ele>
        <time>2023-06-13T10:39:16.547Z</time>
      </trkpt>
      <trkpt lat="48.22821993380785" lon="17.072479985654354">
        <ele>423.16</ele>
        <time>2023-06-13T10:39:18.360Z</time>
      </trkpt>
      <trkpt lat="48.22803997434676" lon="17.07248996011913">
        <ele>422.72</ele>
        <time>2023-06-13T10:39:20.177Z</time>
      </trkpt>
      <trkpt lat="48.22774996049702" lon="17.07248996011913">
        <ele>422.19</ele>
        <time>2023-06-13T10:39:21.999Z</time>
      </trkpt>
      <trkpt lat="48.22768994607031" lon="17.072499934583902">
        <ele>421.65</ele>
        <time>2023-06-13T10:39:23.823Z</time>
      </trkpt>
      <trkpt lat="48.2275799755007" lon="17.072499934583902">
        <ele>421.02</ele>
        <time>2023-06-13T10:39:25.649Z</time>
      </trkpt>
      <trkpt lat="48.227369925007224" lon="17.07229994237423">
        <ele>420.3</ele>
        <time>2023-06-13T10:39:27.480Z</time>
      </trkpt>
      <trkpt lat="48.22733991779387" lon="17.07223992794752">
        <ele>419.68</ele>
        <time>2023-06-13T10:39:29.312Z</time>
      </trkpt>
      <trkpt lat="48.22727998718619" lon="17.07210992462933">
        <ele>419.03</ele>
        <time>2023-06-13T10:39:31.146Z</time>
      </trkpt>
      <trkpt lat="48.22722994722426" lon="17.072009928524494">
        <ele>418.36</ele>
        <time>2023-06-13T10:39:32.982Z</time>
      </trkpt>
      <trkpt lat="48.227089969441295" lon="17.071749921888113">
        <ele>417.68</ele>
        <time>2023-06-13T10:39:34.822Z</time>
      </trkpt>
      <trkpt lat="48.22696994058788" lon="17.071479940786958">
        <ele>416.9</ele>
        <time>2023-06-13T10:39:36.666Z</time>
      </trkpt>
      <trkpt lat="48.22683993726969" lon="17.07119998522103">
        <ele>416.02</ele>
        <time>2023-06-13T10:39:38.515Z</time>
      </trkpt>
      <trkpt lat="48.226659977808595" lon="17.070999993011355">
        <ele>415.08</ele>
        <time>2023-06-13T10:39:40.368Z</time>
      </trkpt>
      <trkpt lat="48.22653994895518" lon="17.07092992030084">
        <ele>414.16</ele>
        <time>2023-06-13T10:39:42.224Z</time>
      </trkpt>
      <trkpt lat="48.226319923996925" lon="17.070849956944585">
        <ele>413.25</ele>
        <time>2023-06-13T10:39:44.085Z</time>
      </trkpt>
      <trkpt lat="48.226229986175895" lon="17.07081994973123">
        <ele>412.28</ele>
        <time>2023-06-13T10:39:45.947Z</time>
      </trkpt>
      <trkpt lat="48.22591993957758" lon="17.070609983056784">
        <ele>411.16</ele>
        <time>2023-06-13T10:39:47.816Z</time>
      </trkpt>
      <trkpt lat="48.2258499506861" lon="17.070529935881495">
        <ele>410.12</ele>
        <time>2023-06-13T10:39:49.687Z</time>
      </trkpt>
      <trkpt lat="48.225779961794615" lon="17.07042993977666">
        <ele>409.07</ele>
        <time>2023-06-13T10:39:51.560Z</time>
      </trkpt>
      <trkpt lat="48.225539987906814" lon="17.070229947566986">
        <ele>407.95</ele>
        <time>2023-06-13T10:39:53.438Z</time>
      </trkpt>
      <trkpt lat="48.225349970161915" lon="17.070169933140278">
        <ele>406.92</ele>
        <time>2023-06-13T10:39:55.320Z</time>
      </trkpt>
      <trkpt lat="48.22516992688179" lon="17.070139925926924">
        <ele>405.9</ele>
        <time>2023-06-13T10:39:57.206Z</time>
      </trkpt>
      <trkpt lat="48.22497999295592" lon="17.070189965888858">
        <ele>404.82</ele>
        <time>2023-06-13T10:39:59.096Z</time>
      </trkpt>
      <trkpt lat="48.224789975211024" lon="17.070269929245114">
        <ele>403.81</ele>
        <time>2023-06-13T10:40:00.990Z</time>
      </trkpt>
      <trkpt lat="48.2246099319309" lon="17.070309994742274">
        <ele>402.8</ele>
        <time>2023-06-13T10:40:02.887Z</time>
      </trkpt>
      <trkpt lat="48.22450993582606" lon="17.070349976420403">
        <ele>401.84</ele>
        <time>2023-06-13T10:40:04.786Z</time>
      </trkpt>
      <trkpt lat="48.22441999800503" lon="17.07038995809853">
        <ele>400.88</ele>
        <time>2023-06-13T10:40:06.687Z</time>
      </trkpt>
      <trkpt lat="48.22425998747349" lon="17.070509986951947">
        <ele>399.96</ele>
        <time>2023-06-13T10:40:08.592Z</time>
      </trkpt>
      <trkpt lat="48.22415999136865" lon="17.07057997584343">
        <ele>399.06</ele>
        <time>2023-06-13T10:40:10.499Z</time>
      </trkpt>
      <trkpt lat="48.22394994087517" lon="17.070669997483492">
        <ele>398.14</ele>
        <time>2023-06-13T10:40:12.410Z</time>
      </trkpt>
      <trkpt lat="48.22365992702544" lon="17.070649964734912">
        <ele>397.24</ele>
        <time>2023-06-13T10:40:14.327Z</time>
      </trkpt>
      <trkpt lat="48.22357996366918" lon="17.070619957521558">
        <ele>396.4</ele>
        <time>2023-06-13T10:40:16.246Z</time>
      </trkpt>
      <trkpt lat="48.223399920389056" lon="17.0705399941653">
        <ele>395.57</ele>
        <time>2023-06-13T10:40:18.169Z</time>
      </trkpt>
      <trkpt lat="48.2233199570328" lon="17.070489954203367">
        <ele>394.79</ele>
        <time>2023-06-13T10:40:20.093Z</time>
      </trkpt>
      <trkpt lat="48.22309993207455" lon="17.070349976420403">
        <ele>394.04</ele>
        <time>2023-06-13T10:40:22.022Z</time>
      </trkpt>
      <trkpt lat="48.223029943183064" lon="17.07029993645847">
        <ele>393.34</ele>
        <time>2023-06-13T10:40:23.953Z</time>
      </trkpt>
      <trkpt lat="48.22271998040378" lon="17.07012995146215">
        <ele>392.61</ele>
        <time>2023-06-13T10:40:25.890Z</time>
      </trkpt>
      <trkpt lat="48.222539937123656" lon="17.07006993703544">
        <ele>391.94</ele>
        <time>2023-06-13T10:40:27.831Z</time>
      </trkpt>
      <trkpt lat="48.2224599737674" lon="17.070049988105893">
        <ele>391.34</ele>
        <time>2023-06-13T10:40:29.774Z</time>
      </trkpt>
      <trkpt lat="48.22217993438244" lon="17.06993993371725">
        <ele>390.72</ele>
        <time>2023-06-13T10:40:31.722Z</time>
      </trkpt>
      <trkpt lat="48.22170996107161" lon="17.069929959252477">
        <ele>390.13</ele>
        <time>2023-06-13T10:40:33.680Z</time>
      </trkpt>
      <trkpt lat="48.221529917791486" lon="17.069909926503897">
        <ele>389.67</ele>
        <time>2023-06-13T10:40:35.642Z</time>
      </trkpt>
      <trkpt lat="48.22136999107897" lon="17.069909926503897">
        <ele>389.25</ele>
        <time>2023-06-13T10:40:37.607Z</time>
      </trkpt>
      <trkpt lat="48.221099926158786" lon="17.06993993371725">
        <ele>388.88</ele>
        <time>2023-06-13T10:40:39.577Z</time>
      </trkpt>
      <trkpt lat="48.220839919522405" lon="17.069949992001057">
        <ele>388.66</ele>
        <time>2023-06-13T10:40:41.552Z</time>
      </trkpt>
      <trkpt lat="48.22075995616615" lon="17.06993993371725">
        <ele>388.5</ele>
        <time>2023-06-13T10:40:43.529Z</time>
      </trkpt>
      <trkpt lat="48.22062995284796" lon="17.06995996646583">
        <ele>388.4</ele>
        <time>2023-06-13T10:40:45.509Z</time>
      </trkpt>
      <trkpt lat="48.2205499894917" lon="17.069989973679185">
        <ele>388.34</ele>
        <time>2023-06-13T10:40:47.490Z</time>
      </trkpt>
      <trkpt lat="48.220429960638285" lon="17.070039929822087">
        <ele>388.34</ele>
        <time>2023-06-13T10:40:49.474Z</time>
      </trkpt>
      <trkpt lat="48.220259975641966" lon="17.070119976997375">
        <ele>388.41</ele>
        <time>2023-06-13T10:40:51.461Z</time>
      </trkpt>
      <trkpt lat="48.220129972323775" lon="17.070189965888858">
        <ele>388.52</ele>
        <time>2023-06-13T10:40:53.451Z</time>
      </trkpt>
      <trkpt lat="48.21987994015217" lon="17.070249980315566">
        <ele>388.69</ele>
        <time>2023-06-13T10:40:55.446Z</time>
      </trkpt>
      <trkpt lat="48.219809951260686" lon="17.070269929245114">
        <ele>388.82</ele>
        <time>2023-06-13T10:40:57.443Z</time>
      </trkpt>
      <trkpt lat="48.21958992630243" lon="17.07038995809853">
        <ele>388.99</ele>
        <time>2023-06-13T10:40:59.444Z</time>
      </trkpt>
      <trkpt lat="48.21950996294618" lon="17.07040999084711">
        <ele>389.14</ele>
        <time>2023-06-13T10:41:01.447Z</time>
      </trkpt>
      <trkpt lat="48.21933997794986" lon="17.07044997252524">
        <ele>389.28</ele>
        <time>2023-06-13T10:41:03.453Z</time>
      </trkpt>
      <trkpt lat="48.219249956309795" lon="17.070459946990013">
        <ele>389.46</ele>
        <time>2023-06-13T10:41:05.461Z</time>
      </trkpt>
      <trkpt lat="48.21893999353051" lon="17.070659939199686">
        <ele>389.76</ele>
        <time>2023-06-13T10:41:07.476Z</time>
      </trkpt>
      <trkpt lat="48.21886992082" lon="17.07074996083975">
        <ele>390.06</ele>
        <time>2023-06-13T10:41:09.493Z</time>
      </trkpt>
      <trkpt lat="48.218709994107485" lon="17.070979960262775">
        <ele>390.44</ele>
        <time>2023-06-13T10:41:11.514Z</time>
      </trkpt>
      <trkpt lat="48.21846993640065" lon="17.07117995247245">
        <ele>390.75</ele>
        <time>2023-06-13T10:41:13.541Z</time>
      </trkpt>
      <trkpt lat="48.21830992586911" lon="17.071299981325865">
        <ele>391.0</ele>
        <time>2023-06-13T10:41:15.571Z</time>
      </trkpt>
      <trkpt lat="48.2181999552995" lon="17.071409951895475">
        <ele>391.25</ele>
        <time>2023-06-13T10:41:17.604Z</time>
      </trkpt>
      <trkpt lat="48.218109933659434" lon="17.071529980748892">
        <ele>391.49</ele>
        <time>2023-06-13T10:41:19.639Z</time>
      </trkpt>
      <trkpt lat="48.2180099375546" lon="17.07167993299663">
        <ele>391.71</ele>
        <time>2023-06-13T10:41:21.677Z</time>
      </trkpt>
      <trkpt lat="48.21785998530686" lon="17.07186995074153">
        <ele>391.89</ele>
        <time>2023-06-13T10:41:23.719Z</time>
      </trkpt>
      <trkpt lat="48.21772998198867" lon="17.07199995405972">
        <ele>392.06</ele>
        <time>2023-06-13T10:41:25.764Z</time>
      </trkpt>
      <trkpt lat="48.217659993097186" lon="17.072089975699782">
        <ele>392.24</ele>
        <time>2023-06-13T10:41:27.811Z</time>
      </trkpt>
      <trkpt lat="48.217569971457124" lon="17.07216993905604">
        <ele>392.38</ele>
        <time>2023-06-13T10:41:29.860Z</time>
      </trkpt>
      <trkpt lat="48.217359920963645" lon="17.07242994569242">
        <ele>392.54</ele>
        <time>2023-06-13T10:41:31.915Z</time>
      </trkpt>
      <trkpt lat="48.21727995760739" lon="17.072519967332482">
        <ele>392.66</ele>
        <time>2023-06-13T10:41:33.972Z</time>
      </trkpt>
      <trkpt lat="48.21710997261107" lon="17.07283998839557">
        <ele>392.66</ele>
        <time>2023-06-13T10:41:36.034Z</time>
      </trkpt>
      <trkpt lat="48.21708993986249" lon="17.072899919003248">
        <ele>392.75</ele>
        <time>2023-06-13T10:41:38.097Z</time>
      </trkpt>
      <trkpt lat="48.21701995097101" lon="17.073109969496727">
        <ele>392.73</ele>
        <time>2023-06-13T10:41:40.163Z</time>
      </trkpt>
      <trkpt lat="48.216969994828105" lon="17.073239972814918">
        <ele>392.73</ele>
        <time>2023-06-13T10:41:42.231Z</time>
      </trkpt>
      <trkpt lat="48.21686999872327" lon="17.073539961129427">
        <ele>392.71</ele>
        <time>2023-06-13T10:41:44.304Z</time>
      </trkpt>
      <trkpt lat="48.216819958761334" lon="17.073669964447618">
        <ele>392.8</ele>
        <time>2023-06-13T10:41:46.379Z</time>
      </trkpt>
      <trkpt lat="48.21674996986985" lon="17.073769960552454">
        <ele>392.91</ele>
        <time>2023-06-13T10:41:48.456Z</time>
      </trkpt>
      <trkpt lat="48.216669922694564" lon="17.073899963870645">
        <ele>393.05</ele>
        <time>2023-06-13T10:41:50.535Z</time>
      </trkpt>
      <trkpt lat="48.21653991937637" lon="17.074049999937415">
        <ele>393.17</ele>
        <time>2023-06-13T10:41:52.617Z</time>
      </trkpt>
      <trkpt lat="48.21635995991528" lon="17.074279999360442">
        <ele>393.32</ele>
        <time>2023-06-13T10:41:54.704Z</time>
      </trkpt>
      <trkpt lat="48.21620992384851" lon="17.07450999878347">
        <ele>393.41</ele>
        <time>2023-06-13T10:41:56.795Z</time>
      </trkpt>
      <trkpt lat="48.21618997491896" lon="17.074549980461597">
        <ele>393.47</ele>
        <time>2023-06-13T10:41:58.887Z</time>
      </trkpt>
      <trkpt lat="48.2160999532789" lon="17.074669925495982">
        <ele>393.56</ele>
        <time>2023-06-13T10:42:00.981Z</time>
      </trkpt>
      <trkpt lat="48.21601998992264" lon="17.074819961562753">
        <ele>393.58</ele>
        <time>2023-06-13T10:42:03.078Z</time>
      </trkpt>
      <trkpt lat="48.2158599793911" lon="17.075099917128682">
        <ele>393.68</ele>
        <time>2023-06-13T10:42:05.180Z</time>
      </trkpt>
      <trkpt lat="48.21577993221581" lon="17.0752199459821">
        <ele>393.64</ele>
        <time>2023-06-13T10:42:07.284Z</time>
      </trkpt>
      <trkpt lat="48.215619921684265" lon="17.075389930978417">
        <ele>393.53</ele>
        <time>2023-06-13T10:42:09.392Z</time>
      </trkpt>
      <trkpt lat="48.215509951114655" lon="17.07566997036338">
        <ele>393.42</ele>
        <time>2023-06-13T10:42:11.504Z</time>
      </trkpt>
      <trkpt lat="48.21538992226124" lon="17.075939951464534">
        <ele>393.23</ele>
        <time>2023-06-13T10:42:13.621Z</time>
      </trkpt>
      <trkpt lat="48.21534994058311" lon="17.076029973104596">
        <ele>392.99</ele>
        <time>2023-06-13T10:42:15.739Z</time>
      </trkpt>
      <trkpt lat="48.21527995169163" lon="17.076139943674207">
        <ele>392.71</ele>
        <time>2023-06-13T10:42:17.859Z</time>
      </trkpt>
      <trkpt lat="48.215189930051565" lon="17.076389975845814">
        <ele>392.4</ele>
        <time>2023-06-13T10:42:19.983Z</time>
      </trkpt>
      <trkpt lat="48.21514994837344" lon="17.076459964737296">
        <ele>391.98</ele>
        <time>2023-06-13T10:42:22.108Z</time>
      </trkpt>
      <trkpt lat="48.21500997059047" lon="17.07667998969555">
        <ele>391.49</ele>
        <time>2023-06-13T10:42:24.237Z</time>
      </trkpt>
      <trkpt lat="48.2148599345237" lon="17.076879981905222">
        <ele>390.93</ele>
        <time>2023-06-13T10:42:26.370Z</time>
      </trkpt>
      <trkpt lat="48.21469992399216" lon="17.07706999965012">
        <ele>390.28</ele>
        <time>2023-06-13T10:42:28.507Z</time>
      </trkpt>
      <trkpt lat="48.21454997174442" lon="17.07723998464644">
        <ele>389.62</ele>
        <time>2023-06-13T10:42:30.648Z</time>
      </trkpt>
      <trkpt lat="48.214459950104356" lon="17.07736998796463">
        <ele>389.01</ele>
        <time>2023-06-13T10:42:32.792Z</time>
      </trkpt>
      <trkpt lat="48.21424998342991" lon="17.07766997627914">
        <ele>388.27</ele>
        <time>2023-06-13T10:42:34.941Z</time>
      </trkpt>
      <trkpt lat="48.214199943467975" lon="17.077769972383976">
        <ele>387.66</ele>
        <time>2023-06-13T10:42:37.092Z</time>
      </trkpt>
      <trkpt lat="48.214049991220236" lon="17.078089993447065">
        <ele>386.99</ele>
        <time>2023-06-13T10:42:39.248Z</time>
      </trkpt>
      <trkpt lat="48.21398997679353" lon="17.078189989551902">
        <ele>386.37</ele>
        <time>2023-06-13T10:42:41.406Z</time>
      </trkpt>
      <trkpt lat="48.2137599773705" lon="17.078479919582605">
        <ele>385.74</ele>
        <time>2023-06-13T10:42:43.570Z</time>
      </trkpt>
      <trkpt lat="48.213579934090376" lon="17.078579999506474">
        <ele>385.11</ele>
        <time>2023-06-13T10:42:45.738Z</time>
      </trkpt>
      <trkpt lat="48.213489996269345" lon="17.078609922900796">
        <ele>384.46</ele>
        <time>2023-06-13T10:42:47.908Z</time>
      </trkpt>
      <trkpt lat="48.2131399679929" lon="17.07869994454086">
        <ele>383.74</ele>
        <time>2023-06-13T10:42:50.085Z</time>
      </trkpt>
      <trkpt lat="48.21295992471278" lon="17.078739926218987">
        <ele>383.01</ele>
        <time>2023-06-13T10:42:52.266Z</time>
      </trkpt>
      <trkpt lat="48.212779965251684" lon="17.07878996618092">
        <ele>382.37</ele>
        <time>2023-06-13T10:42:54.450Z</time>
      </trkpt>
      <trkpt lat="48.21261995472014" lon="17.078839922323823">
        <ele>381.75</ele>
        <time>2023-06-13T10:42:56.637Z</time>
      </trkpt>
      <trkpt lat="48.21242993697524" lon="17.07895995117724">
        <ele>381.15</ele>
        <time>2023-06-13T10:42:58.829Z</time>
      </trkpt>
      <trkpt lat="48.21211997419596" lon="17.079209983348846">
        <ele>380.62</ele>
        <time>2023-06-13T10:43:01.028Z</time>
      </trkpt>
      <trkpt lat="48.21188997477293" lon="17.07936999388039">
        <ele>380.13</ele>
        <time>2023-06-13T10:43:03.232Z</time>
      </trkpt>
      <trkpt lat="48.21167992427945" lon="17.079489938914776">
        <ele>379.7</ele>
        <time>2023-06-13T10:43:05.440Z</time>
      </trkpt>
      <trkpt lat="48.21160993538797" lon="17.079529920592904">
        <ele>379.28</ele>
        <time>2023-06-13T10:43:07.650Z</time>
      </trkpt>
      <trkpt lat="48.21130994707346" lon="17.079549953341484">
        <ele>379.01</ele>
        <time>2023-06-13T10:43:09.866Z</time>
      </trkpt>
      <trkpt lat="48.21124993264675" lon="17.079549953341484">
        <ele>378.66</ele>
        <time>2023-06-13T10:43:12.083Z</time>
      </trkpt>
      <trkpt lat="48.21118991822004" lon="17.079559927806258">
        <ele>378.32</ele>
        <time>2023-06-13T10:43:14.301Z</time>
      </trkpt>
      <trkpt lat="48.211019933223724" lon="17.07949999719858">
        <ele>378.03</ele>
        <time>2023-06-13T10:43:16.523Z</time>
      </trkpt>
      <trkpt lat="48.2107999920845" lon="17.079359935596585">
        <ele>377.7</ele>
        <time>2023-06-13T10:43:18.749Z</time>
      </trkpt>
      <trkpt lat="48.210739977657795" lon="17.079319953918457">
        <ele>377.39</ele>
        <time>2023-06-13T10:43:20.977Z</time>
      </trkpt>
      <trkpt lat="48.21048994548619" lon="17.07921995781362">
        <ele>377.03</ele>
        <time>2023-06-13T10:43:23.210Z</time>
      </trkpt>
      <trkpt lat="48.210359942168" lon="17.079189950600266">
        <ele>376.71</ele>
        <time>2023-06-13T10:43:25.446Z</time>
      </trkpt>
      <trkpt lat="48.21022993884981" lon="17.079179976135492">
        <ele>376.4</ele>
        <time>2023-06-13T10:43:27.684Z</time>
      </trkpt>
      <trkpt lat="48.21010999381542" lon="17.079169917851686">
        <ele>376.12</ele>
        <time>2023-06-13T10:43:29.925Z</time>
      </trkpt>
      <trkpt lat="48.20984998717904" lon="17.079169917851686">
        <ele>375.89</ele>
        <time>2023-06-13T10:43:32.171Z</time>
      </trkpt>
      <trkpt lat="48.20977999828756" lon="17.079159943386912">
        <ele>375.68</ele>
        <time>2023-06-13T10:43:34.418Z</time>
      </trkpt>
      <trkpt lat="48.209559973329306" lon="17.07906992174685">
        <ele>375.47</ele>
        <time>2023-06-13T10:43:36.670Z</time>
      </trkpt>
      <trkpt lat="48.20947992615402" lon="17.079039998352528">
        <ele>375.24</ele>
        <time>2023-06-13T10:43:38.923Z</time>
      </trkpt>
      <trkpt lat="48.20928999222815" lon="17.07891996949911">
        <ele>374.99</ele>
        <time>2023-06-13T10:43:41.181Z</time>
      </trkpt>
      <trkpt lat="48.209089916199446" lon="17.07882994785905">
        <ele>374.73</ele>
        <time>2023-06-13T10:43:43.443Z</time>
      </trkpt>
      <trkpt lat="48.20901992730796" lon="17.07878996618092">
        <ele>374.57</ele>
        <time>2023-06-13T10:43:45.706Z</time>
      </trkpt>
      <trkpt lat="48.20877995342016" lon="17.078729951754212">
        <ele>374.4</ele>
        <time>2023-06-13T10:43:47.974Z</time>
      </trkpt>
      <trkpt lat="48.20855992846191" lon="17.078709919005632">
        <ele>374.34</ele>
        <time>2023-06-13T10:43:50.247Z</time>
      </trkpt>
      <trkpt lat="48.20831995457411" lon="17.07869994454086">
        <ele>374.26</ele>
        <time>2023-06-13T10:43:52.524Z</time>
      </trkpt>
      <trkpt lat="48.20816991850734" lon="17.078669937327504">
        <ele>374.21</ele>
        <time>2023-06-13T10:43:54.804Z</time>
      </trkpt>
      <trkpt lat="48.20790999568999" lon="17.078649988397956">
        <ele>374.19</ele>
        <time>2023-06-13T10:43:57.090Z</time>
      </trkpt>
      <trkpt lat="48.207669937983155" lon="17.078599948436022">
        <ele>374.2</ele>
        <time>2023-06-13T10:43:59.380Z</time>
      </trkpt>
      <trkpt lat="48.20761998184025" lon="17.078579999506474">
        <ele>374.25</ele>
        <time>2023-06-13T10:44:01.671Z</time>
      </trkpt>
      <trkpt lat="48.207389982417226" lon="17.07852995954454">
        <ele>374.4</ele>
        <time>2023-06-13T10:44:03.967Z</time>
      </trkpt>
      <trkpt lat="48.20717993192375" lon="17.078479919582605">
        <ele>374.57</ele>
        <time>2023-06-13T10:44:06.267Z</time>
      </trkpt>
      <trkpt lat="48.20711991749704" lon="17.078459970653057">
        <ele>374.67</ele>
        <time>2023-06-13T10:44:08.569Z</time>
      </trkpt>
      <trkpt lat="48.20694993250072" lon="17.078449996188283">
        <ele>374.71</ele>
        <time>2023-06-13T10:44:10.874Z</time>
      </trkpt>
      <trkpt lat="48.206809954717755" lon="17.078409930691123">
        <ele>374.79</ele>
        <time>2023-06-13T10:44:13.182Z</time>
      </trkpt>
      <trkpt lat="48.2065899297595" lon="17.078479919582605">
        <ele>374.86</ele>
        <time>2023-06-13T10:44:15.494Z</time>
      </trkpt>
      <trkpt lat="48.20647995918989" lon="17.07867999561131">
        <ele>375.06</ele>
        <time>2023-06-13T10:44:17.810Z</time>
      </trkpt>
      <trkpt lat="48.20644995197654" lon="17.078759958967566">
        <ele>375.3</ele>
        <time>2023-06-13T10:44:20.127Z</time>
      </trkpt>
      <trkpt lat="48.20638993754983" lon="17.07889993675053">
        <ele>375.54</ele>
        <time>2023-06-13T10:44:22.446Z</time>
      </trkpt>
      <trkpt lat="48.20627996698022" lon="17.079149968922138">
        <ele>375.87</ele>
        <time>2023-06-13T10:44:24.769Z</time>
      </trkpt>
      <trkpt lat="48.206229927018285" lon="17.079269997775555">
        <ele>376.19</ele>
        <time>2023-06-13T10:44:27.094Z</time>
      </trkpt>
      <trkpt lat="48.20617997087538" lon="17.079399917274714">
        <ele>376.51</ele>
        <time>2023-06-13T10:44:29.421Z</time>
      </trkpt>
      <trkpt lat="48.206079974770546" lon="17.07970996387303">
        <ele>376.89</ele>
        <time>2023-06-13T10:44:31.753Z</time>
      </trkpt>
      <trkpt lat="48.205929938703775" lon="17.080019926652312">
        <ele>377.25</ele>
        <time>2023-06-13T10:44:34.090Z</time>
      </trkpt>
      <trkpt lat="48.20583991706371" lon="17.080219918861985">
        <ele>377.52</ele>
        <time>2023-06-13T10:44:36.430Z</time>
      </trkpt>
      <trkpt lat="48.205799935385585" lon="17.080279933288693">
        <ele>377.8</ele>
        <time>2023-06-13T10:44:38.771Z</time>
      </trkpt>
      <trkpt lat="48.20576992817223" lon="17.080349922180176">
        <ele>378.07</ele>
        <time>2023-06-13T10:44:41.113Z</time>
      </trkpt>
      <trkpt lat="48.205689964815974" lon="17.080519990995526">
        <ele>378.34</ele>
        <time>2023-06-13T10:44:43.458Z</time>
      </trkpt>
      <trkpt lat="48.205559961497784" lon="17.08078997209668">
        <ele>378.6</ele>
        <time>2023-06-13T10:44:45.808Z</time>
      </trkpt>
      <trkpt lat="48.205499947071075" lon="17.080889968201518">
        <ele>378.82</ele>
        <time>2023-06-13T10:44:48.159Z</time>
      </trkpt>
      <trkpt lat="48.20533993653953" lon="17.081249970942736">
        <ele>378.99</ele>
        <time>2023-06-13T10:44:50.516Z</time>
      </trkpt>
      <trkpt lat="48.20527992211282" lon="17.081369999796152">
        <ele>379.17</ele>
        <time>2023-06-13T10:44:52.875Z</time>
      </trkpt>
      <trkpt lat="48.20513994432986" lon="17.081699995324016">
        <ele>379.4</ele>
        <time>2023-06-13T10:44:55.239Z</time>
      </trkpt>
      <trkpt lat="48.20500994101167" lon="17.081979950889945">
        <ele>379.54</ele>
        <time>2023-06-13T10:44:57.608Z</time>
      </trkpt>
      <trkpt lat="48.204939952120185" lon="17.082109954208136">
        <ele>379.67</ele>
        <time>2023-06-13T10:44:59.979Z</time>
      </trkpt>
      <trkpt lat="48.2048699632287" lon="17.082219924777746">
        <ele>379.77</ele>
        <time>2023-06-13T10:45:02.352Z</time>
      </trkpt>
      <trkpt lat="48.204679945483804" lon="17.082499964162707">
        <ele>379.86</ele>
        <time>2023-06-13T10:45:04.731Z</time>
      </trkpt>
      <trkpt lat="48.204639963805676" lon="17.08254992030561">
        <ele>379.89</ele>
        <time>2023-06-13T10:45:07.111Z</time>
      </trkpt>
      <trkpt lat="48.20451993495226" lon="17.082709930837154">
        <ele>379.89</ele>
        <time>2023-06-13T10:45:09.494Z</time>
      </trkpt>
      <trkpt lat="48.20436998270452" lon="17.08295996300876">
        <ele>379.85</ele>
        <time>2023-06-13T10:45:11.881Z</time>
      </trkpt>
      <trkpt lat="48.20428993552923" lon="17.083079991862178">
        <ele>379.78</ele>
        <time>2023-06-13T10:45:14.271Z</time>
      </trkpt>
      <trkpt lat="48.20409991778433" lon="17.08338995464146">
        <ele>379.67</ele>
        <time>2023-06-13T10:45:16.666Z</time>
      </trkpt>
      <trkpt lat="48.203949965536594" lon="17.08361995406449">
        <ele>379.55</ele>
        <time>2023-06-13T10:45:19.066Z</time>
      </trkpt>
      <trkpt lat="48.20389992557466" lon="17.08368994295597">
        <ele>379.41</ele>
        <time>2023-06-13T10:45:21.467Z</time>
      </trkpt>
      <trkpt lat="48.20378995500505" lon="17.083909967914224">
        <ele>379.24</ele>
        <time>2023-06-13T10:45:23.872Z</time>
      </trkpt>
      <trkpt lat="48.20374997332692" lon="17.083959924057126">
        <ele>379.04</ele>
        <time>2023-06-13T10:45:26.278Z</time>
      </trkpt>
      <trkpt lat="48.20370999164879" lon="17.08400996401906">
        <ele>378.83</ele>
        <time>2023-06-13T10:45:28.685Z</time>
      </trkpt>
      <trkpt lat="48.203629944473505" lon="17.08413996733725">
        <ele>378.61</ele>
        <time>2023-06-13T10:45:31.094Z</time>
      </trkpt>
      <trkpt lat="48.20325996726751" lon="17.08469996228814">
        <ele>378.28</ele>
        <time>2023-06-13T10:45:33.514Z</time>
      </trkpt>
      <trkpt lat="48.20320992730558" lon="17.084779925644398">
        <ele>377.99</ele>
        <time>2023-06-13T10:45:35.935Z</time>
      </trkpt>
      <trkpt lat="48.20315997116268" lon="17.084859972819686">
        <ele>377.71</ele>
        <time>2023-06-13T10:45:38.357Z</time>
      </trkpt>
      <trkpt lat="48.20299996063113" lon="17.08510992117226">
        <ele>377.29</ele>
        <time>2023-06-13T10:45:40.784Z</time>
      </trkpt>
      <trkpt lat="48.202959978953004" lon="17.085179993882775">
        <ele>377.07</ele>
        <time>2023-06-13T10:45:43.212Z</time>
      </trkpt>
      <trkpt lat="48.20283995009959" lon="17.08533992059529">
        <ele>376.85</ele>
        <time>2023-06-13T10:45:45.644Z</time>
      </trkpt>
      <trkpt lat="48.202659990638494" lon="17.08570998162031">
        <ele>376.77</ele>
        <time>2023-06-13T10:45:48.082Z</time>
      </trkpt>
      <trkpt lat="48.20262998342514" lon="17.085799919441342">
        <ele>376.66</ele>
        <time>2023-06-13T10:45:50.521Z</time>
      </trkpt>
      <trkpt lat="48.202529987320304" lon="17.086109966039658">
        <ele>376.6</ele>
        <time>2023-06-13T10:45:52.965Z</time>
      </trkpt>
      <trkpt lat="48.20241993293166" lon="17.086409954354167">
        <ele>376.66</ele>
        <time>2023-06-13T10:45:55.413Z</time>
      </trkpt>
      <trkpt lat="48.20237995125353" lon="17.086509950459003">
        <ele>376.72</ele>
        <time>2023-06-13T10:45:57.863Z</time>
      </trkpt>
      <trkpt lat="48.20228992961347" lon="17.08679996430874">
        <ele>376.79</ele>
        <time>2023-06-13T10:46:00.317Z</time>
      </trkpt>
      <trkpt lat="48.20213997736573" lon="17.08720992319286">
        <ele>376.89</ele>
        <time>2023-06-13T10:46:02.777Z</time>
      </trkpt>
      <trkpt lat="48.202079962939024" lon="17.08742994815111">
        <ele>377.04</ele>
        <time>2023-06-13T10:46:05.240Z</time>
      </trkpt>
      <trkpt lat="48.202059930190444" lon="17.087689954787493">
        <ele>377.28</ele>
        <time>2023-06-13T10:46:07.707Z</time>
      </trkpt>
      <trkpt lat="48.202079962939024" lon="17.088039983063936">
        <ele>377.53</ele>
        <time>2023-06-13T10:46:10.179Z</time>
      </trkpt>
      <trkpt lat="48.202099995687604" lon="17.088180044665933">
        <ele>377.73</ele>
        <time>2023-06-13T10:46:12.653Z</time>
      </trkpt>
      <trkpt lat="48.202099995687604" lon="17.0881799608469">
        <ele>377.74</ele>
        <time>2023-06-13T10:46:15.127Z</time>
      </trkpt>
      <trkpt lat="48.202099995687604" lon="17.08832999691367">
        <ele>377.96</ele>
        <time>2023-06-13T10:46:17.603Z</time>
      </trkpt>
      <trkpt lat="48.20211994461715" lon="17.088679941371083">
        <ele>378.21</ele>
        <time>2023-06-13T10:46:20.083Z</time>
      </trkpt>
      <trkpt lat="48.20210997015238" lon="17.089019995182753">
        <ele>378.59</ele>
        <time>2023-06-13T10:46:22.568Z</time>
      </trkpt>
      <trkpt lat="48.20210997015238" lon="17.08909995853901">
        <ele>378.81</ele>
        <time>2023-06-13T10:46:25.054Z</time>
      </trkpt>
      <trkpt lat="48.20215992629528" lon="17.089499942958355">
        <ele>378.99</ele>
        <time>2023-06-13T10:46:27.545Z</time>
      </trkpt>
      <trkpt lat="48.202229999005795" lon="17.089709993451834">
        <ele>379.1</ele>
        <time>2023-06-13T10:46:30.040Z</time>
      </trkpt>
      <trkpt lat="48.20230996236205" lon="17.09004996344447">
        <ele>379.26</ele>
        <time>2023-06-13T10:46:32.539Z</time>
      </trkpt>
      <trkpt lat="48.20234994404018" lon="17.09023998118937">
        <ele>379.4</ele>
        <time>2023-06-13T10:46:35.041Z</time>
      </trkpt>
      <trkpt lat="48.20236997678876" lon="17.090419940650463">
        <ele>379.53</ele>
        <time>2023-06-13T10:46:37.545Z</time>
      </trkpt>
      <trkpt lat="48.20236997678876" lon="17.09079997614026">
        <ele>379.62</ele>
        <time>2023-06-13T10:46:40.055Z</time>
      </trkpt>
      <trkpt lat="48.20236997678876" lon="17.090869965031743">
        <ele>379.69</ele>
        <time>2023-06-13T10:46:42.565Z</time>
      </trkpt>
      <trkpt lat="48.20237995125353" lon="17.09092997945845">
        <ele>379.72</ele>
        <time>2023-06-13T10:46:45.076Z</time>
      </trkpt>
      <trkpt lat="48.20237995125353" lon="17.091239942237735">
        <ele>379.8</ele>
        <time>2023-06-13T10:46:47.591Z</time>
      </trkpt>
      <trkpt lat="48.20237995125353" lon="17.091319989413023">
        <ele>379.81</ele>
        <time>2023-06-13T10:46:50.108Z</time>
      </trkpt>
      <trkpt lat="48.20236997678876" lon="17.091579996049404">
        <ele>379.8</ele>
        <time>2023-06-13T10:46:52.628Z</time>
      </trkpt>
      <trkpt lat="48.20235991850495" lon="17.09165995940566">
        <ele>379.76</ele>
        <time>2023-06-13T10:46:55.149Z</time>
      </trkpt>
      <trkpt lat="48.20234994404018" lon="17.091739922761917">
        <ele>379.68</ele>
        <time>2023-06-13T10:46:57.671Z</time>
      </trkpt>
      <trkpt lat="48.20232999511063" lon="17.09180999547243">
        <ele>379.57</ele>
        <time>2023-06-13T10:47:00.194Z</time>
      </trkpt>
      <trkpt lat="48.20226998068392" lon="17.092039994895458">
        <ele>379.37</ele>
        <time>2023-06-13T10:47:02.720Z</time>
      </trkpt>
      <trkpt lat="48.202149951830506" lon="17.092289943248034">
        <ele>379.13</ele>
        <time>2023-06-13T10:47:05.251Z</time>
      </trkpt>
      <trkpt lat="48.20197996683419" lon="17.092459928244352">
        <ele>378.82</ele>
        <time>2023-06-13T10:47:07.786Z</time>
      </trkpt>
      <trkpt lat="48.20193998515606" lon="17.092489935457706">
        <ele>378.57</ele>
        <time>2023-06-13T10:47:10.322Z</time>
      </trkpt>
      <trkpt lat="48.20182993076742" lon="17.09251994267106">
        <ele>378.32</ele>
        <time>2023-06-13T10:47:12.860Z</time>
      </trkpt>
      <trkpt lat="48.20170998573303" lon="17.09253997541964">
        <ele>378.02</ele>
        <time>2023-06-13T10:47:15.400Z</time>
      </trkpt>
      <trkpt lat="48.20154997520149" lon="17.092499993741512">
        <ele>377.74</ele>
        <time>2023-06-13T10:47:17.944Z</time>
      </trkpt>
      <trkpt lat="48.201289968565106" lon="17.092379964888096">
        <ele>377.39</ele>
        <time>2023-06-13T10:47:20.493Z</time>
      </trkpt>
      <trkpt lat="48.20120992138982" lon="17.09232992492616">
        <ele>377.02</ele>
        <time>2023-06-13T10:47:23.044Z</time>
      </trkpt>
      <trkpt lat="48.201049994677305" lon="17.092269994318485">
        <ele>376.59</ele>
        <time>2023-06-13T10:47:25.598Z</time>
      </trkpt>
      <trkpt lat="48.200729973614216" lon="17.092289943248034">
        <ele>376.16</ele>
        <time>2023-06-13T10:47:28.158Z</time>
      </trkpt>
      <trkpt lat="48.20065998472273" lon="17.092319950461388">
        <ele>375.65</ele>
        <time>2023-06-13T10:47:30.720Z</time>
      </trkpt>
      <trkpt lat="48.200489999726415" lon="17.092429921031">
        <ele>375.13</ele>
        <time>2023-06-13T10:47:33.286Z</time>
      </trkpt>
      <trkpt lat="48.200449934229255" lon="17.092479960992932">
        <ele>374.52</ele>
        <time>2023-06-13T10:47:35.853Z</time>
      </trkpt>
      <trkpt lat="48.20030995644629" lon="17.09264994598925">
        <ele>373.82</ele>
        <time>2023-06-13T10:47:38.423Z</time>
      </trkpt>
      <trkpt lat="48.20022999309003" lon="17.092789923772216">
        <ele>373.07</ele>
        <time>2023-06-13T10:47:40.996Z</time>
      </trkpt>
      <trkpt lat="48.20002991706133" lon="17.093109944835305">
        <ele>372.19</ele>
        <time>2023-06-13T10:47:43.575Z</time>
      </trkpt>
      <trkpt lat="48.1999899353832" lon="17.093179933726788">
        <ele>371.42</ele>
        <time>2023-06-13T10:47:46.155Z</time>
      </trkpt>
      <trkpt lat="48.199829924851656" lon="17.09341999143362">
        <ele>370.44</ele>
        <time>2023-06-13T10:47:48.739Z</time>
      </trkpt>
      <trkpt lat="48.199739987030625" lon="17.09352996200323">
        <ele>369.51</ele>
        <time>2023-06-13T10:47:51.326Z</time>
      </trkpt>
      <trkpt lat="48.19949992932379" lon="17.093619983643293">
        <ele>368.67</ele>
        <time>2023-06-13T10:47:53.918Z</time>
      </trkpt>
      <trkpt lat="48.19937998428941" lon="17.093619983643293">
        <ele>367.88</ele>
        <time>2023-06-13T10:47:56.512Z</time>
      </trkpt>
      <trkpt lat="48.19909994490445" lon="17.093769935891032">
        <ele>366.96</ele>
        <time>2023-06-13T10:47:59.112Z</time>
      </trkpt>
      <trkpt lat="48.198879919946194" lon="17.09397998638451">
        <ele>365.89</ele>
        <time>2023-06-13T10:48:01.717Z</time>
      </trkpt>
      <trkpt lat="48.19880993105471" lon="17.094049975275993">
        <ele>364.93</ele>
        <time>2023-06-13T10:48:04.324Z</time>
      </trkpt>
      <trkpt lat="48.19866995327175" lon="17.094219960272312">
        <ele>364.08</ele>
        <time>2023-06-13T10:48:06.934Z</time>
      </trkpt>
      <trkpt lat="48.19841992110014" lon="17.094569988548756">
        <ele>363.25</ele>
        <time>2023-06-13T10:48:09.551Z</time>
      </trkpt>
      <trkpt lat="48.19832998327911" lon="17.094809962436557">
        <ele>362.3</ele>
        <time>2023-06-13T10:48:12.172Z</time>
      </trkpt>
      <trkpt lat="48.198279943317175" lon="17.094939965754747">
        <ele>361.34</ele>
        <time>2023-06-13T10:48:14.795Z</time>
      </trkpt>
      <trkpt lat="48.19822998717427" lon="17.095059994608164">
        <ele>360.33</ele>
        <time>2023-06-13T10:48:17.420Z</time>
      </trkpt>
      <trkpt lat="48.19811993278563" lon="17.0953999646008">
        <ele>359.18</ele>
        <time>2023-06-13T10:48:20.050Z</time>
      </trkpt>
      <trkpt lat="48.197979955002666" lon="17.09573993459344">
        <ele>357.95</ele>
        <time>2023-06-13T10:48:22.685Z</time>
      </trkpt>
      <trkpt lat="48.19776998832822" lon="17.09584998898208">
        <ele>356.9</ele>
        <time>2023-06-13T10:48:25.325Z</time>
      </trkpt>
      <trkpt lat="48.19762992672622" lon="17.095639938488603">
        <ele>355.91</ele>
        <time>2023-06-13T10:48:27.969Z</time>
      </trkpt>
      <trkpt lat="48.19762992672622" lon="17.095389990136027">
        <ele>354.88</ele>
        <time>2023-06-13T10:48:30.616Z</time>
      </trkpt>
      <trkpt lat="48.19762992672622" lon="17.095129983499646">
        <ele>353.77</ele>
        <time>2023-06-13T10:48:33.267Z</time>
      </trkpt>
      <trkpt lat="48.19761995226145" lon="17.094999980181456">
        <ele>352.61</ele>
        <time>2023-06-13T10:48:35.919Z</time>
      </trkpt>
      <trkpt lat="48.1976499594748" lon="17.094499999657273">
        <ele>351.54</ele>
        <time>2023-06-13T10:48:38.578Z</time>
      </trkpt>
      <trkpt lat="48.1976499594748" lon="17.094349963590503">
        <ele>350.22</ele>
        <time>2023-06-13T10:48:41.239Z</time>
      </trkpt>
      <trkpt lat="48.19763998501003" lon="17.093899939209223">
        <ele>348.77</ele>
        <time>2023-06-13T10:48:43.906Z</time>
      </trkpt>
      <trkpt lat="48.19762992672622" lon="17.093759961426258">
        <ele>347.3</ele>
        <time>2023-06-13T10:48:46.575Z</time>
      </trkpt>
      <trkpt lat="48.19753998890519" lon="17.093519987538457">
        <ele>345.72</ele>
        <time>2023-06-13T10:48:49.248Z</time>
      </trkpt>
      <trkpt lat="48.197439992800355" lon="17.09328998811543">
        <ele>343.95</ele>
        <time>2023-06-13T10:48:51.924Z</time>
      </trkpt>
      <trkpt lat="48.19738995283842" lon="17.093199966475368">
        <ele>342.2</ele>
        <time>2023-06-13T10:48:54.602Z</time>
      </trkpt>
      <trkpt lat="48.1972199678421" lon="17.09309997037053">
        <ele>340.19</ele>
        <time>2023-06-13T10:48:57.283Z</time>
      </trkpt>
      <trkpt lat="48.197139920666814" lon="17.09309997037053">
        <ele>338.25</ele>
        <time>2023-06-13T10:48:59.966Z</time>
      </trkpt>
      <trkpt lat="48.19695996120572" lon="17.09307993762195">
        <ele>336.09</ele>
        <time>2023-06-13T10:49:02.653Z</time>
      </trkpt>
      <trkpt lat="48.19684999063611" lon="17.093019923195243">
        <ele>333.98</ele>
        <time>2023-06-13T10:49:05.342Z</time>
      </trkpt>
      <trkpt lat="48.19671998731792" lon="17.092849938198924">
        <ele>331.85</ele>
        <time>2023-06-13T10:49:08.035Z</time>
      </trkpt>
      <trkpt lat="48.196669947355986" lon="17.09251994267106">
        <ele>329.7</ele>
        <time>2023-06-13T10:49:10.732Z</time>
      </trkpt>
      <trkpt lat="48.19667992182076" lon="17.092379964888096">
        <ele>327.6</ele>
        <time>2023-06-13T10:49:13.431Z</time>
      </trkpt>
      <trkpt lat="48.19667992182076" lon="17.092099925503135">
        <ele>325.38</ele>
        <time>2023-06-13T10:49:16.134Z</time>
      </trkpt>
      <trkpt lat="48.196689980104566" lon="17.09197998046875">
        <ele>323.18</ele>
        <time>2023-06-13T10:49:18.838Z</time>
      </trkpt>
      <trkpt lat="48.196689980104566" lon="17.09182994440198">
        <ele>320.9</ele>
        <time>2023-06-13T10:49:21.544Z</time>
      </trkpt>
      <trkpt lat="48.19650993682444" lon="17.091389978304505">
        <ele>318.46</ele>
        <time>2023-06-13T10:49:24.257Z</time>
      </trkpt>
      <trkpt lat="48.196369959041476" lon="17.091169953346252">
        <ele>316.05</ele>
        <time>2023-06-13T10:49:26.974Z</time>
      </trkpt>
      <trkpt lat="48.196279937401414" lon="17.091069957241416">
        <ele>313.57</ele>
        <time>2023-06-13T10:49:29.694Z</time>
      </trkpt>
      <trkpt lat="48.196109952405095" lon="17.090899972245097">
        <ele>310.94</ele>
        <time>2023-06-13T10:49:32.418Z</time>
      </trkpt>
      <trkpt lat="48.19602998904884" lon="17.09079997614026">
        <ele>308.34</ele>
        <time>2023-06-13T10:49:35.144Z</time>
      </trkpt>
      <trkpt lat="48.19588992744684" lon="17.090609958395362">
        <ele>305.7</ele>
        <time>2023-06-13T10:49:37.873Z</time>
      </trkpt>
      <trkpt lat="48.1957399751991" lon="17.09038993343711">
        <ele>302.97</ele>
        <time>2023-06-13T10:49:40.607Z</time>
      </trkpt>
      <trkpt lat="48.195529924705625" lon="17.090129926800728">
        <ele>300.07</ele>
        <time>2023-06-13T10:49:43.346Z</time>
      </trkpt>
      <trkpt lat="48.19536999799311" lon="17.089969916269183">
        <ele>297.26</ele>
        <time>2023-06-13T10:49:46.089Z</time>
      </trkpt>
      <trkpt lat="48.1952999252826" lon="17.089839996770024">
        <ele>294.53</ele>
        <time>2023-06-13T10:49:48.834Z</time>
      </trkpt>
      <trkpt lat="48.19516992196441" lon="17.089579990133643">
        <ele>291.77</ele>
        <time>2023-06-13T10:49:51.584Z</time>
      </trkpt>
      <trkpt lat="48.19504997693002" lon="17.089279918000102">
        <ele>288.89</ele>
        <time>2023-06-13T10:49:54.338Z</time>
      </trkpt>
      <trkpt lat="48.19495995528996" lon="17.08896995522082">
        <ele>286.01</ele>
        <time>2023-06-13T10:49:57.097Z</time>
      </trkpt>
      <trkpt lat="48.19485995918512" lon="17.088599978014827">
        <ele>283.04</ele>
        <time>2023-06-13T10:49:59.861Z</time>
      </trkpt>
      <trkpt lat="48.19483992643654" lon="17.088439967483282">
        <ele>280.26</ele>
        <time>2023-06-13T10:50:02.627Z</time>
      </trkpt>
      <trkpt lat="48.19474998861551" lon="17.088079964742064">
        <ele>277.26</ele>
        <time>2023-06-13T10:50:05.398Z</time>
      </trkpt>
      <trkpt lat="48.19469994865358" lon="17.087909979745746">
        <ele>274.44</ele>
        <time>2023-06-13T10:50:08.172Z</time>
      </trkpt>
      <trkpt lat="48.19457991980016" lon="17.087589958682656">
        <ele>271.53</ele>
        <time>2023-06-13T10:50:10.951Z</time>
      </trkpt>
      <trkpt lat="48.19430993869901" lon="17.087199948728085">
        <ele>268.76</ele>
        <time>2023-06-13T10:50:13.737Z</time>
      </trkpt>
      <trkpt lat="48.19411992095411" lon="17.08692996762693">
        <ele>266.15</ele>
        <time>2023-06-13T10:50:16.529Z</time>
      </trkpt>
      <trkpt lat="48.19401992484927" lon="17.086789989843965">
        <ele>263.69</ele>
        <time>2023-06-13T10:50:19.323Z</time>
      </trkpt>
      <trkpt lat="48.19372999481857" lon="17.08649997599423">
        <ele>261.21</ele>
        <time>2023-06-13T10:50:22.124Z</time>
      </trkpt>
      <trkpt lat="48.19360996596515" lon="17.08643996156752">
        <ele>258.89</ele>
        <time>2023-06-13T10:50:24.928Z</time>
      </trkpt>
      <trkpt lat="48.19336999207735" lon="17.086319932714105">
        <ele>256.54</ele>
        <time>2023-06-13T10:50:27.737Z</time>
      </trkpt>
      <trkpt lat="48.19315994158387" lon="17.086189929395914">
        <ele>254.31</ele>
        <time>2023-06-13T10:50:30.550Z</time>
      </trkpt>
      <trkpt lat="48.19308995269239" lon="17.08611994050443">
        <ele>252.33</ele>
        <time>2023-06-13T10:50:33.365Z</time>
      </trkpt>
      <trkpt lat="48.1929599493742" lon="17.08585993386805">
        <ele>250.41</ele>
        <time>2023-06-13T10:50:36.184Z</time>
      </trkpt>
      <trkpt lat="48.19298995658755" lon="17.085649967193604">
        <ele>248.75</ele>
        <time>2023-06-13T10:50:39.006Z</time>
      </trkpt>
      <trkpt lat="48.19302993826568" lon="17.085529938340187">
        <ele>247.21</ele>
        <time>2023-06-13T10:50:41.830Z</time>
      </trkpt>
      <trkpt lat="48.193189948797226" lon="17.085099946707487">
        <ele>245.85</ele>
        <time>2023-06-13T10:50:44.661Z</time>
      </trkpt>
      <trkpt lat="48.19325993768871" lon="17.08497991785407">
        <ele>244.51</ele>
        <time>2023-06-13T10:50:47.494Z</time>
      </trkpt>
      <trkpt lat="48.19347996264696" lon="17.08469996228814">
        <ele>243.31</ele>
        <time>2023-06-13T10:50:50.333Z</time>
      </trkpt>
      <trkpt lat="48.193659922108054" lon="17.084519919008017">
        <ele>242.21</ele>
        <time>2023-06-13T10:50:53.176Z</time>
      </trkpt>
      <trkpt lat="48.193639973178506" lon="17.084339959546924">
        <ele>241.23</ele>
        <time>2023-06-13T10:50:56.021Z</time>
      </trkpt>
      <trkpt lat="48.193619940429926" lon="17.084319926798344">
        <ele>240.3</ele>
        <time>2023-06-13T10:50:58.867Z</time>
      </trkpt>
      <trkpt lat="48.19359999150038" lon="17.08430995233357">
        <ele>239.45</ele>
        <time>2023-06-13T10:51:01.713Z</time>
      </trkpt>
      <trkpt lat="48.19334995932877" lon="17.084359992295504">
        <ele>238.69</ele>
        <time>2023-06-13T10:51:04.564Z</time>
      </trkpt>
      <trkpt lat="48.19327997043729" lon="17.084389999508858">
        <ele>238.0</ele>
        <time>2023-06-13T10:51:07.417Z</time>
      </trkpt>
      <trkpt lat="48.193059945479035" lon="17.084509944543242">
        <ele>237.26</ele>
        <time>2023-06-13T10:51:10.275Z</time>
      </trkpt>
      <trkpt lat="48.19291996769607" lon="17.084579933434725">
        <ele>236.59</ele>
        <time>2023-06-13T10:51:13.135Z</time>
      </trkpt>
      <trkpt lat="48.19278996437788" lon="17.08462997339666">
        <ele>236.01</ele>
        <time>2023-06-13T10:51:15.998Z</time>
      </trkpt>
      <trkpt lat="48.1925299577415" lon="17.084789983928204">
        <ele>235.37</ele>
        <time>2023-06-13T10:51:18.867Z</time>
      </trkpt>
      <trkpt lat="48.19245996885002" lon="17.08486994728446">
        <ele>234.98</ele>
        <time>2023-06-13T10:51:21.738Z</time>
      </trkpt>
      <trkpt lat="48.19239995442331" lon="17.085069939494133">
        <ele>234.69</ele>
        <time>2023-06-13T10:51:24.611Z</time>
      </trkpt>
      <trkpt lat="48.19240992888808" lon="17.085179993882775">
        <ele>234.48</ele>
        <time>2023-06-13T10:51:27.486Z</time>
      </trkpt>
      <trkpt lat="48.19241998717189" lon="17.08537998609245">
        <ele>234.32</ele>
        <time>2023-06-13T10:51:30.364Z</time>
      </trkpt>
      <trkpt lat="48.19242996163666" lon="17.08544997498393">
        <ele>234.22</ele>
        <time>2023-06-13T10:51:33.243Z</time>
      </trkpt>
      <trkpt lat="48.19239995442331" lon="17.085739988833666">
        <ele>234.2</ele>
        <time>2023-06-13T10:51:36.126Z</time>
      </trkpt>
      <trkpt lat="48.19240992888808" lon="17.085909973829985">
        <ele>234.21</ele>
        <time>2023-06-13T10:51:39.011Z</time>
      </trkpt>
      <trkpt lat="48.19239995442331" lon="17.08606998436153">
        <ele>234.27</ele>
        <time>2023-06-13T10:51:41.898Z</time>
      </trkpt>
      <trkpt lat="48.19239995442331" lon="17.086319932714105">
        <ele>234.38</ele>
        <time>2023-06-13T10:51:44.788Z</time>
      </trkpt>
      <trkpt lat="48.192329965531826" lon="17.08660994656384">
        <ele>234.53</ele>
        <time>2023-06-13T10:51:47.682Z</time>
      </trkpt>
      <trkpt lat="48.19227992556989" lon="17.08673994988203">
        <ele>234.75</ele>
        <time>2023-06-13T10:51:50.578Z</time>
      </trkpt>
      <trkpt lat="48.19215998053551" lon="17.086839945986867">
        <ele>235.05</ele>
        <time>2023-06-13T10:51:53.477Z</time>
      </trkpt>
      <trkpt lat="48.1920999661088" lon="17.086789989843965">
        <ele>235.39</ele>
        <time>2023-06-13T10:51:56.378Z</time>
      </trkpt>
      <trkpt lat="48.19205998443067" lon="17.086679935455322">
        <ele>235.74</ele>
        <time>2023-06-13T10:51:59.280Z</time>
      </trkpt>
      <trkpt lat="48.19201991893351" lon="17.086559990420938">
        <ele>236.13</ele>
        <time>2023-06-13T10:52:02.184Z</time>
      </trkpt>
      <trkpt lat="48.19197993725538" lon="17.086529983207583">
        <ele>236.59</ele>
        <time>2023-06-13T10:52:05.089Z</time>
      </trkpt>
      <trkpt lat="48.19196996279061" lon="17.086539957672358">
        <ele>237.08</ele>
        <time>2023-06-13T10:52:07.994Z</time>
      </trkpt>
      <trkpt lat="48.192049926146865" lon="17.086539957672358">
        <ele>237.5</ele>
        <time>2023-06-13T10:52:10.901Z</time>
      </trkpt>
      <trkpt lat="48.19205998443067" lon="17.086449936032295">
        <ele>237.97</ele>
        <time>2023-06-13T10:52:13.809Z</time>
      </trkpt>
      <trkpt lat="48.19205998443067" lon="17.08636997267604">
        <ele>238.53</ele>
        <time>2023-06-13T10:52:16.718Z</time>
      </trkpt>
      <trkpt lat="48.19205998443067" lon="17.086169980466366">
        <ele>239.1</ele>
        <time>2023-06-13T10:52:19.630Z</time>
      </trkpt>
      <trkpt lat="48.19199997000396" lon="17.086109966039658">
        <ele>239.83</ele>
        <time>2023-06-13T10:52:22.543Z</time>
      </trkpt>
      <trkpt lat="48.19197993725538" lon="17.086169980466366">
        <ele>240.6</ele>
        <time>2023-06-13T10:52:25.457Z</time>
      </trkpt>
      <trkpt lat="48.191939955577254" lon="17.08632999099791">
        <ele>241.49</ele>
        <time>2023-06-13T10:52:28.373Z</time>
      </trkpt>
      <trkpt lat="48.191919922828674" lon="17.086509950459003">
        <ele>242.49</ele>
        <time>2023-06-13T10:52:31.292Z</time>
      </trkpt>
      <trkpt lat="48.1919099483639" lon="17.08656996488571">
        <ele>243.41</ele>
        <time>2023-06-13T10:52:34.212Z</time>
      </trkpt>
      <trkpt lat="48.191959988325834" lon="17.086679935455322">
        <ele>244.3</ele>
        <time>2023-06-13T10:52:37.133Z</time>
      </trkpt>
      <trkpt lat="48.191959988325834" lon="17.086839945986867">
        <ele>245.39</ele>
        <time>2023-06-13T10:52:40.057Z</time>
      </trkpt>
      <trkpt lat="48.19194993004203" lon="17.08692996762693">
        <ele>246.42</ele>
        <time>2023-06-13T10:52:42.982Z</time>
      </trkpt>
      <trkpt lat="48.191939955577254" lon="17.08697992376983">
        <ele>247.45</ele>
        <time>2023-06-13T10:52:45.907Z</time>
      </trkpt>
      <trkpt lat="48.191939955577254" lon="17.087149992585182">
        <ele>248.55</ele>
        <time>2023-06-13T10:52:48.835Z</time>
      </trkpt>
      <trkpt lat="48.19196996279061" lon="17.08724998869002">
        <ele>249.56</ele>
        <time>2023-06-13T10:52:51.764Z</time>
      </trkpt>
      <trkpt lat="48.19196996279061" lon="17.087279995903373">
        <ele>250.59</ele>
        <time>2023-06-13T10:52:54.694Z</time>
      </trkpt>
      <trkpt lat="48.191959988325834" lon="17.087369933724403">
        <ele>251.7</ele>
        <time>2023-06-13T10:52:57.625Z</time>
      </trkpt>
      <trkpt lat="48.191959988325834" lon="17.0875099953264">
        <ele>252.85</ele>
        <time>2023-06-13T10:53:00.558Z</time>
      </trkpt>
      <trkpt lat="48.19196996279061" lon="17.08763999864459">
        <ele>253.96</ele>
        <time>2023-06-13T10:53:03.492Z</time>
      </trkpt>
      <trkpt lat="48.19197993725538" lon="17.087689954787493">
        <ele>255.01</ele>
        <time>2023-06-13T10:53:06.427Z</time>
      </trkpt>
      <trkpt lat="48.19202997721732" lon="17.08789992146194">
        <ele>256.09</ele>
        <time>2023-06-13T10:53:09.365Z</time>
      </trkpt>
      <trkpt lat="48.19205998443067" lon="17.088039983063936">
        <ele>257.15</ele>
        <time>2023-06-13T10:53:12.305Z</time>
      </trkpt>
      <trkpt lat="48.192069958895445" lon="17.088169986382127">
        <ele>258.25</ele>
        <time>2023-06-13T10:53:15.247Z</time>
      </trkpt>
      <trkpt lat="48.19210994057357" lon="17.08828993141651">
        <ele>259.27</ele>
        <time>2023-06-13T10:53:18.191Z</time>
      </trkpt>
      <trkpt lat="48.19215998053551" lon="17.088529989123344">
        <ele>260.29</ele>
        <time>2023-06-13T10:53:21.138Z</time>
      </trkpt>
      <trkpt lat="48.192199962213635" lon="17.088699974119663">
        <ele>261.33</ele>
        <time>2023-06-13T10:53:24.087Z</time>
      </trkpt>
      <trkpt lat="48.19220993667841" lon="17.088879933580756">
        <ele>262.4</ele>
        <time>2023-06-13T10:53:27.039Z</time>
      </trkpt>
      <trkpt lat="48.19220993667841" lon="17.08890994079411">
        <ele>263.49</ele>
        <time>2023-06-13T10:53:29.991Z</time>
      </trkpt>
      <trkpt lat="48.192179929465055" lon="17.089019995182753">
        <ele>264.65</ele>
        <time>2023-06-13T10:53:32.945Z</time>
      </trkpt>
      <trkpt lat="48.19211999885738" lon="17.089159972965717">
        <ele>265.91</ele>
        <time>2023-06-13T10:53:35.901Z</time>
      </trkpt>
      <trkpt lat="48.192069958895445" lon="17.089239936321974">
        <ele>267.13</ele>
        <time>2023-06-13T10:53:38.859Z</time>
      </trkpt>
      <trkpt lat="48.19199997000396" lon="17.089289976283908">
        <ele>268.36</ele>
        <time>2023-06-13T10:53:41.818Z</time>
      </trkpt>
      <trkpt lat="48.191919922828674" lon="17.089319983497262">
        <ele>269.6</ele>
        <time>2023-06-13T10:53:44.779Z</time>
      </trkpt>
      <trkpt lat="48.191919922828674" lon="17.089329957962036">
        <ele>270.73</ele>
        <time>2023-06-13T10:53:47.740Z</time>
      </trkpt>
      <trkpt lat="48.191859992221" lon="17.08935996517539">
        <ele>271.95</ele>
        <time>2023-06-13T10:53:50.702Z</time>
      </trkpt>
      <trkpt lat="48.19184993393719" lon="17.089369939640164">
        <ele>273.11</ele>
        <time>2023-06-13T10:53:53.664Z</time>
      </trkpt>
      <trkpt lat="48.191789919510484" lon="17.089409921318293">
        <ele>274.36</ele>
        <time>2023-06-13T10:53:56.628Z</time>
      </trkpt>
      <trkpt lat="48.19177994504571" lon="17.0894199796021">
        <ele>275.52</ele>
        <time>2023-06-13T10:53:59.592Z</time>
      </trkpt>
      <trkpt lat="48.191769970580935" lon="17.089429954066873">
        <ele>276.69</ele>
        <time>2023-06-13T10:54:02.556Z</time>
      </trkpt>
      <trkpt lat="48.19170995615423" lon="17.089469935745">
        <ele>277.94</ele>
        <time>2023-06-13T10:54:05.521Z</time>
      </trkpt>
      <trkpt lat="48.191619934514165" lon="17.08954998292029">
        <ele>279.17</ele>
        <time>2023-06-13T10:54:08.489Z</time>
      </trkpt>
      <trkpt lat="48.19160996004939" lon="17.089559957385063">
        <ele>280.32</ele>
        <time>2023-06-13T10:54:11.457Z</time>
      </trkpt>
      <trkpt lat="48.191489931195974" lon="17.08967998623848">
        <ele>281.6</ele>
        <time>2023-06-13T10:54:14.428Z</time>
      </trkpt>
      <trkpt lat="48.19141994230449" lon="17.089759949594736">
        <ele>282.81</ele>
        <time>2023-06-13T10:54:17.400Z</time>
      </trkpt>
      <trkpt lat="48.19140996783972" lon="17.089779982343316">
        <ele>283.95</ele>
        <time>2023-06-13T10:54:20.373Z</time>
      </trkpt>
      <trkpt lat="48.191339978948236" lon="17.0898499712348">
        <ele>285.14</ele>
        <time>2023-06-13T10:54:23.348Z</time>
      </trkpt>
      <trkpt lat="48.19126999005675" lon="17.08991996012628">
        <ele>286.33</ele>
        <time>2023-06-13T10:54:26.324Z</time>
      </trkpt>
      <trkpt lat="48.191189942881465" lon="17.089999923482537">
        <ele>287.52</ele>
        <time>2023-06-13T10:54:29.302Z</time>
      </trkpt>
      <trkpt lat="48.1910999212414" lon="17.090099919587374">
        <ele>288.71</ele>
        <time>2023-06-13T10:54:32.282Z</time>
      </trkpt>
      <trkpt lat="48.191039990633726" lon="17.090179966762662">
        <ele>289.88</ele>
        <time>2023-06-13T10:54:35.264Z</time>
      </trkpt>
      <trkpt lat="48.19097997620702" lon="17.090269988402724">
        <ele>291.02</ele>
        <time>2023-06-13T10:54:38.248Z</time>
      </trkpt>
      <trkpt lat="48.190909987315536" lon="17.090379958972335">
        <ele>292.17</ele>
        <time>2023-06-13T10:54:41.234Z</time>
      </trkpt>
      <trkpt lat="48.19083999842405" lon="17.090439973399043">
        <ele>293.35</ele>
        <time>2023-06-13T10:54:44.221Z</time>
      </trkpt>
      <trkpt lat="48.190779983997345" lon="17.090509962290525">
        <ele>294.56</ele>
        <time>2023-06-13T10:54:47.210Z</time>
      </trkpt>
      <trkpt lat="48.19069993682206" lon="17.090609958395362">
        <ele>295.78</ele>
        <time>2023-06-13T10:54:50.201Z</time>
      </trkpt>
      <trkpt lat="48.19069993682206" lon="17.090629991143942">
        <ele>296.94</ele>
        <time>2023-06-13T10:54:53.192Z</time>
      </trkpt>
      <trkpt lat="48.190649980679154" lon="17.090679947286844">
        <ele>298.16</ele>
        <time>2023-06-13T10:54:56.184Z</time>
      </trkpt>
      <trkpt lat="48.190629947930574" lon="17.0907099545002">
        <ele>299.36</ele>
        <time>2023-06-13T10:54:59.177Z</time>
      </trkpt>
      <trkpt lat="48.190589966252446" lon="17.090769968926907">
        <ele>300.61</ele>
        <time>2023-06-13T10:55:02.171Z</time>
      </trkpt>
      <trkpt lat="48.190519977360964" lon="17.090869965031743">
        <ele>301.9</ele>
        <time>2023-06-13T10:55:05.167Z</time>
      </trkpt>
      <trkpt lat="48.19048997014761" lon="17.09090994670987">
        <ele>303.13</ele>
        <time>2023-06-13T10:55:08.164Z</time>
      </trkpt>
      <trkpt lat="48.190379999578" lon="17.091059982776642">
        <ele>304.48</ele>
        <time>2023-06-13T10:55:11.164Z</time>
      </trkpt>
      <trkpt lat="48.190329959616065" lon="17.09111999720335">
        <ele>305.75</ele>
        <time>2023-06-13T10:55:14.165Z</time>
      </trkpt>
      <trkpt lat="48.190219989046454" lon="17.09120993502438">
        <ele>307.01</ele>
        <time>2023-06-13T10:55:17.169Z</time>
      </trkpt>
      <trkpt lat="48.1901899818331" lon="17.09122996777296">
        <ele>308.2</ele>
        <time>2023-06-13T10:55:20.173Z</time>
      </trkpt>
      <trkpt lat="48.18995998241007" lon="17.091409927234054">
        <ele>309.44</ele>
        <time>2023-06-13T10:55:23.182Z</time>
      </trkpt>
      <trkpt lat="48.18993994966149" lon="17.09141998551786">
        <ele>310.59</ele>
        <time>2023-06-13T10:55:26.192Z</time>
      </trkpt>
      <trkpt lat="48.18982997909188" lon="17.091519981622696">
        <ele>311.78</ele>
        <time>2023-06-13T10:55:29.204Z</time>
      </trkpt>
      <trkpt lat="48.189749931916595" lon="17.091619977727532">
        <ele>312.94</ele>
        <time>2023-06-13T10:55:32.219Z</time>
      </trkpt>
      <trkpt lat="48.18967994302511" lon="17.091739922761917">
        <ele>314.13</ele>
        <time>2023-06-13T10:55:35.236Z</time>
      </trkpt>
      <trkpt lat="48.189639961346984" lon="17.091929940506816">
        <ele>315.34</ele>
        <time>2023-06-13T10:55:38.255Z</time>
      </trkpt>
      <trkpt lat="48.18960995413363" lon="17.092159939929843">
        <ele>316.58</ele>
        <time>2023-06-13T10:55:41.277Z</time>
      </trkpt>
      <trkpt lat="48.189659994095564" lon="17.092269994318485">
        <ele>317.7</ele>
        <time>2023-06-13T10:55:44.301Z</time>
      </trkpt>
      <trkpt lat="48.18966996856034" lon="17.09227996878326">
        <ele>318.72</ele>
        <time>2023-06-13T10:55:47.326Z</time>
      </trkpt>
      <trkpt lat="48.18971992470324" lon="17.09234995767474">
        <ele>319.77</ele>
        <time>2023-06-13T10:55:50.352Z</time>
      </trkpt>
      <trkpt lat="48.1897599902004" lon="17.092379964888096">
        <ele>320.77</ele>
        <time>2023-06-13T10:55:53.379Z</time>
      </trkpt>
      <trkpt lat="48.18983995355666" lon="17.092399997636676">
        <ele>321.73</ele>
        <time>2023-06-13T10:55:56.407Z</time>
      </trkpt>
      <trkpt lat="48.18985998630524" lon="17.09240997210145">
        <ele>322.67</ele>
        <time>2023-06-13T10:55:59.436Z</time>
      </trkpt>
      <trkpt lat="48.18986996077001" lon="17.09240997210145">
        <ele>323.58</ele>
        <time>2023-06-13T10:56:02.465Z</time>
      </trkpt>
      <trkpt lat="48.18996995687485" lon="17.09238993935287">
        <ele>324.48</ele>
        <time>2023-06-13T10:56:05.496Z</time>
      </trkpt>
      <trkpt lat="48.190069952979684" lon="17.092359932139516">
        <ele>325.38</ele>
        <time>2023-06-13T10:56:08.529Z</time>
      </trkpt>
      <trkpt lat="48.190089985728264" lon="17.09234995767474">
        <ele>326.26</ele>
        <time>2023-06-13T10:56:11.563Z</time>
      </trkpt>
      <trkpt lat="48.19020993076265" lon="17.092339983209968">
        <ele>327.17</ele>
        <time>2023-06-13T10:56:14.599Z</time>
      </trkpt>
      <trkpt lat="48.190329959616065" lon="17.092309975996614">
        <ele>328.04</ele>
        <time>2023-06-13T10:56:17.637Z</time>
      </trkpt>
      <trkpt lat="48.190439930185676" lon="17.092309975996614">
        <ele>328.96</ele>
        <time>2023-06-13T10:56:20.678Z</time>
      </trkpt>
      <trkpt lat="48.190459962934256" lon="17.092319950461388">
        <ele>329.87</ele>
        <time>2023-06-13T10:56:23.719Z</time>
      </trkpt>
      <trkpt lat="48.190569933503866" lon="17.09232992492616">
        <ele>330.78</ele>
        <time>2023-06-13T10:56:26.762Z</time>
      </trkpt>
      <trkpt lat="48.190649980679154" lon="17.092339983209968">
        <ele>331.69</ele>
        <time>2023-06-13T10:56:29.807Z</time>
      </trkpt>
      <trkpt lat="48.19070999510586" lon="17.092379964888096">
        <ele>332.66</ele>
        <time>2023-06-13T10:56:32.853Z</time>
      </trkpt>
      <trkpt lat="48.19078995846212" lon="17.092429921031">
        <ele>333.63</ele>
        <time>2023-06-13T10:56:35.901Z</time>
      </trkpt>
      <trkpt lat="48.19081996567547" lon="17.092469986528158">
        <ele>334.61</ele>
        <time>2023-06-13T10:56:38.950Z</time>
      </trkpt>
      <trkpt lat="48.190869921818376" lon="17.092549949884415">
        <ele>335.65</ele>
        <time>2023-06-13T10:56:42.000Z</time>
      </trkpt>
      <trkpt lat="48.19083999842405" lon="17.092609964311123">
        <ele>336.7</ele>
        <time>2023-06-13T10:56:45.051Z</time>
      </trkpt>
      <trkpt lat="48.190779983997345" lon="17.092609964311123">
        <ele>337.7</ele>
        <time>2023-06-13T10:56:48.103Z</time>
      </trkpt>
      <trkpt lat="48.190739918500185" lon="17.092609964311123">
        <ele>338.7</ele>
        <time>2023-06-13T10:56:51.156Z</time>
      </trkpt>
      <trkpt lat="48.19063992239535" lon="17.092639971524477">
        <ele>339.72</ele>
        <time>2023-06-13T10:56:54.211Z</time>
      </trkpt>
      <trkpt lat="48.190519977360964" lon="17.09268992766738">
        <ele>340.75</ele>
        <time>2023-06-13T10:56:57.269Z</time>
      </trkpt>
      <trkpt lat="48.1904299557209" lon="17.09275991655886">
        <ele>341.85</ele>
        <time>2023-06-13T10:57:00.329Z</time>
      </trkpt>
      <trkpt lat="48.19033993408084" lon="17.09285999648273">
        <ele>342.97</ele>
        <time>2023-06-13T10:57:03.391Z</time>
      </trkpt>
      <trkpt lat="48.19028997793794" lon="17.092919927090406">
        <ele>344.03</ele>
        <time>2023-06-13T10:57:06.454Z</time>
      </trkpt>
      <trkpt lat="48.190199956297874" lon="17.09302998147905">
        <ele>345.14</ele>
        <time>2023-06-13T10:57:09.520Z</time>
      </trkpt>
      <trkpt lat="48.19012996740639" lon="17.093089995905757">
        <ele>346.15</ele>
        <time>2023-06-13T10:57:12.587Z</time>
      </trkpt>
      <trkpt lat="48.190049920231104" lon="17.09315998479724">
        <ele>347.16</ele>
        <time>2023-06-13T10:57:15.656Z</time>
      </trkpt>
      <trkpt lat="48.1899999640882" lon="17.093219999223948">
        <ele>348.14</ele>
        <time>2023-06-13T10:57:18.726Z</time>
      </trkpt>
      <trkpt lat="48.18991991691291" lon="17.093319995328784">
        <ele>349.12</ele>
        <time>2023-06-13T10:57:21.798Z</time>
      </trkpt>
      <trkpt lat="48.18982997909188" lon="17.09339995868504">
        <ele>350.07</ele>
        <time>2023-06-13T10:57:24.872Z</time>
      </trkpt>
      <trkpt lat="48.1897599902004" lon="17.093479922041297">
        <ele>350.98</ele>
        <time>2023-06-13T10:57:27.948Z</time>
      </trkpt>
      <trkpt lat="48.189659994095564" lon="17.09356994368136">
        <ele>351.83</ele>
        <time>2023-06-13T10:57:31.027Z</time>
      </trkpt>
      <trkpt lat="48.189579946920276" lon="17.093629958108068">
        <ele>352.59</ele>
        <time>2023-06-13T10:57:34.107Z</time>
      </trkpt>
      <trkpt lat="48.18955999799073" lon="17.09369994699955">
        <ele>353.32</ele>
        <time>2023-06-13T10:57:37.188Z</time>
      </trkpt>
      <trkpt lat="48.189579946920276" lon="17.093769935891032">
        <ele>354.01</ele>
        <time>2023-06-13T10:57:40.270Z</time>
      </trkpt>
      <trkpt lat="48.18966996856034" lon="17.093759961426258">
        <ele>354.56</ele>
        <time>2023-06-13T10:57:43.354Z</time>
      </trkpt>
      <trkpt lat="48.18984992802143" lon="17.093729954212904">
        <ele>355.0</ele>
        <time>2023-06-13T10:57:46.442Z</time>
      </trkpt>
      <trkpt lat="48.18998998962343" lon="17.093689972534776">
        <ele>355.47</ele>
        <time>2023-06-13T10:57:49.533Z</time>
      </trkpt>
      <trkpt lat="48.19026994518936" lon="17.093649990856647">
        <ele>356.0</ele>
        <time>2023-06-13T10:57:52.629Z</time>
      </trkpt>
      <trkpt lat="48.190459962934256" lon="17.093609925359488">
        <ele>356.42</ele>
        <time>2023-06-13T10:57:55.729Z</time>
      </trkpt>
      <trkpt lat="48.190609999001026" lon="17.093619983643293">
        <ele>356.7</ele>
        <time>2023-06-13T10:57:58.832Z</time>
      </trkpt>
      <trkpt lat="48.19071996957064" lon="17.09369994699955">
        <ele>357.09</ele>
        <time>2023-06-13T10:58:01.938Z</time>
      </trkpt>
      <trkpt lat="48.190759951248765" lon="17.093859957531095">
        <ele>357.46</ele>
        <time>2023-06-13T10:58:05.046Z</time>
      </trkpt>
      <trkpt lat="48.19074997678399" lon="17.093949979171157">
        <ele>357.85</ele>
        <time>2023-06-13T10:58:08.155Z</time>
      </trkpt>
      <trkpt lat="48.1906199734658" lon="17.0941099897027">
        <ele>358.28</ele>
        <time>2023-06-13T10:58:11.267Z</time>
      </trkpt>
      <trkpt lat="48.190499944612384" lon="17.09414997138083">
        <ele>358.76</ele>
        <time>2023-06-13T10:58:14.382Z</time>
      </trkpt>
      <trkpt lat="48.190459962934256" lon="17.09414997138083">
        <ele>359.23</ele>
        <time>2023-06-13T10:58:17.498Z</time>
      </trkpt>
      <trkpt lat="48.19024999625981" lon="17.094139996916056">
        <ele>359.74</ele>
        <time>2023-06-13T10:58:20.618Z</time>
      </trkpt>
      <trkpt lat="48.19007992744446" lon="17.094139996916056">
        <ele>360.23</ele>
        <time>2023-06-13T10:58:23.741Z</time>
      </trkpt>
      <trkpt lat="48.18988999351859" lon="17.094219960272312">
        <ele>360.76</ele>
        <time>2023-06-13T10:58:26.868Z</time>
      </trkpt>
      <trkpt lat="48.18979997187853" lon="17.094289949163795">
        <ele>361.35</ele>
        <time>2023-06-13T10:58:29.997Z</time>
      </trkpt>
      <trkpt lat="48.18969997577369" lon="17.094369996339083">
        <ele>361.96</ele>
        <time>2023-06-13T10:58:33.129Z</time>
      </trkpt>
      <trkpt lat="48.18962998688221" lon="17.09444995969534">
        <ele>362.65</ele>
        <time>2023-06-13T10:58:36.262Z</time>
      </trkpt>
      <trkpt lat="48.18948992528021" lon="17.09457996301353">
        <ele>363.44</ele>
        <time>2023-06-13T10:58:39.399Z</time>
      </trkpt>
      <trkpt lat="48.18939998745918" lon="17.094679959118366">
        <ele>364.25</ele>
        <time>2023-06-13T10:58:42.538Z</time>
      </trkpt>
      <trkpt lat="48.18928993307054" lon="17.09476998075843">
        <ele>365.11</ele>
        <time>2023-06-13T10:58:45.679Z</time>
      </trkpt>
      <trkpt lat="48.18919999524951" lon="17.09481993690133">
        <ele>366.02</ele>
        <time>2023-06-13T10:58:48.822Z</time>
      </trkpt>
      <trkpt lat="48.18910997360945" lon="17.094849944114685">
        <ele>367.0</ele>
        <time>2023-06-13T10:58:51.967Z</time>
      </trkpt>
      <trkpt lat="48.18898994475603" lon="17.094939965754747">
        <ele>368.03</ele>
        <time>2023-06-13T10:58:55.115Z</time>
      </trkpt>
      <trkpt lat="48.18896999582648" lon="17.09494994021952">
        <ele>369.11</ele>
        <time>2023-06-13T10:58:58.263Z</time>
      </trkpt>
      <trkpt lat="48.188849966973066" lon="17.095019929111004">
        <ele>370.29</ele>
        <time>2023-06-13T10:59:01.414Z</time>
      </trkpt>
      <trkpt lat="48.188739996403456" lon="17.095079943537712">
        <ele>371.53</ele>
        <time>2023-06-13T10:59:04.567Z</time>
      </trkpt>
      <trkpt lat="48.18872993811965" lon="17.095089918002486">
        <ele>372.8</ele>
        <time>2023-06-13T10:59:07.720Z</time>
      </trkpt>
      <trkpt lat="48.18868995644152" lon="17.095109950751066">
        <ele>374.18</ele>
        <time>2023-06-13T10:59:10.874Z</time>
      </trkpt>
      <trkpt lat="48.18857998587191" lon="17.095169965177774">
        <ele>375.68</ele>
        <time>2023-06-13T10:59:14.031Z</time>
      </trkpt>
      <trkpt lat="48.188479989767075" lon="17.095219921320677">
        <ele>377.24</ele>
        <time>2023-06-13T10:59:17.190Z</time>
      </trkpt>
      <trkpt lat="48.18836993537843" lon="17.095259986817837">
        <ele>378.91</ele>
        <time>2023-06-13T10:59:20.351Z</time>
      </trkpt>
      <trkpt lat="48.18829994648695" lon="17.095259986817837">
        <ele>380.59</ele>
        <time>2023-06-13T10:59:23.513Z</time>
      </trkpt>
      <trkpt lat="48.18823993206024" lon="17.095259986817837">
        <ele>382.29</ele>
        <time>2023-06-13T10:59:26.677Z</time>
      </trkpt>
      <trkpt lat="48.18814999423921" lon="17.095229979604483">
        <ele>384.07</ele>
        <time>2023-06-13T10:59:29.842Z</time>
      </trkpt>
      <trkpt lat="48.18806994706392" lon="17.095239954069257">
        <ele>385.84</ele>
        <time>2023-06-13T10:59:33.009Z</time>
      </trkpt>
      <trkpt lat="48.188049998134375" lon="17.095239954069257">
        <ele>387.56</ele>
        <time>2023-06-13T10:59:36.176Z</time>
      </trkpt>
      <trkpt lat="48.18797992542386" lon="17.095259986817837">
        <ele>389.34</ele>
        <time>2023-06-13T10:59:39.345Z</time>
      </trkpt>
      <trkpt lat="48.18793994374573" lon="17.09526996128261">
        <ele>391.12</ele>
        <time>2023-06-13T10:59:42.515Z</time>
      </trkpt>
      <trkpt lat="48.187859980389476" lon="17.09528999403119">
        <ele>392.96</ele>
        <time>2023-06-13T10:59:45.686Z</time>
      </trkpt>
      <trkpt lat="48.18780994042754" lon="17.09532997570932">
        <ele>394.73</ele>
        <time>2023-06-13T10:59:48.858Z</time>
      </trkpt>
      <trkpt lat="48.18767993710935" lon="17.095449920743704">
        <ele>396.56</ele>
        <time>2023-06-13T10:59:52.034Z</time>
      </trkpt>
      <trkpt lat="48.18754993379116" lon="17.095579924061894">
        <ele>398.34</ele>
        <time>2023-06-13T10:59:55.213Z</time>
      </trkpt>
      <trkpt lat="48.18750995211303" lon="17.0955899823457">
        <ele>400.05</ele>
        <time>2023-06-13T10:59:58.392Z</time>
      </trkpt>
      <trkpt lat="48.187409956008196" lon="17.095689978450537">
        <ele>401.74</ele>
        <time>2023-06-13T11:00:01.574Z</time>
      </trkpt>
      <trkpt lat="48.18737994879484" lon="17.09571998566389">
        <ele>403.35</ele>
        <time>2023-06-13T11:00:04.757Z</time>
      </trkpt>
      <trkpt lat="48.18732999265194" lon="17.09580992348492">
        <ele>404.91</ele>
        <time>2023-06-13T11:00:07.941Z</time>
      </trkpt>
      <trkpt lat="48.18719998933375" lon="17.095989966765046">
        <ele>406.51</ele>
        <time>2023-06-13T11:00:11.129Z</time>
      </trkpt>
      <trkpt lat="48.18706998601556" lon="17.09614997729659">
        <ele>407.98</ele>
        <time>2023-06-13T11:00:14.320Z</time>
      </trkpt>
      <trkpt lat="48.18696998991072" lon="17.09627998061478">
        <ele>409.35</ele>
        <time>2023-06-13T11:00:17.514Z</time>
      </trkpt>
      <trkpt lat="48.18687996827066" lon="17.096369918435812">
        <ele>410.7</ele>
        <time>2023-06-13T11:00:20.710Z</time>
      </trkpt>
      <trkpt lat="48.186849961057305" lon="17.096389951184392">
        <ele>411.91</ele>
        <time>2023-06-13T11:00:23.907Z</time>
      </trkpt>
      <trkpt lat="48.1867899466306" lon="17.09648994728923">
        <ele>413.03</ele>
        <time>2023-06-13T11:00:27.105Z</time>
      </trkpt>
      <trkpt lat="48.18661996163428" lon="17.096679965034127">
        <ele>414.1</ele>
        <time>2023-06-13T11:00:30.308Z</time>
      </trkpt>
      <trkpt lat="48.186549972742796" lon="17.096799993887544">
        <ele>414.99</ele>
        <time>2023-06-13T11:00:33.513Z</time>
      </trkpt>
      <trkpt lat="48.18648995831609" lon="17.096909964457154">
        <ele>415.76</ele>
        <time>2023-06-13T11:00:36.720Z</time>
      </trkpt>
      <trkpt lat="48.186479983851314" lon="17.09693997167051">
        <ele>416.42</ele>
        <time>2023-06-13T11:00:39.927Z</time>
      </trkpt>
      <trkpt lat="48.18638996221125" lon="17.097149938344955">
        <ele>416.96</ele>
        <time>2023-06-13T11:00:43.137Z</time>
      </trkpt>
      <trkpt lat="48.186289966106415" lon="17.09738999605179">
        <ele>417.36</ele>
        <time>2023-06-13T11:00:46.351Z</time>
      </trkpt>
      <trkpt lat="48.18621997721493" lon="17.097649918869138">
        <ele>417.73</ele>
        <time>2023-06-13T11:00:49.569Z</time>
      </trkpt>
      <trkpt lat="48.186179995536804" lon="17.097859969362617">
        <ele>418.0</ele>
        <time>2023-06-13T11:00:52.790Z</time>
      </trkpt>
      <trkpt lat="48.18614998832345" lon="17.0979299582541">
        <ele>418.11</ele>
        <time>2023-06-13T11:00:56.012Z</time>
      </trkpt>
      <trkpt lat="48.186009926721454" lon="17.098119975998998">
        <ele>418.2</ele>
        <time>2023-06-13T11:00:59.238Z</time>
      </trkpt>
      <trkpt lat="48.18593993782997" lon="17.09820999763906">
        <ele>418.09</ele>
        <time>2023-06-13T11:01:02.466Z</time>
      </trkpt>
      <trkpt lat="48.18577992729843" lon="17.09837998263538">
        <ele>417.85</ele>
        <time>2023-06-13T11:01:05.698Z</time>
      </trkpt>
      <trkpt lat="48.18575997836888" lon="17.098399931564927">
        <ele>417.45</ele>
        <time>2023-06-13T11:01:08.930Z</time>
      </trkpt>
      <trkpt lat="48.18571999669075" lon="17.09842993877828">
        <ele>416.94</ele>
        <time>2023-06-13T11:01:12.163Z</time>
      </trkpt>
      <trkpt lat="48.185669956728816" lon="17.098479978740215">
        <ele>416.27</ele>
        <time>2023-06-13T11:01:15.397Z</time>
      </trkpt>
      <trkpt lat="48.18565998226404" lon="17.098589949309826">
        <ele>415.42</ele>
        <time>2023-06-13T11:01:18.633Z</time>
      </trkpt>
      <trkpt lat="48.185729971155524" lon="17.09872992709279">
        <ele>414.38</ele>
        <time>2023-06-13T11:01:21.871Z</time>
      </trkpt>
      <trkpt lat="48.18577992729843" lon="17.098799999803305">
        <ele>413.31</ele>
        <time>2023-06-13T11:01:25.110Z</time>
      </trkpt>
      <trkpt lat="48.18578998558223" lon="17.098829923197627">
        <ele>412.16</ele>
        <time>2023-06-13T11:01:28.350Z</time>
      </trkpt>
      <trkpt lat="48.18575997836888" lon="17.09898993372917">
        <ele>410.84</ele>
        <time>2023-06-13T11:01:31.592Z</time>
      </trkpt>
      <trkpt lat="48.18577992729843" lon="17.099169977009296">
        <ele>409.4</ele>
        <time>2023-06-13T11:01:34.836Z</time>
      </trkpt>
      <trkpt lat="48.185859974473715" lon="17.099249940365553">
        <ele>407.9</ele>
        <time>2023-06-13T11:01:38.082Z</time>
      </trkpt>
      <trkpt lat="48.18591998890042" lon="17.09930995479226">
        <ele>406.31</ele>
        <time>2023-06-13T11:01:41.330Z</time>
      </trkpt>
      <trkpt lat="48.18607999943197" lon="17.09943995811045">
        <ele>404.61</ele>
        <time>2023-06-13T11:01:44.581Z</time>
      </trkpt>
      <trkpt lat="48.18623992614448" lon="17.099729971960187">
        <ele>402.65</ele>
        <time>2023-06-13T11:01:47.837Z</time>
      </trkpt>
      <trkpt lat="48.18627999164164" lon="17.099809935316443">
        <ele>400.72</ele>
        <time>2023-06-13T11:01:51.095Z</time>
      </trkpt>
      <trkpt lat="48.18640999495983" lon="17.09992996416986">
        <ele>398.67</ele>
        <time>2023-06-13T11:01:54.356Z</time>
      </trkpt>
      <trkpt lat="48.18655994720757" lon="17.099989978596568">
        <ele>396.63</ele>
        <time>2023-06-13T11:01:57.620Z</time>
      </trkpt>
      <trkpt lat="48.18674996495247" lon="17.1000799164176">
        <ele>394.52</ele>
        <time>2023-06-13T11:02:00.888Z</time>
      </trkpt>
      <trkpt lat="48.18704995326698" lon="17.100179996341467">
        <ele>392.33</ele>
        <time>2023-06-13T11:02:04.162Z</time>
      </trkpt>
      <trkpt lat="48.18711994215846" lon="17.100199945271015">
        <ele>390.19</ele>
        <time>2023-06-13T11:02:07.438Z</time>
      </trkpt>
      <trkpt lat="48.18724994547665" lon="17.100269934162498">
        <ele>388.0</ele>
        <time>2023-06-13T11:02:10.716Z</time>
      </trkpt>
      <trkpt lat="48.18745999597013" lon="17.100419970229268">
        <ele>385.72</ele>
        <time>2023-06-13T11:02:13.999Z</time>
      </trkpt>
      <trkpt lat="48.187709944322705" lon="17.100499933585525">
        <ele>383.43</ele>
        <time>2023-06-13T11:02:17.287Z</time>
      </trkpt>
      <trkpt lat="48.18797992542386" lon="17.100569922477007">
        <ele>381.03</ele>
        <time>2023-06-13T11:02:20.581Z</time>
      </trkpt>
      <trkpt lat="48.18810992874205" lon="17.100589955225587">
        <ele>378.79</ele>
        <time>2023-06-13T11:02:23.877Z</time>
      </trkpt>
      <trkpt lat="48.188459957018495" lon="17.10061996243894">
        <ele>376.41</ele>
        <time>2023-06-13T11:02:27.180Z</time>
      </trkpt>
      <trkpt lat="48.18857998587191" lon="17.100609987974167">
        <ele>374.15</ele>
        <time>2023-06-13T11:02:30.486Z</time>
      </trkpt>
      <trkpt lat="48.188869999721646" lon="17.10048995912075">
        <ele>371.76</ele>
        <time>2023-06-13T11:02:33.798Z</time>
      </trkpt>
      <trkpt lat="48.18893998861313" lon="17.100449977442622">
        <ele>369.57</ele>
        <time>2023-06-13T11:02:37.111Z</time>
      </trkpt>
      <trkpt lat="48.18900997750461" lon="17.100449977442622">
        <ele>367.37</ele>
        <time>2023-06-13T11:02:40.426Z</time>
      </trkpt>
      <trkpt lat="48.188999919220805" lon="17.10048995912075">
        <ele>365.3</ele>
        <time>2023-06-13T11:02:43.741Z</time>
      </trkpt>
      <trkpt lat="48.18895993754268" lon="17.100579980760813">
        <ele>363.27</ele>
        <time>2023-06-13T11:02:47.058Z</time>
      </trkpt>
      <trkpt lat="48.18887997418642" lon="17.100869994610548">
        <ele>361.13</ele>
        <time>2023-06-13T11:02:50.379Z</time>
      </trkpt>
      <trkpt lat="48.188849966973066" lon="17.10093998350203">
        <ele>359.18</ele>
        <time>2023-06-13T11:02:53.701Z</time>
      </trkpt>
      <trkpt lat="48.18863991647959" lon="17.101289927959442">
        <ele>357.16</ele>
        <time>2023-06-13T11:02:57.029Z</time>
      </trkpt>
      <trkpt lat="48.18857998587191" lon="17.101399982348084">
        <ele>355.31</ele>
        <time>2023-06-13T11:03:00.359Z</time>
      </trkpt>
      <trkpt lat="48.188459957018495" lon="17.101619923487306">
        <ele>353.49</ele>
        <time>2023-06-13T11:03:03.693Z</time>
      </trkpt>
      <trkpt lat="48.18840991705656" lon="17.101699970662594">
        <ele>351.73</ele>
        <time>2023-06-13T11:03:07.028Z</time>
      </trkpt>
      <trkpt lat="48.1882799975574" lon="17.102009933441877">
        <ele>349.96</ele>
        <time>2023-06-13T11:03:10.368Z</time>
      </trkpt>
      <trkpt lat="48.18820992484689" lon="17.102169943973422">
        <ele>348.26</ele>
        <time>2023-06-13T11:03:13.711Z</time>
      </trkpt>
      <trkpt lat="48.18821998313069" lon="17.102139936760068">
        <ele>346.66</ele>
        <time>2023-06-13T11:03:17.054Z</time>
      </trkpt>
      <trkpt lat="48.18822995759547" lon="17.102169943973422">
        <ele>345.08</ele>
        <time>2023-06-13T11:03:20.398Z</time>
      </trkpt>
      <trkpt lat="48.18825996480882" lon="17.102479990571737">
        <ele>343.38</ele>
        <time>2023-06-13T11:03:23.746Z</time>
      </trkpt>
      <trkpt lat="48.188289972022176" lon="17.10252994671464">
        <ele>341.85</ele>
        <time>2023-06-13T11:03:27.095Z</time>
      </trkpt>
      <trkpt lat="48.188399942591786" lon="17.102579986676574">
        <ele>340.32</ele>
        <time>2023-06-13T11:03:30.446Z</time>
      </trkpt>
      <trkpt lat="48.18852994590998" lon="17.102569928392768">
        <ele>338.87</ele>
        <time>2023-06-13T11:03:33.800Z</time>
      </trkpt>
      <trkpt lat="48.18857998587191" lon="17.102569928392768">
        <ele>337.49</ele>
        <time>2023-06-13T11:03:37.155Z</time>
      </trkpt>
      <trkpt lat="48.18868995644152" lon="17.10254997946322">
        <ele>336.12</ele>
        <time>2023-06-13T11:03:40.512Z</time>
      </trkpt>
      <trkpt lat="48.18891995586455" lon="17.10252994671464">
        <ele>334.7</ele>
        <time>2023-06-13T11:03:43.874Z</time>
      </trkpt>
      <trkpt lat="48.18921994417906" lon="17.10254997946322">
        <ele>333.39</ele>
        <time>2023-06-13T11:03:47.242Z</time>
      </trkpt>
      <trkpt lat="48.18930996581912" lon="17.10252994671464">
        <ele>332.24</ele>
        <time>2023-06-13T11:03:50.611Z</time>
      </trkpt>
      <trkpt lat="48.18949998356402" lon="17.102439925074577">
        <ele>331.15</ele>
        <time>2023-06-13T11:03:53.984Z</time>
      </trkpt>
      <trkpt lat="48.189689917489886" lon="17.102369936183095">
        <ele>330.11</ele>
        <time>2023-06-13T11:03:57.361Z</time>
      </trkpt>
      <trkpt lat="48.189879935234785" lon="17.102319980040193">
        <ele>329.15</ele>
        <time>2023-06-13T11:04:00.742Z</time>
      </trkpt>
      <trkpt lat="48.190009938552976" lon="17.102279998362064">
        <ele>328.28</ele>
        <time>2023-06-13T11:04:04.126Z</time>
      </trkpt>
      <trkpt lat="48.19014991633594" lon="17.102259965613484">
        <ele>327.47</ele>
        <time>2023-06-13T11:04:07.513Z</time>
      </trkpt>
      <trkpt lat="48.1904299557209" lon="17.102139936760068">
        <ele>326.59</ele>
        <time>2023-06-13T11:04:10.905Z</time>
      </trkpt>
      <trkpt lat="48.190479995682836" lon="17.102109929546714">
        <ele>325.85</ele>
        <time>2023-06-13T11:04:14.298Z</time>
      </trkpt>
      <trkpt lat="48.19065995514393" lon="17.101979926228523">
        <ele>325.19</ele>
        <time>2023-06-13T11:04:17.695Z</time>
      </trkpt>
      <trkpt lat="48.19069993682206" lon="17.101959977298975">
        <ele>324.59</ele>
        <time>2023-06-13T11:04:21.093Z</time>
      </trkpt>
      <trkpt lat="48.190909987315536" lon="17.101869955658913">
        <ele>324.02</ele>
        <time>2023-06-13T11:04:24.496Z</time>
      </trkpt>
      <trkpt lat="48.190999925136566" lon="17.101809941232204">
        <ele>323.52</ele>
        <time>2023-06-13T11:04:27.901Z</time>
      </trkpt>
      <trkpt lat="48.19111995398998" lon="17.101749926805496">
        <ele>323.08</ele>
        <time>2023-06-13T11:04:31.308Z</time>
      </trkpt>
      <trkpt lat="48.19126999005675" lon="17.101639956235886">
        <ele>322.68</ele>
        <time>2023-06-13T11:04:34.719Z</time>
      </trkpt>
      <trkpt lat="48.191509963944554" lon="17.101449938490987">
        <ele>322.31</ele>
        <time>2023-06-13T11:04:38.135Z</time>
      </trkpt>
      <trkpt lat="48.19155992008746" lon="17.101399982348084">
        <ele>322.06</ele>
        <time>2023-06-13T11:04:41.552Z</time>
      </trkpt>
      <trkpt lat="48.19159998558462" lon="17.10134994238615">
        <ele>321.86</ele>
        <time>2023-06-13T11:04:44.970Z</time>
      </trkpt>
      <trkpt lat="48.191829985007644" lon="17.101379949599504">
        <ele>321.69</ele>
        <time>2023-06-13T11:04:48.393Z</time>
      </trkpt>
      <trkpt lat="48.191879941150546" lon="17.10151992738247">
        <ele>321.69</ele>
        <time>2023-06-13T11:04:51.818Z</time>
      </trkpt>
      <trkpt lat="48.19192998111248" lon="17.101739952340722">
        <ele>321.78</ele>
        <time>2023-06-13T11:04:55.246Z</time>
      </trkpt>
      <trkpt lat="48.191939955577254" lon="17.10183994844556">
        <ele>321.88</ele>
        <time>2023-06-13T11:04:58.675Z</time>
      </trkpt>
      <trkpt lat="48.19205998443067" lon="17.10209995508194">
        <ele>321.89</ele>
        <time>2023-06-13T11:05:02.109Z</time>
      </trkpt>
      <trkpt lat="48.192069958895445" lon="17.102179918438196">
        <ele>322.04</ele>
        <time>2023-06-13T11:05:05.544Z</time>
      </trkpt>
      <trkpt lat="48.19202997721732" lon="17.102499939501286">
        <ele>322.31</ele>
        <time>2023-06-13T11:05:08.983Z</time>
      </trkpt>
      <trkpt lat="48.19200994446874" lon="17.102589961141348">
        <ele>322.58</ele>
        <time>2023-06-13T11:05:12.423Z</time>
      </trkpt>
      <trkpt lat="48.19198999553919" lon="17.10267998278141">
        <ele>322.87</ele>
        <time>2023-06-13T11:05:15.865Z</time>
      </trkpt>
      <trkpt lat="48.191959988325834" lon="17.102879974991083">
        <ele>323.2</ele>
        <time>2023-06-13T11:05:19.309Z</time>
      </trkpt>
      <trkpt lat="48.19186996668577" lon="17.1032399777323">
        <ele>323.6</ele>
        <time>2023-06-13T11:05:22.759Z</time>
      </trkpt>
      <trkpt lat="48.19184993393719" lon="17.103319941088557">
        <ele>323.94</ele>
        <time>2023-06-13T11:05:26.210Z</time>
      </trkpt>
      <trkpt lat="48.19179997779429" lon="17.103529991582036">
        <ele>324.33</ele>
        <time>2023-06-13T11:05:29.664Z</time>
      </trkpt>
      <trkpt lat="48.19177994504571" lon="17.10359998047352">
        <ele>324.71</ele>
        <time>2023-06-13T11:05:33.119Z</time>
      </trkpt>
      <trkpt lat="48.19177994504571" lon="17.103669969365">
        <ele>325.08</ele>
        <time>2023-06-13T11:05:36.575Z</time>
      </trkpt>
      <trkpt lat="48.19175999611616" lon="17.103979932144284">
        <ele>325.48</ele>
        <time>2023-06-13T11:05:40.035Z</time>
      </trkpt>
      <trkpt lat="48.191749937832355" lon="17.104149917140603">
        <ele>325.86</ele>
        <time>2023-06-13T11:05:43.497Z</time>
      </trkpt>
      <trkpt lat="48.19173996336758" lon="17.104329960420728">
        <ele>326.22</ele>
        <time>2023-06-13T11:05:46.961Z</time>
      </trkpt>
      <trkpt lat="48.19181992672384" lon="17.10463992320001">
        <ele>326.48</ele>
        <time>2023-06-13T11:05:50.430Z</time>
      </trkpt>
      <trkpt lat="48.19184993393719" lon="17.104809992015362">
        <ele>326.88</ele>
        <time>2023-06-13T11:05:53.901Z</time>
      </trkpt>
      <trkpt lat="48.191939955577254" lon="17.104969918727875">
        <ele>327.3</ele>
        <time>2023-06-13T11:05:57.375Z</time>
      </trkpt>
      <trkpt lat="48.19201991893351" lon="17.1049599442631">
        <ele>327.74</ele>
        <time>2023-06-13T11:06:00.851Z</time>
      </trkpt>
      <trkpt lat="48.19211999885738" lon="17.104919962584972">
        <ele>328.2</ele>
        <time>2023-06-13T11:06:04.329Z</time>
      </trkpt>
      <trkpt lat="48.1922899838537" lon="17.1047199703753">
        <ele>328.71</ele>
        <time>2023-06-13T11:06:07.811Z</time>
      </trkpt>
      <trkpt lat="48.192349998280406" lon="17.104619974270463">
        <ele>329.17</ele>
        <time>2023-06-13T11:06:11.295Z</time>
      </trkpt>
      <trkpt lat="48.19242996163666" lon="17.1045299526304">
        <ele>329.68</ele>
        <time>2023-06-13T11:06:14.781Z</time>
      </trkpt>
      <trkpt lat="48.19254999049008" lon="17.104339934885502">
        <ele>330.27</ele>
        <time>2023-06-13T11:06:18.270Z</time>
      </trkpt>
      <trkpt lat="48.19255996495485" lon="17.104309927672148">
        <ele>330.78</ele>
        <time>2023-06-13T11:06:21.760Z</time>
      </trkpt>
      <trkpt lat="48.19256993941963" lon="17.10426994599402">
        <ele>331.29</ele>
        <time>2023-06-13T11:06:25.250Z</time>
      </trkpt>
      <trkpt lat="48.19261997938156" lon="17.104179924353957">
        <ele>331.83</ele>
        <time>2023-06-13T11:06:28.742Z</time>
      </trkpt>
      <trkpt lat="48.192779989913106" lon="17.104019997641444">
        <ele>332.42</ele>
        <time>2023-06-13T11:06:32.238Z</time>
      </trkpt>
      <trkpt lat="48.19287998601794" lon="17.103869961574674">
        <ele>332.9</ele>
        <time>2023-06-13T11:06:35.737Z</time>
      </trkpt>
      <trkpt lat="48.19297998212278" lon="17.10379997268319">
        <ele>333.41</ele>
        <time>2023-06-13T11:06:39.238Z</time>
      </trkpt>
      <trkpt lat="48.193079978227615" lon="17.103699976578355">
        <ele>333.88</ele>
        <time>2023-06-13T11:06:42.741Z</time>
      </trkpt>
      <trkpt lat="48.193209981545806" lon="17.103569973260164">
        <ele>334.34</ele>
        <time>2023-06-13T11:06:46.247Z</time>
      </trkpt>
      <trkpt lat="48.19331995211542" lon="17.103459918871522">
        <ele>334.82</ele>
        <time>2023-06-13T11:06:49.756Z</time>
      </trkpt>
      <trkpt lat="48.19342992268503" lon="17.103319941088557">
        <ele>335.3</ele>
        <time>2023-06-13T11:06:53.268Z</time>
      </trkpt>
      <trkpt lat="48.193549951538444" lon="17.10321994498372">
        <ele>335.76</ele>
        <time>2023-06-13T11:06:56.783Z</time>
      </trkpt>
      <trkpt lat="48.19372999481857" lon="17.103119948878884">
        <ele>336.31</ele>
        <time>2023-06-13T11:07:00.302Z</time>
      </trkpt>
      <trkpt lat="48.193919928744435" lon="17.102989945560694">
        <ele>336.74</ele>
        <time>2023-06-13T11:07:03.825Z</time>
      </trkpt>
      <trkpt lat="48.19402998313308" lon="17.10291995666921">
        <ele>337.1</ele>
        <time>2023-06-13T11:07:07.350Z</time>
      </trkpt>
      <trkpt lat="48.19417993538082" lon="17.102819960564375">
        <ele>337.4</ele>
        <time>2023-06-13T11:07:10.878Z</time>
      </trkpt>
      <trkpt lat="48.194349920377135" lon="17.102669924497604">
        <ele>337.74</ele>
        <time>2023-06-13T11:07:14.410Z</time>
      </trkpt>
      <trkpt lat="48.19448998197913" lon="17.102499939501286">
        <ele>337.92</ele>
        <time>2023-06-13T11:07:17.946Z</time>
      </trkpt>
      <trkpt lat="48.194629959762096" lon="17.102309921756387">
        <ele>338.06</ele>
        <time>2023-06-13T11:07:21.486Z</time>
      </trkpt>
      <trkpt lat="48.19476993754506" lon="17.10211998783052">
        <ele>338.1</ele>
        <time>2023-06-13T11:07:25.030Z</time>
      </trkpt>
      <trkpt lat="48.1948799919337" lon="17.102049998939037">
        <ele>338.25</ele>
        <time>2023-06-13T11:07:28.576Z</time>
      </trkpt>
      <trkpt lat="48.19493992254138" lon="17.101979926228523">
        <ele>338.38</ele>
        <time>2023-06-13T11:07:32.123Z</time>
      </trkpt>
      <trkpt lat="48.19506992585957" lon="17.10203994065523">
        <ele>338.64</ele>
        <time>2023-06-13T11:07:35.673Z</time>
      </trkpt>
      <trkpt lat="48.195099933072925" lon="17.102089980617166">
        <ele>338.88</ele>
        <time>2023-06-13T11:07:39.224Z</time>
      </trkpt>
      <trkpt lat="48.19514997303486" lon="17.10226994007826">
        <ele>339.19</ele>
        <time>2023-06-13T11:07:42.778Z</time>
      </trkpt>
      <trkpt lat="48.19525994360447" lon="17.102479990571737">
        <ele>339.4</ele>
        <time>2023-06-13T11:07:46.335Z</time>
      </trkpt>
      <trkpt lat="48.19533999077976" lon="17.102649975568056">
        <ele>339.54</ele>
        <time>2023-06-13T11:07:49.895Z</time>
      </trkpt>
      <trkpt lat="48.19540997967124" lon="17.102909982204437">
        <ele>339.7</ele>
        <time>2023-06-13T11:07:53.459Z</time>
      </trkpt>
      <trkpt lat="48.19542992860079" lon="17.103189937770367">
        <ele>339.85</ele>
        <time>2023-06-13T11:07:57.027Z</time>
      </trkpt>
      <trkpt lat="48.195489943027496" lon="17.103439969941974">
        <ele>339.95</ele>
        <time>2023-06-13T11:08:00.598Z</time>
      </trkpt>
      <trkpt lat="48.19553998298943" lon="17.103719925507903">
        <ele>340.15</ele>
        <time>2023-06-13T11:08:04.173Z</time>
      </trkpt>
      <trkpt lat="48.195549957454205" lon="17.103789998218417">
        <ele>340.35</ele>
        <time>2023-06-13T11:08:07.749Z</time>
      </trkpt>
      <trkpt lat="48.195569990202785" lon="17.103939950466156">
        <ele>340.57</ele>
        <time>2023-06-13T11:08:11.327Z</time>
      </trkpt>
      <trkpt lat="48.195569990202785" lon="17.104089986532927">
        <ele>340.79</ele>
        <time>2023-06-13T11:08:14.907Z</time>
      </trkpt>
      <trkpt lat="48.19547996856272" lon="17.104489970952272">
        <ele>341.17</ele>
        <time>2023-06-13T11:08:18.493Z</time>
      </trkpt>
      <trkpt lat="48.19545993581414" lon="17.10456993430853">
        <ele>341.38</ele>
        <time>2023-06-13T11:08:22.080Z</time>
      </trkpt>
      <trkpt lat="48.195419954136014" lon="17.104649981483817">
        <ele>341.57</ele>
        <time>2023-06-13T11:08:25.668Z</time>
      </trkpt>
      <trkpt lat="48.19542992860079" lon="17.10497997701168">
        <ele>341.79</ele>
        <time>2023-06-13T11:08:29.261Z</time>
      </trkpt>
      <trkpt lat="48.19546999409795" lon="17.105029933154583">
        <ele>341.96</ele>
        <time>2023-06-13T11:08:32.855Z</time>
      </trkpt>
      <trkpt lat="48.195509975776076" lon="17.105059940367937">
        <ele>342.11</ele>
        <time>2023-06-13T11:08:36.449Z</time>
      </trkpt>
      <trkpt lat="48.19564995355904" lon="17.105049965903163">
        <ele>342.21</ele>
        <time>2023-06-13T11:08:40.046Z</time>
      </trkpt>
      <trkpt lat="48.195699993520975" lon="17.105069998651743">
        <ele>342.31</ele>
        <time>2023-06-13T11:08:43.644Z</time>
      </trkpt>
      <trkpt lat="48.1957399751991" lon="17.105099922046065">
        <ele>342.42</ele>
        <time>2023-06-13T11:08:47.243Z</time>
      </trkpt>
      <trkpt lat="48.195829996839166" lon="17.105179969221354">
        <ele>342.56</ele>
        <time>2023-06-13T11:08:50.844Z</time>
      </trkpt>
      <trkpt lat="48.19590996019542" lon="17.10523998364806">
        <ele>342.68</ele>
        <time>2023-06-13T11:08:54.447Z</time>
      </trkpt>
      <trkpt lat="48.19607994519174" lon="17.10523998364806">
        <ele>342.8</ele>
        <time>2023-06-13T11:08:58.054Z</time>
      </trkpt>
      <trkpt lat="48.19611992686987" lon="17.105199918150902">
        <ele>342.83</ele>
        <time>2023-06-13T11:09:01.661Z</time>
      </trkpt>
      <trkpt lat="48.19615999236703" lon="17.105159936472774">
        <ele>342.84</ele>
        <time>2023-06-13T11:09:05.269Z</time>
      </trkpt>
      <trkpt lat="48.19619997404516" lon="17.105119954794645">
        <ele>342.85</ele>
        <time>2023-06-13T11:09:08.878Z</time>
      </trkpt>
      <trkpt lat="48.19628999568522" lon="17.105049965903163">
        <ele>342.84</ele>
        <time>2023-06-13T11:09:12.489Z</time>
      </trkpt>
      <trkpt lat="48.196409940719604" lon="17.104919962584972">
        <ele>342.76</ele>
        <time>2023-06-13T11:09:16.103Z</time>
      </trkpt>
      <trkpt lat="48.19658998399973" lon="17.104769926518202">
        <ele>342.62</ele>
        <time>2023-06-13T11:09:19.722Z</time>
      </trkpt>
      <trkpt lat="48.19680992513895" lon="17.10465995594859">
        <ele>342.68</ele>
        <time>2023-06-13T11:09:23.345Z</time>
      </trkpt>
      <trkpt lat="48.19684999063611" lon="17.104629948735237">
        <ele>342.71</ele>
        <time>2023-06-13T11:09:26.969Z</time>
      </trkpt>
      <trkpt lat="48.19691997952759" lon="17.104579992592335">
        <ele>342.74</ele>
        <time>2023-06-13T11:09:30.595Z</time>
      </trkpt>
      <trkpt lat="48.19704998284578" lon="17.10450991988182">
        <ele>342.8</ele>
        <time>2023-06-13T11:09:34.223Z</time>
      </trkpt>
      <trkpt lat="48.19718996062875" lon="17.10450991988182">
        <ele>342.96</ele>
        <time>2023-06-13T11:09:37.854Z</time>
      </trkpt>
      <trkpt lat="48.19737997837365" lon="17.104599941521883">
        <ele>343.2</ele>
        <time>2023-06-13T11:09:41.489Z</time>
      </trkpt>
      <trkpt lat="48.19746991619468" lon="17.104649981483817">
        <ele>343.37</ele>
        <time>2023-06-13T11:09:45.126Z</time>
      </trkpt>
      <trkpt lat="48.197549963369966" lon="17.104669930413365">
        <ele>343.52</ele>
        <time>2023-06-13T11:09:48.765Z</time>
      </trkpt>
      <trkpt lat="48.19768994115293" lon="17.10465995594859">
        <ele>343.68</ele>
        <time>2023-06-13T11:09:52.407Z</time>
      </trkpt>
      <trkpt lat="48.197829918935895" lon="17.104619974270463">
        <ele>343.73</ele>
        <time>2023-06-13T11:09:56.051Z</time>
      </trkpt>
      <trkpt lat="48.19809998385608" lon="17.104489970952272">
        <ele>343.75</ele>
        <time>2023-06-13T11:09:59.701Z</time>
      </trkpt>
      <trkpt lat="48.19823996163905" lon="17.104429956525564">
        <ele>343.85</ele>
        <time>2023-06-13T11:10:03.354Z</time>
      </trkpt>
      <trkpt lat="48.198409946635365" lon="17.10439994931221">
        <ele>343.9</ele>
        <time>2023-06-13T11:10:07.010Z</time>
      </trkpt>
      <trkpt lat="48.198489993810654" lon="17.10441998206079">
        <ele>344.09</ele>
        <time>2023-06-13T11:10:10.668Z</time>
      </trkpt>
      <trkpt lat="48.19856995716691" lon="17.10456993430853">
        <ele>344.38</ele>
        <time>2023-06-13T11:10:14.329Z</time>
      </trkpt>
      <trkpt lat="48.19860993884504" lon="17.104749977588654">
        <ele>344.72</ele>
        <time>2023-06-13T11:10:17.992Z</time>
      </trkpt>
      <trkpt lat="48.198599964380264" lon="17.10503999143839">
        <ele>345.16</ele>
        <time>2023-06-13T11:10:21.659Z</time>
      </trkpt>
      <trkpt lat="48.198579931631684" lon="17.10516999475658">
        <ele>345.55</ele>
        <time>2023-06-13T11:10:25.328Z</time>
      </trkpt>
      <trkpt lat="48.19849996827543" lon="17.10551993921399">
        <ele>346.15</ele>
        <time>2023-06-13T11:10:29.002Z</time>
      </trkpt>
      <trkpt lat="48.198489993810654" lon="17.105569979175925">
        <ele>346.58</ele>
        <time>2023-06-13T11:10:32.676Z</time>
      </trkpt>
      <trkpt lat="48.19852997548878" lon="17.105769971385598">
        <ele>347.05</ele>
        <time>2023-06-13T11:10:36.353Z</time>
      </trkpt>
      <trkpt lat="48.198619997128844" lon="17.105829985812306">
        <ele>347.46</ele>
        <time>2023-06-13T11:10:40.032Z</time>
      </trkpt>
      <trkpt lat="48.19864992052317" lon="17.10583996027708">
        <ele>347.89</ele>
        <time>2023-06-13T11:10:43.712Z</time>
      </trkpt>
      <trkpt lat="48.19879995658994" lon="17.10583996027708">
        <ele>348.23</ele>
        <time>2023-06-13T11:10:47.395Z</time>
      </trkpt>
      <trkpt lat="48.1989399343729" lon="17.105869967490435">
        <ele>348.71</ele>
        <time>2023-06-13T11:10:51.081Z</time>
      </trkpt>
      <trkpt lat="48.198969941586256" lon="17.105909949168563">
        <ele>349.21</ele>
        <time>2023-06-13T11:10:54.767Z</time>
      </trkpt>
      <trkpt lat="48.19903993047774" lon="17.10602997802198">
        <ele>349.79</ele>
        <time>2023-06-13T11:10:58.456Z</time>
      </trkpt>
      <trkpt lat="48.19911997765303" lon="17.10611999966204">
        <ele>350.34</ele>
        <time>2023-06-13T11:11:02.147Z</time>
      </trkpt>
      <trkpt lat="48.1993199698627" lon="17.106039952486753">
        <ele>350.84</ele>
        <time>2023-06-13T11:11:05.842Z</time>
      </trkpt>
      <trkpt lat="48.19938995875418" lon="17.105909949168563">
        <ele>351.29</ele>
        <time>2023-06-13T11:11:09.539Z</time>
      </trkpt>
      <trkpt lat="48.19948995485902" lon="17.105789920315146">
        <ele>351.8</ele>
        <time>2023-06-13T11:11:13.239Z</time>
      </trkpt>
      <trkpt lat="48.19954996928573" lon="17.10570995695889">
        <ele>352.27</ele>
        <time>2023-06-13T11:11:16.940Z</time>
      </trkpt>
      <trkpt lat="48.199699921533465" lon="17.10553997196257">
        <ele>352.75</ele>
        <time>2023-06-13T11:11:20.645Z</time>
      </trkpt>
      <trkpt lat="48.19987996481359" lon="17.105359928682446">
        <ele>353.18</ele>
        <time>2023-06-13T11:11:24.354Z</time>
      </trkpt>
      <trkpt lat="48.19999974220991" lon="17.10531994700432">
        <ele>353.66</ele>
        <time>2023-06-13T11:11:28.066Z</time>
      </trkpt>
      <trkpt lat="48.19999999366701" lon="17.10531994700432">
        <ele>353.67</ele>
        <time>2023-06-13T11:11:31.778Z</time>
      </trkpt>
      <trkpt lat="48.199978452175856" lon="17.10524719208479">
        <ele>348.53</ele>
        <time>2023-06-13T11:11:35.491Z</time>
      </trkpt>
      <trkpt lat="48.20000410079956" lon="17.10523009300232">
        <ele>348.79</ele>
        <time>2023-06-13T11:11:39.204Z</time>
      </trkpt>
      <trkpt lat="48.200111389160156" lon="17.10523009300232">
        <ele>349.21</ele>
        <time>2023-06-13T11:11:42.919Z</time>
      </trkpt>
      <trkpt lat="48.20020794868469" lon="17.105294466018677">
        <ele>349.92</ele>
        <time>2023-06-13T11:11:46.637Z</time>
      </trkpt>
      <trkpt lat="48.20028305053711" lon="17.10548758506775">
        <ele>351.11</ele>
        <time>2023-06-13T11:11:50.358Z</time>
      </trkpt>
      <trkpt lat="48.200401067733765" lon="17.10592746734619">
        <ele>352.75</ele>
        <time>2023-06-13T11:11:54.085Z</time>
      </trkpt>
      <trkpt lat="48.200443983078" lon="17.106142044067383">
        <ele>354.05</ele>
        <time>2023-06-13T11:11:57.815Z</time>
      </trkpt>
      <trkpt lat="48.200615644454956" lon="17.10642099380493">
        <ele>355.05</ele>
        <time>2023-06-13T11:12:01.550Z</time>
      </trkpt>
      <trkpt lat="48.200626373291016" lon="17.106528282165527">
        <ele>355.91</ele>
        <time>2023-06-13T11:12:05.286Z</time>
      </trkpt>
      <trkpt lat="48.2006049156189" lon="17.10693597793579">
        <ele>356.84</ele>
        <time>2023-06-13T11:12:09.028Z</time>
      </trkpt>
      <trkpt lat="48.200637102127075" lon="17.107032537460327">
        <ele>357.65</ele>
        <time>2023-06-13T11:12:12.771Z</time>
      </trkpt>
      <trkpt lat="48.200669288635254" lon="17.107064723968506">
        <ele>358.47</ele>
        <time>2023-06-13T11:12:16.515Z</time>
      </trkpt>
      <trkpt lat="48.20069074630737" lon="17.10724711418152">
        <ele>359.29</ele>
        <time>2023-06-13T11:12:20.262Z</time>
      </trkpt>
      <trkpt lat="48.20074439048767" lon="17.107558250427246">
        <ele>360.2</ele>
        <time>2023-06-13T11:12:24.013Z</time>
      </trkpt>
      <trkpt lat="48.20079803466797" lon="17.10768699645996">
        <ele>361.26</ele>
        <time>2023-06-13T11:12:27.766Z</time>
      </trkpt>
      <trkpt lat="48.20088394917548" lon="17.107837200164795">
        <ele>362.39</ele>
        <time>2023-06-13T11:12:31.522Z</time>
      </trkpt>
      <trkpt lat="48.200959051027894" lon="17.107826471328735">
        <ele>363.8</ele>
        <time>2023-06-13T11:12:35.279Z</time>
      </trkpt>
      <trkpt lat="48.201366662979126" lon="17.10768699645996">
        <ele>365.88</ele>
        <time>2023-06-13T11:12:39.044Z</time>
      </trkpt>
      <trkpt lat="48.20160269737244" lon="17.107654809951782">
        <ele>368.41</ele>
        <time>2023-06-13T11:12:42.814Z</time>
      </trkpt>
      <trkpt lat="48.2019567489624" lon="17.107654809951782">
        <ele>371.25</ele>
        <time>2023-06-13T11:12:46.591Z</time>
      </trkpt>
      <trkpt lat="48.201956832781434" lon="17.107654809951782">
        <ele>373.92</ele>
        <time>2023-06-13T11:12:50.368Z</time>
      </trkpt>
      <trkpt lat="48.20227861404419" lon="17.107526063919067">
        <ele>377.09</ele>
        <time>2023-06-13T11:12:54.152Z</time>
      </trkpt>
      <trkpt lat="48.202385902404785" lon="17.107536792755127">
        <ele>380.1</ele>
        <time>2023-06-13T11:12:57.938Z</time>
      </trkpt>
      <trkpt lat="48.202922344207764" lon="17.10745096206665">
        <ele>383.65</ele>
        <time>2023-06-13T11:13:01.735Z</time>
      </trkpt>
      <trkpt lat="48.20306181907654" lon="17.107365131378174">
        <ele>386.94</ele>
        <time>2023-06-13T11:13:05.535Z</time>
      </trkpt>
      <trkpt lat="48.20328712463379" lon="17.1071720123291">
        <ele>390.41</ele>
        <time>2023-06-13T11:13:09.340Z</time>
      </trkpt>
      <trkpt lat="48.20348024368286" lon="17.107021808624268">
        <ele>393.77</ele>
        <time>2023-06-13T11:13:13.149Z</time>
      </trkpt>
      <trkpt lat="48.20374846458435" lon="17.10692524909973">
        <ele>397.0</ele>
        <time>2023-06-13T11:13:16.964Z</time>
      </trkpt>
      <trkpt lat="48.20409178733826" lon="17.106871604919434">
        <ele>400.29</ele>
        <time>2023-06-13T11:13:20.786Z</time>
      </trkpt>
      <trkpt lat="48.20433855056763" lon="17.106775045394897">
        <ele>403.28</ele>
        <time>2023-06-13T11:13:24.613Z</time>
      </trkpt>
      <trkpt lat="48.20471405982971" lon="17.106549739837646">
        <ele>406.01</ele>
        <time>2023-06-13T11:13:28.448Z</time>
      </trkpt>
      <trkpt lat="48.20495009422302" lon="17.10645318031311">
        <ele>408.12</ele>
        <time>2023-06-13T11:13:32.288Z</time>
      </trkpt>
      <trkpt lat="48.20530414581299" lon="17.106410264968872">
        <ele>410.15</ele>
        <time>2023-06-13T11:13:36.135Z</time>
      </trkpt>
      <trkpt lat="48.20546507835388" lon="17.106356620788574">
        <ele>411.7</ele>
        <time>2023-06-13T11:13:39.985Z</time>
      </trkpt>
      <trkpt lat="48.20576548576355" lon="17.106292247772217">
        <ele>412.73</ele>
        <time>2023-06-13T11:13:43.842Z</time>
      </trkpt>
      <trkpt lat="48.20621609687805" lon="17.106399536132812">
        <ele>413.16</ele>
        <time>2023-06-13T11:13:47.708Z</time>
      </trkpt>
      <trkpt lat="48.2064414024353" lon="17.106517553329468">
        <ele>413.45</ele>
        <time>2023-06-13T11:13:51.578Z</time>
      </trkpt>
      <trkpt lat="48.20652723312378" lon="17.106539011001587">
        <ele>413.53</ele>
        <time>2023-06-13T11:13:55.450Z</time>
      </trkpt>
      <trkpt lat="48.20678472518921" lon="17.106506824493408">
        <ele>413.33</ele>
        <time>2023-06-13T11:13:59.327Z</time>
      </trkpt>
      <trkpt lat="48.20717096328735" lon="17.106281518936157">
        <ele>412.91</ele>
        <time>2023-06-13T11:14:03.213Z</time>
      </trkpt>
      <trkpt lat="48.20753574371338" lon="17.10597038269043">
        <ele>412.45</ele>
        <time>2023-06-13T11:14:07.107Z</time>
      </trkpt>
      <trkpt lat="48.207696760073304" lon="17.105798721313477">
        <ele>412.0</ele>
        <time>2023-06-13T11:14:11.005Z</time>
      </trkpt>
      <trkpt lat="48.20793271064758" lon="17.10545539855957">
        <ele>411.65</ele>
        <time>2023-06-13T11:14:14.910Z</time>
      </trkpt>
      <trkpt lat="48.20803999900818" lon="17.10524082183838">
        <ele>411.09</ele>
        <time>2023-06-13T11:14:18.818Z</time>
      </trkpt>
      <trkpt lat="48.208147287368774" lon="17.10495114326477">
        <ele>410.49</ele>
        <time>2023-06-13T11:14:22.731Z</time>
      </trkpt>
      <trkpt lat="48.20822238922119" lon="17.104811668395996">
        <ele>409.97</ele>
        <time>2023-06-13T11:14:26.646Z</time>
      </trkpt>
      <trkpt lat="48.20834040641785" lon="17.104661464691162">
        <ele>409.58</ele>
        <time>2023-06-13T11:14:30.564Z</time>
      </trkpt>
      <trkpt lat="48.20867300033569" lon="17.104371786117554">
        <ele>409.3</ele>
        <time>2023-06-13T11:14:34.490Z</time>
      </trkpt>
      <trkpt lat="48.2090163230896" lon="17.104049921035767">
        <ele>408.96</ele>
        <time>2023-06-13T11:14:38.424Z</time>
      </trkpt>
      <trkpt lat="48.209424102678895" lon="17.103824615478516">
        <ele>408.61</ele>
        <time>2023-06-13T11:14:42.367Z</time>
      </trkpt>
      <trkpt lat="48.20956349372864" lon="17.103760242462158">
        <ele>408.29</ele>
        <time>2023-06-13T11:14:46.313Z</time>
      </trkpt>
      <trkpt lat="48.21006774902344" lon="17.103352546691895">
        <ele>407.81</ele>
        <time>2023-06-13T11:14:50.270Z</time>
      </trkpt>
      <trkpt lat="48.21023941040039" lon="17.10325598716736">
        <ele>407.53</ele>
        <time>2023-06-13T11:14:54.231Z</time>
      </trkpt>
      <trkpt lat="48.21044325828552" lon="17.10320234298706">
        <ele>407.29</ele>
        <time>2023-06-13T11:14:58.196Z</time>
      </trkpt>
      <trkpt lat="48.21078658103943" lon="17.103073596954346">
        <ele>407.12</ele>
        <time>2023-06-13T11:15:02.168Z</time>
      </trkpt>
      <trkpt lat="48.2109260559082" lon="17.103052139282227">
        <ele>407.17</ele>
        <time>2023-06-13T11:15:06.143Z</time>
      </trkpt>
      <trkpt lat="48.21120500564575" lon="17.103170156478882">
        <ele>407.33</ele>
        <time>2023-06-13T11:15:10.123Z</time>
      </trkpt>
      <trkpt lat="48.211612701416016" lon="17.10322380065918">
        <ele>407.72</ele>
        <time>2023-06-13T11:15:14.112Z</time>
      </trkpt>
      <trkpt lat="48.21173071861267" lon="17.103266716003418">
        <ele>408.38</ele>
        <time>2023-06-13T11:15:18.103Z</time>
      </trkpt>
      <trkpt lat="48.21176298893988" lon="17.103298902511597">
        <ele>409.11</ele>
        <time>2023-06-13T11:15:22.095Z</time>
      </trkpt>
      <trkpt lat="48.21180590428412" lon="17.103567123413086">
        <ele>410.18</ele>
        <time>2023-06-13T11:15:26.091Z</time>
      </trkpt>
      <trkpt lat="48.211848735809326" lon="17.103620767593384">
        <ele>411.05</ele>
        <time>2023-06-13T11:15:30.088Z</time>
      </trkpt>
      <trkpt lat="48.211913108825684" lon="17.10367441177368">
        <ele>411.96</ele>
        <time>2023-06-13T11:15:34.086Z</time>
      </trkpt>
      <trkpt lat="48.21199893951416" lon="17.10368514060974">
        <ele>412.85</ele>
        <time>2023-06-13T11:15:38.086Z</time>
      </trkpt>
      <trkpt lat="48.21246027946472" lon="17.103631496429443">
        <ele>413.83</ele>
        <time>2023-06-13T11:15:42.095Z</time>
      </trkpt>
      <trkpt lat="48.2129430770874" lon="17.103663682937622">
        <ele>414.63</ele>
        <time>2023-06-13T11:15:46.114Z</time>
      </trkpt>
      <trkpt lat="48.21301817893982" lon="17.10370659828186">
        <ele>415.43</ele>
        <time>2023-06-13T11:15:50.134Z</time>
      </trkpt>
      <trkpt lat="48.21317911148071" lon="17.103846073150635">
        <ele>416.22</ele>
        <time>2023-06-13T11:15:54.158Z</time>
      </trkpt>
      <trkpt lat="48.213179195299745" lon="17.103846073150635">
        <ele>416.65</ele>
        <time>2023-06-13T11:15:58.182Z</time>
      </trkpt>
      <trkpt lat="48.21342587471008" lon="17.10421085357666">
        <ele>417.28</ele>
        <time>2023-06-13T11:16:02.213Z</time>
      </trkpt>
      <trkpt lat="48.213887214660645" lon="17.104146480560303">
        <ele>417.18</ele>
        <time>2023-06-13T11:16:06.253Z</time>
      </trkpt>
      <trkpt lat="48.2140052318573" lon="17.104146480560303">
        <ele>416.6</ele>
        <time>2023-06-13T11:16:10.296Z</time>
      </trkpt>
      <trkpt lat="48.214091062545776" lon="17.10417866706848">
        <ele>415.65</ele>
        <time>2023-06-13T11:16:14.341Z</time>
      </trkpt>
      <trkpt lat="48.214155435562134" lon="17.10422158241272">
        <ele>414.28</ele>
        <time>2023-06-13T11:16:18.387Z</time>
      </trkpt>
      <trkpt lat="48.21429491043091" lon="17.104361057281494">
        <ele>412.46</ele>
        <time>2023-06-13T11:16:22.436Z</time>
      </trkpt>
      <trkpt lat="48.21457386016846" lon="17.10447907447815">
        <ele>410.24</ele>
        <time>2023-06-13T11:16:26.491Z</time>
      </trkpt>
      <trkpt lat="48.21478843688965" lon="17.104618549346924">
        <ele>408.13</ele>
        <time>2023-06-13T11:16:30.551Z</time>
      </trkpt>
      <trkpt lat="48.21526050567627" lon="17.105047702789307">
        <ele>405.76</ele>
        <time>2023-06-13T11:16:34.622Z</time>
      </trkpt>
      <trkpt lat="48.21548581123352" lon="17.105144262313843">
        <ele>403.88</ele>
        <time>2023-06-13T11:16:38.698Z</time>
      </trkpt>
      <trkpt lat="48.21597933769226" lon="17.105584144592285">
        <ele>401.97</ele>
        <time>2023-06-13T11:16:42.785Z</time>
      </trkpt>
      <trkpt lat="48.21597942151129" lon="17.105584144592285">
        <ele>400.38</ele>
        <time>2023-06-13T11:16:46.872Z</time>
      </trkpt>
      <trkpt lat="48.21627974510193" lon="17.105841636657715">
        <ele>398.71</ele>
        <time>2023-06-13T11:16:50.966Z</time>
      </trkpt>
      <trkpt lat="48.21645140647888" lon="17.10594892501831">
        <ele>397.14</ele>
        <time>2023-06-13T11:16:55.064Z</time>
      </trkpt>
      <trkpt lat="48.21671962738037" lon="17.106077671051025">
        <ele>395.63</ele>
        <time>2023-06-13T11:16:59.167Z</time>
      </trkpt>
      <trkpt lat="48.21697720326483" lon="17.106152772903442">
        <ele>394.23</ele>
        <time>2023-06-13T11:17:03.276Z</time>
      </trkpt>
      <trkpt lat="48.21722388267517" lon="17.10618495941162">
        <ele>392.94</ele>
        <time>2023-06-13T11:17:07.390Z</time>
      </trkpt>
      <trkpt lat="48.217588663101196" lon="17.106335163116455">
        <ele>391.63</ele>
        <time>2023-06-13T11:17:11.511Z</time>
      </trkpt>
      <trkpt lat="48.21796417236328" lon="17.106581926345825">
        <ele>390.18</ele>
        <time>2023-06-13T11:17:15.640Z</time>
      </trkpt>
      <trkpt lat="48.21806073188782" lon="17.10668921470642">
        <ele>388.92</ele>
        <time>2023-06-13T11:17:19.772Z</time>
      </trkpt>
      <trkpt lat="48.218146646395326" lon="17.106828689575195">
        <ele>387.64</ele>
        <time>2023-06-13T11:17:23.906Z</time>
      </trkpt>
      <trkpt lat="48.21822166442871" lon="17.10698962211609">
        <ele>386.26</ele>
        <time>2023-06-13T11:17:28.043Z</time>
      </trkpt>
      <trkpt lat="48.21825393475592" lon="17.107129096984863">
        <ele>384.67</ele>
        <time>2023-06-13T11:17:32.182Z</time>
      </trkpt>
      <trkpt lat="48.21826457977295" lon="17.107311487197876">
        <ele>382.68</ele>
        <time>2023-06-13T11:17:36.323Z</time>
      </trkpt>
      <trkpt lat="48.21821093559265" lon="17.108019590377808">
        <ele>379.94</ele>
        <time>2023-06-13T11:17:40.474Z</time>
      </trkpt>
      <trkpt lat="48.21828670799732" lon="17.109269499778748">
        <ele>377.47</ele>
        <time>2023-06-13T11:17:44.642Z</time>
      </trkpt>
      <trkpt lat="48.21828654035926" lon="17.109266482293606">
        <ele>377.47</ele>
        <time>2023-06-13T11:17:48.810Z</time>
      </trkpt>
      <trkpt lat="48.21829676628113" lon="17.10943579673767">
        <ele>365.68</ele>
        <time>2023-06-13T11:17:52.980Z</time>
      </trkpt>
      <trkpt lat="48.218371868133545" lon="17.110068798065186">
        <ele>362.23</ele>
        <time>2023-06-13T11:17:57.159Z</time>
      </trkpt>
      <trkpt lat="48.218361139297485" lon="17.110412120819092">
        <ele>358.92</ele>
        <time>2023-06-13T11:18:01.342Z</time>
      </trkpt>
      <trkpt lat="48.21836122311652" lon="17.110412120819092">
        <ele>356.71</ele>
        <time>2023-06-13T11:18:05.525Z</time>
      </trkpt>
      <trkpt lat="48.21832895278931" lon="17.11098074913025">
        <ele>354.62</ele>
        <time>2023-06-13T11:18:09.716Z</time>
      </trkpt>
      <trkpt lat="48.21829685010016" lon="17.11119532585144">
        <ele>353.49</ele>
        <time>2023-06-13T11:18:13.910Z</time>
      </trkpt>
      <trkpt lat="48.218382596969604" lon="17.11122751235962">
        <ele>352.64</ele>
        <time>2023-06-13T11:18:18.105Z</time>
      </trkpt>
      <trkpt lat="48.21841478347778" lon="17.111334800720215">
        <ele>352.23</ele>
        <time>2023-06-13T11:18:22.302Z</time>
      </trkpt>
      <trkpt lat="48.21845769882202" lon="17.111366987228394">
        <ele>352.05</ele>
        <time>2023-06-13T11:18:26.500Z</time>
      </trkpt>
      <trkpt lat="48.2185435295105" lon="17.111377716064453">
        <ele>352.03</ele>
        <time>2023-06-13T11:18:30.700Z</time>
      </trkpt>
      <trkpt lat="48.218650901690125" lon="17.111345529556274">
        <ele>352.17</ele>
        <time>2023-06-13T11:18:34.902Z</time>
      </trkpt>
      <trkpt lat="48.218693817034364" lon="17.111334800720215">
        <ele>352.49</ele>
        <time>2023-06-13T11:18:39.105Z</time>
      </trkpt>
      <trkpt lat="48.21879029273987" lon="17.111345529556274">
        <ele>352.96</ele>
        <time>2023-06-13T11:18:43.310Z</time>
      </trkpt>
      <trkpt lat="48.21882247924805" lon="17.111399173736572">
        <ele>353.57</ele>
        <time>2023-06-13T11:18:47.516Z</time>
      </trkpt>
      <trkpt lat="48.21892976760864" lon="17.11142063140869">
        <ele>354.28</ele>
        <time>2023-06-13T11:18:51.724Z</time>
      </trkpt>
      <trkpt lat="48.21906924247742" lon="17.111527919769287">
        <ele>355.14</ele>
        <time>2023-06-13T11:18:55.935Z</time>
      </trkpt>
      <trkpt lat="48.219112157821655" lon="17.111538648605347">
        <ele>356.09</ele>
        <time>2023-06-13T11:19:00.147Z</time>
      </trkpt>
      <trkpt lat="48.219155073165894" lon="17.111527919769287">
        <ele>357.15</ele>
        <time>2023-06-13T11:19:04.360Z</time>
      </trkpt>
      <trkpt lat="48.21923017501831" lon="17.111345529556274">
        <ele>358.36</ele>
        <time>2023-06-13T11:19:08.576Z</time>
      </trkpt>
      <trkpt lat="48.219401836395264" lon="17.111302614212036">
        <ele>359.79</ele>
        <time>2023-06-13T11:19:12.795Z</time>
      </trkpt>
      <trkpt lat="48.21965932846069" lon="17.111109495162964">
        <ele>361.51</ele>
        <time>2023-06-13T11:19:17.020Z</time>
      </trkpt>
      <trkpt lat="48.21975588798523" lon="17.111045122146606">
        <ele>362.91</ele>
        <time>2023-06-13T11:19:21.247Z</time>
      </trkpt>
      <trkpt lat="48.21993827819824" lon="17.111045122146606">
        <ele>364.29</ele>
        <time>2023-06-13T11:19:25.478Z</time>
      </trkpt>
      <trkpt lat="48.22003483772278" lon="17.111002206802368">
        <ele>365.48</ele>
        <time>2023-06-13T11:19:29.711Z</time>
      </trkpt>
      <trkpt lat="48.22020649909973" lon="17.111034393310547">
        <ele>366.59</ele>
        <time>2023-06-13T11:19:33.947Z</time>
      </trkpt>
      <trkpt lat="48.22026014328003" lon="17.111012935638428">
        <ele>367.6</ele>
        <time>2023-06-13T11:19:38.184Z</time>
      </trkpt>
      <trkpt lat="48.22030305862427" lon="17.11095929145813">
        <ele>368.58</ele>
        <time>2023-06-13T11:19:42.422Z</time>
      </trkpt>
      <trkpt lat="48.220378160476685" lon="17.11069107055664">
        <ele>369.6</ele>
        <time>2023-06-13T11:19:46.664Z</time>
      </trkpt>
      <trkpt lat="48.2205069065094" lon="17.11047649383545">
        <ele>370.53</ele>
        <time>2023-06-13T11:19:50.910Z</time>
      </trkpt>
      <trkpt lat="48.22057127952576" lon="17.110326290130615">
        <ele>371.51</ele>
        <time>2023-06-13T11:19:55.158Z</time>
      </trkpt>
      <trkpt lat="48.220614194869995" lon="17.1102511882782">
        <ele>372.51</ele>
        <time>2023-06-13T11:19:59.408Z</time>
      </trkpt>
      <trkpt lat="48.220860958099365" lon="17.11018681526184">
        <ele>373.67</ele>
        <time>2023-06-13T11:20:03.663Z</time>
      </trkpt>
      <trkpt lat="48.221118450164795" lon="17.110261917114258">
        <ele>374.99</ele>
        <time>2023-06-13T11:20:07.923Z</time>
      </trkpt>
      <trkpt lat="48.22121500968933" lon="17.1102511882782">
        <ele>376.23</ele>
        <time>2023-06-13T11:20:12.185Z</time>
      </trkpt>
      <trkpt lat="48.22129011154175" lon="17.11018681526184">
        <ele>377.48</ele>
        <time>2023-06-13T11:20:16.449Z</time>
      </trkpt>
      <trkpt lat="48.221343755722046" lon="17.110015153884888">
        <ele>378.77</ele>
        <time>2023-06-13T11:20:20.715Z</time>
      </trkpt>
      <trkpt lat="48.221375942230225" lon="17.10997223854065">
        <ele>380.06</ele>
        <time>2023-06-13T11:20:24.982Z</time>
      </trkpt>
      <trkpt lat="48.22141885757446" lon="17.10997223854065">
        <ele>381.39</ele>
        <time>2023-06-13T11:20:29.250Z</time>
      </trkpt>
      <trkpt lat="48.22150468826294" lon="17.110025882720947">
        <ele>382.82</ele>
        <time>2023-06-13T11:20:33.520Z</time>
      </trkpt>
      <trkpt lat="48.221611976623535" lon="17.110025882720947">
        <ele>384.19</ele>
        <time>2023-06-13T11:20:37.792Z</time>
      </trkpt>
      <trkpt lat="48.22180509567261" lon="17.10992932319641">
        <ele>385.47</ele>
        <time>2023-06-13T11:20:42.068Z</time>
      </trkpt>
      <trkpt lat="48.221912467852235" lon="17.109822034835815">
        <ele>386.35</ele>
        <time>2023-06-13T11:20:46.347Z</time>
      </trkpt>
      <trkpt lat="48.22194457054138" lon="17.10972547531128">
        <ele>386.91</ele>
        <time>2023-06-13T11:20:50.627Z</time>
      </trkpt>
      <trkpt lat="48.22192311286926" lon="17.109596729278564">
        <ele>387.22</ele>
        <time>2023-06-13T11:20:54.909Z</time>
      </trkpt>
      <trkpt lat="48.22193384170532" lon="17.10947871208191">
        <ele>387.52</ele>
        <time>2023-06-13T11:20:59.192Z</time>
      </trkpt>
      <trkpt lat="48.221901655197144" lon="17.109349966049194">
        <ele>387.69</ele>
        <time>2023-06-13T11:21:03.477Z</time>
      </trkpt>
      <trkpt lat="48.221890926361084" lon="17.109038829803467">
        <ele>387.89</ele>
        <time>2023-06-13T11:21:07.766Z</time>
      </trkpt>
      <trkpt lat="48.2219123840332" lon="17.10871696472168">
        <ele>388.09</ele>
        <time>2023-06-13T11:21:12.060Z</time>
      </trkpt>
      <trkpt lat="48.22193384170532" lon="17.108652591705322">
        <ele>388.23</ele>
        <time>2023-06-13T11:21:16.355Z</time>
      </trkpt>
      <trkpt lat="48.22196049615741" lon="17.10861437022686">
        <ele>388.32</ele>
        <time>2023-06-13T11:21:20.650Z</time>
      </trkpt>
      <trkpt lat="48.22196066379547" lon="17.108614202588797">
        <ele>388.33</ele>
        <time>2023-06-13T11:21:24.945Z</time>
      </trkpt>
      <trkpt lat="48.22196066379547" lon="17.10861428640783">
        <ele>386.72</ele>
        <time>2023-06-13T11:21:29.240Z</time>
      </trkpt>
      <trkpt lat="48.22200894355774" lon="17.108545303344727">
        <ele>386.32</ele>
        <time>2023-06-13T11:21:33.537Z</time>
      </trkpt>
      <trkpt lat="48.22206258773804" lon="17.108395099639893">
        <ele>385.73</ele>
        <time>2023-06-13T11:21:37.836Z</time>
      </trkpt>
      <trkpt lat="48.222084045410156" lon="17.108062505722046">
        <ele>384.36</ele>
        <time>2023-06-13T11:21:42.140Z</time>
      </trkpt>
      <trkpt lat="48.2220733165741" lon="17.10798740386963">
        <ele>383.04</ele>
        <time>2023-06-13T11:21:46.445Z</time>
      </trkpt>
      <trkpt lat="48.22203040122986" lon="17.107890844345093">
        <ele>381.52</ele>
        <time>2023-06-13T11:21:50.751Z</time>
      </trkpt>
      <trkpt lat="48.221890926361084" lon="17.1076762676239">
        <ele>379.56</ele>
        <time>2023-06-13T11:21:55.061Z</time>
      </trkpt>
      <trkpt lat="48.221880197525024" lon="17.107590436935425">
        <ele>378.1</ele>
        <time>2023-06-13T11:21:59.372Z</time>
      </trkpt>
      <trkpt lat="48.221890926361084" lon="17.107386589050293">
        <ele>376.67</ele>
        <time>2023-06-13T11:22:03.686Z</time>
      </trkpt>
      <trkpt lat="48.22197675704956" lon="17.107161283493042">
        <ele>375.67</ele>
        <time>2023-06-13T11:22:08.004Z</time>
      </trkpt>
      <trkpt lat="48.22203040122986" lon="17.107107639312744">
        <ele>375.18</ele>
        <time>2023-06-13T11:22:12.323Z</time>
      </trkpt>
      <trkpt lat="48.222137689590454" lon="17.107032537460327">
        <ele>375.03</ele>
        <time>2023-06-13T11:22:16.644Z</time>
      </trkpt>
      <trkpt lat="48.22222352027893" lon="17.10700035095215">
        <ele>374.74</ele>
        <time>2023-06-13T11:22:20.967Z</time>
      </trkpt>
      <trkpt lat="48.22242736816406" lon="17.106828689575195">
        <ele>374.13</ele>
        <time>2023-06-13T11:22:25.295Z</time>
      </trkpt>
      <trkpt lat="48.22256684303284" lon="17.106764316558838">
        <ele>373.13</ele>
        <time>2023-06-13T11:22:29.626Z</time>
      </trkpt>
      <trkpt lat="48.222588300704956" lon="17.10671067237854">
        <ele>372.43</ele>
        <time>2023-06-13T11:22:33.957Z</time>
      </trkpt>
      <trkpt lat="48.2225775718689" lon="17.106635570526123">
        <ele>371.78</ele>
        <time>2023-06-13T11:22:38.289Z</time>
      </trkpt>
      <trkpt lat="48.2224702835083" lon="17.10647463798523">
        <ele>371.29</ele>
        <time>2023-06-13T11:22:42.624Z</time>
      </trkpt>
      <trkpt lat="48.222441114485264" lon="17.106427950784564">
        <ele>370.97</ele>
        <time>2023-06-13T11:22:46.960Z</time>
      </trkpt>
      <trkpt lat="48.22244103066623" lon="17.1064277831465">
        <ele>370.97</ele>
        <time>2023-06-13T11:22:51.296Z</time>
      </trkpt>
      <trkpt lat="48.222416639328" lon="17.106388807296753">
        <ele>369.72</ele>
        <time>2023-06-13T11:22:55.633Z</time>
      </trkpt>
      <trkpt lat="48.22240591049194" lon="17.106335163116455">
        <ele>368.72</ele>
        <time>2023-06-13T11:22:59.971Z</time>
      </trkpt>
      <trkpt lat="48.22243809700012" lon="17.10623860359192">
        <ele>367.37</ele>
        <time>2023-06-13T11:23:04.310Z</time>
      </trkpt>
      <trkpt lat="48.22251319885254" lon="17.10617423057556">
        <ele>365.63</ele>
        <time>2023-06-13T11:23:08.651Z</time>
      </trkpt>
      <trkpt lat="48.22253465652466" lon="17.106142044067383">
        <ele>364.15</ele>
        <time>2023-06-13T11:23:12.993Z</time>
      </trkpt>
      <trkpt lat="48.22253465652466" lon="17.106056213378906">
        <ele>362.69</ele>
        <time>2023-06-13T11:23:17.336Z</time>
      </trkpt>
      <trkpt lat="48.2224702835083" lon="17.10597038269043">
        <ele>361.4</ele>
        <time>2023-06-13T11:23:21.680Z</time>
      </trkpt>
      <trkpt lat="48.222341537475586" lon="17.105906009674072">
        <ele>359.9</ele>
        <time>2023-06-13T11:23:26.027Z</time>
      </trkpt>
      <trkpt lat="48.22232007980347" lon="17.105841636657715">
        <ele>358.41</ele>
        <time>2023-06-13T11:23:30.375Z</time>
      </trkpt>
      <trkpt lat="48.22232007980347" lon="17.105798721313477">
        <ele>357.0</ele>
        <time>2023-06-13T11:23:34.724Z</time>
      </trkpt>
      <trkpt lat="48.222341537475586" lon="17.105712890625">
        <ele>355.49</ele>
        <time>2023-06-13T11:23:39.074Z</time>
      </trkpt>
      <trkpt lat="48.22251319885254" lon="17.105551958084106">
        <ele>353.68</ele>
        <time>2023-06-13T11:23:43.428Z</time>
      </trkpt>
      <trkpt lat="48.2225239276886" lon="17.105519771575928">
        <ele>352.44</ele>
        <time>2023-06-13T11:23:47.782Z</time>
      </trkpt>
      <trkpt lat="48.22251319885254" lon="17.10544466972351">
        <ele>351.23</ele>
        <time>2023-06-13T11:23:52.137Z</time>
      </trkpt>
      <trkpt lat="48.22249174118042" lon="17.10542321205139">
        <ele>350.51</ele>
        <time>2023-06-13T11:23:56.493Z</time>
      </trkpt>
      <trkpt lat="48.22244932875037" lon="17.105429247021675">
        <ele>350.11</ele>
        <time>2023-06-13T11:24:00.850Z</time>
      </trkpt>
      <trkpt lat="48.222437761723995" lon="17.105430839583278">
        <ele>351.03</ele>
        <time>2023-06-13T11:24:05.207Z</time>
      </trkpt>
      <trkpt lat="48.222416639328" lon="17.10543394088745">
        <ele>352.73</ele>
        <time>2023-06-13T11:24:09.565Z</time>
      </trkpt>
      <trkpt lat="48.222341537475586" lon="17.105519771575928">
        <ele>352.92</ele>
        <time>2023-06-13T11:24:13.924Z</time>
      </trkpt>
      <trkpt lat="48.22222352027893" lon="17.105616331100464">
        <ele>352.94</ele>
        <time>2023-06-13T11:24:18.286Z</time>
      </trkpt>
      <trkpt lat="48.2220733165741" lon="17.105777263641357">
        <ele>352.81</ele>
        <time>2023-06-13T11:24:22.652Z</time>
      </trkpt>
      <trkpt lat="48.2219660282135" lon="17.10595965385437">
        <ele>352.45</ele>
        <time>2023-06-13T11:24:27.021Z</time>
      </trkpt>
      <trkpt lat="48.22194457054138" lon="17.10593819618225">
        <ele>351.56</ele>
        <time>2023-06-13T11:24:31.391Z</time>
      </trkpt>
      <trkpt lat="48.22198748588562" lon="17.105830907821655">
        <ele>350.39</ele>
        <time>2023-06-13T11:24:35.762Z</time>
      </trkpt>
      <trkpt lat="48.2220733165741" lon="17.105648517608643">
        <ele>348.79</ele>
        <time>2023-06-13T11:24:40.136Z</time>
      </trkpt>
      <trkpt lat="48.222084045410156" lon="17.105573415756226">
        <ele>347.03</ele>
        <time>2023-06-13T11:24:44.511Z</time>
      </trkpt>
      <trkpt lat="48.22218060493469" lon="17.105326652526855">
        <ele>344.88</ele>
        <time>2023-06-13T11:24:48.890Z</time>
      </trkpt>
      <trkpt lat="48.22220206260681" lon="17.10518717765808">
        <ele>342.89</ele>
        <time>2023-06-13T11:24:53.271Z</time>
      </trkpt>
      <trkpt lat="48.22227716445923" lon="17.10496187210083">
        <ele>340.94</ele>
        <time>2023-06-13T11:24:57.655Z</time>
      </trkpt>
      <trkpt lat="48.222330808639526" lon="17.104854583740234">
        <ele>339.48</ele>
        <time>2023-06-13T11:25:02.041Z</time>
      </trkpt>
      <trkpt lat="48.2224702835083" lon="17.10474729537964">
        <ele>338.47</ele>
        <time>2023-06-13T11:25:06.430Z</time>
      </trkpt>
      <trkpt lat="48.2225775718689" lon="17.10473656654358">
        <ele>338.21</ele>
        <time>2023-06-13T11:25:10.821Z</time>
      </trkpt>
      <trkpt lat="48.22262057103217" lon="17.104768753051758">
        <ele>338.51</ele>
        <time>2023-06-13T11:25:15.213Z</time>
      </trkpt>
      <trkpt lat="48.22266340255737" lon="17.104833126068115">
        <ele>339.36</ele>
        <time>2023-06-13T11:25:19.607Z</time>
      </trkpt>
      <trkpt lat="48.22268486022949" lon="17.104908227920532">
        <ele>340.72</ele>
        <time>2023-06-13T11:25:24.002Z</time>
      </trkpt>
      <trkpt lat="48.22278141975403" lon="17.10543394088745">
        <ele>343.2</ele>
        <time>2023-06-13T11:25:28.404Z</time>
      </trkpt>
      <trkpt lat="48.22278150357306" lon="17.10543394088745">
        <ele>344.72</ele>
        <time>2023-06-13T11:25:32.806Z</time>
      </trkpt>
      <trkpt lat="48.2229745388031" lon="17.10598111152649">
        <ele>346.68</ele>
        <time>2023-06-13T11:25:37.216Z</time>
      </trkpt>
      <trkpt lat="48.22324275970459" lon="17.10646390914917">
        <ele>348.75</ele>
        <time>2023-06-13T11:25:41.635Z</time>
      </trkpt>
      <trkpt lat="48.22360326536" lon="17.106597684323788">
        <ele>349.61</ele>
        <time>2023-06-13T11:25:46.061Z</time>
      </trkpt>
      <trkpt lat="48.223614413291216" lon="17.10660179145634">
        <ele>349.81</ele>
        <time>2023-06-13T11:25:50.487Z</time>
      </trkpt>
      <trkpt lat="48.22390794754028" lon="17.10671067237854">
        <ele>355.24</ele>
        <time>2023-06-13T11:25:54.919Z</time>
      </trkpt>
      <trkpt lat="48.224133253097534" lon="17.106828689575195">
        <ele>355.65</ele>
        <time>2023-06-13T11:25:59.356Z</time>
      </trkpt>
      <trkpt lat="48.22520613670349" lon="17.10775136947632">
        <ele>358.08</ele>
        <time>2023-06-13T11:26:03.818Z</time>
      </trkpt>
      <trkpt lat="48.22542071342468" lon="17.107847929000854">
        <ele>359.49</ele>
        <time>2023-06-13T11:26:08.284Z</time>
      </trkpt>
      <trkpt lat="48.225635290145874" lon="17.107912302017212">
        <ele>360.74</ele>
        <time>2023-06-13T11:26:12.755Z</time>
      </trkpt>
      <trkpt lat="48.225871324539185" lon="17.10796594619751">
        <ele>361.75</ele>
        <time>2023-06-13T11:26:17.231Z</time>
      </trkpt>
      <trkpt lat="48.22624683380127" lon="17.108019590377808">
        <ele>361.97</ele>
        <time>2023-06-13T11:26:21.714Z</time>
      </trkpt>
      <trkpt lat="48.22643995285034" lon="17.108126878738403">
        <ele>362.02</ele>
        <time>2023-06-13T11:26:26.201Z</time>
      </trkpt>
      <trkpt lat="48.2265043258667" lon="17.10822343826294">
        <ele>362.2</ele>
        <time>2023-06-13T11:26:30.690Z</time>
      </trkpt>
      <trkpt lat="48.226611614227295" lon="17.108545303344727">
        <ele>362.63</ele>
        <time>2023-06-13T11:26:35.184Z</time>
      </trkpt>
      <trkpt lat="48.22671890258789" lon="17.109328508377075">
        <ele>363.64</ele>
        <time>2023-06-13T11:26:39.689Z</time>
      </trkpt>
      <trkpt lat="48.226836919784546" lon="17.109661102294922">
        <ele>364.28</ele>
        <time>2023-06-13T11:26:44.199Z</time>
      </trkpt>
      <trkpt lat="48.226869106292725" lon="17.109832763671875">
        <ele>365.03</ele>
        <time>2023-06-13T11:26:48.711Z</time>
      </trkpt>
      <trkpt lat="48.22691202163696" lon="17.10997223854065">
        <ele>365.63</ele>
        <time>2023-06-13T11:26:53.225Z</time>
      </trkpt>
      <trkpt lat="48.22696566581726" lon="17.110100984573364">
        <ele>366.03</ele>
        <time>2023-06-13T11:26:57.741Z</time>
      </trkpt>
      <trkpt lat="48.227373361587524" lon="17.110315561294556">
        <ele>365.89</ele>
        <time>2023-06-13T11:27:02.266Z</time>
      </trkpt>
      <trkpt lat="48.22774887084961" lon="17.11046576499939">
        <ele>365.7</ele>
        <time>2023-06-13T11:27:06.799Z</time>
      </trkpt>
      <trkpt lat="48.22781324386597" lon="17.110508680343628">
        <ele>365.39</ele>
        <time>2023-06-13T11:27:11.333Z</time>
      </trkpt>
      <trkpt lat="48.22806000709534" lon="17.110562324523926">
        <ele>364.65</ele>
        <time>2023-06-13T11:27:15.872Z</time>
      </trkpt>
      <trkpt lat="48.228113651275635" lon="17.110648155212402">
        <ele>364.08</ele>
        <time>2023-06-13T11:27:20.412Z</time>
      </trkpt>
      <trkpt lat="48.22819948196411" lon="17.11092710494995">
        <ele>363.67</ele>
        <time>2023-06-13T11:27:24.957Z</time>
      </trkpt>
      <trkpt lat="48.22819948196411" lon="17.11121678352356">
        <ele>363.34</ele>
        <time>2023-06-13T11:27:29.505Z</time>
      </trkpt>
      <trkpt lat="48.22822093963623" lon="17.11122751235962">
        <ele>362.75</ele>
        <time>2023-06-13T11:27:34.054Z</time>
      </trkpt>
      <trkpt lat="48.22825312614441" lon="17.11121678352356">
        <ele>362.06</ele>
        <time>2023-06-13T11:27:38.604Z</time>
      </trkpt>
      <trkpt lat="48.22830677032471" lon="17.111098766326904">
        <ele>361.31</ele>
        <time>2023-06-13T11:27:43.155Z</time>
      </trkpt>
      <trkpt lat="48.228328227996826" lon="17.111012935638428">
        <ele>360.56</ele>
        <time>2023-06-13T11:27:47.708Z</time>
      </trkpt>
      <trkpt lat="48.228328227996826" lon="17.11093783378601">
        <ele>359.77</ele>
        <time>2023-06-13T11:27:52.262Z</time>
      </trkpt>
      <trkpt lat="48.22840332984924" lon="17.11044430732727">
        <ele>358.48</ele>
        <time>2023-06-13T11:27:56.822Z</time>
      </trkpt>
      <trkpt lat="48.22844624519348" lon="17.110283374786377">
        <ele>357.62</ele>
        <time>2023-06-13T11:28:01.385Z</time>
      </trkpt>
      <trkpt lat="48.22847843170166" lon="17.1102511882782">
        <ele>356.92</ele>
        <time>2023-06-13T11:28:05.949Z</time>
      </trkpt>
      <trkpt lat="48.22854280471802" lon="17.11022973060608">
        <ele>356.35</ele>
        <time>2023-06-13T11:28:10.514Z</time>
      </trkpt>
      <trkpt lat="48.228585720062256" lon="17.11024045944214">
        <ele>355.94</ele>
        <time>2023-06-13T11:28:15.080Z</time>
      </trkpt>
      <trkpt lat="48.22865009307861" lon="17.110272645950317">
        <ele>355.7</ele>
        <time>2023-06-13T11:28:19.647Z</time>
      </trkpt>
      <trkpt lat="48.22867155075073" lon="17.110261917114258">
        <ele>355.54</ele>
        <time>2023-06-13T11:28:24.215Z</time>
      </trkpt>
      <trkpt lat="48.22866082191467" lon="17.110122442245483">
        <ele>355.42</ele>
        <time>2023-06-13T11:28:28.784Z</time>
      </trkpt>
      <trkpt lat="48.22867155075073" lon="17.110090255737305">
        <ele>355.48</ele>
        <time>2023-06-13T11:28:33.354Z</time>
      </trkpt>
      <trkpt lat="48.22870373725891" lon="17.110068798065186">
        <ele>355.67</ele>
        <time>2023-06-13T11:28:37.925Z</time>
      </trkpt>
      <trkpt lat="48.2289183139801" lon="17.109768390655518">
        <ele>356.04</ele>
        <time>2023-06-13T11:28:42.502Z</time>
      </trkpt>
      <trkpt lat="48.22900414466858" lon="17.10970401763916">
        <ele>356.5</ele>
        <time>2023-06-13T11:28:47.080Z</time>
      </trkpt>
      <trkpt lat="48.22910078801215" lon="17.10968255996704">
        <ele>357.09</ele>
        <time>2023-06-13T11:28:51.660Z</time>
      </trkpt>
      <trkpt lat="48.22929382324219" lon="17.109575271606445">
        <ele>357.87</ele>
        <time>2023-06-13T11:28:56.245Z</time>
      </trkpt>
      <trkpt lat="48.22956204414368" lon="17.10948944091797">
        <ele>358.83</ele>
        <time>2023-06-13T11:29:00.835Z</time>
      </trkpt>
      <trkpt lat="48.22974443435669" lon="17.109382152557373">
        <ele>359.63</ele>
        <time>2023-06-13T11:29:05.429Z</time>
      </trkpt>
      <trkpt lat="48.22974451817572" lon="17.109382152557373">
        <ele>360.44</ele>
        <time>2023-06-13T11:29:10.023Z</time>
      </trkpt>
      <trkpt lat="48.22989463806152" lon="17.109403610229492">
        <ele>361.44</ele>
        <time>2023-06-13T11:29:14.620Z</time>
      </trkpt>
      <trkpt lat="48.23001265525818" lon="17.109392881393433">
        <ele>362.38</ele>
        <time>2023-06-13T11:29:19.219Z</time>
      </trkpt>
      <trkpt lat="48.230141401290894" lon="17.109274864196777">
        <ele>363.28</ele>
        <time>2023-06-13T11:29:23.821Z</time>
      </trkpt>
      <trkpt lat="48.23020577430725" lon="17.10916757583618">
        <ele>364.21</ele>
        <time>2023-06-13T11:29:28.425Z</time>
      </trkpt>
      <trkpt lat="48.23029160499573" lon="17.10871696472168">
        <ele>365.08</ele>
        <time>2023-06-13T11:29:33.036Z</time>
      </trkpt>
      <trkpt lat="48.23029168881476" lon="17.10871696472168">
        <ele>366.04</ele>
        <time>2023-06-13T11:29:37.647Z</time>
      </trkpt>
      <trkpt lat="48.23029160499573" lon="17.108566761016846">
        <ele>366.93</ele>
        <time>2023-06-13T11:29:42.260Z</time>
      </trkpt>
      <trkpt lat="48.23031306266785" lon="17.108523845672607">
        <ele>367.99</ele>
        <time>2023-06-13T11:29:46.873Z</time>
      </trkpt>
      <trkpt lat="48.230355978012085" lon="17.10849165916443">
        <ele>369.14</ele>
        <time>2023-06-13T11:29:51.487Z</time>
      </trkpt>
      <trkpt lat="48.2304847240448" lon="17.10847020149231">
        <ele>370.48</ele>
        <time>2023-06-13T11:29:56.104Z</time>
      </trkpt>
      <trkpt lat="48.230592012405396" lon="17.108405828475952">
        <ele>371.81</ele>
        <time>2023-06-13T11:30:00.723Z</time>
      </trkpt>
      <trkpt lat="48.23080658912659" lon="17.10820198059082">
        <ele>373.13</ele>
        <time>2023-06-13T11:30:05.347Z</time>
      </trkpt>
      <trkpt lat="48.230881690979004" lon="17.1081805229187">
        <ele>374.58</ele>
        <time>2023-06-13T11:30:09.973Z</time>
      </trkpt>
      <trkpt lat="48.231085538864136" lon="17.108234167099">
        <ele>376.26</ele>
        <time>2023-06-13T11:30:14.603Z</time>
      </trkpt>
      <trkpt lat="48.23126792907715" lon="17.10820198059082">
        <ele>377.82</ele>
        <time>2023-06-13T11:30:19.237Z</time>
      </trkpt>
      <trkpt lat="48.23142886161804" lon="17.108234167099">
        <ele>379.61</ele>
        <time>2023-06-13T11:30:23.874Z</time>
      </trkpt>
      <trkpt lat="48.23169708251953" lon="17.10822343826294">
        <ele>381.56</ele>
        <time>2023-06-13T11:30:28.516Z</time>
      </trkpt>
      <trkpt lat="48.231868743896484" lon="17.108319997787476">
        <ele>383.5</ele>
        <time>2023-06-13T11:30:33.162Z</time>
      </trkpt>
      <trkpt lat="48.23202967643738" lon="17.108287811279297">
        <ele>385.2</ele>
        <time>2023-06-13T11:30:37.811Z</time>
      </trkpt>
      <trkpt lat="48.23217988014221" lon="17.108341455459595">
        <ele>386.92</ele>
        <time>2023-06-13T11:30:42.463Z</time>
      </trkpt>
      <trkpt lat="48.232340812683105" lon="17.108298540115356">
        <ele>388.54</ele>
        <time>2023-06-13T11:30:47.118Z</time>
      </trkpt>
      <trkpt lat="48.2325553894043" lon="17.108309268951416">
        <ele>390.16</ele>
        <time>2023-06-13T11:30:51.778Z</time>
      </trkpt>
      <trkpt lat="48.23274850845337" lon="17.108352184295654">
        <ele>391.62</ele>
        <time>2023-06-13T11:30:56.442Z</time>
      </trkpt>
      <trkpt lat="48.2330060005188" lon="17.108266353607178">
        <ele>392.8</ele>
        <time>2023-06-13T11:31:01.111Z</time>
      </trkpt>
      <trkpt lat="48.233091831207275" lon="17.108266353607178">
        <ele>393.85</ele>
        <time>2023-06-13T11:31:05.782Z</time>
      </trkpt>
      <trkpt lat="48.23328495025635" lon="17.108373641967773">
        <ele>394.86</ele>
        <time>2023-06-13T11:31:10.457Z</time>
      </trkpt>
      <trkpt lat="48.23339223861694" lon="17.108545303344727">
        <ele>395.87</ele>
        <time>2023-06-13T11:31:15.135Z</time>
      </trkpt>
      <trkpt lat="48.23343515396118" lon="17.108588218688965">
        <ele>396.58</ele>
        <time>2023-06-13T11:31:19.814Z</time>
      </trkpt>
      <trkpt lat="48.23364973068237" lon="17.108620405197144">
        <ele>397.03</ele>
        <time>2023-06-13T11:31:24.497Z</time>
      </trkpt>
      <trkpt lat="48.23376774787903" lon="17.108566761016846">
        <ele>397.26</ele>
        <time>2023-06-13T11:31:29.183Z</time>
      </trkpt>
      <trkpt lat="48.23425054550171" lon="17.108566761016846">
        <ele>397.54</ele>
        <time>2023-06-13T11:31:33.878Z</time>
      </trkpt>
      <trkpt lat="48.234357833862305" lon="17.108641862869263">
        <ele>397.68</ele>
        <time>2023-06-13T11:31:38.576Z</time>
      </trkpt>
      <trkpt lat="48.23447585105896" lon="17.108781337738037">
        <ele>397.72</ele>
        <time>2023-06-13T11:31:43.277Z</time>
      </trkpt>
      <trkpt lat="48.23454022407532" lon="17.108813524246216">
        <ele>397.52</ele>
        <time>2023-06-13T11:31:47.979Z</time>
      </trkpt>
      <trkpt lat="48.234840631484985" lon="17.108770608901978">
        <ele>397.06</ele>
        <time>2023-06-13T11:31:52.687Z</time>
      </trkpt>
      <trkpt lat="48.2349693775177" lon="17.10869550704956">
        <ele>396.54</ele>
        <time>2023-06-13T11:31:57.398Z</time>
      </trkpt>
      <trkpt lat="48.23503375053406" lon="17.1086847782135">
        <ele>395.97</ele>
        <time>2023-06-13T11:32:02.110Z</time>
      </trkpt>
      <trkpt lat="48.235108852386475" lon="17.10870623588562">
        <ele>395.33</ele>
        <time>2023-06-13T11:32:06.824Z</time>
      </trkpt>
      <trkpt lat="48.23515176773071" lon="17.10874915122986">
        <ele>394.66</ele>
        <time>2023-06-13T11:32:11.539Z</time>
      </trkpt>
      <trkpt lat="48.23524832725525" lon="17.10896372795105">
        <ele>394.03</ele>
        <time>2023-06-13T11:32:16.257Z</time>
      </trkpt>
      <trkpt lat="48.235323429107666" lon="17.109071016311646">
        <ele>393.26</ele>
        <time>2023-06-13T11:32:20.977Z</time>
      </trkpt>
      <trkpt lat="48.235366344451904" lon="17.109060287475586">
        <ele>392.34</ele>
        <time>2023-06-13T11:32:25.698Z</time>
      </trkpt>
      <trkpt lat="48.2355272769928" lon="17.10893154144287">
        <ele>391.22</ele>
        <time>2023-06-13T11:32:30.423Z</time>
      </trkpt>
      <trkpt lat="48.2359778881073" lon="17.108781337738037">
        <ele>390.32</ele>
        <time>2023-06-13T11:32:35.157Z</time>
      </trkpt>
      <trkpt lat="48.23613882064819" lon="17.10870623588562">
        <ele>389.3</ele>
        <time>2023-06-13T11:32:39.894Z</time>
      </trkpt>
      <trkpt lat="48.236321210861206" lon="17.108759880065918">
        <ele>388.45</ele>
        <time>2023-06-13T11:32:44.635Z</time>
      </trkpt>
      <trkpt lat="48.23647141456604" lon="17.10872769355774">
        <ele>387.33</ele>
        <time>2023-06-13T11:32:49.379Z</time>
      </trkpt>
      <trkpt lat="48.236600160598755" lon="17.10867404937744">
        <ele>386.25</ele>
        <time>2023-06-13T11:32:54.126Z</time>
      </trkpt>
      <trkpt lat="48.23666453361511" lon="17.10867404937744">
        <ele>385.22</ele>
        <time>2023-06-13T11:32:58.874Z</time>
      </trkpt>
      <trkpt lat="48.236868381500244" lon="17.108770608901978">
        <ele>384.19</ele>
        <time>2023-06-13T11:33:03.626Z</time>
      </trkpt>
      <trkpt lat="48.23699712753296" lon="17.108877897262573">
        <ele>383.4</ele>
        <time>2023-06-13T11:33:08.381Z</time>
      </trkpt>
      <trkpt lat="48.237072229385376" lon="17.108888626098633">
        <ele>382.56</ele>
        <time>2023-06-13T11:33:13.138Z</time>
      </trkpt>
      <trkpt lat="48.23721170425415" lon="17.108834981918335">
        <ele>381.6</ele>
        <time>2023-06-13T11:33:17.898Z</time>
      </trkpt>
      <trkpt lat="48.23727607727051" lon="17.108792066574097">
        <ele>380.95</ele>
        <time>2023-06-13T11:33:22.659Z</time>
      </trkpt>
      <trkpt lat="48.237587213516235" lon="17.10899591445923">
        <ele>380.5</ele>
        <time>2023-06-13T11:33:27.427Z</time>
      </trkpt>
      <trkpt lat="48.23769450187683" lon="17.109146118164062">
        <ele>380.25</ele>
        <time>2023-06-13T11:33:32.198Z</time>
      </trkpt>
      <trkpt lat="48.23774814605713" lon="17.109349966049194">
        <ele>380.25</ele>
        <time>2023-06-13T11:33:36.972Z</time>
      </trkpt>
      <trkpt lat="48.23775887489319" lon="17.10947871208191">
        <ele>380.24</ele>
        <time>2023-06-13T11:33:41.748Z</time>
      </trkpt>
      <trkpt lat="48.23774814605713" lon="17.1096932888031">
        <ele>380.4</ele>
        <time>2023-06-13T11:33:46.527Z</time>
      </trkpt>
      <trkpt lat="48.23764085769653" lon="17.11018681526184">
        <ele>380.73</ele>
        <time>2023-06-13T11:33:51.312Z</time>
      </trkpt>
      <trkpt lat="48.237565755844116" lon="17.110412120819092">
        <ele>381.03</ele>
        <time>2023-06-13T11:33:56.101Z</time>
      </trkpt>
      <trkpt lat="48.2374906539917" lon="17.110540866851807">
        <ele>381.48</ele>
        <time>2023-06-13T11:34:00.892Z</time>
      </trkpt>
      <trkpt lat="48.23714733123779" lon="17.110884189605713">
        <ele>382.11</ele>
        <time>2023-06-13T11:34:05.691Z</time>
      </trkpt>
      <trkpt lat="48.237082958221436" lon="17.11098074913025">
        <ele>382.77</ele>
        <time>2023-06-13T11:34:10.492Z</time>
      </trkpt>
      <trkpt lat="48.23705077171326" lon="17.111066579818726">
        <ele>383.63</ele>
        <time>2023-06-13T11:34:15.295Z</time>
      </trkpt>
      <trkpt lat="48.23702931404114" lon="17.11116313934326">
        <ele>384.63</ele>
        <time>2023-06-13T11:34:20.099Z</time>
      </trkpt>
      <trkpt lat="48.2370400428772" lon="17.11122751235962">
        <ele>385.69</ele>
        <time>2023-06-13T11:34:24.904Z</time>
      </trkpt>
      <trkpt lat="48.237104415893555" lon="17.111302614212036">
        <ele>386.89</ele>
        <time>2023-06-13T11:34:29.710Z</time>
      </trkpt>
      <trkpt lat="48.23720097541809" lon="17.111313343048096">
        <ele>388.23</ele>
        <time>2023-06-13T11:34:34.518Z</time>
      </trkpt>
      <trkpt lat="48.2373833656311" lon="17.11124897003174">
        <ele>389.64</ele>
        <time>2023-06-13T11:34:39.330Z</time>
      </trkpt>
      <trkpt lat="48.23744773864746" lon="17.111259698867798">
        <ele>391.32</ele>
        <time>2023-06-13T11:34:44.143Z</time>
      </trkpt>
      <trkpt lat="48.23752284049988" lon="17.111345529556274">
        <ele>393.25</ele>
        <time>2023-06-13T11:34:48.958Z</time>
      </trkpt>
      <trkpt lat="48.23755502700806" lon="17.11147427558899">
        <ele>395.31</ele>
        <time>2023-06-13T11:34:53.775Z</time>
      </trkpt>
      <trkpt lat="48.237597942352295" lon="17.112075090408325">
        <ele>397.77</ele>
        <time>2023-06-13T11:34:58.600Z</time>
      </trkpt>
      <trkpt lat="48.23770523071289" lon="17.112600803375244">
        <ele>400.03</ele>
        <time>2023-06-13T11:35:03.433Z</time>
      </trkpt>
      <trkpt lat="48.23791980743408" lon="17.113308906555176">
        <ele>402.15</ele>
        <time>2023-06-13T11:35:08.276Z</time>
      </trkpt>
      <trkpt lat="48.2380485534668" lon="17.113802433013916">
        <ele>404.28</ele>
        <time>2023-06-13T11:35:13.126Z</time>
      </trkpt>
      <trkpt lat="48.238112926483154" lon="17.11419939994812">
        <ele>406.46</ele>
        <time>2023-06-13T11:35:17.981Z</time>
      </trkpt>
      <trkpt lat="48.23814511299133" lon="17.114295959472656">
        <ele>408.27</ele>
        <time>2023-06-13T11:35:22.838Z</time>
      </trkpt>
      <trkpt lat="48.238370418548584" lon="17.11471438407898">
        <ele>409.95</ele>
        <time>2023-06-13T11:35:27.702Z</time>
      </trkpt>
      <trkpt lat="48.2383918762207" lon="17.114843130111694">
        <ele>411.78</ele>
        <time>2023-06-13T11:35:32.568Z</time>
      </trkpt>
      <trkpt lat="48.238381147384644" lon="17.11517572402954">
        <ele>413.75</ele>
        <time>2023-06-13T11:35:37.438Z</time>
      </trkpt>
      <trkpt lat="48.238445520401" lon="17.115390300750732">
        <ele>415.41</ele>
        <time>2023-06-13T11:35:42.311Z</time>
      </trkpt>
      <trkpt lat="48.2385528087616" lon="17.115572690963745">
        <ele>416.86</ele>
        <time>2023-06-13T11:35:47.188Z</time>
      </trkpt>
      <trkpt lat="48.238617181777954" lon="17.115637063980103">
        <ele>418.05</ele>
        <time>2023-06-13T11:35:52.066Z</time>
      </trkpt>
      <trkpt lat="48.23877811431885" lon="17.11573362350464">
        <ele>419.03</ele>
        <time>2023-06-13T11:35:56.948Z</time>
      </trkpt>
      <trkpt lat="48.23893904685974" lon="17.115787267684937">
        <ele>419.86</ele>
        <time>2023-06-13T11:36:01.833Z</time>
      </trkpt>
      <trkpt lat="48.2390570640564" lon="17.115797996520996">
        <ele>420.55</ele>
        <time>2023-06-13T11:36:06.720Z</time>
      </trkpt>
      <trkpt lat="48.23919653892517" lon="17.115765810012817">
        <ele>420.96</ele>
        <time>2023-06-13T11:36:11.610Z</time>
      </trkpt>
      <trkpt lat="48.239325284957886" lon="17.115765810012817">
        <ele>421.31</ele>
        <time>2023-06-13T11:36:16.503Z</time>
      </trkpt>
      <trkpt lat="48.23938965797424" lon="17.115787267684937">
        <ele>421.69</ele>
        <time>2023-06-13T11:36:21.397Z</time>
      </trkpt>
      <trkpt lat="48.23949694633484" lon="17.115883827209473">
        <ele>422.02</ele>
        <time>2023-06-13T11:36:26.294Z</time>
      </trkpt>
      <trkpt lat="48.239604234695435" lon="17.116119861602783">
        <ele>422.38</ele>
        <time>2023-06-13T11:36:31.194Z</time>
      </trkpt>
      <trkpt lat="48.24000120162964" lon="17.1172034740448">
        <ele>422.91</ele>
        <time>2023-06-13T11:36:36.111Z</time>
      </trkpt>
      <trkpt lat="48.24019432067871" lon="17.117525339126587">
        <ele>423.07</ele>
        <time>2023-06-13T11:36:41.034Z</time>
      </trkpt>
      <trkpt lat="48.24030160903931" lon="17.117600440979004">
        <ele>423.0</ele>
        <time>2023-06-13T11:36:45.959Z</time>
      </trkpt>
      <trkpt lat="48.24038743972778" lon="17.117632627487183">
        <ele>422.83</ele>
        <time>2023-06-13T11:36:50.886Z</time>
      </trkpt>
      <trkpt lat="48.24067711830139" lon="17.117782831192017">
        <ele>422.46</ele>
        <time>2023-06-13T11:36:55.819Z</time>
      </trkpt>
      <trkpt lat="48.24074149131775" lon="17.117836475372314">
        <ele>422.27</ele>
        <time>2023-06-13T11:37:00.754Z</time>
      </trkpt>
      <trkpt lat="48.240838050842285" lon="17.11798667907715">
        <ele>422.08</ele>
        <time>2023-06-13T11:37:05.691Z</time>
      </trkpt>
      <trkpt lat="48.24089169502258" lon="17.1181583404541">
        <ele>421.96</ele>
        <time>2023-06-13T11:37:10.631Z</time>
      </trkpt>
      <trkpt lat="48.24092388153076" lon="17.118330001831055">
        <ele>421.96</ele>
        <time>2023-06-13T11:37:15.573Z</time>
      </trkpt>
      <trkpt lat="48.24105262756348" lon="17.119531631469727">
        <ele>422.35</ele>
        <time>2023-06-13T11:37:20.531Z</time>
      </trkpt>
      <trkpt lat="48.24117064476013" lon="17.12043285369873">
        <ele>422.32</ele>
        <time>2023-06-13T11:37:25.502Z</time>
      </trkpt>
      <trkpt lat="48.24118137359619" lon="17.121044397354126">
        <ele>422.66</ele>
        <time>2023-06-13T11:37:30.481Z</time>
      </trkpt>
      <trkpt lat="48.24124574661255" lon="17.121505737304688">
        <ele>422.34</ele>
        <time>2023-06-13T11:37:35.466Z</time>
      </trkpt>
      <trkpt lat="48.241331577301025" lon="17.121773958206177">
        <ele>422.16</ele>
        <time>2023-06-13T11:37:40.455Z</time>
      </trkpt>
      <trkpt lat="48.241374492645264" lon="17.121827602386475">
        <ele>422.31</ele>
        <time>2023-06-13T11:37:45.445Z</time>
      </trkpt>
      <trkpt lat="48.24169635772705" lon="17.122074365615845">
        <ele>422.62</ele>
        <time>2023-06-13T11:37:50.443Z</time>
      </trkpt>
      <trkpt lat="48.24173927307129" lon="17.122128009796143">
        <ele>422.96</ele>
        <time>2023-06-13T11:37:55.442Z</time>
      </trkpt>
      <trkpt lat="48.24178218841553" lon="17.12218165397644">
        <ele>423.41</ele>
        <time>2023-06-13T11:38:00.442Z</time>
      </trkpt>
      <trkpt lat="48.241835832595825" lon="17.122353315353394">
        <ele>424.04</ele>
        <time>2023-06-13T11:38:05.444Z</time>
      </trkpt>
      <trkpt lat="48.241857290267944" lon="17.122803926467896">
        <ele>424.88</ele>
        <time>2023-06-13T11:38:10.452Z</time>
      </trkpt>
      <trkpt lat="48.241814374923706" lon="17.12341547012329">
        <ele>425.68</ele>
        <time>2023-06-13T11:38:15.469Z</time>
      </trkpt>
      <trkpt lat="48.24170708656311" lon="17.124145030975342">
        <ele>426.69</ele>
        <time>2023-06-13T11:38:20.496Z</time>
      </trkpt>
      <trkpt lat="48.241578340530396" lon="17.124820947647095">
        <ele>427.86</ele>
        <time>2023-06-13T11:38:25.532Z</time>
      </trkpt>
      <trkpt lat="48.24148178100586" lon="17.125142812728882">
        <ele>429.05</ele>
        <time>2023-06-13T11:38:30.573Z</time>
      </trkpt>
      <trkpt lat="48.24070930480957" lon="17.126322984695435">
        <ele>430.59</ele>
        <time>2023-06-13T11:38:35.636Z</time>
      </trkpt>
      <trkpt lat="48.24053772725165" lon="17.12668776512146">
        <ele>430.9</ele>
        <time>2023-06-13T11:38:40.705Z</time>
      </trkpt>
      <trkpt lat="48.24038785882294" lon="17.12683042511344">
        <ele>431.23</ele>
        <time>2023-06-13T11:38:45.777Z</time>
      </trkpt>
      <trkpt lat="48.24042993597686" lon="17.126929918304086">
        <ele>431.71</ele>
        <time>2023-06-13T11:38:50.851Z</time>
      </trkpt>
      <trkpt lat="48.24042046442628" lon="17.126940144225955">
        <ele>431.75</ele>
        <time>2023-06-13T11:38:55.925Z</time>
      </trkpt>
      <trkpt lat="48.24030999094248" lon="17.127059921622276">
        <ele>432.33</ele>
        <time>2023-06-13T11:39:01.002Z</time>
      </trkpt>
      <trkpt lat="48.240219969302416" lon="17.127139968797565">
        <ele>433.03</ele>
        <time>2023-06-13T11:39:06.081Z</time>
      </trkpt>
      <trkpt lat="48.24012994766235" lon="17.127189924940467">
        <ele>433.84</ele>
        <time>2023-06-13T11:39:11.162Z</time>
      </trkpt>
      <trkpt lat="48.23998996987939" lon="17.127269972115755">
        <ele>434.71</ele>
        <time>2023-06-13T11:39:16.246Z</time>
      </trkpt>
      <trkpt lat="48.2398599665612" lon="17.12736996822059">
        <ele>435.63</ele>
        <time>2023-06-13T11:39:21.333Z</time>
      </trkpt>
      <trkpt lat="48.23971998877823" lon="17.12740994989872">
        <ele>436.64</ele>
        <time>2023-06-13T11:39:26.423Z</time>
      </trkpt>
      <trkpt lat="48.2396199926734" lon="17.127439957112074">
        <ele>437.67</ele>
        <time>2023-06-13T11:39:31.515Z</time>
      </trkpt>
      <trkpt lat="48.239509938284755" lon="17.127479938790202">
        <ele>438.74</ele>
        <time>2023-06-13T11:39:36.609Z</time>
      </trkpt>
      <trkpt lat="48.23949996381998" lon="17.127479938790202">
        <ele>439.81</ele>
        <time>2023-06-13T11:39:41.703Z</time>
      </trkpt>
      <trkpt lat="48.23934992775321" lon="17.127529978752136">
        <ele>440.99</ele>
        <time>2023-06-13T11:39:46.800Z</time>
      </trkpt>
      <trkpt lat="48.23916996829212" lon="17.127639949321747">
        <ele>442.23</ele>
        <time>2023-06-13T11:39:51.901Z</time>
      </trkpt>
      <trkpt lat="48.23903996497393" lon="17.12772997096181">
        <ele>443.45</ele>
        <time>2023-06-13T11:39:57.005Z</time>
      </trkpt>
      <trkpt lat="48.238929994404316" lon="17.12779995985329">
        <ele>444.65</ele>
        <time>2023-06-13T11:40:02.111Z</time>
      </trkpt>
      <trkpt lat="48.238799991086125" lon="17.127869948744774">
        <ele>445.91</ele>
        <time>2023-06-13T11:40:07.220Z</time>
      </trkpt>
      <trkpt lat="48.238649955019355" lon="17.12796994484961">
        <ele>447.17</ele>
        <time>2023-06-13T11:40:12.332Z</time>
      </trkpt>
      <trkpt lat="48.23852992616594" lon="17.128039933741093">
        <ele>448.42</ele>
        <time>2023-06-13T11:40:17.447Z</time>
      </trkpt>
      <trkpt lat="48.238389948382974" lon="17.128129955381155">
        <ele>449.7</ele>
        <time>2023-06-13T11:40:22.565Z</time>
      </trkpt>
      <trkpt lat="48.23824997060001" lon="17.128189969807863">
        <ele>451.01</ele>
        <time>2023-06-13T11:40:27.686Z</time>
      </trkpt>
      <trkpt lat="48.238199930638075" lon="17.128199944272637">
        <ele>452.2</ele>
        <time>2023-06-13T11:40:32.808Z</time>
      </trkpt>
      <trkpt lat="48.23805995285511" lon="17.128259958699346">
        <ele>453.44</ele>
        <time>2023-06-13T11:40:37.933Z</time>
      </trkpt>
      <trkpt lat="48.23790991678834" lon="17.128319973126054">
        <ele>454.64</ele>
        <time>2023-06-13T11:40:43.061Z</time>
      </trkpt>
      <trkpt lat="48.23785996064544" lon="17.128329947590828">
        <ele>455.73</ele>
        <time>2023-06-13T11:40:48.190Z</time>
      </trkpt>
      <trkpt lat="48.23772995732725" lon="17.128329947590828">
        <ele>456.8</ele>
        <time>2023-06-13T11:40:53.322Z</time>
      </trkpt>
      <trkpt lat="48.237599954009056" lon="17.128319973126054">
        <ele>457.78</ele>
        <time>2023-06-13T11:40:58.456Z</time>
      </trkpt>
      <trkpt lat="48.237529965117574" lon="17.128319973126054">
        <ele>458.71</ele>
        <time>2023-06-13T11:41:03.592Z</time>
      </trkpt>
      <trkpt lat="48.23745997622609" lon="17.128339922055602">
        <ele>459.58</ele>
        <time>2023-06-13T11:41:08.729Z</time>
      </trkpt>
      <trkpt lat="48.23725998401642" lon="17.128319973126054">
        <ele>460.41</ele>
        <time>2023-06-13T11:41:13.870Z</time>
      </trkpt>
      <trkpt lat="48.237079940736294" lon="17.128339922055602">
        <ele>461.22</ele>
        <time>2023-06-13T11:41:19.015Z</time>
      </trkpt>
      <trkpt lat="48.23687994852662" lon="17.128299940377474">
        <ele>461.98</ele>
        <time>2023-06-13T11:41:24.164Z</time>
      </trkpt>
      <trkpt lat="48.23665992356837" lon="17.128259958699346">
        <ele>462.63</ele>
        <time>2023-06-13T11:41:29.317Z</time>
      </trkpt>
      <trkpt lat="48.23657996021211" lon="17.128259958699346">
        <ele>463.18</ele>
        <time>2023-06-13T11:41:34.472Z</time>
      </trkpt>
      <trkpt lat="48.23644995689392" lon="17.128319973126054">
        <ele>463.62</ele>
        <time>2023-06-13T11:41:39.629Z</time>
      </trkpt>
      <trkpt lat="48.236349960789084" lon="17.128379987552762">
        <ele>464.0</ele>
        <time>2023-06-13T11:41:44.789Z</time>
      </trkpt>
      <trkpt lat="48.236289946362376" lon="17.12839993648231">
        <ele>464.3</ele>
        <time>2023-06-13T11:41:49.950Z</time>
      </trkpt>
      <trkpt lat="48.23616991750896" lon="17.12845995090902">
        <ele>464.54</ele>
        <time>2023-06-13T11:41:55.113Z</time>
      </trkpt>
      <trkpt lat="48.23601996526122" lon="17.12865994311869">
        <ele>464.72</ele>
        <time>2023-06-13T11:42:00.280Z</time>
      </trkpt>
      <trkpt lat="48.23592994362116" lon="17.128769997507334">
        <ele>464.84</ele>
        <time>2023-06-13T11:42:05.450Z</time>
      </trkpt>
      <trkpt lat="48.2358499802649" lon="17.12886999361217">
        <ele>464.89</ele>
        <time>2023-06-13T11:42:10.622Z</time>
      </trkpt>
      <trkpt lat="48.23573992587626" lon="17.129069985821843">
        <ele>464.89</ele>
        <time>2023-06-13T11:42:15.797Z</time>
      </trkpt>
      <trkpt lat="48.23569994419813" lon="17.12912991642952">
        <ele>464.77</ele>
        <time>2023-06-13T11:42:20.973Z</time>
      </trkpt>
      <trkpt lat="48.23560992255807" lon="17.12925991974771">
        <ele>464.57</ele>
        <time>2023-06-13T11:42:26.152Z</time>
      </trkpt>
      <trkpt lat="48.235409930348396" lon="17.12951992638409">
        <ele>464.24</ele>
        <time>2023-06-13T11:42:31.336Z</time>
      </trkpt>
      <trkpt lat="48.23525997810066" lon="17.12972997687757">
        <ele>463.82</ele>
        <time>2023-06-13T11:42:36.524Z</time>
      </trkpt>
      <trkpt lat="48.23515998199582" lon="17.129869954660535">
        <ele>463.38</ele>
        <time>2023-06-13T11:42:41.715Z</time>
      </trkpt>
      <trkpt lat="48.234909949824214" lon="17.13013993576169">
        <ele>462.86</ele>
        <time>2023-06-13T11:42:46.912Z</time>
      </trkpt>
      <trkpt lat="48.23485999368131" lon="17.13030992075801">
        <ele>462.35</ele>
        <time>2023-06-13T11:42:52.112Z</time>
      </trkpt>
      <trkpt lat="48.234909949824214" lon="17.130409916862845">
        <ele>461.84</ele>
        <time>2023-06-13T11:42:57.313Z</time>
      </trkpt>
      <trkpt lat="48.2349899969995" lon="17.13056992739439">
        <ele>461.32</ele>
        <time>2023-06-13T11:43:02.517Z</time>
      </trkpt>
      <trkpt lat="48.235019920393825" lon="17.130599934607744">
        <ele>460.7</ele>
        <time>2023-06-13T11:43:07.722Z</time>
      </trkpt>
      <trkpt lat="48.235059985890985" lon="17.130659949034452">
        <ele>460.05</ele>
        <time>2023-06-13T11:43:12.928Z</time>
      </trkpt>
      <trkpt lat="48.235149923712015" lon="17.130899922922254">
        <ele>459.38</ele>
        <time>2023-06-13T11:43:18.138Z</time>
      </trkpt>
      <trkpt lat="48.23526995256543" lon="17.131139980629086">
        <ele>458.6</ele>
        <time>2023-06-13T11:43:23.352Z</time>
      </trkpt>
      <trkpt lat="48.235409930348396" lon="17.131309965625405">
        <ele>457.75</ele>
        <time>2023-06-13T11:43:28.569Z</time>
      </trkpt>
      <trkpt lat="48.23552995920181" lon="17.131419936195016">
        <ele>456.86</ele>
        <time>2023-06-13T11:43:33.789Z</time>
      </trkpt>
      <trkpt lat="48.235709918662906" lon="17.131569972261786">
        <ele>455.91</ele>
        <time>2023-06-13T11:43:39.013Z</time>
      </trkpt>
      <trkpt lat="48.23592994362116" lon="17.131939949467778">
        <ele>454.89</ele>
        <time>2023-06-13T11:43:44.244Z</time>
      </trkpt>
      <trkpt lat="48.23598995804787" lon="17.13230992667377">
        <ele>453.89</ele>
        <time>2023-06-13T11:43:49.480Z</time>
      </trkpt>
      <trkpt lat="48.23596992529929" lon="17.13262994773686">
        <ele>452.88</ele>
        <time>2023-06-13T11:43:54.720Z</time>
      </trkpt>
      <trkpt lat="48.23596992529929" lon="17.132799932733178">
        <ele>451.89</ele>
        <time>2023-06-13T11:43:59.962Z</time>
      </trkpt>
      <trkpt lat="48.23595995083451" lon="17.132919961586595">
        <ele>450.89</ele>
        <time>2023-06-13T11:44:05.206Z</time>
      </trkpt>
      <trkpt lat="48.23594997636974" lon="17.133249957114458">
        <ele>449.86</ele>
        <time>2023-06-13T11:44:10.455Z</time>
      </trkpt>
      <trkpt lat="48.23595995083451" lon="17.133539970964193">
        <ele>448.77</ele>
        <time>2023-06-13T11:44:15.707Z</time>
      </trkpt>
      <trkpt lat="48.23613999411464" lon="17.133929980918765">
        <ele>447.59</ele>
        <time>2023-06-13T11:44:20.966Z</time>
      </trkpt>
      <trkpt lat="48.23618995025754" lon="17.133999969810247">
        <ele>446.55</ele>
        <time>2023-06-13T11:44:26.226Z</time>
      </trkpt>
      <trkpt lat="48.236239990219474" lon="17.134099965915084">
        <ele>445.52</ele>
        <time>2023-06-13T11:44:31.488Z</time>
      </trkpt>
      <trkpt lat="48.23633998632431" lon="17.134339939802885">
        <ele>444.51</ele>
        <time>2023-06-13T11:44:36.754Z</time>
      </trkpt>
      <trkpt lat="48.23640997521579" lon="17.1344599686563">
        <ele>443.57</ele>
        <time>2023-06-13T11:44:42.022Z</time>
      </trkpt>
      <trkpt lat="48.23656998574734" lon="17.134659960865974">
        <ele>442.66</ele>
        <time>2023-06-13T11:44:47.294Z</time>
      </trkpt>
      <trkpt lat="48.236649949103594" lon="17.13475995697081">
        <ele>441.79</ele>
        <time>2023-06-13T11:44:52.568Z</time>
      </trkpt>
      <trkpt lat="48.23686997406185" lon="17.13505994528532">
        <ele>440.87</ele>
        <time>2023-06-13T11:44:57.848Z</time>
      </trkpt>
      <trkpt lat="48.23693996295333" lon="17.135179974138737">
        <ele>440.07</ele>
        <time>2023-06-13T11:45:03.130Z</time>
      </trkpt>
      <trkpt lat="48.237019926309586" lon="17.135429922491312">
        <ele>439.28</ele>
        <time>2023-06-13T11:45:08.416Z</time>
      </trkpt>
      <trkpt lat="48.237059991806746" lon="17.135779950767756">
        <ele>438.5</ele>
        <time>2023-06-13T11:45:13.706Z</time>
      </trkpt>
      <trkpt lat="48.23706996627152" lon="17.135899979621172">
        <ele>437.9</ele>
        <time>2023-06-13T11:45:18.998Z</time>
      </trkpt>
      <trkpt lat="48.23706996627152" lon="17.136019924655557">
        <ele>437.32</ele>
        <time>2023-06-13T11:45:24.292Z</time>
      </trkpt>
      <trkpt lat="48.23700995184481" lon="17.136339945718646">
        <ele>436.78</ele>
        <time>2023-06-13T11:45:29.590Z</time>
      </trkpt>
      <trkpt lat="48.23697994463146" lon="17.13642996735871">
        <ele>436.33</ele>
        <time>2023-06-13T11:45:34.889Z</time>
      </trkpt>
      <trkpt lat="48.2368999812752" lon="17.1366099268198">
        <ele>435.92</ele>
        <time>2023-06-13T11:45:40.191Z</time>
      </trkpt>
      <trkpt lat="48.2367099635303" lon="17.136939922347665">
        <ele>435.58</ele>
        <time>2023-06-13T11:45:45.499Z</time>
      </trkpt>
      <trkpt lat="48.23667995631695" lon="17.1370399184525">
        <ele>435.3</ele>
        <time>2023-06-13T11:45:50.809Z</time>
      </trkpt>
      <trkpt lat="48.236609967425466" lon="17.137329932302237">
        <ele>435.15</ele>
        <time>2023-06-13T11:45:56.123Z</time>
      </trkpt>
      <trkpt lat="48.236589934676886" lon="17.1374199539423">
        <ele>434.93</ele>
        <time>2023-06-13T11:46:01.438Z</time>
      </trkpt>
      <trkpt lat="48.23656998574734" lon="17.13750997558236">
        <ele>434.73</ele>
        <time>2023-06-13T11:46:06.754Z</time>
      </trkpt>
      <trkpt lat="48.23653997853398" lon="17.137599997222424">
        <ele>434.53</ele>
        <time>2023-06-13T11:46:12.072Z</time>
      </trkpt>
      <trkpt lat="48.2364699896425" lon="17.137929992750287">
        <ele>434.44</ele>
        <time>2023-06-13T11:46:17.394Z</time>
      </trkpt>
      <trkpt lat="48.236459931358695" lon="17.138319918885827">
        <ele>434.2</ele>
        <time>2023-06-13T11:46:22.722Z</time>
      </trkpt>
      <trkpt lat="48.236459931358695" lon="17.138609932735562">
        <ele>433.96</ele>
        <time>2023-06-13T11:46:28.053Z</time>
      </trkpt>
      <trkpt lat="48.2364699896425" lon="17.138699954375625">
        <ele>433.73</ele>
        <time>2023-06-13T11:46:33.386Z</time>
      </trkpt>
      <trkpt lat="48.23653997853398" lon="17.139029949903488">
        <ele>433.5</ele>
        <time>2023-06-13T11:46:38.723Z</time>
      </trkpt>
      <trkpt lat="48.23655992746353" lon="17.139169927686453">
        <ele>433.24</ele>
        <time>2023-06-13T11:46:44.062Z</time>
      </trkpt>
      <trkpt lat="48.23657996021211" lon="17.13924997486174">
        <ele>432.96</ele>
        <time>2023-06-13T11:46:49.402Z</time>
      </trkpt>
      <trkpt lat="48.23667995631695" lon="17.13956999592483">
        <ele>432.65</ele>
        <time>2023-06-13T11:46:54.747Z</time>
      </trkpt>
      <trkpt lat="48.23672999627888" lon="17.139839977025986">
        <ele>432.25</ele>
        <time>2023-06-13T11:47:00.096Z</time>
      </trkpt>
      <trkpt lat="48.236759919673204" lon="17.139939973130822">
        <ele>431.88</ele>
        <time>2023-06-13T11:47:05.446Z</time>
      </trkpt>
      <trkpt lat="48.23687994852662" lon="17.14023996144533">
        <ele>431.5</ele>
        <time>2023-06-13T11:47:10.801Z</time>
      </trkpt>
      <trkpt lat="48.23697994463146" lon="17.140399971976876">
        <ele>431.1</ele>
        <time>2023-06-13T11:47:16.159Z</time>
      </trkpt>
      <trkpt lat="48.23706996627152" lon="17.140529975295067">
        <ele>430.65</ele>
        <time>2023-06-13T11:47:21.519Z</time>
      </trkpt>
      <trkpt lat="48.23734992183745" lon="17.14072996750474">
        <ele>430.01</ele>
        <time>2023-06-13T11:47:26.886Z</time>
      </trkpt>
      <trkpt lat="48.23742996901274" lon="17.140759974718094">
        <ele>429.53</ele>
        <time>2023-06-13T11:47:32.254Z</time>
      </trkpt>
      <trkpt lat="48.23767991736531" lon="17.140829963609576">
        <ele>428.85</ele>
        <time>2023-06-13T11:47:37.627Z</time>
      </trkpt>
      <trkpt lat="48.23774999007583" lon="17.14085997082293">
        <ele>428.43</ele>
        <time>2023-06-13T11:47:43.002Z</time>
      </trkpt>
      <trkpt lat="48.237959956750274" lon="17.14100992307067">
        <ele>427.97</ele>
        <time>2023-06-13T11:47:48.381Z</time>
      </trkpt>
      <trkpt lat="48.238029945641756" lon="17.141059963032603">
        <ele>427.67</ele>
        <time>2023-06-13T11:47:53.762Z</time>
      </trkpt>
      <trkpt lat="48.23815994895995" lon="17.141199940815568">
        <ele>427.42</ele>
        <time>2023-06-13T11:47:59.146Z</time>
      </trkpt>
      <trkpt lat="48.238199930638075" lon="17.141559943556786">
        <ele>427.22</ele>
        <time>2023-06-13T11:48:04.535Z</time>
      </trkpt>
      <trkpt lat="48.23815994895995" lon="17.141899997368455">
        <ele>427.07</ele>
        <time>2023-06-13T11:48:09.929Z</time>
      </trkpt>
      <trkpt lat="48.238109992817044" lon="17.142079956829548">
        <ele>426.95</ele>
        <time>2023-06-13T11:48:15.325Z</time>
      </trkpt>
      <trkpt lat="48.238049978390336" lon="17.142239967361093">
        <ele>426.91</ele>
        <time>2023-06-13T11:48:20.724Z</time>
      </trkpt>
      <trkpt lat="48.237899942323565" lon="17.142539955675602">
        <ele>426.99</ele>
        <time>2023-06-13T11:48:26.128Z</time>
      </trkpt>
      <trkpt lat="48.23777999728918" lon="17.14270994067192">
        <ele>427.11</ele>
        <time>2023-06-13T11:48:31.535Z</time>
      </trkpt>
      <trkpt lat="48.2375699467957" lon="17.142969947308302">
        <ele>427.25</ele>
        <time>2023-06-13T11:48:36.947Z</time>
      </trkpt>
      <trkpt lat="48.237509932368994" lon="17.143039936199784">
        <ele>427.38</ele>
        <time>2023-06-13T11:48:42.361Z</time>
      </trkpt>
      <trkpt lat="48.23736995458603" lon="17.143259961158037">
        <ele>427.51</ele>
        <time>2023-06-13T11:48:47.779Z</time>
      </trkpt>
      <trkpt lat="48.237169962376356" lon="17.14360998943448">
        <ele>427.69</ele>
        <time>2023-06-13T11:48:53.203Z</time>
      </trkpt>
      <trkpt lat="48.237149929627776" lon="17.143669920042157">
        <ele>427.98</ele>
        <time>2023-06-13T11:48:58.628Z</time>
      </trkpt>
      <trkpt lat="48.23719996958971" lon="17.143809981644154">
        <ele>428.37</ele>
        <time>2023-06-13T11:49:04.055Z</time>
      </trkpt>
      <trkpt lat="48.23728999122977" lon="17.14388994500041">
        <ele>428.82</ele>
        <time>2023-06-13T11:49:09.484Z</time>
      </trkpt>
      <trkpt lat="48.2373299729079" lon="17.143919952213764">
        <ele>429.27</ele>
        <time>2023-06-13T11:49:14.914Z</time>
      </trkpt>
      <trkpt lat="48.237449917942286" lon="17.143939984962344">
        <ele>429.79</ele>
        <time>2023-06-13T11:49:20.347Z</time>
      </trkpt>
      <trkpt lat="48.237599954009056" lon="17.143979966640472">
        <ele>430.37</ele>
        <time>2023-06-13T11:49:25.783Z</time>
      </trkpt>
      <trkpt lat="48.237639935687184" lon="17.143979966640472">
        <ele>430.93</ele>
        <time>2023-06-13T11:49:31.220Z</time>
      </trkpt>
      <trkpt lat="48.23773993179202" lon="17.1440199483186">
        <ele>431.56</ele>
        <time>2023-06-13T11:49:36.659Z</time>
      </trkpt>
      <trkpt lat="48.237899942323565" lon="17.144049955531955">
        <ele>432.22</ele>
        <time>2023-06-13T11:49:42.101Z</time>
      </trkpt>
      <trkpt lat="48.238049978390336" lon="17.144069988280535">
        <ele>432.9</ele>
        <time>2023-06-13T11:49:47.546Z</time>
      </trkpt>
      <trkpt lat="48.238069927319884" lon="17.14407996274531">
        <ele>433.55</ele>
        <time>2023-06-13T11:49:52.991Z</time>
      </trkpt>
      <trkpt lat="48.23816992342472" lon="17.144089937210083">
        <ele>434.25</ele>
        <time>2023-06-13T11:49:58.438Z</time>
      </trkpt>
      <trkpt lat="48.238219963386655" lon="17.14412991888821">
        <ele>434.93</ele>
        <time>2023-06-13T11:50:03.886Z</time>
      </trkpt>
      <trkpt lat="48.23829992674291" lon="17.144159926101565">
        <ele>435.65</ele>
        <time>2023-06-13T11:50:09.336Z</time>
      </trkpt>
      <trkpt lat="48.23831995949149" lon="17.144159926101565">
        <ele>436.36</ele>
        <time>2023-06-13T11:50:14.786Z</time>
      </trkpt>
      <trkpt lat="48.238409981131554" lon="17.14416998438537">
        <ele>437.11</ele>
        <time>2023-06-13T11:50:20.238Z</time>
      </trkpt>
      <trkpt lat="48.23848994448781" lon="17.14418993331492">
        <ele>437.85</ele>
        <time>2023-06-13T11:50:25.692Z</time>
      </trkpt>
      <trkpt lat="48.238539984449744" lon="17.14418993331492">
        <ele>438.59</ele>
        <time>2023-06-13T11:50:31.147Z</time>
      </trkpt>
      <trkpt lat="48.238629922270775" lon="17.14418993331492">
        <ele>439.34</ele>
        <time>2023-06-13T11:50:36.604Z</time>
      </trkpt>
      <trkpt lat="48.23867996223271" lon="17.144179958850145">
        <ele>440.08</ele>
        <time>2023-06-13T11:50:42.062Z</time>
      </trkpt>
      <trkpt lat="48.23871994391084" lon="17.14418993331492">
        <ele>440.81</ele>
        <time>2023-06-13T11:50:47.520Z</time>
      </trkpt>
      <trkpt lat="48.2388099655509" lon="17.144159926101565">
        <ele>441.57</ele>
        <time>2023-06-13T11:50:52.980Z</time>
      </trkpt>
      <trkpt lat="48.238929994404316" lon="17.14409999549389">
        <ele>442.33</ele>
        <time>2023-06-13T11:50:58.443Z</time>
      </trkpt>
      <trkpt lat="48.23900995776057" lon="17.14403998106718">
        <ele>443.08</ele>
        <time>2023-06-13T11:51:03.908Z</time>
      </trkpt>
      <trkpt lat="48.23910995386541" lon="17.143989941105247">
        <ele>443.82</ele>
        <time>2023-06-13T11:51:09.375Z</time>
      </trkpt>
      <trkpt lat="48.23925998993218" lon="17.14390997774899">
        <ele>444.55</ele>
        <time>2023-06-13T11:51:14.845Z</time>
      </trkpt>
      <trkpt lat="48.23929997161031" lon="17.143869996070862">
        <ele>445.26</ele>
        <time>2023-06-13T11:51:20.316Z</time>
      </trkpt>
      <trkpt lat="48.23940994217992" lon="17.143789948895574">
        <ele>445.99</ele>
        <time>2023-06-13T11:51:25.789Z</time>
      </trkpt>
      <trkpt lat="48.23955997824669" lon="17.143689952790737">
        <ele>446.73</ele>
        <time>2023-06-13T11:51:31.266Z</time>
      </trkpt>
      <trkpt lat="48.239659974351525" lon="17.14360998943448">
        <ele>447.42</ele>
        <time>2023-06-13T11:51:36.745Z</time>
      </trkpt>
      <trkpt lat="48.23975997045636" lon="17.143539916723967">
        <ele>448.08</ele>
        <time>2023-06-13T11:51:42.226Z</time>
      </trkpt>
      <trkpt lat="48.23977991938591" lon="17.143539916723967">
        <ele>448.7</ele>
        <time>2023-06-13T11:51:47.708Z</time>
      </trkpt>
      <trkpt lat="48.23994998820126" lon="17.143449978902936">
        <ele>449.34</ele>
        <time>2023-06-13T11:51:53.193Z</time>
      </trkpt>
      <trkpt lat="48.239959962666035" lon="17.143429946154356">
        <ele>449.93</ele>
        <time>2023-06-13T11:51:58.678Z</time>
      </trkpt>
      <trkpt lat="48.24002995155752" lon="17.143319975584745">
        <ele>450.52</ele>
        <time>2023-06-13T11:52:04.166Z</time>
      </trkpt>
      <trkpt lat="48.240239918231964" lon="17.143239928409457">
        <ele>451.08</ele>
        <time>2023-06-13T11:52:09.658Z</time>
      </trkpt>
      <trkpt lat="48.24035994708538" lon="17.143149990588427">
        <ele>451.64</ele>
        <time>2023-06-13T11:52:15.153Z</time>
      </trkpt>
      <trkpt lat="48.24043999426067" lon="17.143059968948364">
        <ele>452.23</ele>
        <time>2023-06-13T11:52:20.650Z</time>
      </trkpt>
      <trkpt lat="48.24045994319022" lon="17.14304999448359">
        <ele>452.79</ele>
        <time>2023-06-13T11:52:26.147Z</time>
      </trkpt>
      <trkpt lat="48.24055993929505" lon="17.142959972843528">
        <ele>453.37</ele>
        <time>2023-06-13T11:52:31.646Z</time>
      </trkpt>
      <trkpt lat="48.240629928186536" lon="17.14289995841682">
        <ele>453.94</ele>
        <time>2023-06-13T11:52:37.147Z</time>
      </trkpt>
      <trkpt lat="48.240779964253306" lon="17.142809936776757">
        <ele>454.54</ele>
        <time>2023-06-13T11:52:42.651Z</time>
      </trkpt>
      <trkpt lat="48.24091994203627" lon="17.142779929563403">
        <ele>455.14</ele>
        <time>2023-06-13T11:52:48.158Z</time>
      </trkpt>
      <trkpt lat="48.24103997088969" lon="17.142779929563403">
        <ele>455.73</ele>
        <time>2023-06-13T11:52:53.667Z</time>
      </trkpt>
      <trkpt lat="48.24119998142123" lon="17.142759980633855">
        <ele>456.37</ele>
        <time>2023-06-13T11:52:59.180Z</time>
      </trkpt>
      <trkpt lat="48.241379940882325" lon="17.142779929563403">
        <ele>457.02</ele>
        <time>2023-06-13T11:53:04.696Z</time>
      </trkpt>
      <trkpt lat="48.24140994809568" lon="17.14278998784721">
        <ele>457.67</ele>
        <time>2023-06-13T11:53:10.213Z</time>
      </trkpt>
      <trkpt lat="48.241529976949096" lon="17.142849918454885">
        <ele>458.33</ele>
        <time>2023-06-13T11:53:15.732Z</time>
      </trkpt>
      <trkpt lat="48.24155998416245" lon="17.142869951203465">
        <ele>459.03</ele>
        <time>2023-06-13T11:53:21.252Z</time>
      </trkpt>
      <trkpt lat="48.241679929196835" lon="17.142909932881594">
        <ele>459.8</ele>
        <time>2023-06-13T11:53:26.774Z</time>
      </trkpt>
      <trkpt lat="48.24189995415509" lon="17.142939940094948">
        <ele>460.7</ele>
        <time>2023-06-13T11:53:32.301Z</time>
      </trkpt>
      <trkpt lat="48.24204999022186" lon="17.142939940094948">
        <ele>461.63</ele>
        <time>2023-06-13T11:53:37.831Z</time>
      </trkpt>
      <trkpt lat="48.24226993136108" lon="17.1429199911654">
        <ele>462.6</ele>
        <time>2023-06-13T11:53:43.365Z</time>
      </trkpt>
      <trkpt lat="48.24230999685824" lon="17.1429199911654">
        <ele>463.47</ele>
        <time>2023-06-13T11:53:48.900Z</time>
      </trkpt>
      <trkpt lat="48.242519963532686" lon="17.142979921773076">
        <ele>464.41</ele>
        <time>2023-06-13T11:53:54.439Z</time>
      </trkpt>
      <trkpt lat="48.242559945210814" lon="17.142989980056882">
        <ele>465.33</ele>
        <time>2023-06-13T11:53:59.979Z</time>
      </trkpt>
      <trkpt lat="48.24258995242417" lon="17.142979921773076">
        <ele>466.29</ele>
        <time>2023-06-13T11:54:05.520Z</time>
      </trkpt>
      <trkpt lat="48.24266999959946" lon="17.142959972843528">
        <ele>467.31</ele>
        <time>2023-06-13T11:54:11.062Z</time>
      </trkpt>
      <trkpt lat="48.24278994463384" lon="17.14302996173501">
        <ele>468.32</ele>
        <time>2023-06-13T11:54:16.607Z</time>
      </trkpt>
      <trkpt lat="48.242859933525324" lon="17.14304999448359">
        <ele>469.33</ele>
        <time>2023-06-13T11:54:22.153Z</time>
      </trkpt>
      <trkpt lat="48.24293998070061" lon="17.143059968948364">
        <ele>470.38</ele>
        <time>2023-06-13T11:54:27.701Z</time>
      </trkpt>
      <trkpt lat="48.242969987913966" lon="17.14306994341314">
        <ele>471.41</ele>
        <time>2023-06-13T11:54:33.250Z</time>
      </trkpt>
      <trkpt lat="48.24320996180177" lon="17.143119983375072">
        <ele>472.55</ele>
        <time>2023-06-13T11:54:38.804Z</time>
      </trkpt>
      <trkpt lat="48.243399979546666" lon="17.143119983375072">
        <ele>473.68</ele>
        <time>2023-06-13T11:54:44.361Z</time>
      </trkpt>
      <trkpt lat="48.243569964542985" lon="17.143129957839847">
        <ele>474.82</ele>
        <time>2023-06-13T11:54:49.922Z</time>
      </trkpt>
      <trkpt lat="48.243739949539304" lon="17.14313993230462">
        <ele>475.98</ele>
        <time>2023-06-13T11:54:55.486Z</time>
      </trkpt>
      <trkpt lat="48.24393994174898" lon="17.143189972266555">
        <ele>477.12</ele>
        <time>2023-06-13T11:55:01.054Z</time>
      </trkpt>
      <trkpt lat="48.244149992242455" lon="17.14319994673133">
        <ele>478.29</ele>
        <time>2023-06-13T11:55:06.626Z</time>
      </trkpt>
      <trkpt lat="48.24432995170355" lon="17.143239928409457">
        <ele>479.41</ele>
        <time>2023-06-13T11:55:12.202Z</time>
      </trkpt>
      <trkpt lat="48.24452994391322" lon="17.14326993562281">
        <ele>480.55</ele>
        <time>2023-06-13T11:55:17.782Z</time>
      </trkpt>
      <trkpt lat="48.244669921696186" lon="17.14332995004952">
        <ele>481.66</ele>
        <time>2023-06-13T11:55:23.365Z</time>
      </trkpt>
      <trkpt lat="48.24482993222773" lon="17.1433499827981">
        <ele>482.77</ele>
        <time>2023-06-13T11:55:28.951Z</time>
      </trkpt>
      <trkpt lat="48.245029924437404" lon="17.143399938941002">
        <ele>483.87</ele>
        <time>2023-06-13T11:55:34.541Z</time>
      </trkpt>
      <trkpt lat="48.245069989934564" lon="17.143399938941002">
        <ele>484.95</ele>
        <time>2023-06-13T11:55:40.132Z</time>
      </trkpt>
      <trkpt lat="48.245309963822365" lon="17.143409997224808">
        <ele>486.06</ele>
        <time>2023-06-13T11:55:45.728Z</time>
      </trkpt>
      <trkpt lat="48.24533997103572" lon="17.143409997224808">
        <ele>487.13</ele>
        <time>2023-06-13T11:55:51.324Z</time>
      </trkpt>
      <trkpt lat="48.24552998878062" lon="17.14343992061913">
        <ele>488.25</ele>
        <time>2023-06-13T11:55:56.924Z</time>
      </trkpt>
      <trkpt lat="48.24572998099029" lon="17.14343992061913">
        <ele>489.37</ele>
        <time>2023-06-13T11:56:02.528Z</time>
      </trkpt>
      <trkpt lat="48.24587993323803" lon="17.14345995336771">
        <ele>490.47</ele>
        <time>2023-06-13T11:56:08.135Z</time>
      </trkpt>
      <trkpt lat="48.245999962091446" lon="17.14345995336771">
        <ele>491.56</ele>
        <time>2023-06-13T11:56:13.745Z</time>
      </trkpt>
      <trkpt lat="48.24615997262299" lon="17.143469927832484">
        <ele>492.67</ele>
        <time>2023-06-13T11:56:19.358Z</time>
      </trkpt>
      <trkpt lat="48.24632995761931" lon="17.14345995336771">
        <ele>493.78</ele>
        <time>2023-06-13T11:56:24.974Z</time>
      </trkpt>
      <trkpt lat="48.24643992818892" lon="17.14347998611629">
        <ele>494.8</ele>
        <time>2023-06-13T11:56:30.593Z</time>
      </trkpt>
      <trkpt lat="48.246579989790916" lon="17.143469927832484">
        <ele>495.81</ele>
        <time>2023-06-13T11:56:36.214Z</time>
      </trkpt>
      <trkpt lat="48.2466499786824" lon="17.14347998611629">
        <ele>496.79</ele>
        <time>2023-06-13T11:56:41.837Z</time>
      </trkpt>
      <trkpt lat="48.246749974787235" lon="17.143559949472547">
        <ele>497.72</ele>
        <time>2023-06-13T11:56:47.462Z</time>
      </trkpt>
      <trkpt lat="48.24701995588839" lon="17.143639996647835">
        <ele>498.67</ele>
        <time>2023-06-13T11:56:53.093Z</time>
      </trkpt>
      <trkpt lat="48.247179966419935" lon="17.14364997111261">
        <ele>499.67</ele>
        <time>2023-06-13T11:56:58.727Z</time>
      </trkpt>
      <trkpt lat="48.247369984164834" lon="17.143669920042157">
        <ele>500.79</ele>
        <time>2023-06-13T11:57:04.365Z</time>
      </trkpt>
      <trkpt lat="48.24751993641257" lon="17.143709985539317">
        <ele>501.86</ele>
        <time>2023-06-13T11:57:10.006Z</time>
      </trkpt>
      <trkpt lat="48.24765999801457" lon="17.143729934468865">
        <ele>502.9</ele>
        <time>2023-06-13T11:57:15.649Z</time>
      </trkpt>
      <trkpt lat="48.24778991751373" lon="17.143729934468865">
        <ele>503.87</ele>
        <time>2023-06-13T11:57:21.295Z</time>
      </trkpt>
      <trkpt lat="48.247909946367145" lon="17.143749967217445">
        <ele>504.8</ele>
        <time>2023-06-13T11:57:26.943Z</time>
      </trkpt>
      <trkpt lat="48.24806995689869" lon="17.143799923360348">
        <ele>505.69</ele>
        <time>2023-06-13T11:57:32.595Z</time>
      </trkpt>
      <trkpt lat="48.2481799274683" lon="17.143749967217445">
        <ele>506.51</ele>
        <time>2023-06-13T11:57:38.249Z</time>
      </trkpt>
      <trkpt lat="48.24830993078649" lon="17.14369992725551">
        <ele>507.32</ele>
        <time>2023-06-13T11:57:43.906Z</time>
      </trkpt>
      <trkpt lat="48.24845996685326" lon="17.14360998943448">
        <ele>508.14</ele>
        <time>2023-06-13T11:57:49.566Z</time>
      </trkpt>
      <trkpt lat="48.248599944636226" lon="17.143449978902936">
        <ele>508.92</ele>
        <time>2023-06-13T11:57:55.229Z</time>
      </trkpt>
      <trkpt lat="48.24871997348964" lon="17.143359957262874">
        <ele>509.67</ele>
        <time>2023-06-13T11:58:00.895Z</time>
      </trkpt>
      <trkpt lat="48.24885995127261" lon="17.14317999780178">
        <ele>510.38</ele>
        <time>2023-06-13T11:58:06.565Z</time>
      </trkpt>
      <trkpt lat="48.2489899545908" lon="17.142959972843528">
        <ele>511.01</ele>
        <time>2023-06-13T11:58:12.239Z</time>
      </trkpt>
      <trkpt lat="48.24907997623086" lon="17.142809936776757">
        <ele>511.49</ele>
        <time>2023-06-13T11:58:17.915Z</time>
      </trkpt>
      <trkpt lat="48.24920997954905" lon="17.142679933458567">
        <ele>511.89</ele>
        <time>2023-06-13T11:58:23.595Z</time>
      </trkpt>
      <trkpt lat="48.2492299284786" lon="17.14261991903186">
        <ele>512.19</ele>
        <time>2023-06-13T11:58:29.275Z</time>
      </trkpt>
      <trkpt lat="48.249349957332015" lon="17.142479941248894">
        <ele>512.46</ele>
        <time>2023-06-13T11:58:34.959Z</time>
      </trkpt>
      <trkpt lat="48.24939999729395" lon="17.142419926822186">
        <ele>512.67</ele>
        <time>2023-06-13T11:58:40.644Z</time>
      </trkpt>
      <trkpt lat="48.249539975076914" lon="17.142269974574447">
        <ele>512.74</ele>
        <time>2023-06-13T11:58:46.332Z</time>
      </trkpt>
      <trkpt lat="48.24957995675504" lon="17.14222999289632">
        <ele>512.86</ele>
        <time>2023-06-13T11:58:52.021Z</time>
      </trkpt>
      <trkpt lat="48.24961993843317" lon="17.142099989578128">
        <ele>512.91</ele>
        <time>2023-06-13T11:58:57.712Z</time>
      </trkpt>
      <trkpt lat="48.24961993843317" lon="17.142079956829548">
        <ele>512.95</ele>
        <time>2023-06-13T11:59:03.403Z</time>
      </trkpt>
      <trkpt lat="48.24957995675504" lon="17.14201994240284">
        <ele>512.94</ele>
        <time>2023-06-13T11:59:09.096Z</time>
      </trkpt>
      <trkpt lat="48.24957995675504" lon="17.141899997368455">
        <ele>512.9</ele>
        <time>2023-06-13T11:59:14.790Z</time>
      </trkpt>
      <trkpt lat="48.24957995675504" lon="17.1418699901551">
        <ele>512.88</ele>
        <time>2023-06-13T11:59:20.485Z</time>
      </trkpt>
      <trkpt lat="48.249589931219816" lon="17.14177996851504">
        <ele>512.83</ele>
        <time>2023-06-13T11:59:26.181Z</time>
      </trkpt>
      <trkpt lat="48.249649945646524" lon="17.141679972410202">
        <ele>512.79</ele>
        <time>2023-06-13T11:59:31.879Z</time>
      </trkpt>
      <trkpt lat="48.249669978395104" lon="17.141599925234914">
        <ele>512.75</ele>
        <time>2023-06-13T11:59:37.578Z</time>
      </trkpt>
      <trkpt lat="48.249669978395104" lon="17.141559943556786">
        <ele>512.75</ele>
        <time>2023-06-13T11:59:43.277Z</time>
      </trkpt>
      <trkpt lat="48.24967995285988" lon="17.141469921916723">
        <ele>512.77</ele>
        <time>2023-06-13T11:59:48.977Z</time>
      </trkpt>
      <trkpt lat="48.24970996007323" lon="17.141369925811887">
        <ele>512.82</ele>
        <time>2023-06-13T11:59:54.679Z</time>
      </trkpt>
      <trkpt lat="48.24971993453801" lon="17.14134997688234">
        <ele>512.91</ele>
        <time>2023-06-13T12:00:00.381Z</time>
      </trkpt>
      <trkpt lat="48.24972999282181" lon="17.141299936920404">
        <ele>513.03</ele>
        <time>2023-06-13T12:00:06.084Z</time>
      </trkpt>
      <trkpt lat="48.24972999282181" lon="17.141279987990856">
        <ele>513.19</ele>
        <time>2023-06-13T12:00:11.787Z</time>
      </trkpt>
      <trkpt lat="48.24974994175136" lon="17.141189966350794">
        <ele>513.38</ele>
        <time>2023-06-13T12:00:17.491Z</time>
      </trkpt>
      <trkpt lat="48.24978992342949" lon="17.141089970245957">
        <ele>513.63</ele>
        <time>2023-06-13T12:00:23.197Z</time>
      </trkpt>
      <trkpt lat="48.24981993064284" lon="17.140999948605895">
        <ele>513.95</ele>
        <time>2023-06-13T12:00:28.904Z</time>
      </trkpt>
      <trkpt lat="48.24983996339142" lon="17.140959966927767">
        <ele>514.31</ele>
        <time>2023-06-13T12:00:34.612Z</time>
      </trkpt>
      <trkpt lat="48.249909952282906" lon="17.14083993807435">
        <ele>514.75</ele>
        <time>2023-06-13T12:00:40.322Z</time>
      </trkpt>
      <trkpt lat="48.249929985031486" lon="17.140819989144802">
        <ele>515.2</ele>
        <time>2023-06-13T12:00:46.033Z</time>
      </trkpt>
      <trkpt lat="48.24995999224484" lon="17.140799956396222">
        <ele>515.7</ele>
        <time>2023-06-13T12:00:51.744Z</time>
      </trkpt>
      <trkpt lat="48.25004993006587" lon="17.140679927542806">
        <ele>516.27</ele>
        <time>2023-06-13T12:00:57.458Z</time>
      </trkpt>
      <trkpt lat="48.25006996281445" lon="17.140659978613257">
        <ele>516.83</ele>
        <time>2023-06-13T12:01:03.172Z</time>
      </trkpt>
      <trkpt lat="48.25011991895735" lon="17.14061999693513">
        <ele>517.43</ele>
        <time>2023-06-13T12:01:08.887Z</time>
      </trkpt>
      <trkpt lat="48.25018999166787" lon="17.140549924224615">
        <ele>518.08</ele>
        <time>2023-06-13T12:01:14.604Z</time>
      </trkpt>
      <trkpt lat="48.25030993670225" lon="17.140459986403584">
        <ele>518.76</ele>
        <time>2023-06-13T12:01:20.324Z</time>
      </trkpt>
      <trkpt lat="48.25040993280709" lon="17.140349932014942">
        <ele>519.41</ele>
        <time>2023-06-13T12:01:26.046Z</time>
      </trkpt>
      <trkpt lat="48.250529961660504" lon="17.140229986980557">
        <ele>520.1</ele>
        <time>2023-06-13T12:01:31.771Z</time>
      </trkpt>
      <trkpt lat="48.25057991780341" lon="17.14014993980527">
        <ele>520.71</ele>
        <time>2023-06-13T12:01:37.498Z</time>
      </trkpt>
      <trkpt lat="48.25068997219205" lon="17.139949947595596">
        <ele>521.3</ele>
        <time>2023-06-13T12:01:43.228Z</time>
      </trkpt>
      <trkpt lat="48.2507199794054" lon="17.139909965917468">
        <ele>521.87</ele>
        <time>2023-06-13T12:01:48.959Z</time>
      </trkpt>
      <trkpt lat="48.250849982723594" lon="17.139749955385923">
        <ele>522.4</ele>
        <time>2023-06-13T12:01:54.693Z</time>
      </trkpt>
      <trkpt lat="48.250939920544624" lon="17.13954996317625">
        <ele>522.88</ele>
        <time>2023-06-13T12:02:00.430Z</time>
      </trkpt>
      <trkpt lat="48.25103991664946" lon="17.13937997817993">
        <ele>523.34</ele>
        <time>2023-06-13T12:02:06.170Z</time>
      </trkpt>
      <trkpt lat="48.25111996382475" lon="17.1391399204731">
        <ele>523.82</ele>
        <time>2023-06-13T12:02:11.914Z</time>
      </trkpt>
      <trkpt lat="48.25112993828952" lon="17.13911997154355">
        <ele>524.14</ele>
        <time>2023-06-13T12:02:17.658Z</time>
      </trkpt>
      <trkpt lat="48.25115994550288" lon="17.138979993760586">
        <ele>524.42</ele>
        <time>2023-06-13T12:02:23.404Z</time>
      </trkpt>
      <trkpt lat="48.25122993439436" lon="17.138649998232722">
        <ele>524.61</ele>
        <time>2023-06-13T12:02:29.155Z</time>
      </trkpt>
      <trkpt lat="48.25122993439436" lon="17.138589983806014">
        <ele>524.69</ele>
        <time>2023-06-13T12:02:34.907Z</time>
      </trkpt>
      <trkpt lat="48.251239992678165" lon="17.138379933312535">
        <ele>524.68</ele>
        <time>2023-06-13T12:02:40.662Z</time>
      </trkpt>
      <trkpt lat="48.251259941607714" lon="17.138229981064796">
        <ele>524.58</ele>
        <time>2023-06-13T12:02:46.419Z</time>
      </trkpt>
      <trkpt lat="48.25137997046113" lon="17.13797994889319">
        <ele>524.39</ele>
        <time>2023-06-13T12:02:52.180Z</time>
      </trkpt>
      <trkpt lat="48.25143998488784" lon="17.13786997832358">
        <ele>524.05</ele>
        <time>2023-06-13T12:02:57.943Z</time>
      </trkpt>
      <trkpt lat="48.25150997377932" lon="17.13773997500539">
        <ele>523.62</ele>
        <time>2023-06-13T12:03:03.708Z</time>
      </trkpt>
      <trkpt lat="48.251539980992675" lon="17.137389946728945">
        <ele>523.06</ele>
        <time>2023-06-13T12:03:09.478Z</time>
      </trkpt>
      <trkpt lat="48.2515799626708" lon="17.1370399184525">
        <ele>522.31</ele>
        <time>2023-06-13T12:03:15.252Z</time>
      </trkpt>
      <trkpt lat="48.25160996988416" lon="17.1367999445647">
        <ele>521.41</ele>
        <time>2023-06-13T12:03:21.030Z</time>
      </trkpt>
      <trkpt lat="48.25161994434893" lon="17.13653993792832">
        <ele>520.4</ele>
        <time>2023-06-13T12:03:26.811Z</time>
      </trkpt>
      <trkpt lat="48.25159999541938" lon="17.13619996793568">
        <ele>519.3</ele>
        <time>2023-06-13T12:03:32.597Z</time>
      </trkpt>
      <trkpt lat="48.2515799626708" lon="17.13599997572601">
        <ele>518.17</ele>
        <time>2023-06-13T12:03:38.385Z</time>
      </trkpt>
      <trkpt lat="48.251649951562285" lon="17.135499995201826">
        <ele>516.85</ele>
        <time>2023-06-13T12:03:44.180Z</time>
      </trkpt>
      <trkpt lat="48.2517699804157" lon="17.135199923068285">
        <ele>515.43</ele>
        <time>2023-06-13T12:03:49.980Z</time>
      </trkpt>
      <trkpt lat="48.25189998373389" lon="17.13494997471571">
        <ele>513.88</ele>
        <time>2023-06-13T12:03:55.784Z</time>
      </trkpt>
      <trkpt lat="48.25199997983873" lon="17.13462995365262">
        <ele>512.21</ele>
        <time>2023-06-13T12:04:01.593Z</time>
      </trkpt>
      <trkpt lat="48.25202998705208" lon="17.134449994191527">
        <ele>510.55</ele>
        <time>2023-06-13T12:04:07.404Z</time>
      </trkpt>
      <trkpt lat="48.25201992876828" lon="17.133949929848313">
        <ele>508.74</ele>
        <time>2023-06-13T12:04:13.222Z</time>
      </trkpt>
      <trkpt lat="48.25197994709015" lon="17.133649941533804">
        <ele>506.87</ele>
        <time>2023-06-13T12:04:19.044Z</time>
      </trkpt>
      <trkpt lat="48.2519599981606" lon="17.13346998207271">
        <ele>504.99</ele>
        <time>2023-06-13T12:04:24.868Z</time>
      </trkpt>
      <trkpt lat="48.251949939876795" lon="17.133299997076392">
        <ele>503.04</ele>
        <time>2023-06-13T12:04:30.695Z</time>
      </trkpt>
      <trkpt lat="48.25185991823673" lon="17.132819965481758">
        <ele>500.95</ele>
        <time>2023-06-13T12:04:36.528Z</time>
      </trkpt>
      <trkpt lat="48.251839969307184" lon="17.132679987698793">
        <ele>498.95</ele>
        <time>2023-06-13T12:04:42.363Z</time>
      </trkpt>
      <trkpt lat="48.25173997320235" lon="17.132369941100478">
        <ele>496.85</ele>
        <time>2023-06-13T12:04:48.203Z</time>
      </trkpt>
      <trkpt lat="48.25165992602706" lon="17.132059978321195">
        <ele>494.77</ele>
        <time>2023-06-13T12:04:54.047Z</time>
      </trkpt>
      <trkpt lat="48.25145993381739" lon="17.131649935618043">
        <ele>492.7</ele>
        <time>2023-06-13T12:04:59.898Z</time>
      </trkpt>
      <trkpt lat="48.251389944925904" lon="17.131519932299852">
        <ele>490.67</ele>
        <time>2023-06-13T12:05:05.751Z</time>
      </trkpt>
      <trkpt lat="48.25130998156965" lon="17.13107996620238">
        <ele>488.49</ele>
        <time>2023-06-13T12:05:11.610Z</time>
      </trkpt>
      <trkpt lat="48.251279974356294" lon="17.130809985101223">
        <ele>486.4</ele>
        <time>2023-06-13T12:05:17.473Z</time>
      </trkpt>
      <trkpt lat="48.25128994882107" lon="17.130689956247807">
        <ele>484.39</ele>
        <time>2023-06-13T12:05:23.338Z</time>
      </trkpt>
      <trkpt lat="48.25124996714294" lon="17.13047998957336">
        <ele>482.43</ele>
        <time>2023-06-13T12:05:29.206Z</time>
      </trkpt>
      <trkpt lat="48.2511499710381" lon="17.130429949611425">
        <ele>480.47</ele>
        <time>2023-06-13T12:05:35.076Z</time>
      </trkpt>
      <trkpt lat="48.251069923862815" lon="17.13030992075801">
        <ele>478.52</ele>
        <time>2023-06-13T12:05:40.948Z</time>
      </trkpt>
      <trkpt lat="48.25099993497133" lon="17.1301999501884">
        <ele>476.58</ele>
        <time>2023-06-13T12:05:46.822Z</time>
      </trkpt>
      <trkpt lat="48.250789968296885" lon="17.1300099324435">
        <ele>474.59</ele>
        <time>2023-06-13T12:05:52.701Z</time>
      </trkpt>
      <trkpt lat="48.25056994333863" lon="17.12998998351395">
        <ele>472.66</ele>
        <time>2023-06-13T12:05:58.584Z</time>
      </trkpt>
      <trkpt lat="48.25047992169857" lon="17.1300099324435">
        <ele>470.81</ele>
        <time>2023-06-13T12:06:04.469Z</time>
      </trkpt>
      <trkpt lat="48.2502799294889" lon="17.13004999794066">
        <ele>468.94</ele>
        <time>2023-06-13T12:06:10.358Z</time>
      </trkpt>
      <trkpt lat="48.250099970027804" lon="17.130129961296916">
        <ele>467.06</ele>
        <time>2023-06-13T12:06:16.251Z</time>
      </trkpt>
      <trkpt lat="48.25000994838774" lon="17.13013993576169">
        <ele>465.28</ele>
        <time>2023-06-13T12:06:22.146Z</time>
      </trkpt>
      <trkpt lat="48.24973996728659" lon="17.130089979618788">
        <ele>463.39</ele>
        <time>2023-06-13T12:06:28.046Z</time>
      </trkpt>
      <trkpt lat="48.24959998950362" lon="17.130019990727305">
        <ele>461.68</ele>
        <time>2023-06-13T12:06:33.949Z</time>
      </trkpt>
      <trkpt lat="48.249369990080595" lon="17.12991999462247">
        <ele>460.01</ele>
        <time>2023-06-13T12:06:39.857Z</time>
      </trkpt>
      <trkpt lat="48.249069917947054" lon="17.129779933020473">
        <ele>458.36</ele>
        <time>2023-06-13T12:06:45.771Z</time>
      </trkpt>
      <trkpt lat="48.248729947954416" lon="17.129719918593764">
        <ele>456.77</ele>
        <time>2023-06-13T12:06:51.692Z</time>
      </trkpt>
      <trkpt lat="48.24853993020952" lon="17.129679936915636">
        <ele>455.34</ele>
        <time>2023-06-13T12:06:57.617Z</time>
      </trkpt>
      <trkpt lat="48.24845996685326" lon="17.129649929702282">
        <ele>454.05</ele>
        <time>2023-06-13T12:07:03.544Z</time>
      </trkpt>
      <trkpt lat="48.24824991635978" lon="17.12946997024119">
        <ele>452.83</ele>
        <time>2023-06-13T12:07:09.476Z</time>
      </trkpt>
      <trkpt lat="48.24807993136346" lon="17.129399981349707">
        <ele>451.72</ele>
        <time>2023-06-13T12:07:15.411Z</time>
      </trkpt>
      <trkpt lat="48.248019916936755" lon="17.129189930856228">
        <ele>450.62</ele>
        <time>2023-06-13T12:07:21.349Z</time>
      </trkpt>
      <trkpt lat="48.2479399535805" lon="17.128939982503653">
        <ele>449.56</ele>
        <time>2023-06-13T12:07:27.291Z</time>
      </trkpt>
      <trkpt lat="48.247799975797534" lon="17.128639994189143">
        <ele>448.56</ele>
        <time>2023-06-13T12:07:33.238Z</time>
      </trkpt>
      <trkpt lat="48.2477499358356" lon="17.12854997254908">
        <ele>447.63</ele>
        <time>2023-06-13T12:07:39.186Z</time>
      </trkpt>
      <trkpt lat="48.24770995415747" lon="17.128449976444244">
        <ele>446.75</ele>
        <time>2023-06-13T12:07:45.136Z</time>
      </trkpt>
      <trkpt lat="48.24759998358786" lon="17.128129955381155">
        <ele>445.91</ele>
        <time>2023-06-13T12:07:51.091Z</time>
      </trkpt>
      <trkpt lat="48.24756997637451" lon="17.12802995927632">
        <ele>445.1</ele>
        <time>2023-06-13T12:07:57.047Z</time>
      </trkpt>
      <trkpt lat="48.2475099619478" lon="17.127829967066646">
        <ele>444.29</ele>
        <time>2023-06-13T12:08:03.006Z</time>
      </trkpt>
      <trkpt lat="48.24737995862961" lon="17.127529978752136">
        <ele>443.49</ele>
        <time>2023-06-13T12:08:08.970Z</time>
      </trkpt>
      <trkpt lat="48.247289936989546" lon="17.127359993755817">
        <ele>442.74</ele>
        <time>2023-06-13T12:08:14.937Z</time>
      </trkpt>
      <trkpt lat="48.24713998474181" lon="17.127079954370856">
        <ele>441.96</ele>
        <time>2023-06-13T12:08:20.908Z</time>
      </trkpt>
      <trkpt lat="48.24708994477987" lon="17.126929918304086">
        <ele>441.28</ele>
        <time>2023-06-13T12:08:26.882Z</time>
      </trkpt>
      <trkpt lat="48.24697997421026" lon="17.126649962738156">
        <ele>440.59</ele>
        <time>2023-06-13T12:08:32.860Z</time>
      </trkpt>
      <trkpt lat="48.246919959783554" lon="17.126539992168546">
        <ele>440.02</ele>
        <time>2023-06-13T12:08:38.840Z</time>
      </trkpt>
      <trkpt lat="48.24675994925201" lon="17.126279985532165">
        <ele>439.47</ele>
        <time>2023-06-13T12:08:44.825Z</time>
      </trkpt>
      <trkpt lat="48.2466999348253" lon="17.126149982213974">
        <ele>439.05</ele>
        <time>2023-06-13T12:08:50.812Z</time>
      </trkpt>
      <trkpt lat="48.2466499786824" lon="17.12579995393753">
        <ele>438.69</ele>
        <time>2023-06-13T12:08:56.804Z</time>
      </trkpt>
      <trkpt lat="48.24663992039859" lon="17.125679925084114">
        <ele>438.33</ele>
        <time>2023-06-13T12:09:02.797Z</time>
      </trkpt>
      <trkpt lat="48.24662994593382" lon="17.125439951196313">
        <ele>438.02</ele>
        <time>2023-06-13T12:09:08.793Z</time>
      </trkpt>
      <trkpt lat="48.24658996425569" lon="17.125119930133224">
        <ele>437.73</ele>
        <time>2023-06-13T12:09:14.794Z</time>
      </trkpt>
      <trkpt lat="48.24654998257756" lon="17.124949945136905">
        <ele>437.44</ele>
        <time>2023-06-13T12:09:20.797Z</time>
      </trkpt>
      <trkpt lat="48.24649994261563" lon="17.124779960140586">
        <ele>437.18</ele>
        <time>2023-06-13T12:09:26.803Z</time>
      </trkpt>
      <trkpt lat="48.24639994651079" lon="17.12452992796898">
        <ele>436.97</ele>
        <time>2023-06-13T12:09:32.813Z</time>
      </trkpt>
      <trkpt lat="48.24636993929744" lon="17.124459939077497">
        <ele>436.77</ele>
        <time>2023-06-13T12:09:38.824Z</time>
      </trkpt>
      <trkpt lat="48.246279917657375" lon="17.124299928545952">
        <ele>436.59</ele>
        <time>2023-06-13T12:09:44.837Z</time>
      </trkpt>
      <trkpt lat="48.24611999094486" lon="17.124139918014407">
        <ele>436.43</ele>
        <time>2023-06-13T12:09:50.854Z</time>
      </trkpt>
      <trkpt lat="48.24596995487809" lon="17.123979991301894">
        <ele>436.27</ele>
        <time>2023-06-13T12:09:56.875Z</time>
      </trkpt>
      <trkpt lat="48.24591999873519" lon="17.12392995133996">
        <ele>436.13</ele>
        <time>2023-06-13T12:10:02.897Z</time>
      </trkpt>
      <trkpt lat="48.245849926024675" lon="17.123839929699898">
        <ele>435.99</ele>
        <time>2023-06-13T12:10:08.921Z</time>
      </trkpt>
      <trkpt lat="48.245759988203645" lon="17.123719984665513">
        <ele>435.86</ele>
        <time>2023-06-13T12:10:14.947Z</time>
      </trkpt>
      <trkpt lat="48.245589919388294" lon="17.123529966920614">
        <ele>435.7</ele>
        <time>2023-06-13T12:10:20.978Z</time>
      </trkpt>
      <trkpt lat="48.24544994160533" lon="17.123429970815778">
        <ele>435.53</ele>
        <time>2023-06-13T12:10:27.012Z</time>
      </trkpt>
      <trkpt lat="48.245329996570945" lon="17.123319916427135">
        <ele>435.33</ele>
        <time>2023-06-13T12:10:33.049Z</time>
      </trkpt>
      <trkpt lat="48.245179960504174" lon="17.123139956966043">
        <ele>435.12</ele>
        <time>2023-06-13T12:10:39.089Z</time>
      </trkpt>
      <trkpt lat="48.24507996439934" lon="17.123009953647852">
        <ele>434.97</ele>
        <time>2023-06-13T12:10:45.132Z</time>
      </trkpt>
      <trkpt lat="48.2447899505496" lon="17.122629918158054">
        <ele>434.86</ele>
        <time>2023-06-13T12:10:51.183Z</time>
      </trkpt>
      <trkpt lat="48.244749968871474" lon="17.122549954801798">
        <ele>434.75</ele>
        <time>2023-06-13T12:10:57.235Z</time>
      </trkpt>
      <trkpt lat="48.244639998301864" lon="17.122259940952063">
        <ele>434.64</ele>
        <time>2023-06-13T12:11:03.292Z</time>
      </trkpt>
      <trkpt lat="48.244579983875155" lon="17.121939919888973">
        <ele>434.53</ele>
        <time>2023-06-13T12:11:09.353Z</time>
      </trkpt>
      <trkpt lat="48.244539918377995" lon="17.121829949319363">
        <ele>434.41</ele>
        <time>2023-06-13T12:11:15.416Z</time>
      </trkpt>
      <trkpt lat="48.24443992227316" lon="17.121579917147756">
        <ele>434.29</ele>
        <time>2023-06-13T12:11:21.483Z</time>
      </trkpt>
      <trkpt lat="48.24434998445213" lon="17.12117993272841">
        <ele>434.19</ele>
        <time>2023-06-13T12:11:27.555Z</time>
      </trkpt>
      <trkpt lat="48.24433992616832" lon="17.1211199183017">
        <ele>434.04</ele>
        <time>2023-06-13T12:11:33.628Z</time>
      </trkpt>
      <trkpt lat="48.24430991895497" lon="17.12093995884061">
        <ele>433.89</ele>
        <time>2023-06-13T12:11:39.704Z</time>
      </trkpt>
      <trkpt lat="48.24428997002542" lon="17.120829988270998">
        <ele>433.71</ele>
        <time>2023-06-13T12:11:45.781Z</time>
      </trkpt>
      <trkpt lat="48.24426993727684" lon="17.120679952204227">
        <ele>433.53</ele>
        <time>2023-06-13T12:11:51.860Z</time>
      </trkpt>
      <trkpt lat="48.244259962812066" lon="17.120399996638298">
        <ele>433.35</ele>
        <time>2023-06-13T12:11:57.943Z</time>
      </trkpt>
      <trkpt lat="48.24428997002542" lon="17.120199920609593">
        <ele>433.12</ele>
        <time>2023-06-13T12:12:04.029Z</time>
      </trkpt>
      <trkpt lat="48.24430991895497" lon="17.119949972257018">
        <ele>432.85</ele>
        <time>2023-06-13T12:12:10.118Z</time>
      </trkpt>
      <trkpt lat="48.24433992616832" lon="17.119619976729155">
        <ele>432.5</ele>
        <time>2023-06-13T12:12:16.211Z</time>
      </trkpt>
      <trkpt lat="48.244319977238774" lon="17.119499947875738">
        <ele>432.17</ele>
        <time>2023-06-13T12:12:22.306Z</time>
      </trkpt>
      <trkpt lat="48.24430991895497" lon="17.119359970092773">
        <ele>431.82</ele>
        <time>2023-06-13T12:12:28.403Z</time>
      </trkpt>
      <trkpt lat="48.24432995170355" lon="17.11919995956123">
        <ele>431.44</ele>
        <time>2023-06-13T12:12:34.502Z</time>
      </trkpt>
      <trkpt lat="48.244429947808385" lon="17.118959985673428">
        <ele>431.0</ele>
        <time>2023-06-13T12:12:40.605Z</time>
      </trkpt>
      <trkpt lat="48.24449993669987" lon="17.11861993186176">
        <ele>430.52</ele>
        <time>2023-06-13T12:12:46.713Z</time>
      </trkpt>
      <trkpt lat="48.24451996944845" lon="17.118489928543568">
        <ele>430.09</ele>
        <time>2023-06-13T12:12:52.823Z</time>
      </trkpt>
      <trkpt lat="48.244539918377995" lon="17.118399990722537">
        <ele>429.66</ele>
        <time>2023-06-13T12:12:58.934Z</time>
      </trkpt>
      <trkpt lat="48.24458995833993" lon="17.117929933592677">
        <ele>429.12</ele>
        <time>2023-06-13T12:13:05.051Z</time>
      </trkpt>
      <trkpt lat="48.24458995833993" lon="17.117769923061132">
        <ele>428.74</ele>
        <time>2023-06-13T12:13:11.170Z</time>
      </trkpt>
      <trkpt lat="48.24460999108851" lon="17.117489967495203">
        <ele>428.34</ele>
        <time>2023-06-13T12:13:17.293Z</time>
      </trkpt>
      <trkpt lat="48.24467997997999" lon="17.117129964753985">
        <ele>427.93</ele>
        <time>2023-06-13T12:13:23.421Z</time>
      </trkpt>
      <trkpt lat="48.24471996165812" lon="17.11702996864915">
        <ele>427.58</ele>
        <time>2023-06-13T12:13:29.551Z</time>
      </trkpt>
      <trkpt lat="48.244749968871474" lon="17.116909939795732">
        <ele>427.25</ele>
        <time>2023-06-13T12:13:35.682Z</time>
      </trkpt>
      <trkpt lat="48.24481995776296" lon="17.116679940372705">
        <ele>426.9</ele>
        <time>2023-06-13T12:13:41.817Z</time>
      </trkpt>
      <trkpt lat="48.24492992833257" lon="17.116309963166714">
        <ele>426.56</ele>
        <time>2023-06-13T12:13:47.957Z</time>
      </trkpt>
      <trkpt lat="48.24495993554592" lon="17.115989942103624">
        <ele>426.26</ele>
        <time>2023-06-13T12:13:54.101Z</time>
      </trkpt>
      <trkpt lat="48.24495993554592" lon="17.115919953212142">
        <ele>425.93</ele>
        <time>2023-06-13T12:14:00.246Z</time>
      </trkpt>
      <trkpt lat="48.245029924437404" lon="17.11567997932434">
        <ele>425.65</ele>
        <time>2023-06-13T12:14:06.395Z</time>
      </trkpt>
      <trkpt lat="48.245069989934564" lon="17.1155699249357">
        <ele>425.33</ele>
        <time>2023-06-13T12:14:12.546Z</time>
      </trkpt>
      <trkpt lat="48.245119946077466" lon="17.115279994904995">
        <ele>425.0</ele>
        <time>2023-06-13T12:14:18.701Z</time>
      </trkpt>
      <trkpt lat="48.24518993496895" lon="17.115089977160096">
        <ele>424.64</ele>
        <time>2023-06-13T12:14:24.858Z</time>
      </trkpt>
      <trkpt lat="48.245199993252754" lon="17.114889984950423">
        <ele>424.29</ele>
        <time>2023-06-13T12:14:31.018Z</time>
      </trkpt>
      <trkpt lat="48.24527995660901" lon="17.114619920030236">
        <ele>423.86</ele>
        <time>2023-06-13T12:14:37.182Z</time>
      </trkpt>
      <trkpt lat="48.24529998935759" lon="17.114529982209206">
        <ele>423.45</ele>
        <time>2023-06-13T12:14:43.347Z</time>
      </trkpt>
      <trkpt lat="48.24537995271385" lon="17.114179953932762">
        <ele>422.99</ele>
        <time>2023-06-13T12:14:49.517Z</time>
      </trkpt>
      <trkpt lat="48.245439967140555" lon="17.11404995061457">
        <ele>422.55</ele>
        <time>2023-06-13T12:14:55.689Z</time>
      </trkpt>
      <trkpt lat="48.24552998878062" lon="17.11391994729638">
        <ele>422.1</ele>
        <time>2023-06-13T12:15:01.864Z</time>
      </trkpt>
      <trkpt lat="48.24557994492352" lon="17.113769995048642">
        <ele>421.66</ele>
        <time>2023-06-13T12:15:08.041Z</time>
      </trkpt>
      <trkpt lat="48.24569997377694" lon="17.11348995566368">
        <ele>421.2</ele>
        <time>2023-06-13T12:15:14.223Z</time>
      </trkpt>
      <trkpt lat="48.24582997709513" lon="17.113219974562526">
        <ele>420.79</ele>
        <time>2023-06-13T12:15:20.409Z</time>
      </trkpt>
      <trkpt lat="48.24591999873519" lon="17.113019982352853">
        <ele>420.36</ele>
        <time>2023-06-13T12:15:26.598Z</time>
      </trkpt>
      <trkpt lat="48.24610993266106" lon="17.11273994296789">
        <ele>419.88</ele>
        <time>2023-06-13T12:15:32.793Z</time>
      </trkpt>
      <trkpt lat="48.246189979836345" lon="17.112599965184927">
        <ele>419.41</ele>
        <time>2023-06-13T12:15:38.990Z</time>
      </trkpt>
      <trkpt lat="48.24638997204602" lon="17.11228991858661">
        <ele>418.93</ele>
        <time>2023-06-13T12:15:45.193Z</time>
      </trkpt>
      <trkpt lat="48.24652994982898" lon="17.112099984660745">
        <ele>418.52</ele>
        <time>2023-06-13T12:15:51.400Z</time>
      </trkpt>
      <trkpt lat="48.24667998589575" lon="17.111869985237718">
        <ele>418.11</ele>
        <time>2023-06-13T12:15:57.611Z</time>
      </trkpt>
      <trkpt lat="48.24676992371678" lon="17.11167996749282">
        <ele>417.8</ele>
        <time>2023-06-13T12:16:03.825Z</time>
      </trkpt>
      <trkpt lat="48.246859945356846" lon="17.111539989709854">
        <ele>417.49</ele>
        <time>2023-06-13T12:16:10.042Z</time>
      </trkpt>
      <trkpt lat="48.247009981423616" lon="17.111309990286827">
        <ele>417.22</ele>
        <time>2023-06-13T12:16:16.263Z</time>
      </trkpt>
      <trkpt lat="48.24711995199323" lon="17.111139921471477">
        <ele>417.04</ele>
        <time>2023-06-13T12:16:22.487Z</time>
      </trkpt>
      <trkpt lat="48.247179966419935" lon="17.111019976437092">
        <ele>417.01</ele>
        <time>2023-06-13T12:16:28.713Z</time>
      </trkpt>
      <trkpt lat="48.24720997363329" lon="17.11090992204845">
        <ele>417.06</ele>
        <time>2023-06-13T12:16:34.941Z</time>
      </trkpt>
      <trkpt lat="48.2473199442029" lon="17.110599959269166">
        <ele>417.23</ele>
        <time>2023-06-13T12:16:41.173Z</time>
      </trkpt>
      <trkpt lat="48.247349951416254" lon="17.110489988699555">
        <ele>417.46</ele>
        <time>2023-06-13T12:16:47.407Z</time>
      </trkpt>
      <trkpt lat="48.247369984164834" lon="17.11043994873762">
        <ele>417.73</ele>
        <time>2023-06-13T12:16:53.642Z</time>
      </trkpt>
      <trkpt lat="48.24742999859154" lon="17.110269963741302">
        <ele>418.12</ele>
        <time>2023-06-13T12:16:59.879Z</time>
      </trkpt>
      <trkpt lat="48.247459921985865" lon="17.109909961000085">
        <ele>418.65</ele>
        <time>2023-06-13T12:17:06.121Z</time>
      </trkpt>
      <trkpt lat="48.247479954734445" lon="17.10972991771996">
        <ele>419.16</ele>
        <time>2023-06-13T12:17:12.366Z</time>
      </trkpt>
      <trkpt lat="48.247459921985865" lon="17.109409980475903">
        <ele>419.79</ele>
        <time>2023-06-13T12:17:18.615Z</time>
      </trkpt>
      <trkpt lat="48.247439973056316" lon="17.10920998826623">
        <ele>420.38</ele>
        <time>2023-06-13T12:17:24.867Z</time>
      </trkpt>
      <trkpt lat="48.24739999137819" lon="17.108969930559397">
        <ele>420.99</ele>
        <time>2023-06-13T12:17:31.122Z</time>
      </trkpt>
      <trkpt lat="48.24739999137819" lon="17.10869994945824">
        <ele>421.63</ele>
        <time>2023-06-13T12:17:37.381Z</time>
      </trkpt>
      <trkpt lat="48.247459921985865" lon="17.10849995724857">
        <ele>422.29</ele>
        <time>2023-06-13T12:17:43.642Z</time>
      </trkpt>
      <trkpt lat="48.247479954734445" lon="17.108469950035214">
        <ele>422.88</ele>
        <time>2023-06-13T12:17:49.904Z</time>
      </trkpt>
      <trkpt lat="48.24753996916115" lon="17.108359979465604">
        <ele>423.47</ele>
        <time>2023-06-13T12:17:56.168Z</time>
      </trkpt>
      <trkpt lat="48.24754994362593" lon="17.108319997787476">
        <ele>424.07</ele>
        <time>2023-06-13T12:18:02.433Z</time>
      </trkpt>
      <trkpt lat="48.24756997637451" lon="17.10802998393774">
        <ele>424.75</ele>
        <time>2023-06-13T12:18:08.701Z</time>
      </trkpt>
      <trkpt lat="48.24757995083928" lon="17.107809958979487">
        <ele>425.36</ele>
        <time>2023-06-13T12:18:14.972Z</time>
      </trkpt>
      <trkpt lat="48.24761993251741" lon="17.107609966769814">
        <ele>425.96</ele>
        <time>2023-06-13T12:18:21.246Z</time>
      </trkpt>
      <trkpt lat="48.24761993251741" lon="17.107329927384853">
        <ele>426.55</ele>
        <time>2023-06-13T12:18:27.524Z</time>
      </trkpt>
      <trkpt lat="48.24763996526599" lon="17.107029939070344">
        <ele>427.06</ele>
        <time>2023-06-13T12:18:33.806Z</time>
      </trkpt>
      <trkpt lat="48.24763996526599" lon="17.10677999071777">
        <ele>427.5</ele>
        <time>2023-06-13T12:18:40.091Z</time>
      </trkpt>
      <trkpt lat="48.24767994694412" lon="17.10630993358791">
        <ele>427.78</ele>
        <time>2023-06-13T12:18:46.383Z</time>
      </trkpt>
      <trkpt lat="48.24770995415747" lon="17.106189988553524">
        <ele>428.13</ele>
        <time>2023-06-13T12:18:52.676Z</time>
      </trkpt>
      <trkpt lat="48.24772998690605" lon="17.106089992448688">
        <ele>428.46</ele>
        <time>2023-06-13T12:18:58.971Z</time>
      </trkpt>
      <trkpt lat="48.247799975797534" lon="17.1058199275285">
        <ele>428.74</ele>
        <time>2023-06-13T12:19:05.270Z</time>
      </trkpt>
      <trkpt lat="48.24781992472708" lon="17.105659916996956">
        <ele>429.05</ele>
        <time>2023-06-13T12:19:11.571Z</time>
      </trkpt>
      <trkpt lat="48.24781992472708" lon="17.105549946427345">
        <ele>429.35</ele>
        <time>2023-06-13T12:19:17.873Z</time>
      </trkpt>
      <trkpt lat="48.24783995747566" lon="17.105459924787283">
        <ele>429.61</ele>
        <time>2023-06-13T12:19:24.176Z</time>
      </trkpt>
      <trkpt lat="48.247869964689016" lon="17.10525993257761">
        <ele>429.87</ele>
        <time>2023-06-13T12:19:30.482Z</time>
      </trkpt>
      <trkpt lat="48.247889997437596" lon="17.10503999143839">
        <ele>430.16</ele>
        <time>2023-06-13T12:19:36.791Z</time>
      </trkpt>
      <trkpt lat="48.247909946367145" lon="17.104989951476455">
        <ele>430.38</ele>
        <time>2023-06-13T12:19:43.101Z</time>
      </trkpt>
      <trkpt lat="48.24791229330003" lon="17.10497260093689">
        <ele>430.39</ele>
        <time>2023-06-13T12:19:49.411Z</time>
      </trkpt>
      <trkpt lat="48.248078590258956" lon="17.10500151850283">
        <ele>426.32</ele>
        <time>2023-06-13T12:19:55.725Z</time>
      </trkpt>
      <trkpt lat="48.248101472854614" lon="17.1047043800354">
        <ele>426.8</ele>
        <time>2023-06-13T12:20:02.043Z</time>
      </trkpt>
      <trkpt lat="48.248144472017884" lon="17.104473123326898">
        <ele>427.2</ele>
        <time>2023-06-13T12:20:08.364Z</time>
      </trkpt>
      <trkpt lat="48.24818730354309" lon="17.10424304008484">
        <ele>427.76</ele>
        <time>2023-06-13T12:20:14.688Z</time>
      </trkpt>
      <trkpt lat="48.24823566712439" lon="17.103877253830433">
        <ele>428.53</ele>
        <time>2023-06-13T12:20:21.017Z</time>
      </trkpt>
      <trkpt lat="48.24828386306763" lon="17.103513479232788">
        <ele>429.32</ele>
        <time>2023-06-13T12:20:27.351Z</time>
      </trkpt>
      <trkpt lat="48.24835200794041" lon="17.10308315232396">
        <ele>429.88</ele>
        <time>2023-06-13T12:20:33.691Z</time>
      </trkpt>
      <trkpt lat="48.248420152813196" lon="17.102652909234166">
        <ele>430.38</ele>
        <time>2023-06-13T12:20:40.037Z</time>
      </trkpt>
      <trkpt lat="48.24848779477179" lon="17.10222601890564">
        <ele>431.14</ele>
        <time>2023-06-13T12:20:46.389Z</time>
      </trkpt>
      <trkpt lat="48.24848771095276" lon="17.10222601890564">
        <ele>431.94</ele>
        <time>2023-06-13T12:20:52.741Z</time>
      </trkpt>
      <trkpt lat="48.24854143895209" lon="17.101897951215506">
        <ele>433.01</ele>
        <time>2023-06-13T12:20:59.097Z</time>
      </trkpt>
      <trkpt lat="48.248594999313354" lon="17.101571559906006">
        <ele>434.18</ele>
        <time>2023-06-13T12:21:05.458Z</time>
      </trkpt>
      <trkpt lat="48.24863791465759" lon="17.10119605064392">
        <ele>435.57</ele>
        <time>2023-06-13T12:21:11.824Z</time>
      </trkpt>
      <trkpt lat="48.24872374534607" lon="17.100863456726074">
        <ele>437.09</ele>
        <time>2023-06-13T12:21:18.194Z</time>
      </trkpt>
      <trkpt lat="48.248866153880954" lon="17.10054368712008">
        <ele>438.63</ele>
        <time>2023-06-13T12:21:24.570Z</time>
      </trkpt>
      <trkpt lat="48.24900856241584" lon="17.100223917514086">
        <ele>440.25</ele>
        <time>2023-06-13T12:21:30.951Z</time>
      </trkpt>
      <trkpt lat="48.24915097095072" lon="17.09990414790809">
        <ele>441.7</ele>
        <time>2023-06-13T12:21:37.337Z</time>
      </trkpt>
      <trkpt lat="48.24929237365723" lon="17.099586725234985">
        <ele>443.0</ele>
        <time>2023-06-13T12:21:43.728Z</time>
      </trkpt>
      <trkpt lat="48.249367475509644" lon="17.099404335021973">
        <ele>444.21</ele>
        <time>2023-06-13T12:21:50.122Z</time>
      </trkpt>
      <trkpt lat="48.24941039085388" lon="17.09922194480896">
        <ele>445.33</ele>
        <time>2023-06-13T12:21:56.518Z</time>
      </trkpt>
      <trkpt lat="48.24941039085388" lon="17.09900736808777">
        <ele>446.38</ele>
        <time>2023-06-13T12:22:02.917Z</time>
      </trkpt>
      <trkpt lat="48.2493782043457" lon="17.098664045333862">
        <ele>447.42</ele>
        <time>2023-06-13T12:22:09.321Z</time>
      </trkpt>
      <trkpt lat="48.24934593401849" lon="17.098432704806328">
        <ele>448.23</ele>
        <time>2023-06-13T12:22:15.728Z</time>
      </trkpt>
      <trkpt lat="48.249313831329346" lon="17.0982027053833">
        <ele>448.77</ele>
        <time>2023-06-13T12:22:22.138Z</time>
      </trkpt>
      <trkpt lat="48.24929245747626" lon="17.097784280776978">
        <ele>449.1</ele>
        <time>2023-06-13T12:22:28.554Z</time>
      </trkpt>
      <trkpt lat="48.24929237365723" lon="17.097784280776978">
        <ele>449.4</ele>
        <time>2023-06-13T12:22:34.970Z</time>
      </trkpt>
      <trkpt lat="48.249276196584105" lon="17.097531398758292">
        <ele>449.47</ele>
        <time>2023-06-13T12:22:41.389Z</time>
      </trkpt>
      <trkpt lat="48.24926018714905" lon="17.097280025482178">
        <ele>449.34</ele>
        <time>2023-06-13T12:22:47.812Z</time>
      </trkpt>
      <trkpt lat="48.24922791682184" lon="17.097027227282524">
        <ele>449.2</ele>
        <time>2023-06-13T12:22:54.238Z</time>
      </trkpt>
      <trkpt lat="48.24919581413269" lon="17.096775770187378">
        <ele>449.04</ele>
        <time>2023-06-13T12:23:00.667Z</time>
      </trkpt>
      <trkpt lat="48.24920654296875" lon="17.096335887908936">
        <ele>448.94</ele>
        <time>2023-06-13T12:23:07.102Z</time>
      </trkpt>
      <trkpt lat="48.24922800064087" lon="17.09599164314568">
        <ele>449.0</ele>
        <time>2023-06-13T12:23:13.542Z</time>
      </trkpt>
      <trkpt lat="48.24924945831299" lon="17.095649242401123">
        <ele>449.02</ele>
        <time>2023-06-13T12:23:19.987Z</time>
      </trkpt>
      <trkpt lat="48.24924945831299" lon="17.09545612335205">
        <ele>448.94</ele>
        <time>2023-06-13T12:23:26.434Z</time>
      </trkpt>
      <trkpt lat="48.2492280844599" lon="17.095338106155396">
        <ele>448.81</ele>
        <time>2023-06-13T12:23:32.883Z</time>
      </trkpt>
      <trkpt lat="48.24918508529663" lon="17.09526300430298">
        <ele>448.63</ele>
        <time>2023-06-13T12:23:39.333Z</time>
      </trkpt>
      <trkpt lat="48.24914216995239" lon="17.09520936012268">
        <ele>448.38</ele>
        <time>2023-06-13T12:23:45.784Z</time>
      </trkpt>
      <trkpt lat="48.2489812374115" lon="17.095134258270264">
        <ele>448.09</ele>
        <time>2023-06-13T12:23:52.239Z</time>
      </trkpt>
      <trkpt lat="48.248820304870605" lon="17.095059156417847">
        <ele>447.75</ele>
        <time>2023-06-13T12:23:58.697Z</time>
      </trkpt>
      <trkpt lat="48.24867001734674" lon="17.0949303265661">
        <ele>447.34</ele>
        <time>2023-06-13T12:24:05.158Z</time>
      </trkpt>
      <trkpt lat="48.24851989746094" lon="17.094801664352417">
        <ele>446.8</ele>
        <time>2023-06-13T12:24:11.623Z</time>
      </trkpt>
      <trkpt lat="48.24841260910034" lon="17.094662189483643">
        <ele>446.06</ele>
        <time>2023-06-13T12:24:18.091Z</time>
      </trkpt>
      <trkpt lat="48.24815494939685" lon="17.094466807320714">
        <ele>445.11</ele>
        <time>2023-06-13T12:24:24.565Z</time>
      </trkpt>
      <trkpt lat="48.24789737351239" lon="17.094271508976817">
        <ele>443.79</ele>
        <time>2023-06-13T12:24:31.044Z</time>
      </trkpt>
      <trkpt lat="48.247639797627926" lon="17.09407612681389">
        <ele>441.95</ele>
        <time>2023-06-13T12:24:37.529Z</time>
      </trkpt>
      <trkpt lat="48.247382221743464" lon="17.09388082846999">
        <ele>439.78</ele>
        <time>2023-06-13T12:24:44.020Z</time>
      </trkpt>
      <trkpt lat="48.24712514877319" lon="17.09368586540222">
        <ele>437.11</ele>
        <time>2023-06-13T12:24:50.517Z</time>
      </trkpt>
      <trkpt lat="48.2470178604126" lon="17.093535661697388">
        <ele>434.52</ele>
        <time>2023-06-13T12:24:57.017Z</time>
      </trkpt>
      <trkpt lat="48.24697494506836" lon="17.093353271484375">
        <ele>431.96</ele>
        <time>2023-06-13T12:25:03.519Z</time>
      </trkpt>
      <trkpt lat="48.24694803915918" lon="17.09295521490276">
        <ele>429.19</ele>
        <time>2023-06-13T12:25:10.027Z</time>
      </trkpt>
      <trkpt lat="48.24692130088806" lon="17.092559337615967">
        <ele>426.11</ele>
        <time>2023-06-13T12:25:16.540Z</time>
      </trkpt>
      <trkpt lat="48.24684242717922" lon="17.09219003096223">
        <ele>422.81</ele>
        <time>2023-06-13T12:25:23.058Z</time>
      </trkpt>
      <trkpt lat="48.24676355347037" lon="17.091820808127522">
        <ele>419.63</ele>
        <time>2023-06-13T12:25:29.581Z</time>
      </trkpt>
      <trkpt lat="48.24668526649475" lon="17.09145426750183">
        <ele>416.45</ele>
        <time>2023-06-13T12:25:36.109Z</time>
      </trkpt>
      <trkpt lat="48.24666380882263" lon="17.09100365638733">
        <ele>413.17</ele>
        <time>2023-06-13T12:25:42.643Z</time>
      </trkpt>
      <trkpt lat="48.24669607914984" lon="17.090713139623404">
        <ele>409.9</ele>
        <time>2023-06-13T12:25:49.181Z</time>
      </trkpt>
      <trkpt lat="48.24672818183899" lon="17.090424299240112">
        <ele>406.61</ele>
        <time>2023-06-13T12:25:55.723Z</time>
      </trkpt>
      <trkpt lat="48.24678190983832" lon="17.090149959549308">
        <ele>403.31</ele>
        <time>2023-06-13T12:26:02.269Z</time>
      </trkpt>
      <trkpt lat="48.246835470199585" lon="17.089877128601074">
        <ele>399.92</ele>
        <time>2023-06-13T12:26:08.819Z</time>
      </trkpt>
      <trkpt lat="48.24693580158055" lon="17.089454093948007">
        <ele>396.19</ele>
        <time>2023-06-13T12:26:15.375Z</time>
      </trkpt>
      <trkpt lat="48.24703621678054" lon="17.08903105929494">
        <ele>392.32</ele>
        <time>2023-06-13T12:26:21.937Z</time>
      </trkpt>
      <trkpt lat="48.24713587760925" lon="17.088611125946045">
        <ele>388.52</ele>
        <time>2023-06-13T12:26:28.505Z</time>
      </trkpt>
      <trkpt lat="48.24722170829773" lon="17.088418006896973">
        <ele>385.09</ele>
        <time>2023-06-13T12:26:35.076Z</time>
      </trkpt>
      <trkpt lat="48.2474148273468" lon="17.0882785320282">
        <ele>381.98</ele>
        <time>2023-06-13T12:26:41.651Z</time>
      </trkpt>
      <trkpt lat="48.24754374101758" lon="17.08806898444891">
        <ele>378.64</ele>
        <time>2023-06-13T12:26:48.230Z</time>
      </trkpt>
      <trkpt lat="48.24767231941223" lon="17.087860107421875">
        <ele>375.41</ele>
        <time>2023-06-13T12:26:54.813Z</time>
      </trkpt>
      <trkpt lat="48.247811794281006" lon="17.08744168281555">
        <ele>371.79</ele>
        <time>2023-06-13T12:27:01.402Z</time>
      </trkpt>
      <trkpt lat="48.247854709625244" lon="17.087098360061646">
        <ele>368.32</ele>
        <time>2023-06-13T12:27:07.996Z</time>
      </trkpt>
      <trkpt lat="48.247843980789185" lon="17.08675503730774">
        <ele>364.9</ele>
        <time>2023-06-13T12:27:14.594Z</time>
      </trkpt>
      <trkpt lat="48.247822439298034" lon="17.086512967944145">
        <ele>361.79</ele>
        <time>2023-06-13T12:27:21.196Z</time>
      </trkpt>
      <trkpt lat="48.24780114926398" lon="17.08627223968506">
        <ele>358.93</ele>
        <time>2023-06-13T12:27:27.801Z</time>
      </trkpt>
      <trkpt lat="48.247833251953125" lon="17.086143493652344">
        <ele>356.41</ele>
        <time>2023-06-13T12:27:34.408Z</time>
      </trkpt>
      <trkpt lat="48.24796199798584" lon="17.08599328994751">
        <ele>354.09</ele>
        <time>2023-06-13T12:27:41.018Z</time>
      </trkpt>
      <trkpt lat="48.248090744018555" lon="17.085918188095093">
        <ele>351.99</ele>
        <time>2023-06-13T12:27:47.631Z</time>
      </trkpt>
      <trkpt lat="48.2483696937561" lon="17.085832357406616">
        <ele>350.14</ele>
        <time>2023-06-13T12:27:54.249Z</time>
      </trkpt>
      <trkpt lat="48.24848771095276" lon="17.0857036113739">
        <ele>348.47</ele>
        <time>2023-06-13T12:28:00.870Z</time>
      </trkpt>
      <trkpt lat="48.24864177033305" lon="17.08532734774053">
        <ele>346.78</ele>
        <time>2023-06-13T12:28:07.497Z</time>
      </trkpt>
      <trkpt lat="48.248795829713345" lon="17.084951167926192">
        <ele>345.17</ele>
        <time>2023-06-13T12:28:14.130Z</time>
      </trkpt>
      <trkpt lat="48.24894905090332" lon="17.084577083587646">
        <ele>343.69</ele>
        <time>2023-06-13T12:28:20.769Z</time>
      </trkpt>
      <trkpt lat="48.249088609591126" lon="17.084351778030396">
        <ele>342.48</ele>
        <time>2023-06-13T12:28:27.412Z</time>
      </trkpt>
      <trkpt lat="48.249088525772095" lon="17.084351778030396">
        <ele>341.56</ele>
        <time>2023-06-13T12:28:34.055Z</time>
      </trkpt>
      <trkpt lat="48.24918508529663" lon="17.084115743637085">
        <ele>340.81</ele>
        <time>2023-06-13T12:28:40.702Z</time>
      </trkpt>
      <trkpt lat="48.24924945831299" lon="17.08376169204712">
        <ele>340.15</ele>
        <time>2023-06-13T12:28:47.354Z</time>
      </trkpt>
      <trkpt lat="48.24937032535672" lon="17.083417614921927">
        <ele>339.75</ele>
        <time>2023-06-13T12:28:54.011Z</time>
      </trkpt>
      <trkpt lat="48.24949127621949" lon="17.083073621615767">
        <ele>339.28</ele>
        <time>2023-06-13T12:29:00.673Z</time>
      </trkpt>
      <trkpt lat="48.24961222708225" lon="17.082729544490576">
        <ele>339.05</ele>
        <time>2023-06-13T12:29:07.340Z</time>
      </trkpt>
      <trkpt lat="48.24973225593567" lon="17.082388401031494">
        <ele>338.99</ele>
        <time>2023-06-13T12:29:14.012Z</time>
      </trkpt>
      <trkpt lat="48.24979134835303" lon="17.081963438540697">
        <ele>339.16</ele>
        <time>2023-06-13T12:29:20.690Z</time>
      </trkpt>
      <trkpt lat="48.249850273132324" lon="17.081540822982788">
        <ele>339.51</ele>
        <time>2023-06-13T12:29:27.374Z</time>
      </trkpt>
      <trkpt lat="48.249839544296265" lon="17.081422805786133">
        <ele>339.96</ele>
        <time>2023-06-13T12:29:34.060Z</time>
      </trkpt>
      <trkpt lat="48.249785983935" lon="17.081218957901">
        <ele>340.54</ele>
        <time>2023-06-13T12:29:40.749Z</time>
      </trkpt>
      <trkpt lat="48.249893272295594" lon="17.08099365234375">
        <ele>341.31</ele>
        <time>2023-06-13T12:29:47.441Z</time>
      </trkpt>
      <trkpt lat="48.250097036361694" lon="17.080650329589844">
        <ele>342.28</ele>
        <time>2023-06-13T12:29:54.139Z</time>
      </trkpt>
      <trkpt lat="48.25025813654065" lon="17.080440865829587">
        <ele>343.21</ele>
        <time>2023-06-13T12:30:00.842Z</time>
      </trkpt>
      <trkpt lat="48.25041898526251" lon="17.08023190498352">
        <ele>344.16</ele>
        <time>2023-06-13T12:30:07.549Z</time>
      </trkpt>
      <trkpt lat="48.25046181678772" lon="17.080178260803223">
        <ele>345.08</ele>
        <time>2023-06-13T12:30:14.257Z</time>
      </trkpt>
      <trkpt lat="48.25064420700073" lon="17.080049430951476">
        <ele>346.06</ele>
        <time>2023-06-13T12:30:20.969Z</time>
      </trkpt>
      <trkpt lat="48.250826597213745" lon="17.079920768737793">
        <ele>346.95</ele>
        <time>2023-06-13T12:30:27.685Z</time>
      </trkpt>
      <trkpt lat="48.25107352808118" lon="17.07963435910642">
        <ele>347.86</ele>
        <time>2023-06-13T12:30:34.407Z</time>
      </trkpt>
      <trkpt lat="48.25132045894861" lon="17.07934803329408">
        <ele>348.77</ele>
        <time>2023-06-13T12:30:41.136Z</time>
      </trkpt>
      <trkpt lat="48.251566886901855" lon="17.079062461853027">
        <ele>349.75</ele>
        <time>2023-06-13T12:30:47.871Z</time>
      </trkpt>
      <trkpt lat="48.25172790326178" lon="17.078826427459717">
        <ele>350.71</ele>
        <time>2023-06-13T12:30:54.610Z</time>
      </trkpt>
      <trkpt lat="48.251921189948916" lon="17.07855250686407">
        <ele>351.72</ele>
        <time>2023-06-13T12:31:01.355Z</time>
      </trkpt>
      <trkpt lat="48.252114141359925" lon="17.07827925682068">
        <ele>352.79</ele>
        <time>2023-06-13T12:31:08.105Z</time>
      </trkpt>
      <trkpt lat="48.25230918824673" lon="17.077999971807003">
        <ele>353.83</ele>
        <time>2023-06-13T12:31:14.860Z</time>
      </trkpt>
      <trkpt lat="48.25250431895256" lon="17.077720686793327">
        <ele>354.67</ele>
        <time>2023-06-13T12:31:21.621Z</time>
      </trkpt>
      <trkpt lat="48.252699449658394" lon="17.07744140177965">
        <ele>355.5</ele>
        <time>2023-06-13T12:31:28.387Z</time>
      </trkpt>
      <trkpt lat="48.25289458036423" lon="17.077162200585008">
        <ele>356.16</ele>
        <time>2023-06-13T12:31:35.159Z</time>
      </trkpt>
      <trkpt lat="48.25308971107006" lon="17.076882915571332">
        <ele>356.7</ele>
        <time>2023-06-13T12:31:41.936Z</time>
      </trkpt>
      <trkpt lat="48.25328358449042" lon="17.076605558395386">
        <ele>357.21</ele>
        <time>2023-06-13T12:31:48.718Z</time>
      </trkpt>
      <trkpt lat="48.2534122467041" lon="17.076369524002075">
        <ele>357.75</ele>
        <time>2023-06-13T12:31:55.504Z</time>
      </trkpt>
      <trkpt lat="48.25353026390076" lon="17.076197862625122">
        <ele>358.12</ele>
        <time>2023-06-13T12:32:02.294Z</time>
      </trkpt>
      <trkpt lat="48.25365900993347" lon="17.07603693008423">
        <ele>358.38</ele>
        <time>2023-06-13T12:32:09.087Z</time>
      </trkpt>
      <trkpt lat="48.253862941637635" lon="17.075833082199097">
        <ele>358.49</ele>
        <time>2023-06-13T12:32:15.885Z</time>
      </trkpt>
      <trkpt lat="48.25399168767035" lon="17.075682878494263">
        <ele>358.71</ele>
        <time>2023-06-13T12:32:22.686Z</time>
      </trkpt>
      <trkpt lat="48.25403460301459" lon="17.075639963150024">
        <ele>358.87</ele>
        <time>2023-06-13T12:32:29.488Z</time>
      </trkpt>
      <trkpt lat="48.25418472290039" lon="17.07550048828125">
        <ele>359.04</ele>
        <time>2023-06-13T12:32:36.294Z</time>
      </trkpt>
      <trkpt lat="48.25425990857184" lon="17.07547903060913">
        <ele>359.15</ele>
        <time>2023-06-13T12:32:43.101Z</time>
      </trkpt>
      <trkpt lat="48.25425982475281" lon="17.07547903060913">
        <ele>359.17</ele>
        <time>2023-06-13T12:32:49.908Z</time>
      </trkpt>
      <trkpt lat="48.25439929962158" lon="17.07545757293701">
        <ele>359.2</ele>
        <time>2023-06-13T12:32:56.718Z</time>
      </trkpt>
      <trkpt lat="48.25450658798218" lon="17.075393199920654">
        <ele>359.19</ele>
        <time>2023-06-13T12:33:03.531Z</time>
      </trkpt>
      <trkpt lat="48.25463533401489" lon="17.075307369232178">
        <ele>359.11</ele>
        <time>2023-06-13T12:33:10.346Z</time>
      </trkpt>
      <trkpt lat="48.25475335121155" lon="17.075200080871582">
        <ele>358.91</ele>
        <time>2023-06-13T12:33:17.164Z</time>
      </trkpt>
      <trkpt lat="48.25488209724426" lon="17.075124979019165">
        <ele>358.59</ele>
        <time>2023-06-13T12:33:23.985Z</time>
      </trkpt>
      <trkpt lat="48.25513958930969" lon="17.07499623298645">
        <ele>358.08</ele>
        <time>2023-06-13T12:33:30.811Z</time>
      </trkpt>
      <trkpt lat="48.255289793014526" lon="17.074953317642212">
        <ele>357.53</ele>
        <time>2023-06-13T12:33:37.640Z</time>
      </trkpt>
      <trkpt lat="48.255375623703" lon="17.074899673461914">
        <ele>356.91</ele>
        <time>2023-06-13T12:33:44.471Z</time>
      </trkpt>
      <trkpt lat="48.25549917295575" lon="17.074690125882626">
        <ele>356.18</ele>
        <time>2023-06-13T12:33:51.306Z</time>
      </trkpt>
      <trkpt lat="48.25562238693237" lon="17.07448124885559">
        <ele>355.38</ele>
        <time>2023-06-13T12:33:58.145Z</time>
      </trkpt>
      <trkpt lat="48.25576186180115" lon="17.07427740097046">
        <ele>354.52</ele>
        <time>2023-06-13T12:34:04.988Z</time>
      </trkpt>
      <trkpt lat="48.255896056070924" lon="17.074105571955442">
        <ele>353.7</ele>
        <time>2023-06-13T12:34:11.834Z</time>
      </trkpt>
      <trkpt lat="48.25603008270264" lon="17.073934078216553">
        <ele>352.84</ele>
        <time>2023-06-13T12:34:18.684Z</time>
      </trkpt>
      <trkpt lat="48.25620174407959" lon="17.07375168800354">
        <ele>351.82</ele>
        <time>2023-06-13T12:34:25.538Z</time>
      </trkpt>
      <trkpt lat="48.25631984509528" lon="17.07359050400555">
        <ele>350.73</ele>
        <time>2023-06-13T12:34:32.395Z</time>
      </trkpt>
      <trkpt lat="48.2564377784729" lon="17.073429822921753">
        <ele>349.58</ele>
        <time>2023-06-13T12:34:39.255Z</time>
      </trkpt>
      <trkpt lat="48.256555795669556" lon="17.07321524620056">
        <ele>348.46</ele>
        <time>2023-06-13T12:34:46.119Z</time>
      </trkpt>
      <trkpt lat="48.256641793996096" lon="17.07288726232946">
        <ele>347.28</ele>
        <time>2023-06-13T12:34:52.988Z</time>
      </trkpt>
      <trkpt lat="48.25672745704651" lon="17.072560787200928">
        <ele>346.17</ele>
        <time>2023-06-13T12:34:59.861Z</time>
      </trkpt>
      <trkpt lat="48.256824016571045" lon="17.072303295135498">
        <ele>345.14</ele>
        <time>2023-06-13T12:35:06.738Z</time>
      </trkpt>
      <trkpt lat="48.25702786445618" lon="17.07202434539795">
        <ele>344.18</ele>
        <time>2023-06-13T12:35:13.621Z</time>
      </trkpt>
      <trkpt lat="48.25718879699707" lon="17.071852684020996">
        <ele>343.16</ele>
        <time>2023-06-13T12:35:20.508Z</time>
      </trkpt>
      <trkpt lat="48.257296085357666" lon="17.071702480316162">
        <ele>342.14</ele>
        <time>2023-06-13T12:35:27.398Z</time>
      </trkpt>
      <trkpt lat="48.2573926448822" lon="17.07148790359497">
        <ele>341.16</ele>
        <time>2023-06-13T12:35:34.291Z</time>
      </trkpt>
      <trkpt lat="48.25751082971692" lon="17.071278356015682">
        <ele>340.19</ele>
        <time>2023-06-13T12:35:41.188Z</time>
      </trkpt>
      <trkpt lat="48.25762867927551" lon="17.071069478988647">
        <ele>339.25</ele>
        <time>2023-06-13T12:35:48.088Z</time>
      </trkpt>
      <trkpt lat="48.25773613527417" lon="17.070854483172297">
        <ele>338.37</ele>
        <time>2023-06-13T12:35:54.992Z</time>
      </trkpt>
      <trkpt lat="48.257843255996704" lon="17.070640325546265">
        <ele>337.54</ele>
        <time>2023-06-13T12:36:01.900Z</time>
      </trkpt>
      <trkpt lat="48.25800083577633" lon="17.070296332240105">
        <ele>336.68</ele>
        <time>2023-06-13T12:36:08.813Z</time>
      </trkpt>
      <trkpt lat="48.258158499374986" lon="17.069952422752976">
        <ele>335.88</ele>
        <time>2023-06-13T12:36:15.732Z</time>
      </trkpt>
      <trkpt lat="48.25831540860236" lon="17.069610357284546">
        <ele>335.17</ele>
        <time>2023-06-13T12:36:22.656Z</time>
      </trkpt>
      <trkpt lat="48.25844407081604" lon="17.069363594055176">
        <ele>334.47</ele>
        <time>2023-06-13T12:36:29.585Z</time>
      </trkpt>
      <trkpt lat="48.25858907774091" lon="17.069143317639828">
        <ele>333.85</ele>
        <time>2023-06-13T12:36:36.518Z</time>
      </trkpt>
      <trkpt lat="48.25873383320868" lon="17.068923711776733">
        <ele>333.23</ele>
        <time>2023-06-13T12:36:43.455Z</time>
      </trkpt>
      <trkpt lat="48.25873374938965" lon="17.068923711776733">
        <ele>332.68</ele>
        <time>2023-06-13T12:36:50.392Z</time>
      </trkpt>
      <trkpt lat="48.25900197029114" lon="17.068687677383423">
        <ele>332.12</ele>
        <time>2023-06-13T12:36:57.335Z</time>
      </trkpt>
      <trkpt lat="48.2592006213963" lon="17.06839489750564">
        <ele>331.63</ele>
        <time>2023-06-13T12:37:04.284Z</time>
      </trkpt>
      <trkpt lat="48.2593993563205" lon="17.06810220144689">
        <ele>331.17</ele>
        <time>2023-06-13T12:37:11.238Z</time>
      </trkpt>
      <trkpt lat="48.2595980912447" lon="17.06780950538814">
        <ele>330.72</ele>
        <time>2023-06-13T12:37:18.198Z</time>
      </trkpt>
      <trkpt lat="48.259795904159546" lon="17.06751823425293">
        <ele>330.13</ele>
        <time>2023-06-13T12:37:25.163Z</time>
      </trkpt>
      <trkpt lat="48.25993009842932" lon="17.067378591746092">
        <ele>329.63</ele>
        <time>2023-06-13T12:37:32.132Z</time>
      </trkpt>
      <trkpt lat="48.260064125061035" lon="17.06723928451538">
        <ele>329.07</ele>
        <time>2023-06-13T12:37:39.104Z</time>
      </trkpt>
      <trkpt lat="48.260327065363526" lon="17.066992353647947">
        <ele>328.58</ele>
        <time>2023-06-13T12:37:46.082Z</time>
      </trkpt>
      <trkpt lat="48.260589838027954" lon="17.06674575805664">
        <ele>328.06</ele>
        <time>2023-06-13T12:37:53.066Z</time>
      </trkpt>
      <trkpt lat="48.26072948053479" lon="17.066557751968503">
        <ele>327.51</ele>
        <time>2023-06-13T12:38:00.054Z</time>
      </trkpt>
      <trkpt lat="48.260868871584535" lon="17.066370248794556">
        <ele>326.91</ele>
        <time>2023-06-13T12:38:07.046Z</time>
      </trkpt>
      <trkpt lat="48.2608687877655" lon="17.066370248794556">
        <ele>326.5</ele>
        <time>2023-06-13T12:38:14.038Z</time>
      </trkpt>
      <trkpt lat="48.26101899147034" lon="17.066155672073364">
        <ele>325.86</ele>
        <time>2023-06-13T12:38:21.034Z</time>
      </trkpt>
      <trkpt lat="48.26124438084662" lon="17.065944531932473">
        <ele>325.34</ele>
        <time>2023-06-13T12:38:28.035Z</time>
      </trkpt>
      <trkpt lat="48.261469854041934" lon="17.065733391791582">
        <ele>325.08</ele>
        <time>2023-06-13T12:38:35.042Z</time>
      </trkpt>
      <trkpt lat="48.26169490814209" lon="17.06552267074585">
        <ele>325.01</ele>
        <time>2023-06-13T12:38:42.054Z</time>
      </trkpt>
      <trkpt lat="48.26197394169867" lon="17.065361738204956">
        <ele>324.98</ele>
        <time>2023-06-13T12:38:49.072Z</time>
      </trkpt>
      <trkpt lat="48.26216161251068" lon="17.06525973044336">
        <ele>324.95</ele>
        <time>2023-06-13T12:38:56.094Z</time>
      </trkpt>
      <trkpt lat="48.262349367141724" lon="17.065157890319824">
        <ele>324.96</ele>
        <time>2023-06-13T12:39:03.120Z</time>
      </trkpt>
      <trkpt lat="48.26250493526459" lon="17.065029060468078">
        <ele>325.04</ele>
        <time>2023-06-13T12:39:10.149Z</time>
      </trkpt>
      <trkpt lat="48.26266050338745" lon="17.064900398254395">
        <ele>325.11</ele>
        <time>2023-06-13T12:39:17.182Z</time>
      </trkpt>
      <trkpt lat="48.26292872428894" lon="17.064718008041382">
        <ele>325.28</ele>
        <time>2023-06-13T12:39:24.221Z</time>
      </trkpt>
      <trkpt lat="48.26316475868225" lon="17.064621448516846">
        <ele>325.4</ele>
        <time>2023-06-13T12:39:31.265Z</time>
      </trkpt>
      <trkpt lat="48.26336860656738" lon="17.064567804336548">
        <ele>325.48</ele>
        <time>2023-06-13T12:39:38.313Z</time>
      </trkpt>
      <trkpt lat="48.263561725616455" lon="17.064589262008667">
        <ele>325.53</ele>
        <time>2023-06-13T12:39:45.365Z</time>
      </trkpt>
      <trkpt lat="48.26372265815735" lon="17.064567804336548">
        <ele>325.56</ele>
        <time>2023-06-13T12:39:52.420Z</time>
      </trkpt>
      <trkpt lat="48.263840675354004" lon="17.064460515975952">
        <ele>325.51</ele>
        <time>2023-06-13T12:39:59.478Z</time>
      </trkpt>
      <trkpt lat="48.26395869255066" lon="17.064331769943237">
        <ele>325.46</ele>
        <time>2023-06-13T12:40:06.539Z</time>
      </trkpt>
      <trkpt lat="48.26416254043579" lon="17.06403136253357">
        <ele>325.36</ele>
        <time>2023-06-13T12:40:13.605Z</time>
      </trkpt>
      <trkpt lat="48.26437711715698" lon="17.06389901228249">
        <ele>325.23</ele>
        <time>2023-06-13T12:40:20.676Z</time>
      </trkpt>
      <trkpt lat="48.264591693878174" lon="17.063766662031412">
        <ele>325.06</ele>
        <time>2023-06-13T12:40:27.752Z</time>
      </trkpt>
      <trkpt lat="48.264806270599365" lon="17.063634395599365">
        <ele>324.88</ele>
        <time>2023-06-13T12:40:34.832Z</time>
      </trkpt>
      <trkpt lat="48.2649564743042" lon="17.06349483691156">
        <ele>324.64</ele>
        <time>2023-06-13T12:40:41.916Z</time>
      </trkpt>
      <trkpt lat="48.26510667800903" lon="17.063355445861816">
        <ele>324.31</ele>
        <time>2023-06-13T12:40:49.003Z</time>
      </trkpt>
      <trkpt lat="48.265299797058105" lon="17.0632266998291">
        <ele>323.99</ele>
        <time>2023-06-13T12:40:56.095Z</time>
      </trkpt>
      <trkpt lat="48.265514289960265" lon="17.063146233558655">
        <ele>323.56</ele>
        <time>2023-06-13T12:41:03.191Z</time>
      </trkpt>
      <trkpt lat="48.26572895050049" lon="17.063065767288208">
        <ele>323.09</ele>
        <time>2023-06-13T12:41:10.292Z</time>
      </trkpt>
      <trkpt lat="48.265814781188965" lon="17.06301212310791">
        <ele>322.55</ele>
        <time>2023-06-13T12:41:17.394Z</time>
      </trkpt>
      <trkpt lat="48.26597579754889" lon="17.062829732894897">
        <ele>321.86</ele>
        <time>2023-06-13T12:41:24.500Z</time>
      </trkpt>
      <trkpt lat="48.26617956161499" lon="17.062711715698242">
        <ele>321.07</ele>
        <time>2023-06-13T12:41:31.611Z</time>
      </trkpt>
      <trkpt lat="48.26627620495856" lon="17.062711715698242">
        <ele>320.34</ele>
        <time>2023-06-13T12:41:38.724Z</time>
      </trkpt>
      <trkpt lat="48.266340494155884" lon="17.062711715698242">
        <ele>319.59</ele>
        <time>2023-06-13T12:41:45.838Z</time>
      </trkpt>
      <trkpt lat="48.26650142669678" lon="17.0627760887146">
        <ele>318.78</ele>
        <time>2023-06-13T12:41:52.955Z</time>
      </trkpt>
      <trkpt lat="48.26665163040161" lon="17.062883377075195">
        <ele>317.97</ele>
        <time>2023-06-13T12:42:00.076Z</time>
      </trkpt>
      <trkpt lat="48.266844833269715" lon="17.062947750091553">
        <ele>317.1</ele>
        <time>2023-06-13T12:42:07.201Z</time>
      </trkpt>
      <trkpt lat="48.267080867663026" lon="17.06297993659973">
        <ele>316.3</ele>
        <time>2023-06-13T12:42:14.330Z</time>
      </trkpt>
      <trkpt lat="48.26735436916351" lon="17.063065683469176">
        <ele>315.51</ele>
        <time>2023-06-13T12:42:21.465Z</time>
      </trkpt>
      <trkpt lat="48.267628038302064" lon="17.063151597976685">
        <ele>314.63</ele>
        <time>2023-06-13T12:42:28.606Z</time>
      </trkpt>
      <trkpt lat="48.26788544654846" lon="17.063194513320923">
        <ele>313.7</ele>
        <time>2023-06-13T12:42:35.752Z</time>
      </trkpt>
      <trkpt lat="48.268041014671326" lon="17.063146233558655">
        <ele>312.9</ele>
        <time>2023-06-13T12:42:42.901Z</time>
      </trkpt>
      <trkpt lat="48.26819666661322" lon="17.063097953796387">
        <ele>312.14</ele>
        <time>2023-06-13T12:42:50.053Z</time>
      </trkpt>
      <trkpt lat="48.268314599990845" lon="17.063065767288208">
        <ele>311.49</ele>
        <time>2023-06-13T12:42:57.208Z</time>
      </trkpt>
      <trkpt lat="48.268534541130066" lon="17.06293157301843">
        <ele>310.98</ele>
        <time>2023-06-13T12:43:04.367Z</time>
      </trkpt>
      <trkpt lat="48.26875448226929" lon="17.06279754638672">
        <ele>310.52</ele>
        <time>2023-06-13T12:43:11.531Z</time>
      </trkpt>
      <trkpt lat="48.269033432006836" lon="17.0627760887146">
        <ele>309.91</ele>
        <time>2023-06-13T12:43:18.701Z</time>
      </trkpt>
      <trkpt lat="48.26920509338379" lon="17.0627224445343">
        <ele>309.33</ele>
        <time>2023-06-13T12:43:25.874Z</time>
      </trkpt>
      <trkpt lat="48.26940894126892" lon="17.06254005432129">
        <ele>308.76</ele>
        <time>2023-06-13T12:43:33.052Z</time>
      </trkpt>
      <trkpt lat="48.26953777112067" lon="17.062368392944336">
        <ele>308.1</ele>
        <time>2023-06-13T12:43:40.233Z</time>
      </trkpt>
      <trkpt lat="48.26965570449829" lon="17.062186002731323">
        <ele>307.4</ele>
        <time>2023-06-13T12:43:47.418Z</time>
      </trkpt>
      <trkpt lat="48.26975226402283" lon="17.06200361251831">
        <ele>306.62</ele>
        <time>2023-06-13T12:43:54.606Z</time>
      </trkpt>
      <trkpt lat="48.2698919903487" lon="17.06164344213903">
        <ele>305.74</ele>
        <time>2023-06-13T12:44:01.799Z</time>
      </trkpt>
      <trkpt lat="48.27003129757941" lon="17.06128478050232">
        <ele>304.76</ele>
        <time>2023-06-13T12:44:08.998Z</time>
      </trkpt>
      <trkpt lat="48.270031213760376" lon="17.06128478050232">
        <ele>303.87</ele>
        <time>2023-06-13T12:44:16.197Z</time>
      </trkpt>
      <trkpt lat="48.27015995979309" lon="17.060855627059937">
        <ele>302.84</ele>
        <time>2023-06-13T12:44:23.402Z</time>
      </trkpt>
      <trkpt lat="48.27030119486153" lon="17.06048548221588">
        <ele>301.72</ele>
        <time>2023-06-13T12:44:30.613Z</time>
      </trkpt>
      <trkpt lat="48.270442513749" lon="17.060115421190858">
        <ele>300.54</ele>
        <time>2023-06-13T12:44:37.830Z</time>
      </trkpt>
      <trkpt lat="48.270583748817444" lon="17.059745276346803">
        <ele>299.12</ele>
        <time>2023-06-13T12:44:45.052Z</time>
      </trkpt>
      <trkpt lat="48.270725067704916" lon="17.05937521532178">
        <ele>297.71</ele>
        <time>2023-06-13T12:44:52.280Z</time>
      </trkpt>
      <trkpt lat="48.27086638659239" lon="17.059005070477724">
        <ele>296.49</ele>
        <time>2023-06-13T12:44:59.514Z</time>
      </trkpt>
      <trkpt lat="48.27100762166083" lon="17.0586350094527">
        <ele>295.31</ele>
        <time>2023-06-13T12:45:06.753Z</time>
      </trkpt>
      <trkpt lat="48.27114701271057" lon="17.05826997756958">
        <ele>294.1</ele>
        <time>2023-06-13T12:45:13.998Z</time>
      </trkpt>
      <trkpt lat="48.27127601020038" lon="17.05790444277227">
        <ele>293.01</ele>
        <time>2023-06-13T12:45:21.249Z</time>
      </trkpt>
      <trkpt lat="48.27140500769019" lon="17.05753890797496">
        <ele>291.67</ele>
        <time>2023-06-13T12:45:28.505Z</time>
      </trkpt>
      <trkpt lat="48.271533250808716" lon="17.057175636291504">
        <ele>290.18</ele>
        <time>2023-06-13T12:45:35.767Z</time>
      </trkpt>
      <trkpt lat="48.271635342389345" lon="17.056966004893184">
        <ele>288.79</ele>
        <time>2023-06-13T12:45:43.032Z</time>
      </trkpt>
      <trkpt lat="48.27173709869385" lon="17.05675721168518">
        <ele>287.43</ele>
        <time>2023-06-13T12:45:50.301Z</time>
      </trkpt>
      <trkpt lat="48.27189811505377" lon="17.05651044845581">
        <ele>286.15</ele>
        <time>2023-06-13T12:45:57.574Z</time>
      </trkpt>
      <trkpt lat="48.27198386192322" lon="17.056381702423096">
        <ele>284.9</ele>
        <time>2023-06-13T12:46:04.850Z</time>
      </trkpt>
      <trkpt lat="48.27206986024976" lon="17.056145165115595">
        <ele>283.82</ele>
        <time>2023-06-13T12:46:12.129Z</time>
      </trkpt>
      <trkpt lat="48.2721556071192" lon="17.055909633636475">
        <ele>282.88</ele>
        <time>2023-06-13T12:46:19.412Z</time>
      </trkpt>
      <trkpt lat="48.27232751995325" lon="17.055528005585074">
        <ele>281.77</ele>
        <time>2023-06-13T12:46:26.701Z</time>
      </trkpt>
      <trkpt lat="48.27249884605408" lon="17.055147886276245">
        <ele>280.91</ele>
        <time>2023-06-13T12:46:33.996Z</time>
      </trkpt>
      <trkpt lat="48.272574031725526" lon="17.054932806640863">
        <ele>280.2</ele>
        <time>2023-06-13T12:46:41.294Z</time>
      </trkpt>
      <trkpt lat="48.27264904975891" lon="17.054718732833862">
        <ele>279.56</ele>
        <time>2023-06-13T12:46:48.595Z</time>
      </trkpt>
      <trkpt lat="48.27274041250348" lon="17.05435847863555">
        <ele>278.95</ele>
        <time>2023-06-13T12:46:55.902Z</time>
      </trkpt>
      <trkpt lat="48.272831439971924" lon="17.05399990081787">
        <ele>278.25</ele>
        <time>2023-06-13T12:47:03.214Z</time>
      </trkpt>
      <trkpt lat="48.27294954098761" lon="17.053624391555786">
        <ele>277.48</ele>
        <time>2023-06-13T12:47:10.531Z</time>
      </trkpt>
      <trkpt lat="48.27301391400397" lon="17.053399085998535">
        <ele>276.67</ele>
        <time>2023-06-13T12:47:17.852Z</time>
      </trkpt>
      <trkpt lat="48.273078203201294" lon="17.053098678588867">
        <ele>275.83</ele>
        <time>2023-06-13T12:47:25.177Z</time>
      </trkpt>
      <trkpt lat="48.27310502529144" lon="17.05264144577086">
        <ele>274.97</ele>
        <time>2023-06-13T12:47:32.508Z</time>
      </trkpt>
      <trkpt lat="48.27313184738159" lon="17.052186727523804">
        <ele>274.12</ele>
        <time>2023-06-13T12:47:39.845Z</time>
      </trkpt>
      <trkpt lat="48.27318549156189" lon="17.05199360847473">
        <ele>273.39</ele>
        <time>2023-06-13T12:47:47.185Z</time>
      </trkpt>
      <trkpt lat="48.27326059341431" lon="17.051843404769897">
        <ele>272.75</ele>
        <time>2023-06-13T12:47:54.527Z</time>
      </trkpt>
      <trkpt lat="48.273265957832336" lon="17.051606699824333">
        <ele>271.95</ele>
        <time>2023-06-13T12:48:01.873Z</time>
      </trkpt>
      <trkpt lat="48.273271322250366" lon="17.051371335983276">
        <ele>271.34</ele>
        <time>2023-06-13T12:48:09.222Z</time>
      </trkpt>
      <trkpt lat="48.273292779922485" lon="17.05102801322937">
        <ele>270.89</ele>
        <time>2023-06-13T12:48:16.575Z</time>
      </trkpt>
      <trkpt lat="48.273324966430664" lon="17.051221132278442">
        <ele>270.82</ele>
        <time>2023-06-13T12:48:23.931Z</time>
      </trkpt>
      <trkpt lat="48.273353297263384" lon="17.05128307454288">
        <ele>270.69</ele>
        <time>2023-06-13T12:48:31.288Z</time>
      </trkpt>
      <trkpt lat="48.27364498749375" lon="17.051460100337863">
        <ele>272.24</ele>
        <time>2023-06-13T12:48:38.651Z</time>
      </trkpt>
      <trkpt lat="48.27393667772412" lon="17.051637126132846">
        <ele>272.26</ele>
        <time>2023-06-13T12:48:46.021Z</time>
      </trkpt>
      <trkpt lat="48.27408201992512" lon="17.051725387573242">
        <ele>272.03</ele>
        <time>2023-06-13T12:48:53.394Z</time>
      </trkpt>
      <trkpt lat="48.27432534657419" lon="17.05142623744905">
        <ele>267.03</ele>
        <time>2023-06-13T12:49:00.773Z</time>
      </trkpt>
      <trkpt lat="48.27456867322326" lon="17.051127087324858">
        <ele>264.02</ele>
        <time>2023-06-13T12:49:08.158Z</time>
      </trkpt>
      <trkpt lat="48.27481199987233" lon="17.050828021019697">
        <ele>261.28</ele>
        <time>2023-06-13T12:49:15.550Z</time>
      </trkpt>
      <trkpt lat="48.2750553265214" lon="17.050528870895505">
        <ele>258.83</ele>
        <time>2023-06-13T12:49:22.948Z</time>
      </trkpt>
      <trkpt lat="48.275298653170466" lon="17.050229720771313">
        <ele>257.1</ele>
        <time>2023-06-13T12:49:30.352Z</time>
      </trkpt>
      <trkpt lat="48.27533880248666" lon="17.050180351361632">
        <ele>256.15</ele>
        <time>2023-06-13T12:49:37.757Z</time>
      </trkpt>
      <trkpt lat="48.27557751908898" lon="17.049872986972332">
        <ele>255.13</ele>
        <time>2023-06-13T12:49:45.168Z</time>
      </trkpt>
      <trkpt lat="48.27581615187228" lon="17.04956562258303">
        <ele>254.31</ele>
        <time>2023-06-13T12:49:52.586Z</time>
      </trkpt>
      <trkpt lat="48.27593861147761" lon="17.049407875165343">
        <ele>253.44</ele>
        <time>2023-06-13T12:50:00.007Z</time>
      </trkpt>
      <trkpt lat="48.27621169388294" lon="17.049642400816083">
        <ele>243.33</ele>
        <time>2023-06-13T12:50:07.434Z</time>
      </trkpt>
      <trkpt lat="48.27648477628827" lon="17.04987684264779">
        <ele>236.88</ele>
        <time>2023-06-13T12:50:14.868Z</time>
      </trkpt>
      <trkpt lat="48.2767578586936" lon="17.05011136829853">
        <ele>229.84</ele>
        <time>2023-06-13T12:50:22.308Z</time>
      </trkpt>
      <trkpt lat="48.27703094109893" lon="17.05034581013024">
        <ele>222.9</ele>
        <time>2023-06-13T12:50:29.754Z</time>
      </trkpt>
      <trkpt lat="48.27730402350426" lon="17.050580335780978">
        <ele>217.22</ele>
        <time>2023-06-13T12:50:37.207Z</time>
      </trkpt>
      <trkpt lat="48.277438133955" lon="17.050695419311523">
        <ele>213.41</ele>
        <time>2023-06-13T12:50:44.663Z</time>
      </trkpt>
      <trkpt lat="48.277752539142966" lon="17.050715954974294">
        <ele>204.44</ele>
        <time>2023-06-13T12:50:52.125Z</time>
      </trkpt>
      <trkpt lat="48.27806702814996" lon="17.050736490637064">
        <ele>202.74</ele>
        <time>2023-06-13T12:50:59.593Z</time>
      </trkpt>
      <trkpt lat="48.27838151715696" lon="17.050757026299834">
        <ele>201.71</ele>
        <time>2023-06-13T12:51:07.068Z</time>
      </trkpt>
      <trkpt lat="48.278423426672816" lon="17.05075979232788">
        <ele>200.83</ele>
        <time>2023-06-13T12:51:14.543Z</time>
      </trkpt>
      <trkpt lat="48.27873690985143" lon="17.050802540034056">
        <ele>199.55</ele>
        <time>2023-06-13T12:51:22.025Z</time>
      </trkpt>
      <trkpt lat="48.27889465726912" lon="17.05082416534424">
        <ele>198.86</ele>
        <time>2023-06-13T12:51:29.510Z</time>
      </trkpt>
      <trkpt lat="48.27908031642437" lon="17.05054521560669">
        <ele>197.93</ele>
        <time>2023-06-13T12:51:37.000Z</time>
      </trkpt>
      <trkpt lat="48.27897671610117" lon="17.050099885091186">
        <ele>197.91</ele>
        <time>2023-06-13T12:51:44.496Z</time>
      </trkpt>
      <trkpt lat="48.27887311577797" lon="17.049654638394713">
        <ele>197.48</ele>
        <time>2023-06-13T12:51:51.999Z</time>
      </trkpt>
      <trkpt lat="48.2787695992738" lon="17.04920930787921">
        <ele>196.69</ele>
        <time>2023-06-13T12:51:59.508Z</time>
      </trkpt>
      <trkpt lat="48.2786659989506" lon="17.048764061182737">
        <ele>195.93</ele>
        <time>2023-06-13T12:52:07.023Z</time>
      </trkpt>
      <trkpt lat="48.27859994955361" lon="17.048479998484254">
        <ele>195.3</ele>
        <time>2023-06-13T12:52:14.542Z</time>
      </trkpt>
    </trkseg>
  </trk>
</gpx>
